<?xml version="1.0" encoding="UTF-8" standalone="no" ?>
<gpx xmlns="http://www.topografix.com/GPX/1/1" xmlns:xsi="http://www.w3.org/2001/XMLSchema-instance" xsi:schemaLocation="http://www.topografix.com/GPX/1/1 http://www.topografix.com/GPX/1/1/gpx.xsd" version="1.1" creator="VisuGPX - https://www.visugpx.com">
  <metadata>
    <name>MB. Sortie du 14/11/2019</name>
    <desc><![CDATA[Sortie VTT du jeudi 14 novembre 2019]]></desc>
  </metadata>
  <trk>
    <name><![CDATA[Pornichet Cyclisme]]></name>
    <trkseg>
      <trkpt lat="47.26393" lon="-2.31544">
        <ele>126.59999847412</ele>
        <time>2019-11-14T08:29:45.000Z</time>
      </trkpt>
      <trkpt lat="47.26394" lon="-2.31565">
        <ele>126.40000152588</ele>
        <time>2019-11-14T08:29:49.000Z</time>
      </trkpt>
      <trkpt lat="47.26394" lon="-2.31576">
        <ele>126.40000152588</ele>
        <time>2019-11-14T08:29:51.000Z</time>
      </trkpt>
      <trkpt lat="47.26402" lon="-2.31627">
        <ele>126.40000152588</ele>
        <time>2019-11-14T08:29:59.000Z</time>
      </trkpt>
      <trkpt lat="47.26403" lon="-2.31633">
        <ele>126.40000152588</ele>
        <time>2019-11-14T08:30:00.000Z</time>
      </trkpt>
      <trkpt lat="47.26401" lon="-2.3164">
        <ele>126.40000152588</ele>
        <time>2019-11-14T08:30:02.000Z</time>
      </trkpt>
      <trkpt lat="47.26387" lon="-2.31648">
        <ele>126.40000152588</ele>
        <time>2019-11-14T08:30:06.000Z</time>
      </trkpt>
      <trkpt lat="47.26375" lon="-2.31655">
        <ele>126.40000152588</ele>
        <time>2019-11-14T08:30:09.000Z</time>
      </trkpt>
      <trkpt lat="47.26362" lon="-2.31663">
        <ele>126.40000152588</ele>
        <time>2019-11-14T08:30:12.000Z</time>
      </trkpt>
      <trkpt lat="47.26349" lon="-2.3167">
        <ele>126</ele>
        <time>2019-11-14T08:30:15.000Z</time>
      </trkpt>
      <trkpt lat="47.26345" lon="-2.31673">
        <ele>125.59999847412</ele>
        <time>2019-11-14T08:30:16.000Z</time>
      </trkpt>
      <trkpt lat="47.2634" lon="-2.31675">
        <ele>125.19999694824</ele>
        <time>2019-11-14T08:30:17.000Z</time>
      </trkpt>
      <trkpt lat="47.26335" lon="-2.31677">
        <ele>124.80000305176</ele>
        <time>2019-11-14T08:30:18.000Z</time>
      </trkpt>
      <trkpt lat="47.2633" lon="-2.3168">
        <ele>124.40000152588</ele>
        <time>2019-11-14T08:30:19.000Z</time>
      </trkpt>
      <trkpt lat="47.26311" lon="-2.3169">
        <ele>124.40000152588</ele>
        <time>2019-11-14T08:30:23.000Z</time>
      </trkpt>
      <trkpt lat="47.26308" lon="-2.3169">
        <ele>124.40000152588</ele>
        <time>2019-11-14T08:30:24.000Z</time>
      </trkpt>
      <trkpt lat="47.26305" lon="-2.31688">
        <ele>123.80000305176</ele>
        <time>2019-11-14T08:30:25.000Z</time>
      </trkpt>
      <trkpt lat="47.26302" lon="-2.31686">
        <ele>123.19999694824</ele>
        <time>2019-11-14T08:30:26.000Z</time>
      </trkpt>
      <trkpt lat="47.26299" lon="-2.31683">
        <ele>122.80000305176</ele>
        <time>2019-11-14T08:30:27.000Z</time>
      </trkpt>
      <trkpt lat="47.26297" lon="-2.31679">
        <ele>122.19999694824</ele>
        <time>2019-11-14T08:30:28.000Z</time>
      </trkpt>
      <trkpt lat="47.26294" lon="-2.31675">
        <ele>121.80000305176</ele>
        <time>2019-11-14T08:30:29.000Z</time>
      </trkpt>
      <trkpt lat="47.26292" lon="-2.31671">
        <ele>121.80000305176</ele>
        <time>2019-11-14T08:30:30.000Z</time>
      </trkpt>
      <trkpt lat="47.26286" lon="-2.31655">
        <ele>121.80000305176</ele>
        <time>2019-11-14T08:30:33.000Z</time>
      </trkpt>
      <trkpt lat="47.26277" lon="-2.31636">
        <ele>121.80000305176</ele>
        <time>2019-11-14T08:30:37.000Z</time>
      </trkpt>
      <trkpt lat="47.26261" lon="-2.31605">
        <ele>121.80000305176</ele>
        <time>2019-11-14T08:30:44.000Z</time>
      </trkpt>
      <trkpt lat="47.26251" lon="-2.3159">
        <ele>121.80000305176</ele>
        <time>2019-11-14T08:30:47.000Z</time>
      </trkpt>
      <trkpt lat="47.26241" lon="-2.31579">
        <ele>121.80000305176</ele>
        <time>2019-11-14T08:30:50.000Z</time>
      </trkpt>
      <trkpt lat="47.26221" lon="-2.31568">
        <ele>121.80000305176</ele>
        <time>2019-11-14T08:30:55.000Z</time>
      </trkpt>
      <trkpt lat="47.26216" lon="-2.31568">
        <ele>121.80000305176</ele>
        <time>2019-11-14T08:30:56.000Z</time>
      </trkpt>
      <trkpt lat="47.26212" lon="-2.31568">
        <ele>121.80000305176</ele>
        <time>2019-11-14T08:30:57.000Z</time>
      </trkpt>
      <trkpt lat="47.26203" lon="-2.31571">
        <ele>121.80000305176</ele>
        <time>2019-11-14T08:30:59.000Z</time>
      </trkpt>
      <trkpt lat="47.26194" lon="-2.31574">
        <ele>121.80000305176</ele>
        <time>2019-11-14T08:31:01.000Z</time>
      </trkpt>
      <trkpt lat="47.26163" lon="-2.31584">
        <ele>121.80000305176</ele>
        <time>2019-11-14T08:31:08.000Z</time>
      </trkpt>
      <trkpt lat="47.26144" lon="-2.31586">
        <ele>121.80000305176</ele>
        <time>2019-11-14T08:31:12.000Z</time>
      </trkpt>
      <trkpt lat="47.26126" lon="-2.31588">
        <ele>121.80000305176</ele>
        <time>2019-11-14T08:31:16.000Z</time>
      </trkpt>
      <trkpt lat="47.26118" lon="-2.31586">
        <ele>121.80000305176</ele>
        <time>2019-11-14T08:31:18.000Z</time>
      </trkpt>
      <trkpt lat="47.26114" lon="-2.31584">
        <ele>121.80000305176</ele>
        <time>2019-11-14T08:31:19.000Z</time>
      </trkpt>
      <trkpt lat="47.26098" lon="-2.31565">
        <ele>121.80000305176</ele>
        <time>2019-11-14T08:31:24.000Z</time>
      </trkpt>
      <trkpt lat="47.26094" lon="-2.31558">
        <ele>121.80000305176</ele>
        <time>2019-11-14T08:31:26.000Z</time>
      </trkpt>
      <trkpt lat="47.2609" lon="-2.31558">
        <ele>121.80000305176</ele>
        <time>2019-11-14T08:31:27.000Z</time>
      </trkpt>
      <trkpt lat="47.26079" lon="-2.31571">
        <ele>121.80000305176</ele>
        <time>2019-11-14T08:31:31.000Z</time>
      </trkpt>
      <trkpt lat="47.26063" lon="-2.31592">
        <ele>121.80000305176</ele>
        <time>2019-11-14T08:31:36.000Z</time>
      </trkpt>
      <trkpt lat="47.26059" lon="-2.31596">
        <ele>121.80000305176</ele>
        <time>2019-11-14T08:31:37.000Z</time>
      </trkpt>
      <trkpt lat="47.26033" lon="-2.31625">
        <ele>121.80000305176</ele>
        <time>2019-11-14T08:31:44.000Z</time>
      </trkpt>
      <trkpt lat="47.26008" lon="-2.31642">
        <ele>121.80000305176</ele>
        <time>2019-11-14T08:31:50.000Z</time>
      </trkpt>
      <trkpt lat="47.25991" lon="-2.3165">
        <ele>121.80000305176</ele>
        <time>2019-11-14T08:31:54.000Z</time>
      </trkpt>
      <trkpt lat="47.25984" lon="-2.31656">
        <ele>122.19999694824</ele>
        <time>2019-11-14T08:31:56.000Z</time>
      </trkpt>
      <trkpt lat="47.2598" lon="-2.31659">
        <ele>122.59999847412</ele>
        <time>2019-11-14T08:31:57.000Z</time>
      </trkpt>
      <trkpt lat="47.25976" lon="-2.31662">
        <ele>123</ele>
        <time>2019-11-14T08:31:58.000Z</time>
      </trkpt>
      <trkpt lat="47.25972" lon="-2.31664">
        <ele>123.40000152588</ele>
        <time>2019-11-14T08:31:59.000Z</time>
      </trkpt>
      <trkpt lat="47.25968" lon="-2.31667">
        <ele>123.80000305176</ele>
        <time>2019-11-14T08:32:00.000Z</time>
      </trkpt>
      <trkpt lat="47.25961" lon="-2.31675">
        <ele>123.80000305176</ele>
        <time>2019-11-14T08:32:02.000Z</time>
      </trkpt>
      <trkpt lat="47.25957" lon="-2.31679">
        <ele>123.80000305176</ele>
        <time>2019-11-14T08:32:03.000Z</time>
      </trkpt>
      <trkpt lat="47.25936" lon="-2.31715">
        <ele>123.80000305176</ele>
        <time>2019-11-14T08:32:09.000Z</time>
      </trkpt>
      <trkpt lat="47.25914" lon="-2.31765">
        <ele>123.80000305176</ele>
        <time>2019-11-14T08:32:16.000Z</time>
      </trkpt>
      <trkpt lat="47.25905" lon="-2.31786">
        <ele>123.80000305176</ele>
        <time>2019-11-14T08:32:19.000Z</time>
      </trkpt>
      <trkpt lat="47.25893" lon="-2.31811">
        <ele>123.80000305176</ele>
        <time>2019-11-14T08:32:23.000Z</time>
      </trkpt>
      <trkpt lat="47.25869" lon="-2.31851">
        <ele>123.80000305176</ele>
        <time>2019-11-14T08:32:30.000Z</time>
      </trkpt>
      <trkpt lat="47.25857" lon="-2.31865">
        <ele>123.80000305176</ele>
        <time>2019-11-14T08:32:33.000Z</time>
      </trkpt>
      <trkpt lat="47.2584" lon="-2.31881">
        <ele>123.80000305176</ele>
        <time>2019-11-14T08:32:37.000Z</time>
      </trkpt>
      <trkpt lat="47.25808" lon="-2.31907">
        <ele>123.80000305176</ele>
        <time>2019-11-14T08:32:45.000Z</time>
      </trkpt>
      <trkpt lat="47.25781" lon="-2.31932">
        <ele>124.19999694824</ele>
        <time>2019-11-14T08:32:53.000Z</time>
      </trkpt>
      <trkpt lat="47.25778" lon="-2.31935">
        <ele>124.59999847412</ele>
        <time>2019-11-14T08:32:54.000Z</time>
      </trkpt>
      <trkpt lat="47.25775" lon="-2.31939">
        <ele>125.19999694824</ele>
        <time>2019-11-14T08:32:55.000Z</time>
      </trkpt>
      <trkpt lat="47.25771" lon="-2.31941">
        <ele>125.59999847412</ele>
        <time>2019-11-14T08:32:56.000Z</time>
      </trkpt>
      <trkpt lat="47.25768" lon="-2.31944">
        <ele>126</ele>
        <time>2019-11-14T08:32:57.000Z</time>
      </trkpt>
      <trkpt lat="47.25754" lon="-2.31955">
        <ele>126</ele>
        <time>2019-11-14T08:33:01.000Z</time>
      </trkpt>
      <trkpt lat="47.25728" lon="-2.31973">
        <ele>126</ele>
        <time>2019-11-14T08:33:08.000Z</time>
      </trkpt>
      <trkpt lat="47.25724" lon="-2.31976">
        <ele>126.40000152588</ele>
        <time>2019-11-14T08:33:09.000Z</time>
      </trkpt>
      <trkpt lat="47.25721" lon="-2.31978">
        <ele>126.80000305176</ele>
        <time>2019-11-14T08:33:10.000Z</time>
      </trkpt>
      <trkpt lat="47.25717" lon="-2.3198">
        <ele>127.19999694824</ele>
        <time>2019-11-14T08:33:11.000Z</time>
      </trkpt>
      <trkpt lat="47.25714" lon="-2.31982">
        <ele>127.59999847412</ele>
        <time>2019-11-14T08:33:12.000Z</time>
      </trkpt>
      <trkpt lat="47.25711" lon="-2.31985">
        <ele>128</ele>
        <time>2019-11-14T08:33:13.000Z</time>
      </trkpt>
      <trkpt lat="47.25702" lon="-2.31991">
        <ele>128</ele>
        <time>2019-11-14T08:33:16.000Z</time>
      </trkpt>
      <trkpt lat="47.25698" lon="-2.31992">
        <ele>128</ele>
        <time>2019-11-14T08:33:18.000Z</time>
      </trkpt>
      <trkpt lat="47.25696" lon="-2.31991">
        <ele>128</ele>
        <time>2019-11-14T08:33:20.000Z</time>
      </trkpt>
      <trkpt lat="47.25695" lon="-2.31989">
        <ele>128.39999389648</ele>
        <time>2019-11-14T08:33:21.000Z</time>
      </trkpt>
      <trkpt lat="47.25693" lon="-2.31988">
        <ele>128.80000305176</ele>
        <time>2019-11-14T08:33:22.000Z</time>
      </trkpt>
      <trkpt lat="47.25691" lon="-2.31989">
        <ele>129.19999694824</ele>
        <time>2019-11-14T08:33:23.000Z</time>
      </trkpt>
      <trkpt lat="47.25689" lon="-2.31991">
        <ele>129.60000610352</ele>
        <time>2019-11-14T08:33:24.000Z</time>
      </trkpt>
      <trkpt lat="47.25686" lon="-2.31993">
        <ele>130</ele>
        <time>2019-11-14T08:33:25.000Z</time>
      </trkpt>
      <trkpt lat="47.25677" lon="-2.32008">
        <ele>130</ele>
        <time>2019-11-14T08:33:29.000Z</time>
      </trkpt>
      <trkpt lat="47.25669" lon="-2.32026">
        <ele>130</ele>
        <time>2019-11-14T08:33:33.000Z</time>
      </trkpt>
      <trkpt lat="47.25652" lon="-2.32045">
        <ele>130</ele>
        <time>2019-11-14T08:33:39.000Z</time>
      </trkpt>
      <trkpt lat="47.25636" lon="-2.32061">
        <ele>130.39999389648</ele>
        <time>2019-11-14T08:33:44.000Z</time>
      </trkpt>
      <trkpt lat="47.25633" lon="-2.32064">
        <ele>130.80000305176</ele>
        <time>2019-11-14T08:33:45.000Z</time>
      </trkpt>
      <trkpt lat="47.2563" lon="-2.32067">
        <ele>131.19999694824</ele>
        <time>2019-11-14T08:33:46.000Z</time>
      </trkpt>
      <trkpt lat="47.25626" lon="-2.3207">
        <ele>131.60000610352</ele>
        <time>2019-11-14T08:33:47.000Z</time>
      </trkpt>
      <trkpt lat="47.25623" lon="-2.32073">
        <ele>132</ele>
        <time>2019-11-14T08:33:48.000Z</time>
      </trkpt>
      <trkpt lat="47.25606" lon="-2.32079">
        <ele>132</ele>
        <time>2019-11-14T08:33:53.000Z</time>
      </trkpt>
      <trkpt lat="47.25594" lon="-2.32067">
        <ele>132</ele>
        <time>2019-11-14T08:33:57.000Z</time>
      </trkpt>
      <trkpt lat="47.25581" lon="-2.3206">
        <ele>132</ele>
        <time>2019-11-14T08:34:02.000Z</time>
      </trkpt>
      <trkpt lat="47.25577" lon="-2.32058">
        <ele>132</ele>
        <time>2019-11-14T08:34:04.000Z</time>
      </trkpt>
      <trkpt lat="47.25573" lon="-2.32054">
        <ele>132</ele>
        <time>2019-11-14T08:34:06.000Z</time>
      </trkpt>
      <trkpt lat="47.25563" lon="-2.32049">
        <ele>132</ele>
        <time>2019-11-14T08:34:11.000Z</time>
      </trkpt>
      <trkpt lat="47.25558" lon="-2.32052">
        <ele>132</ele>
        <time>2019-11-14T08:34:15.000Z</time>
      </trkpt>
      <trkpt lat="47.25558" lon="-2.32052">
        <ele>132</ele>
        <time>2019-11-14T08:34:16.000Z</time>
      </trkpt>
      <trkpt lat="47.25565" lon="-2.32053">
        <ele>134</ele>
        <time>2019-11-14T08:37:15.000Z</time>
      </trkpt>
      <trkpt lat="47.25569" lon="-2.32051">
        <ele>134</ele>
        <time>2019-11-14T08:37:17.000Z</time>
      </trkpt>
      <trkpt lat="47.25572" lon="-2.32052">
        <ele>134</ele>
        <time>2019-11-14T08:37:18.000Z</time>
      </trkpt>
      <trkpt lat="47.25576" lon="-2.3206">
        <ele>134</ele>
        <time>2019-11-14T08:37:21.000Z</time>
      </trkpt>
      <trkpt lat="47.25583" lon="-2.32063">
        <ele>134</ele>
        <time>2019-11-14T08:37:25.000Z</time>
      </trkpt>
      <trkpt lat="47.25591" lon="-2.32069">
        <ele>134</ele>
        <time>2019-11-14T08:37:29.000Z</time>
      </trkpt>
      <trkpt lat="47.25599" lon="-2.32073">
        <ele>134</ele>
        <time>2019-11-14T08:37:34.000Z</time>
      </trkpt>
      <trkpt lat="47.25608" lon="-2.32083">
        <ele>134</ele>
        <time>2019-11-14T08:37:39.000Z</time>
      </trkpt>
      <trkpt lat="47.25614" lon="-2.32089">
        <ele>134</ele>
        <time>2019-11-14T08:37:45.000Z</time>
      </trkpt>
      <trkpt lat="47.25615" lon="-2.321">
        <ele>134</ele>
        <time>2019-11-14T08:37:50.000Z</time>
      </trkpt>
      <trkpt lat="47.25616" lon="-2.32104">
        <ele>134</ele>
        <time>2019-11-14T08:37:52.000Z</time>
      </trkpt>
      <trkpt lat="47.25618" lon="-2.32112">
        <ele>134</ele>
        <time>2019-11-14T08:37:55.000Z</time>
      </trkpt>
      <trkpt lat="47.25624" lon="-2.32131">
        <ele>134</ele>
        <time>2019-11-14T08:38:01.000Z</time>
      </trkpt>
      <trkpt lat="47.25633" lon="-2.32158">
        <ele>134</ele>
        <time>2019-11-14T08:38:08.000Z</time>
      </trkpt>
      <trkpt lat="47.25641" lon="-2.32184">
        <ele>134</ele>
        <time>2019-11-14T08:38:16.000Z</time>
      </trkpt>
      <trkpt lat="47.25647" lon="-2.32212">
        <ele>134</ele>
        <time>2019-11-14T08:38:22.000Z</time>
      </trkpt>
      <trkpt lat="47.2565" lon="-2.32244">
        <ele>134</ele>
        <time>2019-11-14T08:38:27.000Z</time>
      </trkpt>
      <trkpt lat="47.25653" lon="-2.3229">
        <ele>134</ele>
        <time>2019-11-14T08:38:32.000Z</time>
      </trkpt>
      <trkpt lat="47.25656" lon="-2.32334">
        <ele>133.60000610352</ele>
        <time>2019-11-14T08:38:36.000Z</time>
      </trkpt>
      <trkpt lat="47.25656" lon="-2.32345">
        <ele>133</ele>
        <time>2019-11-14T08:38:37.000Z</time>
      </trkpt>
      <trkpt lat="47.25657" lon="-2.32356">
        <ele>132.60000610352</ele>
        <time>2019-11-14T08:38:38.000Z</time>
      </trkpt>
      <trkpt lat="47.25658" lon="-2.32368">
        <ele>132</ele>
        <time>2019-11-14T08:38:39.000Z</time>
      </trkpt>
      <trkpt lat="47.25658" lon="-2.32378">
        <ele>131.60000610352</ele>
        <time>2019-11-14T08:38:40.000Z</time>
      </trkpt>
      <trkpt lat="47.25658" lon="-2.32387">
        <ele>131</ele>
        <time>2019-11-14T08:38:41.000Z</time>
      </trkpt>
      <trkpt lat="47.25659" lon="-2.32395">
        <ele>130.60000610352</ele>
        <time>2019-11-14T08:38:42.000Z</time>
      </trkpt>
      <trkpt lat="47.25662" lon="-2.32403">
        <ele>130</ele>
        <time>2019-11-14T08:38:43.000Z</time>
      </trkpt>
      <trkpt lat="47.25665" lon="-2.32409">
        <ele>129.39999389648</ele>
        <time>2019-11-14T08:38:44.000Z</time>
      </trkpt>
      <trkpt lat="47.25668" lon="-2.32415">
        <ele>129</ele>
        <time>2019-11-14T08:38:45.000Z</time>
      </trkpt>
      <trkpt lat="47.25672" lon="-2.3242">
        <ele>128.39999389648</ele>
        <time>2019-11-14T08:38:46.000Z</time>
      </trkpt>
      <trkpt lat="47.25677" lon="-2.32424">
        <ele>127.80000305176</ele>
        <time>2019-11-14T08:38:47.000Z</time>
      </trkpt>
      <trkpt lat="47.25683" lon="-2.32426">
        <ele>127.40000152588</ele>
        <time>2019-11-14T08:38:48.000Z</time>
      </trkpt>
      <trkpt lat="47.25694" lon="-2.32427">
        <ele>127.40000152588</ele>
        <time>2019-11-14T08:38:50.000Z</time>
      </trkpt>
      <trkpt lat="47.25711" lon="-2.32428">
        <ele>127.40000152588</ele>
        <time>2019-11-14T08:38:53.000Z</time>
      </trkpt>
      <trkpt lat="47.25744" lon="-2.32428">
        <ele>127.40000152588</ele>
        <time>2019-11-14T08:38:59.000Z</time>
      </trkpt>
      <trkpt lat="47.25765" lon="-2.32422">
        <ele>127.40000152588</ele>
        <time>2019-11-14T08:39:03.000Z</time>
      </trkpt>
      <trkpt lat="47.25769" lon="-2.32419">
        <ele>127.40000152588</ele>
        <time>2019-11-14T08:39:04.000Z</time>
      </trkpt>
      <trkpt lat="47.25781" lon="-2.32419">
        <ele>127.40000152588</ele>
        <time>2019-11-14T08:39:07.000Z</time>
      </trkpt>
      <trkpt lat="47.25784" lon="-2.32422">
        <ele>127.40000152588</ele>
        <time>2019-11-14T08:39:08.000Z</time>
      </trkpt>
      <trkpt lat="47.25795" lon="-2.32444">
        <ele>127.40000152588</ele>
        <time>2019-11-14T08:39:12.000Z</time>
      </trkpt>
      <trkpt lat="47.25806" lon="-2.32458">
        <ele>127.40000152588</ele>
        <time>2019-11-14T08:39:16.000Z</time>
      </trkpt>
      <trkpt lat="47.2581" lon="-2.32474">
        <ele>127.40000152588</ele>
        <time>2019-11-14T08:39:20.000Z</time>
      </trkpt>
      <trkpt lat="47.25817" lon="-2.32482">
        <ele>127.40000152588</ele>
        <time>2019-11-14T08:39:23.000Z</time>
      </trkpt>
      <trkpt lat="47.25823" lon="-2.32491">
        <ele>127.40000152588</ele>
        <time>2019-11-14T08:39:26.000Z</time>
      </trkpt>
      <trkpt lat="47.25831" lon="-2.32501">
        <ele>127.40000152588</ele>
        <time>2019-11-14T08:39:30.000Z</time>
      </trkpt>
      <trkpt lat="47.25832" lon="-2.32503">
        <ele>127.40000152588</ele>
        <time>2019-11-14T08:39:31.000Z</time>
      </trkpt>
      <trkpt lat="47.25838" lon="-2.32511">
        <ele>127.40000152588</ele>
        <time>2019-11-14T08:39:35.000Z</time>
      </trkpt>
      <trkpt lat="47.25838" lon="-2.32513">
        <ele>127.40000152588</ele>
        <time>2019-11-14T08:39:36.000Z</time>
      </trkpt>
      <trkpt lat="47.25834" lon="-2.32511">
        <ele>127.40000152588</ele>
        <time>2019-11-14T08:39:40.000Z</time>
      </trkpt>
      <trkpt lat="47.25823" lon="-2.32498">
        <ele>127.40000152588</ele>
        <time>2019-11-14T08:39:47.000Z</time>
      </trkpt>
      <trkpt lat="47.25819" lon="-2.32491">
        <ele>127.40000152588</ele>
        <time>2019-11-14T08:39:51.000Z</time>
      </trkpt>
      <trkpt lat="47.25818" lon="-2.32489">
        <ele>127.40000152588</ele>
        <time>2019-11-14T08:39:57.000Z</time>
      </trkpt>
      <trkpt lat="47.25818" lon="-2.32489">
        <ele>127.40000152588</ele>
        <time>2019-11-14T08:39:58.000Z</time>
      </trkpt>
      <trkpt lat="47.25818" lon="-2.32483">
        <ele>127.40000152588</ele>
        <time>2019-11-14T08:40:05.000Z</time>
      </trkpt>
      <trkpt lat="47.2582" lon="-2.32484">
        <ele>127.40000152588</ele>
        <time>2019-11-14T08:40:07.000Z</time>
      </trkpt>
      <trkpt lat="47.25823" lon="-2.32492">
        <ele>127.40000152588</ele>
        <time>2019-11-14T08:40:12.000Z</time>
      </trkpt>
      <trkpt lat="47.2583" lon="-2.32503">
        <ele>127.40000152588</ele>
        <time>2019-11-14T08:40:16.000Z</time>
      </trkpt>
      <trkpt lat="47.25832" lon="-2.32507">
        <ele>127.40000152588</ele>
        <time>2019-11-14T08:40:17.000Z</time>
      </trkpt>
      <trkpt lat="47.25848" lon="-2.3253">
        <ele>127.40000152588</ele>
        <time>2019-11-14T08:40:23.000Z</time>
      </trkpt>
      <trkpt lat="47.25866" lon="-2.32557">
        <ele>127.40000152588</ele>
        <time>2019-11-14T08:40:29.000Z</time>
      </trkpt>
      <trkpt lat="47.25869" lon="-2.32561">
        <ele>127.40000152588</ele>
        <time>2019-11-14T08:40:30.000Z</time>
      </trkpt>
      <trkpt lat="47.25889" lon="-2.32589">
        <ele>127.40000152588</ele>
        <time>2019-11-14T08:40:36.000Z</time>
      </trkpt>
      <trkpt lat="47.25893" lon="-2.32592">
        <ele>127.40000152588</ele>
        <time>2019-11-14T08:40:37.000Z</time>
      </trkpt>
      <trkpt lat="47.25902" lon="-2.32599">
        <ele>127.40000152588</ele>
        <time>2019-11-14T08:40:39.000Z</time>
      </trkpt>
      <trkpt lat="47.25914" lon="-2.32613">
        <ele>127.40000152588</ele>
        <time>2019-11-14T08:40:42.000Z</time>
      </trkpt>
      <trkpt lat="47.25943" lon="-2.32653">
        <ele>127.40000152588</ele>
        <time>2019-11-14T08:40:50.000Z</time>
      </trkpt>
      <trkpt lat="47.25947" lon="-2.32657">
        <ele>127.40000152588</ele>
        <time>2019-11-14T08:40:51.000Z</time>
      </trkpt>
      <trkpt lat="47.25962" lon="-2.32663">
        <ele>127.40000152588</ele>
        <time>2019-11-14T08:40:54.000Z</time>
      </trkpt>
      <trkpt lat="47.25973" lon="-2.3266">
        <ele>127.40000152588</ele>
        <time>2019-11-14T08:40:56.000Z</time>
      </trkpt>
      <trkpt lat="47.25978" lon="-2.3266">
        <ele>127.40000152588</ele>
        <time>2019-11-14T08:40:57.000Z</time>
      </trkpt>
      <trkpt lat="47.25983" lon="-2.32661">
        <ele>127.40000152588</ele>
        <time>2019-11-14T08:40:58.000Z</time>
      </trkpt>
      <trkpt lat="47.25998" lon="-2.32659">
        <ele>127.40000152588</ele>
        <time>2019-11-14T08:41:01.000Z</time>
      </trkpt>
      <trkpt lat="47.26014" lon="-2.32657">
        <ele>127.40000152588</ele>
        <time>2019-11-14T08:41:04.000Z</time>
      </trkpt>
      <trkpt lat="47.26058" lon="-2.32649">
        <ele>127.40000152588</ele>
        <time>2019-11-14T08:41:13.000Z</time>
      </trkpt>
      <trkpt lat="47.26108" lon="-2.3264">
        <ele>127.40000152588</ele>
        <time>2019-11-14T08:41:23.000Z</time>
      </trkpt>
      <trkpt lat="47.26118" lon="-2.32639">
        <ele>127.80000305176</ele>
        <time>2019-11-14T08:41:25.000Z</time>
      </trkpt>
      <trkpt lat="47.26123" lon="-2.32639">
        <ele>128.19999694824</ele>
        <time>2019-11-14T08:41:26.000Z</time>
      </trkpt>
      <trkpt lat="47.26128" lon="-2.3264">
        <ele>128.60000610352</ele>
        <time>2019-11-14T08:41:27.000Z</time>
      </trkpt>
      <trkpt lat="47.26133" lon="-2.3264">
        <ele>129</ele>
        <time>2019-11-14T08:41:28.000Z</time>
      </trkpt>
      <trkpt lat="47.26138" lon="-2.32641">
        <ele>129.39999389648</ele>
        <time>2019-11-14T08:41:29.000Z</time>
      </trkpt>
      <trkpt lat="47.26143" lon="-2.32643">
        <ele>129.39999389648</ele>
        <time>2019-11-14T08:41:30.000Z</time>
      </trkpt>
      <trkpt lat="47.26176" lon="-2.32658">
        <ele>129.39999389648</ele>
        <time>2019-11-14T08:41:37.000Z</time>
      </trkpt>
      <trkpt lat="47.2618" lon="-2.32661">
        <ele>129.39999389648</ele>
        <time>2019-11-14T08:41:38.000Z</time>
      </trkpt>
      <trkpt lat="47.26188" lon="-2.32668">
        <ele>129.39999389648</ele>
        <time>2019-11-14T08:41:40.000Z</time>
      </trkpt>
      <trkpt lat="47.26204" lon="-2.32685">
        <ele>129.39999389648</ele>
        <time>2019-11-14T08:41:44.000Z</time>
      </trkpt>
      <trkpt lat="47.26236" lon="-2.32727">
        <ele>129.39999389648</ele>
        <time>2019-11-14T08:41:52.000Z</time>
      </trkpt>
      <trkpt lat="47.26267" lon="-2.32775">
        <ele>129.39999389648</ele>
        <time>2019-11-14T08:42:00.000Z</time>
      </trkpt>
      <trkpt lat="47.26277" lon="-2.32794">
        <ele>129.39999389648</ele>
        <time>2019-11-14T08:42:03.000Z</time>
      </trkpt>
      <trkpt lat="47.26281" lon="-2.32809">
        <ele>129</ele>
        <time>2019-11-14T08:42:05.000Z</time>
      </trkpt>
      <trkpt lat="47.26283" lon="-2.32816">
        <ele>128.60000610352</ele>
        <time>2019-11-14T08:42:06.000Z</time>
      </trkpt>
      <trkpt lat="47.26285" lon="-2.32824">
        <ele>128.19999694824</ele>
        <time>2019-11-14T08:42:07.000Z</time>
      </trkpt>
      <trkpt lat="47.26286" lon="-2.32831">
        <ele>127.40000152588</ele>
        <time>2019-11-14T08:42:08.000Z</time>
      </trkpt>
      <trkpt lat="47.26291" lon="-2.32852">
        <ele>127.40000152588</ele>
        <time>2019-11-14T08:42:11.000Z</time>
      </trkpt>
      <trkpt lat="47.26303" lon="-2.32864">
        <ele>127.40000152588</ele>
        <time>2019-11-14T08:42:14.000Z</time>
      </trkpt>
      <trkpt lat="47.2632" lon="-2.32877">
        <ele>127.40000152588</ele>
        <time>2019-11-14T08:42:18.000Z</time>
      </trkpt>
      <trkpt lat="47.2633" lon="-2.32907">
        <ele>127.40000152588</ele>
        <time>2019-11-14T08:42:22.000Z</time>
      </trkpt>
      <trkpt lat="47.26349" lon="-2.32967">
        <ele>127.40000152588</ele>
        <time>2019-11-14T08:42:30.000Z</time>
      </trkpt>
      <trkpt lat="47.26352" lon="-2.32973">
        <ele>127.40000152588</ele>
        <time>2019-11-14T08:42:31.000Z</time>
      </trkpt>
      <trkpt lat="47.26364" lon="-2.32987">
        <ele>127.40000152588</ele>
        <time>2019-11-14T08:42:34.000Z</time>
      </trkpt>
      <trkpt lat="47.26368" lon="-2.33008">
        <ele>127.40000152588</ele>
        <time>2019-11-14T08:42:37.000Z</time>
      </trkpt>
      <trkpt lat="47.26368" lon="-2.33016">
        <ele>127.40000152588</ele>
        <time>2019-11-14T08:42:38.000Z</time>
      </trkpt>
      <trkpt lat="47.2637" lon="-2.33071">
        <ele>127.40000152588</ele>
        <time>2019-11-14T08:42:45.000Z</time>
      </trkpt>
      <trkpt lat="47.26375" lon="-2.33131">
        <ele>127.40000152588</ele>
        <time>2019-11-14T08:42:53.000Z</time>
      </trkpt>
      <trkpt lat="47.2638" lon="-2.33216">
        <ele>127.40000152588</ele>
        <time>2019-11-14T08:43:04.000Z</time>
      </trkpt>
      <trkpt lat="47.26383" lon="-2.33246">
        <ele>127.40000152588</ele>
        <time>2019-11-14T08:43:08.000Z</time>
      </trkpt>
      <trkpt lat="47.26387" lon="-2.33258">
        <ele>127.40000152588</ele>
        <time>2019-11-14T08:43:10.000Z</time>
      </trkpt>
      <trkpt lat="47.26401" lon="-2.33266">
        <ele>127.40000152588</ele>
        <time>2019-11-14T08:43:13.000Z</time>
      </trkpt>
      <trkpt lat="47.26411" lon="-2.33268">
        <ele>127.40000152588</ele>
        <time>2019-11-14T08:43:15.000Z</time>
      </trkpt>
      <trkpt lat="47.26436" lon="-2.33271">
        <ele>127.40000152588</ele>
        <time>2019-11-14T08:43:20.000Z</time>
      </trkpt>
      <trkpt lat="47.26457" lon="-2.33274">
        <ele>127.40000152588</ele>
        <time>2019-11-14T08:43:24.000Z</time>
      </trkpt>
      <trkpt lat="47.26466" lon="-2.33277">
        <ele>127.40000152588</ele>
        <time>2019-11-14T08:43:26.000Z</time>
      </trkpt>
      <trkpt lat="47.26475" lon="-2.3328">
        <ele>127.40000152588</ele>
        <time>2019-11-14T08:43:28.000Z</time>
      </trkpt>
      <trkpt lat="47.2649" lon="-2.3328">
        <ele>127.40000152588</ele>
        <time>2019-11-14T08:43:32.000Z</time>
      </trkpt>
      <trkpt lat="47.26506" lon="-2.33285">
        <ele>127.40000152588</ele>
        <time>2019-11-14T08:43:37.000Z</time>
      </trkpt>
      <trkpt lat="47.26509" lon="-2.33287">
        <ele>127.40000152588</ele>
        <time>2019-11-14T08:43:38.000Z</time>
      </trkpt>
      <trkpt lat="47.26516" lon="-2.33293">
        <ele>127.40000152588</ele>
        <time>2019-11-14T08:43:40.000Z</time>
      </trkpt>
      <trkpt lat="47.26523" lon="-2.33302">
        <ele>127.40000152588</ele>
        <time>2019-11-14T08:43:42.000Z</time>
      </trkpt>
      <trkpt lat="47.26527" lon="-2.33321">
        <ele>127.40000152588</ele>
        <time>2019-11-14T08:43:45.000Z</time>
      </trkpt>
      <trkpt lat="47.26526" lon="-2.33335">
        <ele>127.40000152588</ele>
        <time>2019-11-14T08:43:47.000Z</time>
      </trkpt>
      <trkpt lat="47.26526" lon="-2.33342">
        <ele>127.40000152588</ele>
        <time>2019-11-14T08:43:48.000Z</time>
      </trkpt>
      <trkpt lat="47.26527" lon="-2.3335">
        <ele>127.40000152588</ele>
        <time>2019-11-14T08:43:49.000Z</time>
      </trkpt>
      <trkpt lat="47.26535" lon="-2.33382">
        <ele>127.40000152588</ele>
        <time>2019-11-14T08:43:53.000Z</time>
      </trkpt>
      <trkpt lat="47.26537" lon="-2.33389">
        <ele>127.40000152588</ele>
        <time>2019-11-14T08:43:54.000Z</time>
      </trkpt>
      <trkpt lat="47.26548" lon="-2.33443">
        <ele>127.40000152588</ele>
        <time>2019-11-14T08:44:01.000Z</time>
      </trkpt>
      <trkpt lat="47.26559" lon="-2.33503">
        <ele>127.40000152588</ele>
        <time>2019-11-14T08:44:09.000Z</time>
      </trkpt>
      <trkpt lat="47.26567" lon="-2.33531">
        <ele>127.40000152588</ele>
        <time>2019-11-14T08:44:13.000Z</time>
      </trkpt>
      <trkpt lat="47.26568" lon="-2.33538">
        <ele>127.80000305176</ele>
        <time>2019-11-14T08:44:14.000Z</time>
      </trkpt>
      <trkpt lat="47.26569" lon="-2.33546">
        <ele>128.19999694824</ele>
        <time>2019-11-14T08:44:15.000Z</time>
      </trkpt>
      <trkpt lat="47.2657" lon="-2.33553">
        <ele>128.60000610352</ele>
        <time>2019-11-14T08:44:16.000Z</time>
      </trkpt>
      <trkpt lat="47.26571" lon="-2.33561">
        <ele>129</ele>
        <time>2019-11-14T08:44:17.000Z</time>
      </trkpt>
      <trkpt lat="47.26572" lon="-2.33569">
        <ele>129.39999389648</ele>
        <time>2019-11-14T08:44:18.000Z</time>
      </trkpt>
      <trkpt lat="47.26573" lon="-2.33576">
        <ele>129.39999389648</ele>
        <time>2019-11-14T08:44:19.000Z</time>
      </trkpt>
      <trkpt lat="47.26581" lon="-2.33626">
        <ele>129.39999389648</ele>
        <time>2019-11-14T08:44:26.000Z</time>
      </trkpt>
      <trkpt lat="47.26586" lon="-2.33658">
        <ele>130</ele>
        <time>2019-11-14T08:44:31.000Z</time>
      </trkpt>
      <trkpt lat="47.26588" lon="-2.33663">
        <ele>130.39999389648</ele>
        <time>2019-11-14T08:44:32.000Z</time>
      </trkpt>
      <trkpt lat="47.2659" lon="-2.33668">
        <ele>130.80000305176</ele>
        <time>2019-11-14T08:44:33.000Z</time>
      </trkpt>
      <trkpt lat="47.26593" lon="-2.33672">
        <ele>131.19999694824</ele>
        <time>2019-11-14T08:44:34.000Z</time>
      </trkpt>
      <trkpt lat="47.26595" lon="-2.33678">
        <ele>131.60000610352</ele>
        <time>2019-11-14T08:44:35.000Z</time>
      </trkpt>
      <trkpt lat="47.26603" lon="-2.33693">
        <ele>131.60000610352</ele>
        <time>2019-11-14T08:44:38.000Z</time>
      </trkpt>
      <trkpt lat="47.26606" lon="-2.33698">
        <ele>131.60000610352</ele>
        <time>2019-11-14T08:44:39.000Z</time>
      </trkpt>
      <trkpt lat="47.2662" lon="-2.33719">
        <ele>131.60000610352</ele>
        <time>2019-11-14T08:44:43.000Z</time>
      </trkpt>
      <trkpt lat="47.26625" lon="-2.33729">
        <ele>132</ele>
        <time>2019-11-14T08:44:45.000Z</time>
      </trkpt>
      <trkpt lat="47.26628" lon="-2.33735">
        <ele>132.39999389648</ele>
        <time>2019-11-14T08:44:46.000Z</time>
      </trkpt>
      <trkpt lat="47.26632" lon="-2.3374">
        <ele>132.80000305176</ele>
        <time>2019-11-14T08:44:47.000Z</time>
      </trkpt>
      <trkpt lat="47.26635" lon="-2.33747">
        <ele>133.19999694824</ele>
        <time>2019-11-14T08:44:48.000Z</time>
      </trkpt>
      <trkpt lat="47.26638" lon="-2.33753">
        <ele>133.60000610352</ele>
        <time>2019-11-14T08:44:49.000Z</time>
      </trkpt>
      <trkpt lat="47.26649" lon="-2.3377">
        <ele>133.60000610352</ele>
        <time>2019-11-14T08:44:52.000Z</time>
      </trkpt>
      <trkpt lat="47.26675" lon="-2.33811">
        <ele>133.60000610352</ele>
        <time>2019-11-14T08:44:59.000Z</time>
      </trkpt>
      <trkpt lat="47.26701" lon="-2.33851">
        <ele>133.60000610352</ele>
        <time>2019-11-14T08:45:06.000Z</time>
      </trkpt>
      <trkpt lat="47.26708" lon="-2.33863">
        <ele>133.60000610352</ele>
        <time>2019-11-14T08:45:08.000Z</time>
      </trkpt>
      <trkpt lat="47.26722" lon="-2.33887">
        <ele>133.60000610352</ele>
        <time>2019-11-14T08:45:12.000Z</time>
      </trkpt>
      <trkpt lat="47.26752" lon="-2.33935">
        <ele>133.60000610352</ele>
        <time>2019-11-14T08:45:20.000Z</time>
      </trkpt>
      <trkpt lat="47.26771" lon="-2.33966">
        <ele>133.60000610352</ele>
        <time>2019-11-14T08:45:25.000Z</time>
      </trkpt>
      <trkpt lat="47.26774" lon="-2.33972">
        <ele>133.60000610352</ele>
        <time>2019-11-14T08:45:26.000Z</time>
      </trkpt>
      <trkpt lat="47.26778" lon="-2.33978">
        <ele>134</ele>
        <time>2019-11-14T08:45:27.000Z</time>
      </trkpt>
      <trkpt lat="47.26782" lon="-2.33983">
        <ele>134.39999389648</ele>
        <time>2019-11-14T08:45:28.000Z</time>
      </trkpt>
      <trkpt lat="47.26786" lon="-2.3399">
        <ele>134.80000305176</ele>
        <time>2019-11-14T08:45:29.000Z</time>
      </trkpt>
      <trkpt lat="47.2679" lon="-2.33996">
        <ele>135.19999694824</ele>
        <time>2019-11-14T08:45:30.000Z</time>
      </trkpt>
      <trkpt lat="47.26793" lon="-2.34001">
        <ele>135.60000610352</ele>
        <time>2019-11-14T08:45:31.000Z</time>
      </trkpt>
      <trkpt lat="47.26812" lon="-2.34031">
        <ele>135.60000610352</ele>
        <time>2019-11-14T08:45:36.000Z</time>
      </trkpt>
      <trkpt lat="47.26825" lon="-2.34054">
        <ele>135.60000610352</ele>
        <time>2019-11-14T08:45:40.000Z</time>
      </trkpt>
      <trkpt lat="47.26829" lon="-2.3406">
        <ele>135.60000610352</ele>
        <time>2019-11-14T08:45:41.000Z</time>
      </trkpt>
      <trkpt lat="47.26839" lon="-2.34078">
        <ele>135.60000610352</ele>
        <time>2019-11-14T08:45:44.000Z</time>
      </trkpt>
      <trkpt lat="47.26847" lon="-2.34089">
        <ele>135.60000610352</ele>
        <time>2019-11-14T08:45:46.000Z</time>
      </trkpt>
      <trkpt lat="47.26872" lon="-2.34127">
        <ele>135.60000610352</ele>
        <time>2019-11-14T08:45:53.000Z</time>
      </trkpt>
      <trkpt lat="47.26893" lon="-2.34163">
        <ele>135.60000610352</ele>
        <time>2019-11-14T08:45:59.000Z</time>
      </trkpt>
      <trkpt lat="47.26897" lon="-2.34169">
        <ele>135.60000610352</ele>
        <time>2019-11-14T08:46:00.000Z</time>
      </trkpt>
      <trkpt lat="47.26919" lon="-2.34204">
        <ele>135.60000610352</ele>
        <time>2019-11-14T08:46:06.000Z</time>
      </trkpt>
      <trkpt lat="47.26934" lon="-2.34228">
        <ele>135.60000610352</ele>
        <time>2019-11-14T08:46:10.000Z</time>
      </trkpt>
      <trkpt lat="47.26961" lon="-2.34268">
        <ele>135.60000610352</ele>
        <time>2019-11-14T08:46:17.000Z</time>
      </trkpt>
      <trkpt lat="47.26984" lon="-2.34306">
        <ele>135.60000610352</ele>
        <time>2019-11-14T08:46:24.000Z</time>
      </trkpt>
      <trkpt lat="47.26986" lon="-2.3431">
        <ele>135.60000610352</ele>
        <time>2019-11-14T08:46:25.000Z</time>
      </trkpt>
      <trkpt lat="47.26989" lon="-2.34316">
        <ele>135.60000610352</ele>
        <time>2019-11-14T08:46:28.000Z</time>
      </trkpt>
      <trkpt lat="47.27" lon="-2.34322">
        <ele>135.60000610352</ele>
        <time>2019-11-14T08:46:32.000Z</time>
      </trkpt>
      <trkpt lat="47.27007" lon="-2.34322">
        <ele>135.60000610352</ele>
        <time>2019-11-14T08:46:34.000Z</time>
      </trkpt>
      <trkpt lat="47.27022" lon="-2.3432">
        <ele>136</ele>
        <time>2019-11-14T08:46:38.000Z</time>
      </trkpt>
      <trkpt lat="47.27025" lon="-2.34322">
        <ele>136.39999389648</ele>
        <time>2019-11-14T08:46:39.000Z</time>
      </trkpt>
      <trkpt lat="47.27029" lon="-2.34323">
        <ele>136.80000305176</ele>
        <time>2019-11-14T08:46:40.000Z</time>
      </trkpt>
      <trkpt lat="47.27032" lon="-2.34326">
        <ele>137.60000610352</ele>
        <time>2019-11-14T08:46:41.000Z</time>
      </trkpt>
      <trkpt lat="47.27034" lon="-2.3433">
        <ele>137.60000610352</ele>
        <time>2019-11-14T08:46:42.000Z</time>
      </trkpt>
      <trkpt lat="47.27041" lon="-2.34354">
        <ele>137.60000610352</ele>
        <time>2019-11-14T08:46:46.000Z</time>
      </trkpt>
      <trkpt lat="47.27053" lon="-2.34407">
        <ele>137.60000610352</ele>
        <time>2019-11-14T08:46:53.000Z</time>
      </trkpt>
      <trkpt lat="47.27072" lon="-2.34482">
        <ele>137.60000610352</ele>
        <time>2019-11-14T08:47:02.000Z</time>
      </trkpt>
      <trkpt lat="47.27076" lon="-2.34495">
        <ele>137.60000610352</ele>
        <time>2019-11-14T08:47:04.000Z</time>
      </trkpt>
      <trkpt lat="47.27086" lon="-2.345">
        <ele>137.60000610352</ele>
        <time>2019-11-14T08:47:06.000Z</time>
      </trkpt>
      <trkpt lat="47.27101" lon="-2.34491">
        <ele>137.60000610352</ele>
        <time>2019-11-14T08:47:09.000Z</time>
      </trkpt>
      <trkpt lat="47.2713" lon="-2.34475">
        <ele>138</ele>
        <time>2019-11-14T08:47:15.000Z</time>
      </trkpt>
      <trkpt lat="47.27135" lon="-2.34473">
        <ele>138.39999389648</ele>
        <time>2019-11-14T08:47:16.000Z</time>
      </trkpt>
      <trkpt lat="47.27139" lon="-2.34471">
        <ele>138.80000305176</ele>
        <time>2019-11-14T08:47:17.000Z</time>
      </trkpt>
      <trkpt lat="47.27144" lon="-2.34469">
        <ele>139.19999694824</ele>
        <time>2019-11-14T08:47:18.000Z</time>
      </trkpt>
      <trkpt lat="47.27148" lon="-2.34467">
        <ele>139.60000610352</ele>
        <time>2019-11-14T08:47:19.000Z</time>
      </trkpt>
      <trkpt lat="47.27158" lon="-2.34462">
        <ele>139.60000610352</ele>
        <time>2019-11-14T08:47:22.000Z</time>
      </trkpt>
      <trkpt lat="47.27179" lon="-2.34459">
        <ele>140.19999694824</ele>
        <time>2019-11-14T08:47:28.000Z</time>
      </trkpt>
      <trkpt lat="47.27184" lon="-2.34459">
        <ele>141</ele>
        <time>2019-11-14T08:47:29.000Z</time>
      </trkpt>
      <trkpt lat="47.27187" lon="-2.34459">
        <ele>141.39999389648</ele>
        <time>2019-11-14T08:47:30.000Z</time>
      </trkpt>
      <trkpt lat="47.27191" lon="-2.34459">
        <ele>141.80000305176</ele>
        <time>2019-11-14T08:47:31.000Z</time>
      </trkpt>
      <trkpt lat="47.27195" lon="-2.3446">
        <ele>142.19999694824</ele>
        <time>2019-11-14T08:47:32.000Z</time>
      </trkpt>
      <trkpt lat="47.27198" lon="-2.3446">
        <ele>142.60000610352</ele>
        <time>2019-11-14T08:47:33.000Z</time>
      </trkpt>
      <trkpt lat="47.27202" lon="-2.3446">
        <ele>143</ele>
        <time>2019-11-14T08:47:34.000Z</time>
      </trkpt>
      <trkpt lat="47.27205" lon="-2.34461">
        <ele>143.60000610352</ele>
        <time>2019-11-14T08:47:35.000Z</time>
      </trkpt>
      <trkpt lat="47.27209" lon="-2.34461">
        <ele>144</ele>
        <time>2019-11-14T08:47:36.000Z</time>
      </trkpt>
      <trkpt lat="47.27218" lon="-2.3446">
        <ele>144.39999389648</ele>
        <time>2019-11-14T08:47:38.000Z</time>
      </trkpt>
      <trkpt lat="47.27222" lon="-2.3446">
        <ele>144.80000305176</ele>
        <time>2019-11-14T08:47:39.000Z</time>
      </trkpt>
      <trkpt lat="47.27226" lon="-2.3446">
        <ele>145.19999694824</ele>
        <time>2019-11-14T08:47:40.000Z</time>
      </trkpt>
      <trkpt lat="47.2723" lon="-2.34461">
        <ele>145.60000610352</ele>
        <time>2019-11-14T08:47:41.000Z</time>
      </trkpt>
      <trkpt lat="47.27234" lon="-2.34461">
        <ele>146</ele>
        <time>2019-11-14T08:47:42.000Z</time>
      </trkpt>
      <trkpt lat="47.27242" lon="-2.34461">
        <ele>146.39999389648</ele>
        <time>2019-11-14T08:47:44.000Z</time>
      </trkpt>
      <trkpt lat="47.27246" lon="-2.34461">
        <ele>146.80000305176</ele>
        <time>2019-11-14T08:47:45.000Z</time>
      </trkpt>
      <trkpt lat="47.2725" lon="-2.3446">
        <ele>147.19999694824</ele>
        <time>2019-11-14T08:47:46.000Z</time>
      </trkpt>
      <trkpt lat="47.27254" lon="-2.3446">
        <ele>147.80000305176</ele>
        <time>2019-11-14T08:47:47.000Z</time>
      </trkpt>
      <trkpt lat="47.27258" lon="-2.3446">
        <ele>148.19999694824</ele>
        <time>2019-11-14T08:47:48.000Z</time>
      </trkpt>
      <trkpt lat="47.27275" lon="-2.34461">
        <ele>148.60000610352</ele>
        <time>2019-11-14T08:47:52.000Z</time>
      </trkpt>
      <trkpt lat="47.27278" lon="-2.3446">
        <ele>149</ele>
        <time>2019-11-14T08:47:53.000Z</time>
      </trkpt>
      <trkpt lat="47.27282" lon="-2.3446">
        <ele>149.80000305176</ele>
        <time>2019-11-14T08:47:54.000Z</time>
      </trkpt>
      <trkpt lat="47.27286" lon="-2.3446">
        <ele>150.19999694824</ele>
        <time>2019-11-14T08:47:55.000Z</time>
      </trkpt>
      <trkpt lat="47.27299" lon="-2.3446">
        <ele>150.19999694824</ele>
        <time>2019-11-14T08:47:58.000Z</time>
      </trkpt>
      <trkpt lat="47.27307" lon="-2.3446">
        <ele>150.60000610352</ele>
        <time>2019-11-14T08:48:00.000Z</time>
      </trkpt>
      <trkpt lat="47.27312" lon="-2.3446">
        <ele>151</ele>
        <time>2019-11-14T08:48:01.000Z</time>
      </trkpt>
      <trkpt lat="47.27316" lon="-2.3446">
        <ele>151.60000610352</ele>
        <time>2019-11-14T08:48:02.000Z</time>
      </trkpt>
      <trkpt lat="47.2732" lon="-2.3446">
        <ele>152</ele>
        <time>2019-11-14T08:48:03.000Z</time>
      </trkpt>
      <trkpt lat="47.27325" lon="-2.34461">
        <ele>152.39999389648</ele>
        <time>2019-11-14T08:48:04.000Z</time>
      </trkpt>
      <trkpt lat="47.27334" lon="-2.3446">
        <ele>152.39999389648</ele>
        <time>2019-11-14T08:48:06.000Z</time>
      </trkpt>
      <trkpt lat="47.27347" lon="-2.3446">
        <ele>152.39999389648</ele>
        <time>2019-11-14T08:48:09.000Z</time>
      </trkpt>
      <trkpt lat="47.2735" lon="-2.34462">
        <ele>152.39999389648</ele>
        <time>2019-11-14T08:48:10.000Z</time>
      </trkpt>
      <trkpt lat="47.27356" lon="-2.3447">
        <ele>152.39999389648</ele>
        <time>2019-11-14T08:48:12.000Z</time>
      </trkpt>
      <trkpt lat="47.2736" lon="-2.34489">
        <ele>152.39999389648</ele>
        <time>2019-11-14T08:48:15.000Z</time>
      </trkpt>
      <trkpt lat="47.27363" lon="-2.34502">
        <ele>152.39999389648</ele>
        <time>2019-11-14T08:48:17.000Z</time>
      </trkpt>
      <trkpt lat="47.27366" lon="-2.34515">
        <ele>152.39999389648</ele>
        <time>2019-11-14T08:48:19.000Z</time>
      </trkpt>
      <trkpt lat="47.27371" lon="-2.3454">
        <ele>152.80000305176</ele>
        <time>2019-11-14T08:48:23.000Z</time>
      </trkpt>
      <trkpt lat="47.27372" lon="-2.34547">
        <ele>153.19999694824</ele>
        <time>2019-11-14T08:48:24.000Z</time>
      </trkpt>
      <trkpt lat="47.27373" lon="-2.34553">
        <ele>153.60000610352</ele>
        <time>2019-11-14T08:48:25.000Z</time>
      </trkpt>
      <trkpt lat="47.27374" lon="-2.3456">
        <ele>154</ele>
        <time>2019-11-14T08:48:26.000Z</time>
      </trkpt>
      <trkpt lat="47.27375" lon="-2.34567">
        <ele>154.39999389648</ele>
        <time>2019-11-14T08:48:27.000Z</time>
      </trkpt>
      <trkpt lat="47.27378" lon="-2.34587">
        <ele>154.39999389648</ele>
        <time>2019-11-14T08:48:30.000Z</time>
      </trkpt>
      <trkpt lat="47.27384" lon="-2.34617">
        <ele>154.39999389648</ele>
        <time>2019-11-14T08:48:35.000Z</time>
      </trkpt>
      <trkpt lat="47.27392" lon="-2.34647">
        <ele>154.39999389648</ele>
        <time>2019-11-14T08:48:41.000Z</time>
      </trkpt>
      <trkpt lat="47.27396" lon="-2.34645">
        <ele>154.39999389648</ele>
        <time>2019-11-14T08:48:42.000Z</time>
      </trkpt>
      <trkpt lat="47.27404" lon="-2.34641">
        <ele>154.39999389648</ele>
        <time>2019-11-14T08:48:44.000Z</time>
      </trkpt>
      <trkpt lat="47.27408" lon="-2.34639">
        <ele>154.39999389648</ele>
        <time>2019-11-14T08:48:45.000Z</time>
      </trkpt>
      <trkpt lat="47.27425" lon="-2.34637">
        <ele>154.39999389648</ele>
        <time>2019-11-14T08:48:49.000Z</time>
      </trkpt>
      <trkpt lat="47.27443" lon="-2.34633">
        <ele>154.39999389648</ele>
        <time>2019-11-14T08:48:53.000Z</time>
      </trkpt>
      <trkpt lat="47.27449" lon="-2.34632">
        <ele>154.39999389648</ele>
        <time>2019-11-14T08:48:55.000Z</time>
      </trkpt>
      <trkpt lat="47.27451" lon="-2.34635">
        <ele>154.39999389648</ele>
        <time>2019-11-14T08:48:56.000Z</time>
      </trkpt>
      <trkpt lat="47.27452" lon="-2.34643">
        <ele>154.39999389648</ele>
        <time>2019-11-14T08:48:58.000Z</time>
      </trkpt>
      <trkpt lat="47.27454" lon="-2.34653">
        <ele>154.39999389648</ele>
        <time>2019-11-14T08:49:00.000Z</time>
      </trkpt>
      <trkpt lat="47.27457" lon="-2.34676">
        <ele>154.39999389648</ele>
        <time>2019-11-14T08:49:04.000Z</time>
      </trkpt>
      <trkpt lat="47.27459" lon="-2.3471">
        <ele>154.39999389648</ele>
        <time>2019-11-14T08:49:09.000Z</time>
      </trkpt>
      <trkpt lat="47.27459" lon="-2.34717">
        <ele>154.39999389648</ele>
        <time>2019-11-14T08:49:10.000Z</time>
      </trkpt>
      <trkpt lat="47.27459" lon="-2.34774">
        <ele>154.39999389648</ele>
        <time>2019-11-14T08:49:17.000Z</time>
      </trkpt>
      <trkpt lat="47.27462" lon="-2.34847">
        <ele>154.39999389648</ele>
        <time>2019-11-14T08:49:25.000Z</time>
      </trkpt>
      <trkpt lat="47.27462" lon="-2.34893">
        <ele>154</ele>
        <time>2019-11-14T08:49:30.000Z</time>
      </trkpt>
      <trkpt lat="47.27464" lon="-2.34902">
        <ele>153.60000610352</ele>
        <time>2019-11-14T08:49:31.000Z</time>
      </trkpt>
      <trkpt lat="47.27465" lon="-2.3491">
        <ele>153.19999694824</ele>
        <time>2019-11-14T08:49:32.000Z</time>
      </trkpt>
      <trkpt lat="47.27467" lon="-2.34918">
        <ele>152.19999694824</ele>
        <time>2019-11-14T08:49:33.000Z</time>
      </trkpt>
      <trkpt lat="47.27474" lon="-2.3494">
        <ele>152.19999694824</ele>
        <time>2019-11-14T08:49:36.000Z</time>
      </trkpt>
      <trkpt lat="47.27487" lon="-2.3499">
        <ele>152.19999694824</ele>
        <time>2019-11-14T08:49:43.000Z</time>
      </trkpt>
      <trkpt lat="47.275" lon="-2.35033">
        <ele>152.19999694824</ele>
        <time>2019-11-14T08:49:49.000Z</time>
      </trkpt>
      <trkpt lat="47.27504" lon="-2.35048">
        <ele>152.19999694824</ele>
        <time>2019-11-14T08:49:51.000Z</time>
      </trkpt>
      <trkpt lat="47.27505" lon="-2.35071">
        <ele>152.19999694824</ele>
        <time>2019-11-14T08:49:54.000Z</time>
      </trkpt>
      <trkpt lat="47.27504" lon="-2.35079">
        <ele>152.19999694824</ele>
        <time>2019-11-14T08:49:55.000Z</time>
      </trkpt>
      <trkpt lat="47.27502" lon="-2.35121">
        <ele>152.19999694824</ele>
        <time>2019-11-14T08:50:01.000Z</time>
      </trkpt>
      <trkpt lat="47.2751" lon="-2.35132">
        <ele>152.19999694824</ele>
        <time>2019-11-14T08:50:04.000Z</time>
      </trkpt>
      <trkpt lat="47.27518" lon="-2.35136">
        <ele>152.19999694824</ele>
        <time>2019-11-14T08:50:06.000Z</time>
      </trkpt>
      <trkpt lat="47.27523" lon="-2.35137">
        <ele>152.19999694824</ele>
        <time>2019-11-14T08:50:07.000Z</time>
      </trkpt>
      <trkpt lat="47.27528" lon="-2.35138">
        <ele>152.19999694824</ele>
        <time>2019-11-14T08:50:08.000Z</time>
      </trkpt>
      <trkpt lat="47.27538" lon="-2.35139">
        <ele>152.19999694824</ele>
        <time>2019-11-14T08:50:10.000Z</time>
      </trkpt>
      <trkpt lat="47.27543" lon="-2.35138">
        <ele>152.60000610352</ele>
        <time>2019-11-14T08:50:11.000Z</time>
      </trkpt>
      <trkpt lat="47.27548" lon="-2.35138">
        <ele>153</ele>
        <time>2019-11-14T08:50:12.000Z</time>
      </trkpt>
      <trkpt lat="47.27553" lon="-2.35137">
        <ele>153.39999389648</ele>
        <time>2019-11-14T08:50:13.000Z</time>
      </trkpt>
      <trkpt lat="47.27558" lon="-2.35136">
        <ele>154</ele>
        <time>2019-11-14T08:50:14.000Z</time>
      </trkpt>
      <trkpt lat="47.27564" lon="-2.35136">
        <ele>154.39999389648</ele>
        <time>2019-11-14T08:50:15.000Z</time>
      </trkpt>
      <trkpt lat="47.27583" lon="-2.35134">
        <ele>154.39999389648</ele>
        <time>2019-11-14T08:50:18.000Z</time>
      </trkpt>
      <trkpt lat="47.276" lon="-2.35136">
        <ele>154.39999389648</ele>
        <time>2019-11-14T08:50:21.000Z</time>
      </trkpt>
      <trkpt lat="47.27604" lon="-2.35142">
        <ele>154.39999389648</ele>
        <time>2019-11-14T08:50:22.000Z</time>
      </trkpt>
      <trkpt lat="47.27609" lon="-2.35165">
        <ele>154.39999389648</ele>
        <time>2019-11-14T08:50:25.000Z</time>
      </trkpt>
      <trkpt lat="47.2761" lon="-2.35172">
        <ele>154.39999389648</ele>
        <time>2019-11-14T08:50:26.000Z</time>
      </trkpt>
      <trkpt lat="47.27618" lon="-2.35177">
        <ele>154.39999389648</ele>
        <time>2019-11-14T08:50:28.000Z</time>
      </trkpt>
      <trkpt lat="47.27634" lon="-2.35176">
        <ele>154.39999389648</ele>
        <time>2019-11-14T08:50:31.000Z</time>
      </trkpt>
      <trkpt lat="47.2764" lon="-2.35176">
        <ele>154.39999389648</ele>
        <time>2019-11-14T08:50:32.000Z</time>
      </trkpt>
      <trkpt lat="47.27659" lon="-2.35175">
        <ele>154</ele>
        <time>2019-11-14T08:50:35.000Z</time>
      </trkpt>
      <trkpt lat="47.27665" lon="-2.35177">
        <ele>153.39999389648</ele>
        <time>2019-11-14T08:50:36.000Z</time>
      </trkpt>
      <trkpt lat="47.27669" lon="-2.35182">
        <ele>153</ele>
        <time>2019-11-14T08:50:37.000Z</time>
      </trkpt>
      <trkpt lat="47.27671" lon="-2.35189">
        <ele>152.60000610352</ele>
        <time>2019-11-14T08:50:38.000Z</time>
      </trkpt>
      <trkpt lat="47.27672" lon="-2.35196">
        <ele>152.19999694824</ele>
        <time>2019-11-14T08:50:39.000Z</time>
      </trkpt>
      <trkpt lat="47.27672" lon="-2.35205">
        <ele>152.19999694824</ele>
        <time>2019-11-14T08:50:40.000Z</time>
      </trkpt>
      <trkpt lat="47.27672" lon="-2.35212">
        <ele>152.19999694824</ele>
        <time>2019-11-14T08:50:41.000Z</time>
      </trkpt>
      <trkpt lat="47.27677" lon="-2.35225">
        <ele>151.80000305176</ele>
        <time>2019-11-14T08:50:44.000Z</time>
      </trkpt>
      <trkpt lat="47.27681" lon="-2.35224">
        <ele>151.39999389648</ele>
        <time>2019-11-14T08:50:45.000Z</time>
      </trkpt>
      <trkpt lat="47.27685" lon="-2.35222">
        <ele>151</ele>
        <time>2019-11-14T08:50:46.000Z</time>
      </trkpt>
      <trkpt lat="47.27689" lon="-2.35221">
        <ele>150.39999389648</ele>
        <time>2019-11-14T08:50:47.000Z</time>
      </trkpt>
      <trkpt lat="47.27694" lon="-2.35219">
        <ele>150</ele>
        <time>2019-11-14T08:50:48.000Z</time>
      </trkpt>
      <trkpt lat="47.27718" lon="-2.3521">
        <ele>150</ele>
        <time>2019-11-14T08:50:52.000Z</time>
      </trkpt>
      <trkpt lat="47.27756" lon="-2.35203">
        <ele>150</ele>
        <time>2019-11-14T08:50:58.000Z</time>
      </trkpt>
      <trkpt lat="47.27761" lon="-2.35202">
        <ele>149.60000610352</ele>
        <time>2019-11-14T08:50:59.000Z</time>
      </trkpt>
      <trkpt lat="47.27765" lon="-2.35202">
        <ele>149.19999694824</ele>
        <time>2019-11-14T08:51:00.000Z</time>
      </trkpt>
      <trkpt lat="47.27768" lon="-2.35203">
        <ele>148.80000305176</ele>
        <time>2019-11-14T08:51:01.000Z</time>
      </trkpt>
      <trkpt lat="47.2777" lon="-2.35204">
        <ele>148.19999694824</ele>
        <time>2019-11-14T08:51:02.000Z</time>
      </trkpt>
      <trkpt lat="47.27772" lon="-2.35207">
        <ele>147.80000305176</ele>
        <time>2019-11-14T08:51:03.000Z</time>
      </trkpt>
      <trkpt lat="47.27774" lon="-2.35215">
        <ele>147.80000305176</ele>
        <time>2019-11-14T08:51:05.000Z</time>
      </trkpt>
      <trkpt lat="47.27774" lon="-2.35222">
        <ele>147.80000305176</ele>
        <time>2019-11-14T08:51:07.000Z</time>
      </trkpt>
      <trkpt lat="47.27775" lon="-2.35234">
        <ele>147.80000305176</ele>
        <time>2019-11-14T08:51:11.000Z</time>
      </trkpt>
      <trkpt lat="47.27775" lon="-2.35236">
        <ele>147.80000305176</ele>
        <time>2019-11-14T08:51:13.000Z</time>
      </trkpt>
      <trkpt lat="47.27775" lon="-2.35238">
        <ele>147.80000305176</ele>
        <time>2019-11-14T08:52:05.000Z</time>
      </trkpt>
      <trkpt lat="47.27776" lon="-2.3524">
        <ele>147.80000305176</ele>
        <time>2019-11-14T08:52:06.000Z</time>
      </trkpt>
      <trkpt lat="47.27778" lon="-2.3525">
        <ele>147.80000305176</ele>
        <time>2019-11-14T08:52:09.000Z</time>
      </trkpt>
      <trkpt lat="47.27782" lon="-2.35262">
        <ele>147.80000305176</ele>
        <time>2019-11-14T08:52:12.000Z</time>
      </trkpt>
      <trkpt lat="47.2779" lon="-2.35288">
        <ele>147.80000305176</ele>
        <time>2019-11-14T08:52:17.000Z</time>
      </trkpt>
      <trkpt lat="47.27796" lon="-2.35323">
        <ele>147.80000305176</ele>
        <time>2019-11-14T08:52:23.000Z</time>
      </trkpt>
      <trkpt lat="47.27799" lon="-2.35349">
        <ele>147.80000305176</ele>
        <time>2019-11-14T08:52:29.000Z</time>
      </trkpt>
      <trkpt lat="47.27799" lon="-2.35356">
        <ele>147.80000305176</ele>
        <time>2019-11-14T08:52:32.000Z</time>
      </trkpt>
      <trkpt lat="47.27797" lon="-2.35358">
        <ele>147.80000305176</ele>
        <time>2019-11-14T08:52:34.000Z</time>
      </trkpt>
      <trkpt lat="47.27795" lon="-2.35352">
        <ele>147.80000305176</ele>
        <time>2019-11-14T08:52:37.000Z</time>
      </trkpt>
      <trkpt lat="47.27795" lon="-2.35339">
        <ele>147.80000305176</ele>
        <time>2019-11-14T08:52:42.000Z</time>
      </trkpt>
      <trkpt lat="47.27795" lon="-2.35336">
        <ele>147.80000305176</ele>
        <time>2019-11-14T08:52:43.000Z</time>
      </trkpt>
      <trkpt lat="47.27791" lon="-2.35327">
        <ele>147.80000305176</ele>
        <time>2019-11-14T08:52:48.000Z</time>
      </trkpt>
      <trkpt lat="47.2779" lon="-2.35318">
        <ele>147.80000305176</ele>
        <time>2019-11-14T08:52:52.000Z</time>
      </trkpt>
      <trkpt lat="47.27793" lon="-2.35315">
        <ele>147.80000305176</ele>
        <time>2019-11-14T08:52:54.000Z</time>
      </trkpt>
      <trkpt lat="47.27796" lon="-2.35319">
        <ele>147.80000305176</ele>
        <time>2019-11-14T08:52:57.000Z</time>
      </trkpt>
      <trkpt lat="47.27792" lon="-2.35323">
        <ele>147.80000305176</ele>
        <time>2019-11-14T08:53:02.000Z</time>
      </trkpt>
      <trkpt lat="47.27792" lon="-2.35325">
        <ele>147.80000305176</ele>
        <time>2019-11-14T08:53:04.000Z</time>
      </trkpt>
      <trkpt lat="47.27792" lon="-2.35328">
        <ele>147.80000305176</ele>
        <time>2019-11-14T08:54:28.000Z</time>
      </trkpt>
      <trkpt lat="47.27793" lon="-2.35331">
        <ele>147.80000305176</ele>
        <time>2019-11-14T08:54:29.000Z</time>
      </trkpt>
      <trkpt lat="47.27798" lon="-2.35345">
        <ele>147.80000305176</ele>
        <time>2019-11-14T08:54:33.000Z</time>
      </trkpt>
      <trkpt lat="47.278" lon="-2.35349">
        <ele>147.80000305176</ele>
        <time>2019-11-14T08:54:34.000Z</time>
      </trkpt>
      <trkpt lat="47.27806" lon="-2.35358">
        <ele>147.80000305176</ele>
        <time>2019-11-14T08:54:36.000Z</time>
      </trkpt>
      <trkpt lat="47.27813" lon="-2.35364">
        <ele>147.80000305176</ele>
        <time>2019-11-14T08:54:38.000Z</time>
      </trkpt>
      <trkpt lat="47.27833" lon="-2.35364">
        <ele>147.80000305176</ele>
        <time>2019-11-14T08:54:43.000Z</time>
      </trkpt>
      <trkpt lat="47.27849" lon="-2.35362">
        <ele>148.19999694824</ele>
        <time>2019-11-14T08:54:47.000Z</time>
      </trkpt>
      <trkpt lat="47.27853" lon="-2.35362">
        <ele>148.60000610352</ele>
        <time>2019-11-14T08:54:48.000Z</time>
      </trkpt>
      <trkpt lat="47.27856" lon="-2.35363">
        <ele>149</ele>
        <time>2019-11-14T08:54:49.000Z</time>
      </trkpt>
      <trkpt lat="47.2786" lon="-2.35363">
        <ele>149.39999389648</ele>
        <time>2019-11-14T08:54:50.000Z</time>
      </trkpt>
      <trkpt lat="47.27864" lon="-2.35364">
        <ele>149.80000305176</ele>
        <time>2019-11-14T08:54:51.000Z</time>
      </trkpt>
      <trkpt lat="47.27877" lon="-2.35363">
        <ele>149.80000305176</ele>
        <time>2019-11-14T08:54:56.000Z</time>
      </trkpt>
      <trkpt lat="47.27879" lon="-2.35365">
        <ele>149.80000305176</ele>
        <time>2019-11-14T08:54:57.000Z</time>
      </trkpt>
      <trkpt lat="47.27881" lon="-2.35371">
        <ele>149.80000305176</ele>
        <time>2019-11-14T08:54:59.000Z</time>
      </trkpt>
      <trkpt lat="47.27887" lon="-2.35382">
        <ele>149.80000305176</ele>
        <time>2019-11-14T08:55:02.000Z</time>
      </trkpt>
      <trkpt lat="47.27891" lon="-2.35389">
        <ele>149.80000305176</ele>
        <time>2019-11-14T08:55:04.000Z</time>
      </trkpt>
      <trkpt lat="47.27906" lon="-2.35409">
        <ele>150.19999694824</ele>
        <time>2019-11-14T08:55:10.000Z</time>
      </trkpt>
      <trkpt lat="47.27909" lon="-2.35413">
        <ele>150.60000610352</ele>
        <time>2019-11-14T08:55:11.000Z</time>
      </trkpt>
      <trkpt lat="47.27911" lon="-2.35416">
        <ele>151</ele>
        <time>2019-11-14T08:55:12.000Z</time>
      </trkpt>
      <trkpt lat="47.27914" lon="-2.35419">
        <ele>151.39999389648</ele>
        <time>2019-11-14T08:55:13.000Z</time>
      </trkpt>
      <trkpt lat="47.27916" lon="-2.35421">
        <ele>151.80000305176</ele>
        <time>2019-11-14T08:55:14.000Z</time>
      </trkpt>
      <trkpt lat="47.27933" lon="-2.35444">
        <ele>151.80000305176</ele>
        <time>2019-11-14T08:55:21.000Z</time>
      </trkpt>
      <trkpt lat="47.27954" lon="-2.35459">
        <ele>151.80000305176</ele>
        <time>2019-11-14T08:55:27.000Z</time>
      </trkpt>
      <trkpt lat="47.27975" lon="-2.35478">
        <ele>151.80000305176</ele>
        <time>2019-11-14T08:55:34.000Z</time>
      </trkpt>
      <trkpt lat="47.27989" lon="-2.35502">
        <ele>151.80000305176</ele>
        <time>2019-11-14T08:55:39.000Z</time>
      </trkpt>
      <trkpt lat="47.28002" lon="-2.35529">
        <ele>151.80000305176</ele>
        <time>2019-11-14T08:55:45.000Z</time>
      </trkpt>
      <trkpt lat="47.2801" lon="-2.35553">
        <ele>151.80000305176</ele>
        <time>2019-11-14T08:55:51.000Z</time>
      </trkpt>
      <trkpt lat="47.28019" lon="-2.35559">
        <ele>152.39999389648</ele>
        <time>2019-11-14T08:55:54.000Z</time>
      </trkpt>
      <trkpt lat="47.28023" lon="-2.35561">
        <ele>152.80000305176</ele>
        <time>2019-11-14T08:55:55.000Z</time>
      </trkpt>
      <trkpt lat="47.28025" lon="-2.35564">
        <ele>153.19999694824</ele>
        <time>2019-11-14T08:55:56.000Z</time>
      </trkpt>
      <trkpt lat="47.28028" lon="-2.35568">
        <ele>153.60000610352</ele>
        <time>2019-11-14T08:55:57.000Z</time>
      </trkpt>
      <trkpt lat="47.2803" lon="-2.35572">
        <ele>154</ele>
        <time>2019-11-14T08:55:58.000Z</time>
      </trkpt>
      <trkpt lat="47.28035" lon="-2.35585">
        <ele>154</ele>
        <time>2019-11-14T08:56:01.000Z</time>
      </trkpt>
      <trkpt lat="47.28042" lon="-2.35604">
        <ele>154</ele>
        <time>2019-11-14T08:56:06.000Z</time>
      </trkpt>
      <trkpt lat="47.28044" lon="-2.35605">
        <ele>154.39999389648</ele>
        <time>2019-11-14T08:56:07.000Z</time>
      </trkpt>
      <trkpt lat="47.28047" lon="-2.35605">
        <ele>155.19999694824</ele>
        <time>2019-11-14T08:56:08.000Z</time>
      </trkpt>
      <trkpt lat="47.28049" lon="-2.35604">
        <ele>155.60000610352</ele>
        <time>2019-11-14T08:56:09.000Z</time>
      </trkpt>
      <trkpt lat="47.28053" lon="-2.35604">
        <ele>156</ele>
        <time>2019-11-14T08:56:10.000Z</time>
      </trkpt>
      <trkpt lat="47.28062" lon="-2.35603">
        <ele>156</ele>
        <time>2019-11-14T08:56:14.000Z</time>
      </trkpt>
      <trkpt lat="47.28064" lon="-2.35602">
        <ele>156</ele>
        <time>2019-11-14T08:56:15.000Z</time>
      </trkpt>
      <trkpt lat="47.28071" lon="-2.35608">
        <ele>156</ele>
        <time>2019-11-14T08:56:19.000Z</time>
      </trkpt>
      <trkpt lat="47.28071" lon="-2.35625">
        <ele>156</ele>
        <time>2019-11-14T08:56:23.000Z</time>
      </trkpt>
      <trkpt lat="47.28075" lon="-2.35639">
        <ele>156.60000610352</ele>
        <time>2019-11-14T08:56:27.000Z</time>
      </trkpt>
      <trkpt lat="47.28075" lon="-2.35642">
        <ele>157</ele>
        <time>2019-11-14T08:56:28.000Z</time>
      </trkpt>
      <trkpt lat="47.28076" lon="-2.35644">
        <ele>157.39999389648</ele>
        <time>2019-11-14T08:56:29.000Z</time>
      </trkpt>
      <trkpt lat="47.28077" lon="-2.35647">
        <ele>157.80000305176</ele>
        <time>2019-11-14T08:56:30.000Z</time>
      </trkpt>
      <trkpt lat="47.28077" lon="-2.35651">
        <ele>158.39999389648</ele>
        <time>2019-11-14T08:56:31.000Z</time>
      </trkpt>
      <trkpt lat="47.28078" lon="-2.35654">
        <ele>158.80000305176</ele>
        <time>2019-11-14T08:56:32.000Z</time>
      </trkpt>
      <trkpt lat="47.28079" lon="-2.35658">
        <ele>159.19999694824</ele>
        <time>2019-11-14T08:56:33.000Z</time>
      </trkpt>
      <trkpt lat="47.28079" lon="-2.35661">
        <ele>159.60000610352</ele>
        <time>2019-11-14T08:56:34.000Z</time>
      </trkpt>
      <trkpt lat="47.2808" lon="-2.35664">
        <ele>160.19999694824</ele>
        <time>2019-11-14T08:56:35.000Z</time>
      </trkpt>
      <trkpt lat="47.28081" lon="-2.35668">
        <ele>160.60000610352</ele>
        <time>2019-11-14T08:56:36.000Z</time>
      </trkpt>
      <trkpt lat="47.28087" lon="-2.35684">
        <ele>160.60000610352</ele>
        <time>2019-11-14T08:56:41.000Z</time>
      </trkpt>
      <trkpt lat="47.28089" lon="-2.35691">
        <ele>161</ele>
        <time>2019-11-14T08:56:43.000Z</time>
      </trkpt>
      <trkpt lat="47.28089" lon="-2.35695">
        <ele>161.39999389648</ele>
        <time>2019-11-14T08:56:44.000Z</time>
      </trkpt>
      <trkpt lat="47.28089" lon="-2.35697">
        <ele>161.80000305176</ele>
        <time>2019-11-14T08:56:45.000Z</time>
      </trkpt>
      <trkpt lat="47.2809" lon="-2.357">
        <ele>162.19999694824</ele>
        <time>2019-11-14T08:56:46.000Z</time>
      </trkpt>
      <trkpt lat="47.2809" lon="-2.35702">
        <ele>162.60000610352</ele>
        <time>2019-11-14T08:56:47.000Z</time>
      </trkpt>
      <trkpt lat="47.2809" lon="-2.35719">
        <ele>162.60000610352</ele>
        <time>2019-11-14T08:56:53.000Z</time>
      </trkpt>
      <trkpt lat="47.28085" lon="-2.35739">
        <ele>162.60000610352</ele>
        <time>2019-11-14T08:56:57.000Z</time>
      </trkpt>
      <trkpt lat="47.2808" lon="-2.35766">
        <ele>162.60000610352</ele>
        <time>2019-11-14T08:57:01.000Z</time>
      </trkpt>
      <trkpt lat="47.28075" lon="-2.35789">
        <ele>162.60000610352</ele>
        <time>2019-11-14T08:57:05.000Z</time>
      </trkpt>
      <trkpt lat="47.28077" lon="-2.35796">
        <ele>162.19999694824</ele>
        <time>2019-11-14T08:57:06.000Z</time>
      </trkpt>
      <trkpt lat="47.2808" lon="-2.358">
        <ele>161.80000305176</ele>
        <time>2019-11-14T08:57:07.000Z</time>
      </trkpt>
      <trkpt lat="47.28083" lon="-2.35804">
        <ele>161.19999694824</ele>
        <time>2019-11-14T08:57:08.000Z</time>
      </trkpt>
      <trkpt lat="47.28086" lon="-2.35809">
        <ele>160.80000305176</ele>
        <time>2019-11-14T08:57:09.000Z</time>
      </trkpt>
      <trkpt lat="47.28089" lon="-2.35813">
        <ele>160.39999389648</ele>
        <time>2019-11-14T08:57:10.000Z</time>
      </trkpt>
      <trkpt lat="47.28098" lon="-2.35833">
        <ele>160.39999389648</ele>
        <time>2019-11-14T08:57:14.000Z</time>
      </trkpt>
      <trkpt lat="47.28113" lon="-2.35855">
        <ele>160.39999389648</ele>
        <time>2019-11-14T08:57:20.000Z</time>
      </trkpt>
      <trkpt lat="47.28123" lon="-2.35874">
        <ele>160.39999389648</ele>
        <time>2019-11-14T08:57:25.000Z</time>
      </trkpt>
      <trkpt lat="47.28127" lon="-2.35882">
        <ele>160.39999389648</ele>
        <time>2019-11-14T08:57:28.000Z</time>
      </trkpt>
      <trkpt lat="47.28131" lon="-2.35888">
        <ele>160.39999389648</ele>
        <time>2019-11-14T08:57:30.000Z</time>
      </trkpt>
      <trkpt lat="47.28149" lon="-2.35907">
        <ele>160.39999389648</ele>
        <time>2019-11-14T08:57:36.000Z</time>
      </trkpt>
      <trkpt lat="47.28163" lon="-2.35936">
        <ele>160.39999389648</ele>
        <time>2019-11-14T08:57:41.000Z</time>
      </trkpt>
      <trkpt lat="47.2817" lon="-2.35955">
        <ele>160</ele>
        <time>2019-11-14T08:57:44.000Z</time>
      </trkpt>
      <trkpt lat="47.28171" lon="-2.35961">
        <ele>159.60000610352</ele>
        <time>2019-11-14T08:57:45.000Z</time>
      </trkpt>
      <trkpt lat="47.28173" lon="-2.35968">
        <ele>158.80000305176</ele>
        <time>2019-11-14T08:57:46.000Z</time>
      </trkpt>
      <trkpt lat="47.28176" lon="-2.35976">
        <ele>158.39999389648</ele>
        <time>2019-11-14T08:57:47.000Z</time>
      </trkpt>
      <trkpt lat="47.28185" lon="-2.35998">
        <ele>158.39999389648</ele>
        <time>2019-11-14T08:57:51.000Z</time>
      </trkpt>
      <trkpt lat="47.28202" lon="-2.36057">
        <ele>158.39999389648</ele>
        <time>2019-11-14T08:57:58.000Z</time>
      </trkpt>
      <trkpt lat="47.2821" lon="-2.36083">
        <ele>158.80000305176</ele>
        <time>2019-11-14T08:58:02.000Z</time>
      </trkpt>
      <trkpt lat="47.28213" lon="-2.36088">
        <ele>159.19999694824</ele>
        <time>2019-11-14T08:58:03.000Z</time>
      </trkpt>
      <trkpt lat="47.28215" lon="-2.36094">
        <ele>159.60000610352</ele>
        <time>2019-11-14T08:58:04.000Z</time>
      </trkpt>
      <trkpt lat="47.28217" lon="-2.36099">
        <ele>160</ele>
        <time>2019-11-14T08:58:05.000Z</time>
      </trkpt>
      <trkpt lat="47.28218" lon="-2.36104">
        <ele>160.39999389648</ele>
        <time>2019-11-14T08:58:06.000Z</time>
      </trkpt>
      <trkpt lat="47.28221" lon="-2.36114">
        <ele>160.39999389648</ele>
        <time>2019-11-14T08:58:09.000Z</time>
      </trkpt>
      <trkpt lat="47.28231" lon="-2.36136">
        <ele>160.39999389648</ele>
        <time>2019-11-14T08:58:13.000Z</time>
      </trkpt>
      <trkpt lat="47.28234" lon="-2.3614">
        <ele>160.39999389648</ele>
        <time>2019-11-14T08:58:14.000Z</time>
      </trkpt>
      <trkpt lat="47.28243" lon="-2.36156">
        <ele>160.39999389648</ele>
        <time>2019-11-14T08:58:17.000Z</time>
      </trkpt>
      <trkpt lat="47.28252" lon="-2.3618">
        <ele>160.39999389648</ele>
        <time>2019-11-14T08:58:22.000Z</time>
      </trkpt>
      <trkpt lat="47.28268" lon="-2.36216">
        <ele>160.39999389648</ele>
        <time>2019-11-14T08:58:27.000Z</time>
      </trkpt>
      <trkpt lat="47.28285" lon="-2.36237">
        <ele>160.39999389648</ele>
        <time>2019-11-14T08:58:31.000Z</time>
      </trkpt>
      <trkpt lat="47.28304" lon="-2.36245">
        <ele>160.39999389648</ele>
        <time>2019-11-14T08:58:36.000Z</time>
      </trkpt>
      <trkpt lat="47.28317" lon="-2.36252">
        <ele>160.39999389648</ele>
        <time>2019-11-14T08:58:41.000Z</time>
      </trkpt>
      <trkpt lat="47.28325" lon="-2.36253">
        <ele>160.80000305176</ele>
        <time>2019-11-14T08:58:44.000Z</time>
      </trkpt>
      <trkpt lat="47.28328" lon="-2.36255">
        <ele>161.19999694824</ele>
        <time>2019-11-14T08:58:45.000Z</time>
      </trkpt>
      <trkpt lat="47.28331" lon="-2.36256">
        <ele>161.60000610352</ele>
        <time>2019-11-14T08:58:46.000Z</time>
      </trkpt>
      <trkpt lat="47.28335" lon="-2.36257">
        <ele>162.19999694824</ele>
        <time>2019-11-14T08:58:47.000Z</time>
      </trkpt>
      <trkpt lat="47.28339" lon="-2.36259">
        <ele>162.60000610352</ele>
        <time>2019-11-14T08:58:48.000Z</time>
      </trkpt>
      <trkpt lat="47.28351" lon="-2.36265">
        <ele>162.60000610352</ele>
        <time>2019-11-14T08:58:52.000Z</time>
      </trkpt>
      <trkpt lat="47.28354" lon="-2.36264">
        <ele>162.60000610352</ele>
        <time>2019-11-14T08:58:53.000Z</time>
      </trkpt>
      <trkpt lat="47.28357" lon="-2.36268">
        <ele>162.60000610352</ele>
        <time>2019-11-14T08:58:55.000Z</time>
      </trkpt>
      <trkpt lat="47.28356" lon="-2.36266">
        <ele>162.60000610352</ele>
        <time>2019-11-14T08:58:59.000Z</time>
      </trkpt>
      <trkpt lat="47.28355" lon="-2.36267">
        <ele>162.60000610352</ele>
        <time>2019-11-14T08:59:01.000Z</time>
      </trkpt>
      <trkpt lat="47.28354" lon="-2.36278">
        <ele>162.60000610352</ele>
        <time>2019-11-14T08:59:05.000Z</time>
      </trkpt>
      <trkpt lat="47.28354" lon="-2.36284">
        <ele>163</ele>
        <time>2019-11-14T08:59:07.000Z</time>
      </trkpt>
      <trkpt lat="47.28355" lon="-2.36286">
        <ele>163.39999389648</ele>
        <time>2019-11-14T08:59:08.000Z</time>
      </trkpt>
      <trkpt lat="47.28356" lon="-2.36289">
        <ele>163.80000305176</ele>
        <time>2019-11-14T08:59:09.000Z</time>
      </trkpt>
      <trkpt lat="47.28357" lon="-2.36292">
        <ele>164.19999694824</ele>
        <time>2019-11-14T08:59:10.000Z</time>
      </trkpt>
      <trkpt lat="47.28358" lon="-2.36295">
        <ele>164.60000610352</ele>
        <time>2019-11-14T08:59:11.000Z</time>
      </trkpt>
      <trkpt lat="47.28359" lon="-2.36297">
        <ele>164.60000610352</ele>
        <time>2019-11-14T08:59:12.000Z</time>
      </trkpt>
      <trkpt lat="47.28361" lon="-2.36299">
        <ele>164.60000610352</ele>
        <time>2019-11-14T08:59:13.000Z</time>
      </trkpt>
      <trkpt lat="47.28364" lon="-2.36304">
        <ele>164.60000610352</ele>
        <time>2019-11-14T08:59:16.000Z</time>
      </trkpt>
      <trkpt lat="47.28366" lon="-2.36306">
        <ele>164.60000610352</ele>
        <time>2019-11-14T08:59:17.000Z</time>
      </trkpt>
      <trkpt lat="47.28374" lon="-2.36317">
        <ele>164.60000610352</ele>
        <time>2019-11-14T08:59:20.000Z</time>
      </trkpt>
      <trkpt lat="47.28379" lon="-2.36323">
        <ele>165.19999694824</ele>
        <time>2019-11-14T08:59:22.000Z</time>
      </trkpt>
      <trkpt lat="47.28382" lon="-2.36326">
        <ele>165.60000610352</ele>
        <time>2019-11-14T08:59:23.000Z</time>
      </trkpt>
      <trkpt lat="47.28384" lon="-2.36328">
        <ele>166</ele>
        <time>2019-11-14T08:59:24.000Z</time>
      </trkpt>
      <trkpt lat="47.28387" lon="-2.36329">
        <ele>166.80000305176</ele>
        <time>2019-11-14T08:59:25.000Z</time>
      </trkpt>
      <trkpt lat="47.28395" lon="-2.36335">
        <ele>166.80000305176</ele>
        <time>2019-11-14T08:59:29.000Z</time>
      </trkpt>
      <trkpt lat="47.28397" lon="-2.36338">
        <ele>166.80000305176</ele>
        <time>2019-11-14T08:59:30.000Z</time>
      </trkpt>
      <trkpt lat="47.28406" lon="-2.36354">
        <ele>166.80000305176</ele>
        <time>2019-11-14T08:59:35.000Z</time>
      </trkpt>
      <trkpt lat="47.28414" lon="-2.36362">
        <ele>167.19999694824</ele>
        <time>2019-11-14T08:59:38.000Z</time>
      </trkpt>
      <trkpt lat="47.28417" lon="-2.36363">
        <ele>167.60000610352</ele>
        <time>2019-11-14T08:59:39.000Z</time>
      </trkpt>
      <trkpt lat="47.2842" lon="-2.36365">
        <ele>168</ele>
        <time>2019-11-14T08:59:40.000Z</time>
      </trkpt>
      <trkpt lat="47.28423" lon="-2.36368">
        <ele>168.39999389648</ele>
        <time>2019-11-14T08:59:41.000Z</time>
      </trkpt>
      <trkpt lat="47.28426" lon="-2.3637">
        <ele>168.80000305176</ele>
        <time>2019-11-14T08:59:42.000Z</time>
      </trkpt>
      <trkpt lat="47.28437" lon="-2.36379">
        <ele>168.80000305176</ele>
        <time>2019-11-14T08:59:46.000Z</time>
      </trkpt>
      <trkpt lat="47.2845" lon="-2.3639">
        <ele>169.60000610352</ele>
        <time>2019-11-14T08:59:51.000Z</time>
      </trkpt>
      <trkpt lat="47.28452" lon="-2.36394">
        <ele>170</ele>
        <time>2019-11-14T08:59:52.000Z</time>
      </trkpt>
      <trkpt lat="47.28454" lon="-2.36397">
        <ele>170.60000610352</ele>
        <time>2019-11-14T08:59:53.000Z</time>
      </trkpt>
      <trkpt lat="47.28456" lon="-2.364">
        <ele>171</ele>
        <time>2019-11-14T08:59:54.000Z</time>
      </trkpt>
      <trkpt lat="47.2846" lon="-2.36406">
        <ele>171</ele>
        <time>2019-11-14T08:59:56.000Z</time>
      </trkpt>
      <trkpt lat="47.28464" lon="-2.3641">
        <ele>171</ele>
        <time>2019-11-14T08:59:57.000Z</time>
      </trkpt>
      <trkpt lat="47.28476" lon="-2.36422">
        <ele>171</ele>
        <time>2019-11-14T09:00:00.000Z</time>
      </trkpt>
      <trkpt lat="47.28503" lon="-2.36458">
        <ele>171</ele>
        <time>2019-11-14T09:00:05.000Z</time>
      </trkpt>
      <trkpt lat="47.28507" lon="-2.36472">
        <ele>171</ele>
        <time>2019-11-14T09:00:08.000Z</time>
      </trkpt>
      <trkpt lat="47.28512" lon="-2.36497">
        <ele>171</ele>
        <time>2019-11-14T09:00:12.000Z</time>
      </trkpt>
      <trkpt lat="47.28507" lon="-2.36508">
        <ele>171</ele>
        <time>2019-11-14T09:00:15.000Z</time>
      </trkpt>
      <trkpt lat="47.28504" lon="-2.36511">
        <ele>171</ele>
        <time>2019-11-14T09:00:16.000Z</time>
      </trkpt>
      <trkpt lat="47.285" lon="-2.36518">
        <ele>171</ele>
        <time>2019-11-14T09:00:17.000Z</time>
      </trkpt>
      <trkpt lat="47.28493" lon="-2.36525">
        <ele>171</ele>
        <time>2019-11-14T09:00:19.000Z</time>
      </trkpt>
      <trkpt lat="47.28483" lon="-2.36534">
        <ele>170.39999389648</ele>
        <time>2019-11-14T09:00:21.000Z</time>
      </trkpt>
      <trkpt lat="47.28479" lon="-2.3654">
        <ele>170</ele>
        <time>2019-11-14T09:00:22.000Z</time>
      </trkpt>
      <trkpt lat="47.28475" lon="-2.36545">
        <ele>169.60000610352</ele>
        <time>2019-11-14T09:00:23.000Z</time>
      </trkpt>
      <trkpt lat="47.28471" lon="-2.36552">
        <ele>169</ele>
        <time>2019-11-14T09:00:24.000Z</time>
      </trkpt>
      <trkpt lat="47.28467" lon="-2.36558">
        <ele>168.60000610352</ele>
        <time>2019-11-14T09:00:25.000Z</time>
      </trkpt>
      <trkpt lat="47.28464" lon="-2.36565">
        <ele>168.60000610352</ele>
        <time>2019-11-14T09:00:26.000Z</time>
      </trkpt>
      <trkpt lat="47.28462" lon="-2.36573">
        <ele>168.60000610352</ele>
        <time>2019-11-14T09:00:27.000Z</time>
      </trkpt>
      <trkpt lat="47.28467" lon="-2.366">
        <ele>168.60000610352</ele>
        <time>2019-11-14T09:00:30.000Z</time>
      </trkpt>
      <trkpt lat="47.28469" lon="-2.36608">
        <ele>168.60000610352</ele>
        <time>2019-11-14T09:00:31.000Z</time>
      </trkpt>
      <trkpt lat="47.28486" lon="-2.36655">
        <ele>168.60000610352</ele>
        <time>2019-11-14T09:00:37.000Z</time>
      </trkpt>
      <trkpt lat="47.28498" lon="-2.36676">
        <ele>168.60000610352</ele>
        <time>2019-11-14T09:00:41.000Z</time>
      </trkpt>
      <trkpt lat="47.28512" lon="-2.36697">
        <ele>168.60000610352</ele>
        <time>2019-11-14T09:00:45.000Z</time>
      </trkpt>
      <trkpt lat="47.28519" lon="-2.36711">
        <ele>168.60000610352</ele>
        <time>2019-11-14T09:00:47.000Z</time>
      </trkpt>
      <trkpt lat="47.28528" lon="-2.36727">
        <ele>168.19999694824</ele>
        <time>2019-11-14T09:00:49.000Z</time>
      </trkpt>
      <trkpt lat="47.28533" lon="-2.36735">
        <ele>167.60000610352</ele>
        <time>2019-11-14T09:00:50.000Z</time>
      </trkpt>
      <trkpt lat="47.28537" lon="-2.36743">
        <ele>167.19999694824</ele>
        <time>2019-11-14T09:00:51.000Z</time>
      </trkpt>
      <trkpt lat="47.28542" lon="-2.36753">
        <ele>166.80000305176</ele>
        <time>2019-11-14T09:00:52.000Z</time>
      </trkpt>
      <trkpt lat="47.28547" lon="-2.36762">
        <ele>166.39999389648</ele>
        <time>2019-11-14T09:00:53.000Z</time>
      </trkpt>
      <trkpt lat="47.28562" lon="-2.36791">
        <ele>165.80000305176</ele>
        <time>2019-11-14T09:00:56.000Z</time>
      </trkpt>
      <trkpt lat="47.28567" lon="-2.368">
        <ele>165.39999389648</ele>
        <time>2019-11-14T09:00:57.000Z</time>
      </trkpt>
      <trkpt lat="47.28571" lon="-2.36809">
        <ele>164.80000305176</ele>
        <time>2019-11-14T09:00:58.000Z</time>
      </trkpt>
      <trkpt lat="47.28577" lon="-2.36818">
        <ele>164.39999389648</ele>
        <time>2019-11-14T09:00:59.000Z</time>
      </trkpt>
      <trkpt lat="47.28581" lon="-2.36827">
        <ele>163.80000305176</ele>
        <time>2019-11-14T09:01:00.000Z</time>
      </trkpt>
      <trkpt lat="47.28586" lon="-2.36834">
        <ele>163.39999389648</ele>
        <time>2019-11-14T09:01:01.000Z</time>
      </trkpt>
      <trkpt lat="47.2859" lon="-2.36841">
        <ele>163</ele>
        <time>2019-11-14T09:01:02.000Z</time>
      </trkpt>
      <trkpt lat="47.28594" lon="-2.36846">
        <ele>162.60000610352</ele>
        <time>2019-11-14T09:01:03.000Z</time>
      </trkpt>
      <trkpt lat="47.28599" lon="-2.3685">
        <ele>162</ele>
        <time>2019-11-14T09:01:04.000Z</time>
      </trkpt>
      <trkpt lat="47.28604" lon="-2.36851">
        <ele>161.60000610352</ele>
        <time>2019-11-14T09:01:05.000Z</time>
      </trkpt>
      <trkpt lat="47.2861" lon="-2.36849">
        <ele>161.60000610352</ele>
        <time>2019-11-14T09:01:06.000Z</time>
      </trkpt>
      <trkpt lat="47.28623" lon="-2.36836">
        <ele>161.60000610352</ele>
        <time>2019-11-14T09:01:09.000Z</time>
      </trkpt>
      <trkpt lat="47.28635" lon="-2.36821">
        <ele>161.60000610352</ele>
        <time>2019-11-14T09:01:12.000Z</time>
      </trkpt>
      <trkpt lat="47.28639" lon="-2.36815">
        <ele>161.60000610352</ele>
        <time>2019-11-14T09:01:13.000Z</time>
      </trkpt>
      <trkpt lat="47.28642" lon="-2.3681">
        <ele>161.60000610352</ele>
        <time>2019-11-14T09:01:14.000Z</time>
      </trkpt>
      <trkpt lat="47.28657" lon="-2.36794">
        <ele>161.60000610352</ele>
        <time>2019-11-14T09:01:18.000Z</time>
      </trkpt>
      <trkpt lat="47.28661" lon="-2.36793">
        <ele>161.60000610352</ele>
        <time>2019-11-14T09:01:19.000Z</time>
      </trkpt>
      <trkpt lat="47.28666" lon="-2.36794">
        <ele>162</ele>
        <time>2019-11-14T09:01:21.000Z</time>
      </trkpt>
      <trkpt lat="47.28667" lon="-2.36794">
        <ele>162.39999389648</ele>
        <time>2019-11-14T09:01:22.000Z</time>
      </trkpt>
      <trkpt lat="47.28669" lon="-2.36793">
        <ele>162.80000305176</ele>
        <time>2019-11-14T09:01:23.000Z</time>
      </trkpt>
      <trkpt lat="47.28669" lon="-2.36792">
        <ele>163.19999694824</ele>
        <time>2019-11-14T09:01:24.000Z</time>
      </trkpt>
      <trkpt lat="47.2867" lon="-2.36791">
        <ele>163.60000610352</ele>
        <time>2019-11-14T09:01:25.000Z</time>
      </trkpt>
      <trkpt lat="47.28673" lon="-2.3679">
        <ele>163.60000610352</ele>
        <time>2019-11-14T09:01:27.000Z</time>
      </trkpt>
      <trkpt lat="47.28677" lon="-2.36791">
        <ele>163.60000610352</ele>
        <time>2019-11-14T09:01:30.000Z</time>
      </trkpt>
      <trkpt lat="47.28682" lon="-2.36797">
        <ele>163.60000610352</ele>
        <time>2019-11-14T09:01:33.000Z</time>
      </trkpt>
      <trkpt lat="47.28684" lon="-2.36801">
        <ele>163.60000610352</ele>
        <time>2019-11-14T09:01:34.000Z</time>
      </trkpt>
      <trkpt lat="47.28695" lon="-2.36826">
        <ele>163.60000610352</ele>
        <time>2019-11-14T09:01:39.000Z</time>
      </trkpt>
      <trkpt lat="47.28698" lon="-2.36834">
        <ele>163.60000610352</ele>
        <time>2019-11-14T09:01:40.000Z</time>
      </trkpt>
      <trkpt lat="47.28716" lon="-2.36877">
        <ele>163.19999694824</ele>
        <time>2019-11-14T09:01:45.000Z</time>
      </trkpt>
      <trkpt lat="47.28721" lon="-2.36886">
        <ele>162.80000305176</ele>
        <time>2019-11-14T09:01:46.000Z</time>
      </trkpt>
      <trkpt lat="47.28725" lon="-2.36896">
        <ele>162.39999389648</ele>
        <time>2019-11-14T09:01:47.000Z</time>
      </trkpt>
      <trkpt lat="47.2873" lon="-2.36907">
        <ele>162</ele>
        <time>2019-11-14T09:01:48.000Z</time>
      </trkpt>
      <trkpt lat="47.28735" lon="-2.36916">
        <ele>161.39999389648</ele>
        <time>2019-11-14T09:01:49.000Z</time>
      </trkpt>
      <trkpt lat="47.28739" lon="-2.36923">
        <ele>161</ele>
        <time>2019-11-14T09:01:50.000Z</time>
      </trkpt>
      <trkpt lat="47.28743" lon="-2.36928">
        <ele>160.39999389648</ele>
        <time>2019-11-14T09:01:51.000Z</time>
      </trkpt>
      <trkpt lat="47.28745" lon="-2.36932">
        <ele>160</ele>
        <time>2019-11-14T09:01:52.000Z</time>
      </trkpt>
      <trkpt lat="47.28746" lon="-2.36934">
        <ele>159.39999389648</ele>
        <time>2019-11-14T09:01:53.000Z</time>
      </trkpt>
      <trkpt lat="47.2875" lon="-2.36942">
        <ele>159.39999389648</ele>
        <time>2019-11-14T09:01:57.000Z</time>
      </trkpt>
      <trkpt lat="47.28751" lon="-2.36947">
        <ele>160</ele>
        <time>2019-11-14T09:02:00.000Z</time>
      </trkpt>
      <trkpt lat="47.28751" lon="-2.3695">
        <ele>160.39999389648</ele>
        <time>2019-11-14T09:02:01.000Z</time>
      </trkpt>
      <trkpt lat="47.28751" lon="-2.36953">
        <ele>160.80000305176</ele>
        <time>2019-11-14T09:02:02.000Z</time>
      </trkpt>
      <trkpt lat="47.28751" lon="-2.36954">
        <ele>161.39999389648</ele>
        <time>2019-11-14T09:02:03.000Z</time>
      </trkpt>
      <trkpt lat="47.28751" lon="-2.36955">
        <ele>161.80000305176</ele>
        <time>2019-11-14T09:02:04.000Z</time>
      </trkpt>
      <trkpt lat="47.28753" lon="-2.36966">
        <ele>163.19999694824</ele>
        <time>2019-11-14T09:02:09.000Z</time>
      </trkpt>
      <trkpt lat="47.28755" lon="-2.36972">
        <ele>163.60000610352</ele>
        <time>2019-11-14T09:02:10.000Z</time>
      </trkpt>
      <trkpt lat="47.28757" lon="-2.36976">
        <ele>164</ele>
        <time>2019-11-14T09:02:11.000Z</time>
      </trkpt>
      <trkpt lat="47.2876" lon="-2.36983">
        <ele>164</ele>
        <time>2019-11-14T09:02:14.000Z</time>
      </trkpt>
      <trkpt lat="47.28761" lon="-2.36985">
        <ele>164</ele>
        <time>2019-11-14T09:02:17.000Z</time>
      </trkpt>
      <trkpt lat="47.28768" lon="-2.36997">
        <ele>164</ele>
        <time>2019-11-14T09:02:21.000Z</time>
      </trkpt>
      <trkpt lat="47.2877" lon="-2.36998">
        <ele>164</ele>
        <time>2019-11-14T09:02:22.000Z</time>
      </trkpt>
      <trkpt lat="47.28771" lon="-2.37002">
        <ele>164</ele>
        <time>2019-11-14T09:02:23.000Z</time>
      </trkpt>
      <trkpt lat="47.28773" lon="-2.3701">
        <ele>164</ele>
        <time>2019-11-14T09:02:25.000Z</time>
      </trkpt>
      <trkpt lat="47.28779" lon="-2.37022">
        <ele>164</ele>
        <time>2019-11-14T09:02:28.000Z</time>
      </trkpt>
      <trkpt lat="47.28781" lon="-2.37027">
        <ele>164</ele>
        <time>2019-11-14T09:02:29.000Z</time>
      </trkpt>
      <trkpt lat="47.28791" lon="-2.37066">
        <ele>163.60000610352</ele>
        <time>2019-11-14T09:02:35.000Z</time>
      </trkpt>
      <trkpt lat="47.28792" lon="-2.37074">
        <ele>163.19999694824</ele>
        <time>2019-11-14T09:02:36.000Z</time>
      </trkpt>
      <trkpt lat="47.28794" lon="-2.37082">
        <ele>162.80000305176</ele>
        <time>2019-11-14T09:02:37.000Z</time>
      </trkpt>
      <trkpt lat="47.28796" lon="-2.37089">
        <ele>162</ele>
        <time>2019-11-14T09:02:38.000Z</time>
      </trkpt>
      <trkpt lat="47.28798" lon="-2.37094">
        <ele>161.39999389648</ele>
        <time>2019-11-14T09:02:39.000Z</time>
      </trkpt>
      <trkpt lat="47.28799" lon="-2.37097">
        <ele>160.80000305176</ele>
        <time>2019-11-14T09:02:40.000Z</time>
      </trkpt>
      <trkpt lat="47.28802" lon="-2.371">
        <ele>160.19999694824</ele>
        <time>2019-11-14T09:02:41.000Z</time>
      </trkpt>
      <trkpt lat="47.28805" lon="-2.37103">
        <ele>159.60000610352</ele>
        <time>2019-11-14T09:02:42.000Z</time>
      </trkpt>
      <trkpt lat="47.28809" lon="-2.37104">
        <ele>159.19999694824</ele>
        <time>2019-11-14T09:02:43.000Z</time>
      </trkpt>
      <trkpt lat="47.28811" lon="-2.37104">
        <ele>158.80000305176</ele>
        <time>2019-11-14T09:02:44.000Z</time>
      </trkpt>
      <trkpt lat="47.28813" lon="-2.37103">
        <ele>158.39999389648</ele>
        <time>2019-11-14T09:02:45.000Z</time>
      </trkpt>
      <trkpt lat="47.28816" lon="-2.371">
        <ele>158</ele>
        <time>2019-11-14T09:02:46.000Z</time>
      </trkpt>
      <trkpt lat="47.28818" lon="-2.37098">
        <ele>157.39999389648</ele>
        <time>2019-11-14T09:02:47.000Z</time>
      </trkpt>
      <trkpt lat="47.28819" lon="-2.37097">
        <ele>156.80000305176</ele>
        <time>2019-11-14T09:02:48.000Z</time>
      </trkpt>
      <trkpt lat="47.28822" lon="-2.371">
        <ele>156.19999694824</ele>
        <time>2019-11-14T09:02:49.000Z</time>
      </trkpt>
      <trkpt lat="47.28824" lon="-2.37102">
        <ele>155.60000610352</ele>
        <time>2019-11-14T09:02:50.000Z</time>
      </trkpt>
      <trkpt lat="47.28825" lon="-2.37105">
        <ele>155.19999694824</ele>
        <time>2019-11-14T09:02:51.000Z</time>
      </trkpt>
      <trkpt lat="47.28826" lon="-2.37114">
        <ele>155.19999694824</ele>
        <time>2019-11-14T09:02:53.000Z</time>
      </trkpt>
      <trkpt lat="47.28825" lon="-2.3712">
        <ele>155.19999694824</ele>
        <time>2019-11-14T09:02:54.000Z</time>
      </trkpt>
      <trkpt lat="47.28825" lon="-2.37127">
        <ele>155.19999694824</ele>
        <time>2019-11-14T09:02:55.000Z</time>
      </trkpt>
      <trkpt lat="47.28827" lon="-2.37142">
        <ele>155.19999694824</ele>
        <time>2019-11-14T09:02:57.000Z</time>
      </trkpt>
      <trkpt lat="47.28833" lon="-2.37179">
        <ele>154.80000305176</ele>
        <time>2019-11-14T09:03:02.000Z</time>
      </trkpt>
      <trkpt lat="47.28834" lon="-2.37185">
        <ele>154.39999389648</ele>
        <time>2019-11-14T09:03:03.000Z</time>
      </trkpt>
      <trkpt lat="47.28835" lon="-2.37192">
        <ele>154</ele>
        <time>2019-11-14T09:03:04.000Z</time>
      </trkpt>
      <trkpt lat="47.28836" lon="-2.37199">
        <ele>153.60000610352</ele>
        <time>2019-11-14T09:03:05.000Z</time>
      </trkpt>
      <trkpt lat="47.28837" lon="-2.37205">
        <ele>153.19999694824</ele>
        <time>2019-11-14T09:03:06.000Z</time>
      </trkpt>
      <trkpt lat="47.2884" lon="-2.37223">
        <ele>153.19999694824</ele>
        <time>2019-11-14T09:03:09.000Z</time>
      </trkpt>
      <trkpt lat="47.28852" lon="-2.37246">
        <ele>153.19999694824</ele>
        <time>2019-11-14T09:03:13.000Z</time>
      </trkpt>
      <trkpt lat="47.28854" lon="-2.37252">
        <ele>153.19999694824</ele>
        <time>2019-11-14T09:03:14.000Z</time>
      </trkpt>
      <trkpt lat="47.28859" lon="-2.37275">
        <ele>153.19999694824</ele>
        <time>2019-11-14T09:03:17.000Z</time>
      </trkpt>
      <trkpt lat="47.28865" lon="-2.37327">
        <ele>153.19999694824</ele>
        <time>2019-11-14T09:03:23.000Z</time>
      </trkpt>
      <trkpt lat="47.2887" lon="-2.37378">
        <ele>153.19999694824</ele>
        <time>2019-11-14T09:03:29.000Z</time>
      </trkpt>
      <trkpt lat="47.28876" lon="-2.37431">
        <ele>153.19999694824</ele>
        <time>2019-11-14T09:03:36.000Z</time>
      </trkpt>
      <trkpt lat="47.28881" lon="-2.37459">
        <ele>153.19999694824</ele>
        <time>2019-11-14T09:03:40.000Z</time>
      </trkpt>
      <trkpt lat="47.28882" lon="-2.37468">
        <ele>153.19999694824</ele>
        <time>2019-11-14T09:03:41.000Z</time>
      </trkpt>
      <trkpt lat="47.28883" lon="-2.37475">
        <ele>153.19999694824</ele>
        <time>2019-11-14T09:03:42.000Z</time>
      </trkpt>
      <trkpt lat="47.28886" lon="-2.37497">
        <ele>153.19999694824</ele>
        <time>2019-11-14T09:03:45.000Z</time>
      </trkpt>
      <trkpt lat="47.28891" lon="-2.37532">
        <ele>153.19999694824</ele>
        <time>2019-11-14T09:03:51.000Z</time>
      </trkpt>
      <trkpt lat="47.28896" lon="-2.37547">
        <ele>153.19999694824</ele>
        <time>2019-11-14T09:03:54.000Z</time>
      </trkpt>
      <trkpt lat="47.28898" lon="-2.37553">
        <ele>153.19999694824</ele>
        <time>2019-11-14T09:03:55.000Z</time>
      </trkpt>
      <trkpt lat="47.28902" lon="-2.37568">
        <ele>152.60000610352</ele>
        <time>2019-11-14T09:03:57.000Z</time>
      </trkpt>
      <trkpt lat="47.28904" lon="-2.37576">
        <ele>152.19999694824</ele>
        <time>2019-11-14T09:03:58.000Z</time>
      </trkpt>
      <trkpt lat="47.28904" lon="-2.37584">
        <ele>151.80000305176</ele>
        <time>2019-11-14T09:03:59.000Z</time>
      </trkpt>
      <trkpt lat="47.28905" lon="-2.37592">
        <ele>151.39999389648</ele>
        <time>2019-11-14T09:04:00.000Z</time>
      </trkpt>
      <trkpt lat="47.28906" lon="-2.376">
        <ele>151</ele>
        <time>2019-11-14T09:04:01.000Z</time>
      </trkpt>
      <trkpt lat="47.28909" lon="-2.37635">
        <ele>151</ele>
        <time>2019-11-14T09:04:06.000Z</time>
      </trkpt>
      <trkpt lat="47.28917" lon="-2.37645">
        <ele>151</ele>
        <time>2019-11-14T09:04:09.000Z</time>
      </trkpt>
      <trkpt lat="47.28931" lon="-2.37649">
        <ele>151</ele>
        <time>2019-11-14T09:04:13.000Z</time>
      </trkpt>
      <trkpt lat="47.28935" lon="-2.3766">
        <ele>151</ele>
        <time>2019-11-14T09:04:16.000Z</time>
      </trkpt>
      <trkpt lat="47.28936" lon="-2.37665">
        <ele>151</ele>
        <time>2019-11-14T09:04:17.000Z</time>
      </trkpt>
      <trkpt lat="47.28937" lon="-2.37695">
        <ele>151</ele>
        <time>2019-11-14T09:04:22.000Z</time>
      </trkpt>
      <trkpt lat="47.28933" lon="-2.37748">
        <ele>151</ele>
        <time>2019-11-14T09:04:29.000Z</time>
      </trkpt>
      <trkpt lat="47.28933" lon="-2.37771">
        <ele>151</ele>
        <time>2019-11-14T09:04:32.000Z</time>
      </trkpt>
      <trkpt lat="47.28932" lon="-2.37786">
        <ele>151</ele>
        <time>2019-11-14T09:04:34.000Z</time>
      </trkpt>
      <trkpt lat="47.28926" lon="-2.37845">
        <ele>151</ele>
        <time>2019-11-14T09:04:41.000Z</time>
      </trkpt>
      <trkpt lat="47.28921" lon="-2.37905">
        <ele>151</ele>
        <time>2019-11-14T09:04:48.000Z</time>
      </trkpt>
      <trkpt lat="47.28917" lon="-2.37965">
        <ele>151</ele>
        <time>2019-11-14T09:04:55.000Z</time>
      </trkpt>
      <trkpt lat="47.28913" lon="-2.38024">
        <ele>151</ele>
        <time>2019-11-14T09:05:02.000Z</time>
      </trkpt>
      <trkpt lat="47.28912" lon="-2.38041">
        <ele>151</ele>
        <time>2019-11-14T09:05:04.000Z</time>
      </trkpt>
      <trkpt lat="47.28916" lon="-2.38058">
        <ele>151</ele>
        <time>2019-11-14T09:05:06.000Z</time>
      </trkpt>
      <trkpt lat="47.2893" lon="-2.38111">
        <ele>151</ele>
        <time>2019-11-14T09:05:12.000Z</time>
      </trkpt>
      <trkpt lat="47.28939" lon="-2.38168">
        <ele>151</ele>
        <time>2019-11-14T09:05:18.000Z</time>
      </trkpt>
      <trkpt lat="47.28941" lon="-2.38229">
        <ele>151</ele>
        <time>2019-11-14T09:05:24.000Z</time>
      </trkpt>
      <trkpt lat="47.28936" lon="-2.38309">
        <ele>151</ele>
        <time>2019-11-14T09:05:32.000Z</time>
      </trkpt>
      <trkpt lat="47.28937" lon="-2.38363">
        <ele>151</ele>
        <time>2019-11-14T09:05:38.000Z</time>
      </trkpt>
      <trkpt lat="47.28942" lon="-2.38417">
        <ele>151</ele>
        <time>2019-11-14T09:05:44.000Z</time>
      </trkpt>
      <trkpt lat="47.28946" lon="-2.38474">
        <ele>151</ele>
        <time>2019-11-14T09:05:50.000Z</time>
      </trkpt>
      <trkpt lat="47.28954" lon="-2.38545">
        <ele>151</ele>
        <time>2019-11-14T09:05:57.000Z</time>
      </trkpt>
      <trkpt lat="47.28959" lon="-2.38624">
        <ele>151</ele>
        <time>2019-11-14T09:06:05.000Z</time>
      </trkpt>
      <trkpt lat="47.28961" lon="-2.38692">
        <ele>151</ele>
        <time>2019-11-14T09:06:12.000Z</time>
      </trkpt>
      <trkpt lat="47.28962" lon="-2.3875">
        <ele>151</ele>
        <time>2019-11-14T09:06:18.000Z</time>
      </trkpt>
      <trkpt lat="47.28963" lon="-2.3882">
        <ele>151</ele>
        <time>2019-11-14T09:06:25.000Z</time>
      </trkpt>
      <trkpt lat="47.2896" lon="-2.38898">
        <ele>151</ele>
        <time>2019-11-14T09:06:33.000Z</time>
      </trkpt>
      <trkpt lat="47.28957" lon="-2.38965">
        <ele>151</ele>
        <time>2019-11-14T09:06:40.000Z</time>
      </trkpt>
      <trkpt lat="47.28953" lon="-2.39023">
        <ele>151</ele>
        <time>2019-11-14T09:06:46.000Z</time>
      </trkpt>
      <trkpt lat="47.28946" lon="-2.3909">
        <ele>151</ele>
        <time>2019-11-14T09:06:53.000Z</time>
      </trkpt>
      <trkpt lat="47.28938" lon="-2.39157">
        <ele>151</ele>
        <time>2019-11-14T09:07:00.000Z</time>
      </trkpt>
      <trkpt lat="47.28937" lon="-2.39205">
        <ele>151</ele>
        <time>2019-11-14T09:07:05.000Z</time>
      </trkpt>
      <trkpt lat="47.28939" lon="-2.39254">
        <ele>151</ele>
        <time>2019-11-14T09:07:10.000Z</time>
      </trkpt>
      <trkpt lat="47.2894" lon="-2.39263">
        <ele>151</ele>
        <time>2019-11-14T09:07:11.000Z</time>
      </trkpt>
      <trkpt lat="47.2895" lon="-2.39298">
        <ele>151</ele>
        <time>2019-11-14T09:07:15.000Z</time>
      </trkpt>
      <trkpt lat="47.28958" lon="-2.39318">
        <ele>151</ele>
        <time>2019-11-14T09:07:18.000Z</time>
      </trkpt>
      <trkpt lat="47.2895" lon="-2.39334">
        <ele>151</ele>
        <time>2019-11-14T09:07:21.000Z</time>
      </trkpt>
      <trkpt lat="47.28947" lon="-2.3934">
        <ele>150.60000610352</ele>
        <time>2019-11-14T09:07:22.000Z</time>
      </trkpt>
      <trkpt lat="47.28945" lon="-2.39347">
        <ele>150.19999694824</ele>
        <time>2019-11-14T09:07:23.000Z</time>
      </trkpt>
      <trkpt lat="47.28944" lon="-2.39356">
        <ele>149.80000305176</ele>
        <time>2019-11-14T09:07:24.000Z</time>
      </trkpt>
      <trkpt lat="47.28943" lon="-2.39364">
        <ele>149.39999389648</ele>
        <time>2019-11-14T09:07:25.000Z</time>
      </trkpt>
      <trkpt lat="47.28941" lon="-2.39372">
        <ele>149</ele>
        <time>2019-11-14T09:07:26.000Z</time>
      </trkpt>
      <trkpt lat="47.28934" lon="-2.39415">
        <ele>149</ele>
        <time>2019-11-14T09:07:31.000Z</time>
      </trkpt>
      <trkpt lat="47.28933" lon="-2.39424">
        <ele>149</ele>
        <time>2019-11-14T09:07:32.000Z</time>
      </trkpt>
      <trkpt lat="47.28923" lon="-2.39484">
        <ele>149</ele>
        <time>2019-11-14T09:07:39.000Z</time>
      </trkpt>
      <trkpt lat="47.28915" lon="-2.39546">
        <ele>149</ele>
        <time>2019-11-14T09:07:46.000Z</time>
      </trkpt>
      <trkpt lat="47.28904" lon="-2.39616">
        <ele>149</ele>
        <time>2019-11-14T09:07:54.000Z</time>
      </trkpt>
      <trkpt lat="47.28901" lon="-2.39633">
        <ele>149</ele>
        <time>2019-11-14T09:07:56.000Z</time>
      </trkpt>
      <trkpt lat="47.28894" lon="-2.3966">
        <ele>149</ele>
        <time>2019-11-14T09:07:59.000Z</time>
      </trkpt>
      <trkpt lat="47.28877" lon="-2.39713">
        <ele>149</ele>
        <time>2019-11-14T09:08:05.000Z</time>
      </trkpt>
      <trkpt lat="47.28852" lon="-2.39783">
        <ele>149</ele>
        <time>2019-11-14T09:08:13.000Z</time>
      </trkpt>
      <trkpt lat="47.28839" lon="-2.39816">
        <ele>149</ele>
        <time>2019-11-14T09:08:18.000Z</time>
      </trkpt>
      <trkpt lat="47.28836" lon="-2.39829">
        <ele>148.60000610352</ele>
        <time>2019-11-14T09:08:21.000Z</time>
      </trkpt>
      <trkpt lat="47.28835" lon="-2.39834">
        <ele>148.19999694824</ele>
        <time>2019-11-14T09:08:22.000Z</time>
      </trkpt>
      <trkpt lat="47.28834" lon="-2.39838">
        <ele>147.80000305176</ele>
        <time>2019-11-14T09:08:23.000Z</time>
      </trkpt>
      <trkpt lat="47.28834" lon="-2.39841">
        <ele>147.39999389648</ele>
        <time>2019-11-14T09:08:24.000Z</time>
      </trkpt>
      <trkpt lat="47.28833" lon="-2.39845">
        <ele>147</ele>
        <time>2019-11-14T09:08:25.000Z</time>
      </trkpt>
      <trkpt lat="47.28831" lon="-2.39859">
        <ele>147</ele>
        <time>2019-11-14T09:08:31.000Z</time>
      </trkpt>
      <trkpt lat="47.2883" lon="-2.39869">
        <ele>147</ele>
        <time>2019-11-14T09:08:36.000Z</time>
      </trkpt>
      <trkpt lat="47.28829" lon="-2.39873">
        <ele>147</ele>
        <time>2019-11-14T09:08:38.000Z</time>
      </trkpt>
      <trkpt lat="47.28825" lon="-2.39874">
        <ele>147</ele>
        <time>2019-11-14T09:08:41.000Z</time>
      </trkpt>
      <trkpt lat="47.28821" lon="-2.39871">
        <ele>147</ele>
        <time>2019-11-14T09:08:44.000Z</time>
      </trkpt>
      <trkpt lat="47.2882" lon="-2.39868">
        <ele>147</ele>
        <time>2019-11-14T09:08:46.000Z</time>
      </trkpt>
      <trkpt lat="47.2882" lon="-2.39866">
        <ele>147</ele>
        <time>2019-11-14T09:08:47.000Z</time>
      </trkpt>
      <trkpt lat="47.28821" lon="-2.39852">
        <ele>147</ele>
        <time>2019-11-14T09:08:55.000Z</time>
      </trkpt>
      <trkpt lat="47.28821" lon="-2.39849">
        <ele>147.39999389648</ele>
        <time>2019-11-14T09:08:57.000Z</time>
      </trkpt>
      <trkpt lat="47.28821" lon="-2.39849">
        <ele>147.80000305176</ele>
        <time>2019-11-14T09:08:58.000Z</time>
      </trkpt>
      <trkpt lat="47.28821" lon="-2.3985">
        <ele>148.19999694824</ele>
        <time>2019-11-14T09:08:59.000Z</time>
      </trkpt>
      <trkpt lat="47.28821" lon="-2.39851">
        <ele>148.60000610352</ele>
        <time>2019-11-14T09:09:00.000Z</time>
      </trkpt>
      <trkpt lat="47.2882" lon="-2.39853">
        <ele>149</ele>
        <time>2019-11-14T09:09:01.000Z</time>
      </trkpt>
      <trkpt lat="47.2882" lon="-2.39855">
        <ele>149</ele>
        <time>2019-11-14T09:09:02.000Z</time>
      </trkpt>
      <trkpt lat="47.2882" lon="-2.39857">
        <ele>149</ele>
        <time>2019-11-14T09:09:03.000Z</time>
      </trkpt>
      <trkpt lat="47.2882" lon="-2.39863">
        <ele>149</ele>
        <time>2019-11-14T09:09:06.000Z</time>
      </trkpt>
      <trkpt lat="47.28821" lon="-2.39865">
        <ele>149</ele>
        <time>2019-11-14T09:09:11.000Z</time>
      </trkpt>
      <trkpt lat="47.28821" lon="-2.39865">
        <ele>149.39999389648</ele>
        <time>2019-11-14T09:09:12.000Z</time>
      </trkpt>
      <trkpt lat="47.28821" lon="-2.39862">
        <ele>149.80000305176</ele>
        <time>2019-11-14T09:09:13.000Z</time>
      </trkpt>
      <trkpt lat="47.28821" lon="-2.3986">
        <ele>150.19999694824</ele>
        <time>2019-11-14T09:09:14.000Z</time>
      </trkpt>
      <trkpt lat="47.28821" lon="-2.39857">
        <ele>150.60000610352</ele>
        <time>2019-11-14T09:09:15.000Z</time>
      </trkpt>
      <trkpt lat="47.28822" lon="-2.39854">
        <ele>151</ele>
        <time>2019-11-14T09:09:16.000Z</time>
      </trkpt>
      <trkpt lat="47.28822" lon="-2.39849">
        <ele>151</ele>
        <time>2019-11-14T09:09:18.000Z</time>
      </trkpt>
      <trkpt lat="47.2882" lon="-2.39847">
        <ele>151</ele>
        <time>2019-11-14T09:09:20.000Z</time>
      </trkpt>
      <trkpt lat="47.28812" lon="-2.39844">
        <ele>151</ele>
        <time>2019-11-14T09:09:27.000Z</time>
      </trkpt>
      <trkpt lat="47.28806" lon="-2.39842">
        <ele>151</ele>
        <time>2019-11-14T09:09:33.000Z</time>
      </trkpt>
      <trkpt lat="47.28803" lon="-2.3984">
        <ele>151</ele>
        <time>2019-11-14T09:09:37.000Z</time>
      </trkpt>
      <trkpt lat="47.28803" lon="-2.39843">
        <ele>151</ele>
        <time>2019-11-14T09:09:39.000Z</time>
      </trkpt>
      <trkpt lat="47.28809" lon="-2.39848">
        <ele>151</ele>
        <time>2019-11-14T09:09:44.000Z</time>
      </trkpt>
      <trkpt lat="47.28811" lon="-2.39849">
        <ele>151</ele>
        <time>2019-11-14T09:09:45.000Z</time>
      </trkpt>
      <trkpt lat="47.28813" lon="-2.3985">
        <ele>151</ele>
        <time>2019-11-14T09:09:47.000Z</time>
      </trkpt>
      <trkpt lat="47.28814" lon="-2.39848">
        <ele>151</ele>
        <time>2019-11-14T09:09:49.000Z</time>
      </trkpt>
      <trkpt lat="47.28814" lon="-2.39844">
        <ele>151</ele>
        <time>2019-11-14T09:09:52.000Z</time>
      </trkpt>
      <trkpt lat="47.28812" lon="-2.39844">
        <ele>151</ele>
        <time>2019-11-14T09:09:53.000Z</time>
      </trkpt>
      <trkpt lat="47.28809" lon="-2.39842">
        <ele>150.60000610352</ele>
        <time>2019-11-14T09:09:54.000Z</time>
      </trkpt>
      <trkpt lat="47.28806" lon="-2.39841">
        <ele>150.19999694824</ele>
        <time>2019-11-14T09:09:55.000Z</time>
      </trkpt>
      <trkpt lat="47.28804" lon="-2.39843">
        <ele>149.80000305176</ele>
        <time>2019-11-14T09:09:56.000Z</time>
      </trkpt>
      <trkpt lat="47.28802" lon="-2.39846">
        <ele>149.39999389648</ele>
        <time>2019-11-14T09:09:57.000Z</time>
      </trkpt>
      <trkpt lat="47.28803" lon="-2.39849">
        <ele>149</ele>
        <time>2019-11-14T09:09:58.000Z</time>
      </trkpt>
      <trkpt lat="47.28806" lon="-2.39853">
        <ele>149</ele>
        <time>2019-11-14T09:10:01.000Z</time>
      </trkpt>
      <trkpt lat="47.28809" lon="-2.39865">
        <ele>149</ele>
        <time>2019-11-14T09:10:04.000Z</time>
      </trkpt>
      <trkpt lat="47.28808" lon="-2.39877">
        <ele>149</ele>
        <time>2019-11-14T09:10:06.000Z</time>
      </trkpt>
      <trkpt lat="47.28806" lon="-2.39896">
        <ele>149</ele>
        <time>2019-11-14T09:10:09.000Z</time>
      </trkpt>
      <trkpt lat="47.28803" lon="-2.39904">
        <ele>149</ele>
        <time>2019-11-14T09:10:11.000Z</time>
      </trkpt>
      <trkpt lat="47.28801" lon="-2.39905">
        <ele>149</ele>
        <time>2019-11-14T09:10:12.000Z</time>
      </trkpt>
      <trkpt lat="47.28794" lon="-2.39901">
        <ele>149</ele>
        <time>2019-11-14T09:10:15.000Z</time>
      </trkpt>
      <trkpt lat="47.28781" lon="-2.39894">
        <ele>149</ele>
        <time>2019-11-14T09:10:19.000Z</time>
      </trkpt>
      <trkpt lat="47.2878" lon="-2.39897">
        <ele>149</ele>
        <time>2019-11-14T09:10:20.000Z</time>
      </trkpt>
      <trkpt lat="47.28777" lon="-2.3991">
        <ele>149</ele>
        <time>2019-11-14T09:10:25.000Z</time>
      </trkpt>
      <trkpt lat="47.28775" lon="-2.39925">
        <ele>149</ele>
        <time>2019-11-14T09:10:28.000Z</time>
      </trkpt>
      <trkpt lat="47.2877" lon="-2.39942">
        <ele>149</ele>
        <time>2019-11-14T09:10:31.000Z</time>
      </trkpt>
      <trkpt lat="47.28766" lon="-2.39954">
        <ele>149</ele>
        <time>2019-11-14T09:10:33.000Z</time>
      </trkpt>
      <trkpt lat="47.28752" lon="-2.39991">
        <ele>149</ele>
        <time>2019-11-14T09:10:39.000Z</time>
      </trkpt>
      <trkpt lat="47.28738" lon="-2.40035">
        <ele>149</ele>
        <time>2019-11-14T09:10:45.000Z</time>
      </trkpt>
      <trkpt lat="47.28737" lon="-2.40043">
        <ele>149</ele>
        <time>2019-11-14T09:10:46.000Z</time>
      </trkpt>
      <trkpt lat="47.28726" lon="-2.40112">
        <ele>149</ele>
        <time>2019-11-14T09:10:54.000Z</time>
      </trkpt>
      <trkpt lat="47.28717" lon="-2.40168">
        <ele>149</ele>
        <time>2019-11-14T09:11:01.000Z</time>
      </trkpt>
      <trkpt lat="47.28706" lon="-2.4021">
        <ele>149</ele>
        <time>2019-11-14T09:11:07.000Z</time>
      </trkpt>
      <trkpt lat="47.28685" lon="-2.40259">
        <ele>149</ele>
        <time>2019-11-14T09:11:14.000Z</time>
      </trkpt>
      <trkpt lat="47.28659" lon="-2.40312">
        <ele>149</ele>
        <time>2019-11-14T09:11:22.000Z</time>
      </trkpt>
      <trkpt lat="47.28638" lon="-2.40356">
        <ele>149</ele>
        <time>2019-11-14T09:11:29.000Z</time>
      </trkpt>
      <trkpt lat="47.28613" lon="-2.40408">
        <ele>149</ele>
        <time>2019-11-14T09:11:37.000Z</time>
      </trkpt>
      <trkpt lat="47.28599" lon="-2.40435">
        <ele>149</ele>
        <time>2019-11-14T09:11:41.000Z</time>
      </trkpt>
      <trkpt lat="47.28589" lon="-2.40455">
        <ele>149</ele>
        <time>2019-11-14T09:11:44.000Z</time>
      </trkpt>
      <trkpt lat="47.28585" lon="-2.40461">
        <ele>149</ele>
        <time>2019-11-14T09:11:45.000Z</time>
      </trkpt>
      <trkpt lat="47.28565" lon="-2.40489">
        <ele>149</ele>
        <time>2019-11-14T09:11:50.000Z</time>
      </trkpt>
      <trkpt lat="47.28562" lon="-2.40495">
        <ele>149</ele>
        <time>2019-11-14T09:11:51.000Z</time>
      </trkpt>
      <trkpt lat="47.28547" lon="-2.40518">
        <ele>149</ele>
        <time>2019-11-14T09:11:55.000Z</time>
      </trkpt>
      <trkpt lat="47.28531" lon="-2.40541">
        <ele>148.60000610352</ele>
        <time>2019-11-14T09:11:59.000Z</time>
      </trkpt>
      <trkpt lat="47.28527" lon="-2.40547">
        <ele>148.19999694824</ele>
        <time>2019-11-14T09:12:00.000Z</time>
      </trkpt>
      <trkpt lat="47.28523" lon="-2.40553">
        <ele>147.80000305176</ele>
        <time>2019-11-14T09:12:01.000Z</time>
      </trkpt>
      <trkpt lat="47.28519" lon="-2.40559">
        <ele>147.39999389648</ele>
        <time>2019-11-14T09:12:02.000Z</time>
      </trkpt>
      <trkpt lat="47.28516" lon="-2.40565">
        <ele>147</ele>
        <time>2019-11-14T09:12:03.000Z</time>
      </trkpt>
      <trkpt lat="47.28512" lon="-2.40571">
        <ele>147</ele>
        <time>2019-11-14T09:12:04.000Z</time>
      </trkpt>
      <trkpt lat="47.28491" lon="-2.40606">
        <ele>147</ele>
        <time>2019-11-14T09:12:10.000Z</time>
      </trkpt>
      <trkpt lat="47.28477" lon="-2.40629">
        <ele>147</ele>
        <time>2019-11-14T09:12:15.000Z</time>
      </trkpt>
      <trkpt lat="47.28473" lon="-2.40634">
        <ele>147</ele>
        <time>2019-11-14T09:12:16.000Z</time>
      </trkpt>
      <trkpt lat="47.28445" lon="-2.40673">
        <ele>147</ele>
        <time>2019-11-14T09:12:23.000Z</time>
      </trkpt>
      <trkpt lat="47.28412" lon="-2.40717">
        <ele>147</ele>
        <time>2019-11-14T09:12:31.000Z</time>
      </trkpt>
      <trkpt lat="47.28386" lon="-2.40748">
        <ele>147</ele>
        <time>2019-11-14T09:12:37.000Z</time>
      </trkpt>
      <trkpt lat="47.28362" lon="-2.40777">
        <ele>147</ele>
        <time>2019-11-14T09:12:43.000Z</time>
      </trkpt>
      <trkpt lat="47.28357" lon="-2.40781">
        <ele>147</ele>
        <time>2019-11-14T09:12:44.000Z</time>
      </trkpt>
      <trkpt lat="47.2834" lon="-2.40799">
        <ele>147</ele>
        <time>2019-11-14T09:12:48.000Z</time>
      </trkpt>
      <trkpt lat="47.28335" lon="-2.40804">
        <ele>147</ele>
        <time>2019-11-14T09:12:49.000Z</time>
      </trkpt>
      <trkpt lat="47.28317" lon="-2.40822">
        <ele>147</ele>
        <time>2019-11-14T09:12:53.000Z</time>
      </trkpt>
      <trkpt lat="47.28298" lon="-2.40839">
        <ele>147.39999389648</ele>
        <time>2019-11-14T09:12:58.000Z</time>
      </trkpt>
      <trkpt lat="47.28295" lon="-2.40843">
        <ele>147.80000305176</ele>
        <time>2019-11-14T09:12:59.000Z</time>
      </trkpt>
      <trkpt lat="47.28293" lon="-2.40848">
        <ele>148.19999694824</ele>
        <time>2019-11-14T09:13:00.000Z</time>
      </trkpt>
      <trkpt lat="47.28292" lon="-2.40853">
        <ele>148.60000610352</ele>
        <time>2019-11-14T09:13:01.000Z</time>
      </trkpt>
      <trkpt lat="47.2829" lon="-2.40859">
        <ele>149</ele>
        <time>2019-11-14T09:13:02.000Z</time>
      </trkpt>
      <trkpt lat="47.28274" lon="-2.40893">
        <ele>149</ele>
        <time>2019-11-14T09:13:08.000Z</time>
      </trkpt>
      <trkpt lat="47.28271" lon="-2.409">
        <ele>149</ele>
        <time>2019-11-14T09:13:09.000Z</time>
      </trkpt>
      <trkpt lat="47.28266" lon="-2.4092">
        <ele>149</ele>
        <time>2019-11-14T09:13:12.000Z</time>
      </trkpt>
      <trkpt lat="47.28256" lon="-2.40966">
        <ele>149</ele>
        <time>2019-11-14T09:13:19.000Z</time>
      </trkpt>
      <trkpt lat="47.28253" lon="-2.40984">
        <ele>149</ele>
        <time>2019-11-14T09:13:23.000Z</time>
      </trkpt>
      <trkpt lat="47.28254" lon="-2.40987">
        <ele>149</ele>
        <time>2019-11-14T09:13:24.000Z</time>
      </trkpt>
      <trkpt lat="47.28258" lon="-2.40996">
        <ele>149</ele>
        <time>2019-11-14T09:13:27.000Z</time>
      </trkpt>
      <trkpt lat="47.28259" lon="-2.41006">
        <ele>149</ele>
        <time>2019-11-14T09:13:30.000Z</time>
      </trkpt>
      <trkpt lat="47.28264" lon="-2.41021">
        <ele>149</ele>
        <time>2019-11-14T09:13:34.000Z</time>
      </trkpt>
      <trkpt lat="47.28276" lon="-2.41031">
        <ele>149</ele>
        <time>2019-11-14T09:13:37.000Z</time>
      </trkpt>
      <trkpt lat="47.28286" lon="-2.41037">
        <ele>149</ele>
        <time>2019-11-14T09:13:39.000Z</time>
      </trkpt>
      <trkpt lat="47.28308" lon="-2.41051">
        <ele>149</ele>
        <time>2019-11-14T09:13:44.000Z</time>
      </trkpt>
      <trkpt lat="47.28311" lon="-2.41054">
        <ele>149</ele>
        <time>2019-11-14T09:13:45.000Z</time>
      </trkpt>
      <trkpt lat="47.28315" lon="-2.41057">
        <ele>149</ele>
        <time>2019-11-14T09:13:46.000Z</time>
      </trkpt>
      <trkpt lat="47.28329" lon="-2.41065">
        <ele>149</ele>
        <time>2019-11-14T09:13:49.000Z</time>
      </trkpt>
      <trkpt lat="47.28334" lon="-2.41068">
        <ele>148.60000610352</ele>
        <time>2019-11-14T09:13:50.000Z</time>
      </trkpt>
      <trkpt lat="47.28339" lon="-2.4107">
        <ele>147.80000305176</ele>
        <time>2019-11-14T09:13:51.000Z</time>
      </trkpt>
      <trkpt lat="47.28343" lon="-2.41073">
        <ele>147.39999389648</ele>
        <time>2019-11-14T09:13:52.000Z</time>
      </trkpt>
      <trkpt lat="47.28347" lon="-2.41075">
        <ele>147</ele>
        <time>2019-11-14T09:13:53.000Z</time>
      </trkpt>
      <trkpt lat="47.28351" lon="-2.41077">
        <ele>147</ele>
        <time>2019-11-14T09:13:54.000Z</time>
      </trkpt>
      <trkpt lat="47.28365" lon="-2.41084">
        <ele>147</ele>
        <time>2019-11-14T09:13:57.000Z</time>
      </trkpt>
      <trkpt lat="47.28373" lon="-2.41087">
        <ele>147</ele>
        <time>2019-11-14T09:13:59.000Z</time>
      </trkpt>
      <trkpt lat="47.28382" lon="-2.41102">
        <ele>147</ele>
        <time>2019-11-14T09:14:03.000Z</time>
      </trkpt>
      <trkpt lat="47.2838" lon="-2.41123">
        <ele>147</ele>
        <time>2019-11-14T09:14:07.000Z</time>
      </trkpt>
      <trkpt lat="47.28378" lon="-2.4113">
        <ele>147</ele>
        <time>2019-11-14T09:14:08.000Z</time>
      </trkpt>
      <trkpt lat="47.2837" lon="-2.41172">
        <ele>147</ele>
        <time>2019-11-14T09:14:14.000Z</time>
      </trkpt>
      <trkpt lat="47.28365" lon="-2.41193">
        <ele>147</ele>
        <time>2019-11-14T09:14:18.000Z</time>
      </trkpt>
      <trkpt lat="47.28364" lon="-2.41204">
        <ele>147</ele>
        <time>2019-11-14T09:14:22.000Z</time>
      </trkpt>
      <trkpt lat="47.28365" lon="-2.41206">
        <ele>147</ele>
        <time>2019-11-14T09:14:23.000Z</time>
      </trkpt>
      <trkpt lat="47.28368" lon="-2.41213">
        <ele>147</ele>
        <time>2019-11-14T09:14:26.000Z</time>
      </trkpt>
      <trkpt lat="47.28369" lon="-2.41227">
        <ele>147</ele>
        <time>2019-11-14T09:14:30.000Z</time>
      </trkpt>
      <trkpt lat="47.28375" lon="-2.41231">
        <ele>147</ele>
        <time>2019-11-14T09:14:32.000Z</time>
      </trkpt>
      <trkpt lat="47.28382" lon="-2.41234">
        <ele>147</ele>
        <time>2019-11-14T09:14:34.000Z</time>
      </trkpt>
      <trkpt lat="47.28397" lon="-2.41241">
        <ele>147</ele>
        <time>2019-11-14T09:14:38.000Z</time>
      </trkpt>
      <trkpt lat="47.2842" lon="-2.41252">
        <ele>147</ele>
        <time>2019-11-14T09:14:43.000Z</time>
      </trkpt>
      <trkpt lat="47.2843" lon="-2.41255">
        <ele>147</ele>
        <time>2019-11-14T09:14:45.000Z</time>
      </trkpt>
      <trkpt lat="47.2844" lon="-2.4126">
        <ele>147</ele>
        <time>2019-11-14T09:14:47.000Z</time>
      </trkpt>
      <trkpt lat="47.28445" lon="-2.41263">
        <ele>147</ele>
        <time>2019-11-14T09:14:48.000Z</time>
      </trkpt>
      <trkpt lat="47.28456" lon="-2.41285">
        <ele>147</ele>
        <time>2019-11-14T09:14:52.000Z</time>
      </trkpt>
      <trkpt lat="47.28452" lon="-2.41315">
        <ele>147</ele>
        <time>2019-11-14T09:14:56.000Z</time>
      </trkpt>
      <trkpt lat="47.28451" lon="-2.41323">
        <ele>147.39999389648</ele>
        <time>2019-11-14T09:14:57.000Z</time>
      </trkpt>
      <trkpt lat="47.28449" lon="-2.41332">
        <ele>147.80000305176</ele>
        <time>2019-11-14T09:14:58.000Z</time>
      </trkpt>
      <trkpt lat="47.28447" lon="-2.41341">
        <ele>148.19999694824</ele>
        <time>2019-11-14T09:14:59.000Z</time>
      </trkpt>
      <trkpt lat="47.28445" lon="-2.41349">
        <ele>148.60000610352</ele>
        <time>2019-11-14T09:15:00.000Z</time>
      </trkpt>
      <trkpt lat="47.28442" lon="-2.41357">
        <ele>149.19999694824</ele>
        <time>2019-11-14T09:15:01.000Z</time>
      </trkpt>
      <trkpt lat="47.2844" lon="-2.41366">
        <ele>149.19999694824</ele>
        <time>2019-11-14T09:15:02.000Z</time>
      </trkpt>
      <trkpt lat="47.28428" lon="-2.41414">
        <ele>149.19999694824</ele>
        <time>2019-11-14T09:15:08.000Z</time>
      </trkpt>
      <trkpt lat="47.28418" lon="-2.41479">
        <ele>149.19999694824</ele>
        <time>2019-11-14T09:15:15.000Z</time>
      </trkpt>
      <trkpt lat="47.28413" lon="-2.41543">
        <ele>149.19999694824</ele>
        <time>2019-11-14T09:15:22.000Z</time>
      </trkpt>
      <trkpt lat="47.28406" lon="-2.41604">
        <ele>149.19999694824</ele>
        <time>2019-11-14T09:15:29.000Z</time>
      </trkpt>
      <trkpt lat="47.284" lon="-2.41657">
        <ele>149.19999694824</ele>
        <time>2019-11-14T09:15:35.000Z</time>
      </trkpt>
      <trkpt lat="47.28396" lon="-2.41683">
        <ele>149.19999694824</ele>
        <time>2019-11-14T09:15:38.000Z</time>
      </trkpt>
      <trkpt lat="47.28392" lon="-2.417">
        <ele>149.19999694824</ele>
        <time>2019-11-14T09:15:40.000Z</time>
      </trkpt>
      <trkpt lat="47.28377" lon="-2.41761">
        <ele>149.19999694824</ele>
        <time>2019-11-14T09:15:47.000Z</time>
      </trkpt>
      <trkpt lat="47.2836" lon="-2.4183">
        <ele>149.19999694824</ele>
        <time>2019-11-14T09:15:55.000Z</time>
      </trkpt>
      <trkpt lat="47.28345" lon="-2.41892">
        <ele>149.19999694824</ele>
        <time>2019-11-14T09:16:02.000Z</time>
      </trkpt>
      <trkpt lat="47.28329" lon="-2.41954">
        <ele>149.19999694824</ele>
        <time>2019-11-14T09:16:09.000Z</time>
      </trkpt>
      <trkpt lat="47.28312" lon="-2.42024">
        <ele>149.19999694824</ele>
        <time>2019-11-14T09:16:17.000Z</time>
      </trkpt>
      <trkpt lat="47.28304" lon="-2.42085">
        <ele>149.19999694824</ele>
        <time>2019-11-14T09:16:24.000Z</time>
      </trkpt>
      <trkpt lat="47.28301" lon="-2.42103">
        <ele>149.19999694824</ele>
        <time>2019-11-14T09:16:26.000Z</time>
      </trkpt>
      <trkpt lat="47.28295" lon="-2.42136">
        <ele>149.19999694824</ele>
        <time>2019-11-14T09:16:30.000Z</time>
      </trkpt>
      <trkpt lat="47.28294" lon="-2.42145">
        <ele>149.19999694824</ele>
        <time>2019-11-14T09:16:31.000Z</time>
      </trkpt>
      <trkpt lat="47.2829" lon="-2.42176">
        <ele>149.19999694824</ele>
        <time>2019-11-14T09:16:35.000Z</time>
      </trkpt>
      <trkpt lat="47.28282" lon="-2.42231">
        <ele>149.19999694824</ele>
        <time>2019-11-14T09:16:42.000Z</time>
      </trkpt>
      <trkpt lat="47.28274" lon="-2.42289">
        <ele>149.19999694824</ele>
        <time>2019-11-14T09:16:49.000Z</time>
      </trkpt>
      <trkpt lat="47.28264" lon="-2.42339">
        <ele>149.19999694824</ele>
        <time>2019-11-14T09:16:55.000Z</time>
      </trkpt>
      <trkpt lat="47.28249" lon="-2.42405">
        <ele>149.19999694824</ele>
        <time>2019-11-14T09:17:03.000Z</time>
      </trkpt>
      <trkpt lat="47.28237" lon="-2.42443">
        <ele>149.19999694824</ele>
        <time>2019-11-14T09:17:08.000Z</time>
      </trkpt>
      <trkpt lat="47.2823" lon="-2.42457">
        <ele>149.19999694824</ele>
        <time>2019-11-14T09:17:10.000Z</time>
      </trkpt>
      <trkpt lat="47.28214" lon="-2.42492">
        <ele>149.19999694824</ele>
        <time>2019-11-14T09:17:15.000Z</time>
      </trkpt>
      <trkpt lat="47.2821" lon="-2.42498">
        <ele>149.19999694824</ele>
        <time>2019-11-14T09:17:16.000Z</time>
      </trkpt>
      <trkpt lat="47.28197" lon="-2.42514">
        <ele>149.19999694824</ele>
        <time>2019-11-14T09:17:19.000Z</time>
      </trkpt>
      <trkpt lat="47.28192" lon="-2.42518">
        <ele>149.19999694824</ele>
        <time>2019-11-14T09:17:20.000Z</time>
      </trkpt>
      <trkpt lat="47.28186" lon="-2.42521">
        <ele>149.19999694824</ele>
        <time>2019-11-14T09:17:21.000Z</time>
      </trkpt>
      <trkpt lat="47.28153" lon="-2.42533">
        <ele>149.19999694824</ele>
        <time>2019-11-14T09:17:27.000Z</time>
      </trkpt>
      <trkpt lat="47.28148" lon="-2.42535">
        <ele>149.19999694824</ele>
        <time>2019-11-14T09:17:28.000Z</time>
      </trkpt>
      <trkpt lat="47.28122" lon="-2.42542">
        <ele>149.19999694824</ele>
        <time>2019-11-14T09:17:33.000Z</time>
      </trkpt>
      <trkpt lat="47.28103" lon="-2.42547">
        <ele>149.19999694824</ele>
        <time>2019-11-14T09:17:37.000Z</time>
      </trkpt>
      <trkpt lat="47.28101" lon="-2.4255">
        <ele>149.19999694824</ele>
        <time>2019-11-14T09:17:38.000Z</time>
      </trkpt>
      <trkpt lat="47.281" lon="-2.4256">
        <ele>149.19999694824</ele>
        <time>2019-11-14T09:17:41.000Z</time>
      </trkpt>
      <trkpt lat="47.28104" lon="-2.42568">
        <ele>149.19999694824</ele>
        <time>2019-11-14T09:17:43.000Z</time>
      </trkpt>
      <trkpt lat="47.28109" lon="-2.42579">
        <ele>149.19999694824</ele>
        <time>2019-11-14T09:17:46.000Z</time>
      </trkpt>
      <trkpt lat="47.28129" lon="-2.42614">
        <ele>149.19999694824</ele>
        <time>2019-11-14T09:17:54.000Z</time>
      </trkpt>
      <trkpt lat="47.2814" lon="-2.42631">
        <ele>149.60000610352</ele>
        <time>2019-11-14T09:17:58.000Z</time>
      </trkpt>
      <trkpt lat="47.28142" lon="-2.42635">
        <ele>150</ele>
        <time>2019-11-14T09:17:59.000Z</time>
      </trkpt>
      <trkpt lat="47.28145" lon="-2.4264">
        <ele>150.39999389648</ele>
        <time>2019-11-14T09:18:00.000Z</time>
      </trkpt>
      <trkpt lat="47.28147" lon="-2.42644">
        <ele>150.80000305176</ele>
        <time>2019-11-14T09:18:01.000Z</time>
      </trkpt>
      <trkpt lat="47.2815" lon="-2.42649">
        <ele>151.19999694824</ele>
        <time>2019-11-14T09:18:02.000Z</time>
      </trkpt>
      <trkpt lat="47.28155" lon="-2.42659">
        <ele>151.19999694824</ele>
        <time>2019-11-14T09:18:04.000Z</time>
      </trkpt>
      <trkpt lat="47.28178" lon="-2.427">
        <ele>151.19999694824</ele>
        <time>2019-11-14T09:18:11.000Z</time>
      </trkpt>
      <trkpt lat="47.28181" lon="-2.42706">
        <ele>151.19999694824</ele>
        <time>2019-11-14T09:18:12.000Z</time>
      </trkpt>
      <trkpt lat="47.28188" lon="-2.42711">
        <ele>151.19999694824</ele>
        <time>2019-11-14T09:18:14.000Z</time>
      </trkpt>
      <trkpt lat="47.28196" lon="-2.42699">
        <ele>151.19999694824</ele>
        <time>2019-11-14T09:18:17.000Z</time>
      </trkpt>
      <trkpt lat="47.28199" lon="-2.42688">
        <ele>151.19999694824</ele>
        <time>2019-11-14T09:18:19.000Z</time>
      </trkpt>
      <trkpt lat="47.28205" lon="-2.42671">
        <ele>151.19999694824</ele>
        <time>2019-11-14T09:18:22.000Z</time>
      </trkpt>
      <trkpt lat="47.28213" lon="-2.42656">
        <ele>151.19999694824</ele>
        <time>2019-11-14T09:18:25.000Z</time>
      </trkpt>
      <trkpt lat="47.28223" lon="-2.42645">
        <ele>151.19999694824</ele>
        <time>2019-11-14T09:18:28.000Z</time>
      </trkpt>
      <trkpt lat="47.28244" lon="-2.42624">
        <ele>151.19999694824</ele>
        <time>2019-11-14T09:18:35.000Z</time>
      </trkpt>
      <trkpt lat="47.28258" lon="-2.42612">
        <ele>151.19999694824</ele>
        <time>2019-11-14T09:18:41.000Z</time>
      </trkpt>
      <trkpt lat="47.28262" lon="-2.42607">
        <ele>150.80000305176</ele>
        <time>2019-11-14T09:18:44.000Z</time>
      </trkpt>
      <trkpt lat="47.28264" lon="-2.42605">
        <ele>150.39999389648</ele>
        <time>2019-11-14T09:18:45.000Z</time>
      </trkpt>
      <trkpt lat="47.28265" lon="-2.42603">
        <ele>150</ele>
        <time>2019-11-14T09:18:46.000Z</time>
      </trkpt>
      <trkpt lat="47.28267" lon="-2.426">
        <ele>149.19999694824</ele>
        <time>2019-11-14T09:18:47.000Z</time>
      </trkpt>
      <trkpt lat="47.28271" lon="-2.42595">
        <ele>149.19999694824</ele>
        <time>2019-11-14T09:18:49.000Z</time>
      </trkpt>
      <trkpt lat="47.28288" lon="-2.42575">
        <ele>149.19999694824</ele>
        <time>2019-11-14T09:18:57.000Z</time>
      </trkpt>
      <trkpt lat="47.28313" lon="-2.42555">
        <ele>149.19999694824</ele>
        <time>2019-11-14T09:19:06.000Z</time>
      </trkpt>
      <trkpt lat="47.28323" lon="-2.42538">
        <ele>149.19999694824</ele>
        <time>2019-11-14T09:19:11.000Z</time>
      </trkpt>
      <trkpt lat="47.28328" lon="-2.42514">
        <ele>149.19999694824</ele>
        <time>2019-11-14T09:19:16.000Z</time>
      </trkpt>
      <trkpt lat="47.28337" lon="-2.42488">
        <ele>149.19999694824</ele>
        <time>2019-11-14T09:19:21.000Z</time>
      </trkpt>
      <trkpt lat="47.2834" lon="-2.42482">
        <ele>149.19999694824</ele>
        <time>2019-11-14T09:19:22.000Z</time>
      </trkpt>
      <trkpt lat="47.28351" lon="-2.42457">
        <ele>149.19999694824</ele>
        <time>2019-11-14T09:19:26.000Z</time>
      </trkpt>
      <trkpt lat="47.28363" lon="-2.42429">
        <ele>149.19999694824</ele>
        <time>2019-11-14T09:19:31.000Z</time>
      </trkpt>
      <trkpt lat="47.28365" lon="-2.42423">
        <ele>149.19999694824</ele>
        <time>2019-11-14T09:19:32.000Z</time>
      </trkpt>
      <trkpt lat="47.28382" lon="-2.42381">
        <ele>149.19999694824</ele>
        <time>2019-11-14T09:19:40.000Z</time>
      </trkpt>
      <trkpt lat="47.28382" lon="-2.42364">
        <ele>149.19999694824</ele>
        <time>2019-11-14T09:19:43.000Z</time>
      </trkpt>
      <trkpt lat="47.2838" lon="-2.4236">
        <ele>149.19999694824</ele>
        <time>2019-11-14T09:19:44.000Z</time>
      </trkpt>
      <trkpt lat="47.28375" lon="-2.42344">
        <ele>149.19999694824</ele>
        <time>2019-11-14T09:19:47.000Z</time>
      </trkpt>
      <trkpt lat="47.28375" lon="-2.4233">
        <ele>149.19999694824</ele>
        <time>2019-11-14T09:19:49.000Z</time>
      </trkpt>
      <trkpt lat="47.28375" lon="-2.42323">
        <ele>149.19999694824</ele>
        <time>2019-11-14T09:19:50.000Z</time>
      </trkpt>
      <trkpt lat="47.28376" lon="-2.42308">
        <ele>149.19999694824</ele>
        <time>2019-11-14T09:19:52.000Z</time>
      </trkpt>
      <trkpt lat="47.28379" lon="-2.42281">
        <ele>149.19999694824</ele>
        <time>2019-11-14T09:19:56.000Z</time>
      </trkpt>
      <trkpt lat="47.2838" lon="-2.42275">
        <ele>149.19999694824</ele>
        <time>2019-11-14T09:19:57.000Z</time>
      </trkpt>
      <trkpt lat="47.28386" lon="-2.42243">
        <ele>149.19999694824</ele>
        <time>2019-11-14T09:20:02.000Z</time>
      </trkpt>
      <trkpt lat="47.28388" lon="-2.42229">
        <ele>149.19999694824</ele>
        <time>2019-11-14T09:20:05.000Z</time>
      </trkpt>
      <trkpt lat="47.28389" lon="-2.42223">
        <ele>149.19999694824</ele>
        <time>2019-11-14T09:20:06.000Z</time>
      </trkpt>
      <trkpt lat="47.28397" lon="-2.42189">
        <ele>149.19999694824</ele>
        <time>2019-11-14T09:20:11.000Z</time>
      </trkpt>
      <trkpt lat="47.28404" lon="-2.42156">
        <ele>149.19999694824</ele>
        <time>2019-11-14T09:20:16.000Z</time>
      </trkpt>
      <trkpt lat="47.28408" lon="-2.42135">
        <ele>149.60000610352</ele>
        <time>2019-11-14T09:20:19.000Z</time>
      </trkpt>
      <trkpt lat="47.28409" lon="-2.42128">
        <ele>150</ele>
        <time>2019-11-14T09:20:20.000Z</time>
      </trkpt>
      <trkpt lat="47.28411" lon="-2.42121">
        <ele>150.39999389648</ele>
        <time>2019-11-14T09:20:21.000Z</time>
      </trkpt>
      <trkpt lat="47.28412" lon="-2.42114">
        <ele>150.80000305176</ele>
        <time>2019-11-14T09:20:22.000Z</time>
      </trkpt>
      <trkpt lat="47.28413" lon="-2.42108">
        <ele>151.19999694824</ele>
        <time>2019-11-14T09:20:23.000Z</time>
      </trkpt>
      <trkpt lat="47.28415" lon="-2.42101">
        <ele>151.19999694824</ele>
        <time>2019-11-14T09:20:24.000Z</time>
      </trkpt>
      <trkpt lat="47.28417" lon="-2.42088">
        <ele>151.19999694824</ele>
        <time>2019-11-14T09:20:26.000Z</time>
      </trkpt>
      <trkpt lat="47.28419" lon="-2.42075">
        <ele>151.19999694824</ele>
        <time>2019-11-14T09:20:28.000Z</time>
      </trkpt>
      <trkpt lat="47.28427" lon="-2.42032">
        <ele>151.19999694824</ele>
        <time>2019-11-14T09:20:34.000Z</time>
      </trkpt>
      <trkpt lat="47.28436" lon="-2.41997">
        <ele>151.19999694824</ele>
        <time>2019-11-14T09:20:39.000Z</time>
      </trkpt>
      <trkpt lat="47.28439" lon="-2.41985">
        <ele>151.19999694824</ele>
        <time>2019-11-14T09:20:41.000Z</time>
      </trkpt>
      <trkpt lat="47.28449" lon="-2.41954">
        <ele>151.19999694824</ele>
        <time>2019-11-14T09:20:47.000Z</time>
      </trkpt>
      <trkpt lat="47.28456" lon="-2.41945">
        <ele>151.19999694824</ele>
        <time>2019-11-14T09:20:52.000Z</time>
      </trkpt>
      <trkpt lat="47.28458" lon="-2.41945">
        <ele>151.19999694824</ele>
        <time>2019-11-14T09:20:53.000Z</time>
      </trkpt>
      <trkpt lat="47.28473" lon="-2.41947">
        <ele>151.19999694824</ele>
        <time>2019-11-14T09:20:57.000Z</time>
      </trkpt>
      <trkpt lat="47.28483" lon="-2.41941">
        <ele>151.19999694824</ele>
        <time>2019-11-14T09:21:00.000Z</time>
      </trkpt>
      <trkpt lat="47.28492" lon="-2.41941">
        <ele>151.19999694824</ele>
        <time>2019-11-14T09:21:04.000Z</time>
      </trkpt>
      <trkpt lat="47.28499" lon="-2.41939">
        <ele>151.19999694824</ele>
        <time>2019-11-14T09:21:07.000Z</time>
      </trkpt>
      <trkpt lat="47.28506" lon="-2.41937">
        <ele>151.19999694824</ele>
        <time>2019-11-14T09:21:10.000Z</time>
      </trkpt>
      <trkpt lat="47.2852" lon="-2.41939">
        <ele>151.19999694824</ele>
        <time>2019-11-14T09:21:15.000Z</time>
      </trkpt>
      <trkpt lat="47.28544" lon="-2.41955">
        <ele>151.19999694824</ele>
        <time>2019-11-14T09:21:22.000Z</time>
      </trkpt>
      <trkpt lat="47.28558" lon="-2.41985">
        <ele>151.19999694824</ele>
        <time>2019-11-14T09:21:28.000Z</time>
      </trkpt>
      <trkpt lat="47.28572" lon="-2.42017">
        <ele>151.60000610352</ele>
        <time>2019-11-14T09:21:34.000Z</time>
      </trkpt>
      <trkpt lat="47.28574" lon="-2.42022">
        <ele>152</ele>
        <time>2019-11-14T09:21:35.000Z</time>
      </trkpt>
      <trkpt lat="47.28576" lon="-2.42027">
        <ele>152.39999389648</ele>
        <time>2019-11-14T09:21:36.000Z</time>
      </trkpt>
      <trkpt lat="47.28578" lon="-2.42033">
        <ele>152.80000305176</ele>
        <time>2019-11-14T09:21:37.000Z</time>
      </trkpt>
      <trkpt lat="47.28581" lon="-2.42038">
        <ele>153.19999694824</ele>
        <time>2019-11-14T09:21:38.000Z</time>
      </trkpt>
      <trkpt lat="47.28588" lon="-2.42054">
        <ele>153.19999694824</ele>
        <time>2019-11-14T09:21:41.000Z</time>
      </trkpt>
      <trkpt lat="47.28597" lon="-2.4208">
        <ele>153.19999694824</ele>
        <time>2019-11-14T09:21:46.000Z</time>
      </trkpt>
      <trkpt lat="47.28604" lon="-2.42096">
        <ele>153.19999694824</ele>
        <time>2019-11-14T09:21:49.000Z</time>
      </trkpt>
      <trkpt lat="47.28613" lon="-2.42118">
        <ele>153.19999694824</ele>
        <time>2019-11-14T09:21:53.000Z</time>
      </trkpt>
      <trkpt lat="47.28627" lon="-2.42149">
        <ele>153.19999694824</ele>
        <time>2019-11-14T09:21:59.000Z</time>
      </trkpt>
      <trkpt lat="47.28628" lon="-2.42155">
        <ele>153.19999694824</ele>
        <time>2019-11-14T09:22:00.000Z</time>
      </trkpt>
      <trkpt lat="47.28638" lon="-2.42176">
        <ele>153.19999694824</ele>
        <time>2019-11-14T09:22:04.000Z</time>
      </trkpt>
      <trkpt lat="47.28651" lon="-2.42196">
        <ele>153.19999694824</ele>
        <time>2019-11-14T09:22:09.000Z</time>
      </trkpt>
      <trkpt lat="47.28664" lon="-2.42192">
        <ele>153.19999694824</ele>
        <time>2019-11-14T09:22:12.000Z</time>
      </trkpt>
      <trkpt lat="47.28668" lon="-2.42191">
        <ele>153.19999694824</ele>
        <time>2019-11-14T09:22:13.000Z</time>
      </trkpt>
      <trkpt lat="47.28677" lon="-2.42188">
        <ele>153.19999694824</ele>
        <time>2019-11-14T09:22:15.000Z</time>
      </trkpt>
      <trkpt lat="47.28685" lon="-2.42188">
        <ele>153.19999694824</ele>
        <time>2019-11-14T09:22:17.000Z</time>
      </trkpt>
      <trkpt lat="47.28689" lon="-2.42188">
        <ele>153.19999694824</ele>
        <time>2019-11-14T09:22:18.000Z</time>
      </trkpt>
      <trkpt lat="47.28705" lon="-2.42194">
        <ele>153.19999694824</ele>
        <time>2019-11-14T09:22:23.000Z</time>
      </trkpt>
      <trkpt lat="47.28708" lon="-2.42197">
        <ele>153.19999694824</ele>
        <time>2019-11-14T09:22:25.000Z</time>
      </trkpt>
      <trkpt lat="47.28707" lon="-2.42203">
        <ele>153.19999694824</ele>
        <time>2019-11-14T09:22:27.000Z</time>
      </trkpt>
      <trkpt lat="47.28704" lon="-2.4221">
        <ele>153.19999694824</ele>
        <time>2019-11-14T09:22:29.000Z</time>
      </trkpt>
      <trkpt lat="47.287" lon="-2.42221">
        <ele>153.19999694824</ele>
        <time>2019-11-14T09:22:31.000Z</time>
      </trkpt>
      <trkpt lat="47.2869" lon="-2.42255">
        <ele>153.19999694824</ele>
        <time>2019-11-14T09:22:36.000Z</time>
      </trkpt>
      <trkpt lat="47.28687" lon="-2.4227">
        <ele>153.19999694824</ele>
        <time>2019-11-14T09:22:38.000Z</time>
      </trkpt>
      <trkpt lat="47.28682" lon="-2.42297">
        <ele>153.19999694824</ele>
        <time>2019-11-14T09:22:42.000Z</time>
      </trkpt>
      <trkpt lat="47.28675" lon="-2.4233">
        <ele>153.19999694824</ele>
        <time>2019-11-14T09:22:47.000Z</time>
      </trkpt>
      <trkpt lat="47.28673" lon="-2.42343">
        <ele>153.19999694824</ele>
        <time>2019-11-14T09:22:49.000Z</time>
      </trkpt>
      <trkpt lat="47.2867" lon="-2.42378">
        <ele>153.19999694824</ele>
        <time>2019-11-14T09:22:54.000Z</time>
      </trkpt>
      <trkpt lat="47.28668" lon="-2.42384">
        <ele>153.19999694824</ele>
        <time>2019-11-14T09:22:55.000Z</time>
      </trkpt>
      <trkpt lat="47.28658" lon="-2.424">
        <ele>153.19999694824</ele>
        <time>2019-11-14T09:22:58.000Z</time>
      </trkpt>
      <trkpt lat="47.28655" lon="-2.42405">
        <ele>153.19999694824</ele>
        <time>2019-11-14T09:22:59.000Z</time>
      </trkpt>
      <trkpt lat="47.28627" lon="-2.42435">
        <ele>153.19999694824</ele>
        <time>2019-11-14T09:23:05.000Z</time>
      </trkpt>
      <trkpt lat="47.28622" lon="-2.42438">
        <ele>153.19999694824</ele>
        <time>2019-11-14T09:23:06.000Z</time>
      </trkpt>
      <trkpt lat="47.28602" lon="-2.42457">
        <ele>153.19999694824</ele>
        <time>2019-11-14T09:23:10.000Z</time>
      </trkpt>
      <trkpt lat="47.28574" lon="-2.42498">
        <ele>153.19999694824</ele>
        <time>2019-11-14T09:23:16.000Z</time>
      </trkpt>
      <trkpt lat="47.28571" lon="-2.42506">
        <ele>153.19999694824</ele>
        <time>2019-11-14T09:23:17.000Z</time>
      </trkpt>
      <trkpt lat="47.28566" lon="-2.42545">
        <ele>153.19999694824</ele>
        <time>2019-11-14T09:23:21.000Z</time>
      </trkpt>
      <trkpt lat="47.28572" lon="-2.42572">
        <ele>153.19999694824</ele>
        <time>2019-11-14T09:23:24.000Z</time>
      </trkpt>
      <trkpt lat="47.2859" lon="-2.42603">
        <ele>153.19999694824</ele>
        <time>2019-11-14T09:23:28.000Z</time>
      </trkpt>
      <trkpt lat="47.28606" lon="-2.42619">
        <ele>153.19999694824</ele>
        <time>2019-11-14T09:23:31.000Z</time>
      </trkpt>
      <trkpt lat="47.28618" lon="-2.42629">
        <ele>153.19999694824</ele>
        <time>2019-11-14T09:23:33.000Z</time>
      </trkpt>
      <trkpt lat="47.28642" lon="-2.42647">
        <ele>153.19999694824</ele>
        <time>2019-11-14T09:23:37.000Z</time>
      </trkpt>
      <trkpt lat="47.28654" lon="-2.4265">
        <ele>153.19999694824</ele>
        <time>2019-11-14T09:23:39.000Z</time>
      </trkpt>
      <trkpt lat="47.2866" lon="-2.42652">
        <ele>153.60000610352</ele>
        <time>2019-11-14T09:23:40.000Z</time>
      </trkpt>
      <trkpt lat="47.28666" lon="-2.42655">
        <ele>154</ele>
        <time>2019-11-14T09:23:41.000Z</time>
      </trkpt>
      <trkpt lat="47.28672" lon="-2.42656">
        <ele>154.39999389648</ele>
        <time>2019-11-14T09:23:42.000Z</time>
      </trkpt>
      <trkpt lat="47.28678" lon="-2.42656">
        <ele>154.80000305176</ele>
        <time>2019-11-14T09:23:43.000Z</time>
      </trkpt>
      <trkpt lat="47.28684" lon="-2.42657">
        <ele>155.19999694824</ele>
        <time>2019-11-14T09:23:44.000Z</time>
      </trkpt>
      <trkpt lat="47.28711" lon="-2.42667">
        <ele>155.19999694824</ele>
        <time>2019-11-14T09:23:49.000Z</time>
      </trkpt>
      <trkpt lat="47.2872" lon="-2.42675">
        <ele>155.19999694824</ele>
        <time>2019-11-14T09:23:51.000Z</time>
      </trkpt>
      <trkpt lat="47.28721" lon="-2.42697">
        <ele>155.19999694824</ele>
        <time>2019-11-14T09:23:54.000Z</time>
      </trkpt>
      <trkpt lat="47.28721" lon="-2.42705">
        <ele>155.19999694824</ele>
        <time>2019-11-14T09:23:55.000Z</time>
      </trkpt>
      <trkpt lat="47.28718" lon="-2.42743">
        <ele>155.19999694824</ele>
        <time>2019-11-14T09:24:00.000Z</time>
      </trkpt>
      <trkpt lat="47.28712" lon="-2.42766">
        <ele>155.19999694824</ele>
        <time>2019-11-14T09:24:03.000Z</time>
      </trkpt>
      <trkpt lat="47.28706" lon="-2.42779">
        <ele>155.19999694824</ele>
        <time>2019-11-14T09:24:05.000Z</time>
      </trkpt>
      <trkpt lat="47.28682" lon="-2.42826">
        <ele>155.19999694824</ele>
        <time>2019-11-14T09:24:12.000Z</time>
      </trkpt>
      <trkpt lat="47.28677" lon="-2.42841">
        <ele>155.19999694824</ele>
        <time>2019-11-14T09:24:14.000Z</time>
      </trkpt>
      <trkpt lat="47.28672" lon="-2.42865">
        <ele>155.19999694824</ele>
        <time>2019-11-14T09:24:17.000Z</time>
      </trkpt>
      <trkpt lat="47.28667" lon="-2.42912">
        <ele>155.19999694824</ele>
        <time>2019-11-14T09:24:23.000Z</time>
      </trkpt>
      <trkpt lat="47.28661" lon="-2.42965">
        <ele>155.19999694824</ele>
        <time>2019-11-14T09:24:30.000Z</time>
      </trkpt>
      <trkpt lat="47.28653" lon="-2.43012">
        <ele>155.19999694824</ele>
        <time>2019-11-14T09:24:36.000Z</time>
      </trkpt>
      <trkpt lat="47.28651" lon="-2.4302">
        <ele>155.19999694824</ele>
        <time>2019-11-14T09:24:37.000Z</time>
      </trkpt>
      <trkpt lat="47.28647" lon="-2.43043">
        <ele>155.19999694824</ele>
        <time>2019-11-14T09:24:40.000Z</time>
      </trkpt>
      <trkpt lat="47.28645" lon="-2.43058">
        <ele>155.19999694824</ele>
        <time>2019-11-14T09:24:42.000Z</time>
      </trkpt>
      <trkpt lat="47.28643" lon="-2.43065">
        <ele>155.19999694824</ele>
        <time>2019-11-14T09:24:43.000Z</time>
      </trkpt>
      <trkpt lat="47.2863" lon="-2.43111">
        <ele>155.19999694824</ele>
        <time>2019-11-14T09:24:49.000Z</time>
      </trkpt>
      <trkpt lat="47.28628" lon="-2.43119">
        <ele>155.60000610352</ele>
        <time>2019-11-14T09:24:50.000Z</time>
      </trkpt>
      <trkpt lat="47.28627" lon="-2.43128">
        <ele>156</ele>
        <time>2019-11-14T09:24:51.000Z</time>
      </trkpt>
      <trkpt lat="47.28626" lon="-2.43136">
        <ele>156.60000610352</ele>
        <time>2019-11-14T09:24:52.000Z</time>
      </trkpt>
      <trkpt lat="47.28626" lon="-2.43145">
        <ele>157</ele>
        <time>2019-11-14T09:24:53.000Z</time>
      </trkpt>
      <trkpt lat="47.28626" lon="-2.43154">
        <ele>157.39999389648</ele>
        <time>2019-11-14T09:24:54.000Z</time>
      </trkpt>
      <trkpt lat="47.28631" lon="-2.43193">
        <ele>157.39999389648</ele>
        <time>2019-11-14T09:24:59.000Z</time>
      </trkpt>
      <trkpt lat="47.28638" lon="-2.43211">
        <ele>157.39999389648</ele>
        <time>2019-11-14T09:25:02.000Z</time>
      </trkpt>
      <trkpt lat="47.28644" lon="-2.43222">
        <ele>157.39999389648</ele>
        <time>2019-11-14T09:25:04.000Z</time>
      </trkpt>
      <trkpt lat="47.28652" lon="-2.43239">
        <ele>157.39999389648</ele>
        <time>2019-11-14T09:25:08.000Z</time>
      </trkpt>
      <trkpt lat="47.28651" lon="-2.43244">
        <ele>157.39999389648</ele>
        <time>2019-11-14T09:25:09.000Z</time>
      </trkpt>
      <trkpt lat="47.2864" lon="-2.43251">
        <ele>157.39999389648</ele>
        <time>2019-11-14T09:25:12.000Z</time>
      </trkpt>
      <trkpt lat="47.28611" lon="-2.4326">
        <ele>157.39999389648</ele>
        <time>2019-11-14T09:25:18.000Z</time>
      </trkpt>
      <trkpt lat="47.28602" lon="-2.43259">
        <ele>157.39999389648</ele>
        <time>2019-11-14T09:25:20.000Z</time>
      </trkpt>
      <trkpt lat="47.28599" lon="-2.43254">
        <ele>157.39999389648</ele>
        <time>2019-11-14T09:25:21.000Z</time>
      </trkpt>
      <trkpt lat="47.28595" lon="-2.43236">
        <ele>157.39999389648</ele>
        <time>2019-11-14T09:25:24.000Z</time>
      </trkpt>
      <trkpt lat="47.28596" lon="-2.43214">
        <ele>157.39999389648</ele>
        <time>2019-11-14T09:25:27.000Z</time>
      </trkpt>
      <trkpt lat="47.28596" lon="-2.43198">
        <ele>157.39999389648</ele>
        <time>2019-11-14T09:25:29.000Z</time>
      </trkpt>
      <trkpt lat="47.28595" lon="-2.43175">
        <ele>157.39999389648</ele>
        <time>2019-11-14T09:25:32.000Z</time>
      </trkpt>
      <trkpt lat="47.28593" lon="-2.4316">
        <ele>157.39999389648</ele>
        <time>2019-11-14T09:25:34.000Z</time>
      </trkpt>
      <trkpt lat="47.28591" lon="-2.43152">
        <ele>157.39999389648</ele>
        <time>2019-11-14T09:25:35.000Z</time>
      </trkpt>
      <trkpt lat="47.28584" lon="-2.43123">
        <ele>157.39999389648</ele>
        <time>2019-11-14T09:25:39.000Z</time>
      </trkpt>
      <trkpt lat="47.2858" lon="-2.43108">
        <ele>157.39999389648</ele>
        <time>2019-11-14T09:25:41.000Z</time>
      </trkpt>
      <trkpt lat="47.28571" lon="-2.43092">
        <ele>157.39999389648</ele>
        <time>2019-11-14T09:25:44.000Z</time>
      </trkpt>
      <trkpt lat="47.28551" lon="-2.4306">
        <ele>157.39999389648</ele>
        <time>2019-11-14T09:25:50.000Z</time>
      </trkpt>
      <trkpt lat="47.28536" lon="-2.43043">
        <ele>157.39999389648</ele>
        <time>2019-11-14T09:25:54.000Z</time>
      </trkpt>
      <trkpt lat="47.28527" lon="-2.43037">
        <ele>157.39999389648</ele>
        <time>2019-11-14T09:25:56.000Z</time>
      </trkpt>
      <trkpt lat="47.28522" lon="-2.43034">
        <ele>157.39999389648</ele>
        <time>2019-11-14T09:25:57.000Z</time>
      </trkpt>
      <trkpt lat="47.28498" lon="-2.43026">
        <ele>157.39999389648</ele>
        <time>2019-11-14T09:26:02.000Z</time>
      </trkpt>
      <trkpt lat="47.28493" lon="-2.43026">
        <ele>157.39999389648</ele>
        <time>2019-11-14T09:26:03.000Z</time>
      </trkpt>
      <trkpt lat="47.28479" lon="-2.43033">
        <ele>157.39999389648</ele>
        <time>2019-11-14T09:26:06.000Z</time>
      </trkpt>
      <trkpt lat="47.28474" lon="-2.43036">
        <ele>157.39999389648</ele>
        <time>2019-11-14T09:26:07.000Z</time>
      </trkpt>
      <trkpt lat="47.2847" lon="-2.43041">
        <ele>157.39999389648</ele>
        <time>2019-11-14T09:26:08.000Z</time>
      </trkpt>
      <trkpt lat="47.28464" lon="-2.43054">
        <ele>157.39999389648</ele>
        <time>2019-11-14T09:26:10.000Z</time>
      </trkpt>
      <trkpt lat="47.28454" lon="-2.43073">
        <ele>157.39999389648</ele>
        <time>2019-11-14T09:26:13.000Z</time>
      </trkpt>
      <trkpt lat="47.28445" lon="-2.43083">
        <ele>157.39999389648</ele>
        <time>2019-11-14T09:26:15.000Z</time>
      </trkpt>
      <trkpt lat="47.28419" lon="-2.43122">
        <ele>157.39999389648</ele>
        <time>2019-11-14T09:26:22.000Z</time>
      </trkpt>
      <trkpt lat="47.28397" lon="-2.43155">
        <ele>157.39999389648</ele>
        <time>2019-11-14T09:26:28.000Z</time>
      </trkpt>
      <trkpt lat="47.28372" lon="-2.43182">
        <ele>157.39999389648</ele>
        <time>2019-11-14T09:26:34.000Z</time>
      </trkpt>
      <trkpt lat="47.28352" lon="-2.43203">
        <ele>157.39999389648</ele>
        <time>2019-11-14T09:26:39.000Z</time>
      </trkpt>
      <trkpt lat="47.28343" lon="-2.43213">
        <ele>157.39999389648</ele>
        <time>2019-11-14T09:26:41.000Z</time>
      </trkpt>
      <trkpt lat="47.28325" lon="-2.43238">
        <ele>157.39999389648</ele>
        <time>2019-11-14T09:26:46.000Z</time>
      </trkpt>
      <trkpt lat="47.28309" lon="-2.43261">
        <ele>157.39999389648</ele>
        <time>2019-11-14T09:26:52.000Z</time>
      </trkpt>
      <trkpt lat="47.28302" lon="-2.43265">
        <ele>157.39999389648</ele>
        <time>2019-11-14T09:26:55.000Z</time>
      </trkpt>
      <trkpt lat="47.28299" lon="-2.43265">
        <ele>157.39999389648</ele>
        <time>2019-11-14T09:26:56.000Z</time>
      </trkpt>
      <trkpt lat="47.28294" lon="-2.4325">
        <ele>157.39999389648</ele>
        <time>2019-11-14T09:26:59.000Z</time>
      </trkpt>
      <trkpt lat="47.28296" lon="-2.43219">
        <ele>157.39999389648</ele>
        <time>2019-11-14T09:27:04.000Z</time>
      </trkpt>
      <trkpt lat="47.28297" lon="-2.43212">
        <ele>157.39999389648</ele>
        <time>2019-11-14T09:27:05.000Z</time>
      </trkpt>
      <trkpt lat="47.28303" lon="-2.43169">
        <ele>157.39999389648</ele>
        <time>2019-11-14T09:27:11.000Z</time>
      </trkpt>
      <trkpt lat="47.28307" lon="-2.43146">
        <ele>157.39999389648</ele>
        <time>2019-11-14T09:27:16.000Z</time>
      </trkpt>
      <trkpt lat="47.28312" lon="-2.43116">
        <ele>157.39999389648</ele>
        <time>2019-11-14T09:27:23.000Z</time>
      </trkpt>
      <trkpt lat="47.28316" lon="-2.43109">
        <ele>157.39999389648</ele>
        <time>2019-11-14T09:27:25.000Z</time>
      </trkpt>
      <trkpt lat="47.28319" lon="-2.43107">
        <ele>157.39999389648</ele>
        <time>2019-11-14T09:27:27.000Z</time>
      </trkpt>
      <trkpt lat="47.28324" lon="-2.43096">
        <ele>157.39999389648</ele>
        <time>2019-11-14T09:27:32.000Z</time>
      </trkpt>
      <trkpt lat="47.28321" lon="-2.43092">
        <ele>157.39999389648</ele>
        <time>2019-11-14T09:27:36.000Z</time>
      </trkpt>
      <trkpt lat="47.28313" lon="-2.43109">
        <ele>157.39999389648</ele>
        <time>2019-11-14T09:27:41.000Z</time>
      </trkpt>
      <trkpt lat="47.28312" lon="-2.43114">
        <ele>157.39999389648</ele>
        <time>2019-11-14T09:27:42.000Z</time>
      </trkpt>
      <trkpt lat="47.28307" lon="-2.43143">
        <ele>157.39999389648</ele>
        <time>2019-11-14T09:27:47.000Z</time>
      </trkpt>
      <trkpt lat="47.283" lon="-2.43184">
        <ele>157.39999389648</ele>
        <time>2019-11-14T09:27:55.000Z</time>
      </trkpt>
      <trkpt lat="47.28295" lon="-2.43218">
        <ele>157.39999389648</ele>
        <time>2019-11-14T09:28:02.000Z</time>
      </trkpt>
      <trkpt lat="47.28287" lon="-2.43261">
        <ele>157.39999389648</ele>
        <time>2019-11-14T09:28:10.000Z</time>
      </trkpt>
      <trkpt lat="47.28282" lon="-2.43294">
        <ele>157.39999389648</ele>
        <time>2019-11-14T09:28:17.000Z</time>
      </trkpt>
      <trkpt lat="47.28278" lon="-2.43321">
        <ele>157.39999389648</ele>
        <time>2019-11-14T09:28:24.000Z</time>
      </trkpt>
      <trkpt lat="47.28274" lon="-2.43343">
        <ele>157.39999389648</ele>
        <time>2019-11-14T09:28:29.000Z</time>
      </trkpt>
      <trkpt lat="47.28271" lon="-2.43361">
        <ele>157</ele>
        <time>2019-11-14T09:28:34.000Z</time>
      </trkpt>
      <trkpt lat="47.28271" lon="-2.43363">
        <ele>156.60000610352</ele>
        <time>2019-11-14T09:28:35.000Z</time>
      </trkpt>
      <trkpt lat="47.28271" lon="-2.43364">
        <ele>156.19999694824</ele>
        <time>2019-11-14T09:28:36.000Z</time>
      </trkpt>
      <trkpt lat="47.28271" lon="-2.43365">
        <ele>155.80000305176</ele>
        <time>2019-11-14T09:28:37.000Z</time>
      </trkpt>
      <trkpt lat="47.28271" lon="-2.43365">
        <ele>155.19999694824</ele>
        <time>2019-11-14T09:28:38.000Z</time>
      </trkpt>
      <trkpt lat="47.2827" lon="-2.43372">
        <ele>153.19999694824</ele>
        <time>2019-11-14T09:29:37.000Z</time>
      </trkpt>
      <trkpt lat="47.28269" lon="-2.43375">
        <ele>153.19999694824</ele>
        <time>2019-11-14T09:29:38.000Z</time>
      </trkpt>
      <trkpt lat="47.28264" lon="-2.43384">
        <ele>152.80000305176</ele>
        <time>2019-11-14T09:29:42.000Z</time>
      </trkpt>
      <trkpt lat="47.28261" lon="-2.43386">
        <ele>152.39999389648</ele>
        <time>2019-11-14T09:29:43.000Z</time>
      </trkpt>
      <trkpt lat="47.28257" lon="-2.43387">
        <ele>152</ele>
        <time>2019-11-14T09:29:44.000Z</time>
      </trkpt>
      <trkpt lat="47.28252" lon="-2.43386">
        <ele>151.60000610352</ele>
        <time>2019-11-14T09:29:45.000Z</time>
      </trkpt>
      <trkpt lat="47.28248" lon="-2.43384">
        <ele>151.19999694824</ele>
        <time>2019-11-14T09:29:46.000Z</time>
      </trkpt>
      <trkpt lat="47.28245" lon="-2.4338">
        <ele>151.19999694824</ele>
        <time>2019-11-14T09:29:47.000Z</time>
      </trkpt>
      <trkpt lat="47.28227" lon="-2.43363">
        <ele>151.19999694824</ele>
        <time>2019-11-14T09:29:52.000Z</time>
      </trkpt>
      <trkpt lat="47.28221" lon="-2.43353">
        <ele>151.19999694824</ele>
        <time>2019-11-14T09:29:54.000Z</time>
      </trkpt>
      <trkpt lat="47.28219" lon="-2.43347">
        <ele>151.19999694824</ele>
        <time>2019-11-14T09:29:55.000Z</time>
      </trkpt>
      <trkpt lat="47.28212" lon="-2.43332">
        <ele>151.19999694824</ele>
        <time>2019-11-14T09:29:58.000Z</time>
      </trkpt>
      <trkpt lat="47.28208" lon="-2.4333">
        <ele>151.19999694824</ele>
        <time>2019-11-14T09:29:59.000Z</time>
      </trkpt>
      <trkpt lat="47.28197" lon="-2.4333">
        <ele>151.19999694824</ele>
        <time>2019-11-14T09:30:02.000Z</time>
      </trkpt>
      <trkpt lat="47.28184" lon="-2.43337">
        <ele>151.19999694824</ele>
        <time>2019-11-14T09:30:06.000Z</time>
      </trkpt>
      <trkpt lat="47.28174" lon="-2.43336">
        <ele>151.19999694824</ele>
        <time>2019-11-14T09:30:09.000Z</time>
      </trkpt>
      <trkpt lat="47.28164" lon="-2.43351">
        <ele>151.19999694824</ele>
        <time>2019-11-14T09:30:12.000Z</time>
      </trkpt>
      <trkpt lat="47.28144" lon="-2.43383">
        <ele>151.19999694824</ele>
        <time>2019-11-14T09:30:17.000Z</time>
      </trkpt>
      <trkpt lat="47.28106" lon="-2.43439">
        <ele>151.19999694824</ele>
        <time>2019-11-14T09:30:25.000Z</time>
      </trkpt>
      <trkpt lat="47.28065" lon="-2.435">
        <ele>151.19999694824</ele>
        <time>2019-11-14T09:30:33.000Z</time>
      </trkpt>
      <trkpt lat="47.28027" lon="-2.43554">
        <ele>151.19999694824</ele>
        <time>2019-11-14T09:30:40.000Z</time>
      </trkpt>
      <trkpt lat="47.27984" lon="-2.43617">
        <ele>151.19999694824</ele>
        <time>2019-11-14T09:30:48.000Z</time>
      </trkpt>
      <trkpt lat="47.27952" lon="-2.43662">
        <ele>151.19999694824</ele>
        <time>2019-11-14T09:30:54.000Z</time>
      </trkpt>
      <trkpt lat="47.27915" lon="-2.43715">
        <ele>151.19999694824</ele>
        <time>2019-11-14T09:31:01.000Z</time>
      </trkpt>
      <trkpt lat="47.27909" lon="-2.43722">
        <ele>151.19999694824</ele>
        <time>2019-11-14T09:31:02.000Z</time>
      </trkpt>
      <trkpt lat="47.27873" lon="-2.43759">
        <ele>151.19999694824</ele>
        <time>2019-11-14T09:31:08.000Z</time>
      </trkpt>
      <trkpt lat="47.27843" lon="-2.43784">
        <ele>151.19999694824</ele>
        <time>2019-11-14T09:31:13.000Z</time>
      </trkpt>
      <trkpt lat="47.27826" lon="-2.43795">
        <ele>151.19999694824</ele>
        <time>2019-11-14T09:31:16.000Z</time>
      </trkpt>
      <trkpt lat="47.27816" lon="-2.43798">
        <ele>151.19999694824</ele>
        <time>2019-11-14T09:31:18.000Z</time>
      </trkpt>
      <trkpt lat="47.27796" lon="-2.43794">
        <ele>151.19999694824</ele>
        <time>2019-11-14T09:31:22.000Z</time>
      </trkpt>
      <trkpt lat="47.27792" lon="-2.43807">
        <ele>151.19999694824</ele>
        <time>2019-11-14T09:31:25.000Z</time>
      </trkpt>
      <trkpt lat="47.27797" lon="-2.43828">
        <ele>151.19999694824</ele>
        <time>2019-11-14T09:31:28.000Z</time>
      </trkpt>
      <trkpt lat="47.2779" lon="-2.43852">
        <ele>151.19999694824</ele>
        <time>2019-11-14T09:31:31.000Z</time>
      </trkpt>
      <trkpt lat="47.27775" lon="-2.43871">
        <ele>151.19999694824</ele>
        <time>2019-11-14T09:31:34.000Z</time>
      </trkpt>
      <trkpt lat="47.27766" lon="-2.43897">
        <ele>151.19999694824</ele>
        <time>2019-11-14T09:31:37.000Z</time>
      </trkpt>
      <trkpt lat="47.27754" lon="-2.43935">
        <ele>151.60000610352</ele>
        <time>2019-11-14T09:31:41.000Z</time>
      </trkpt>
      <trkpt lat="47.27751" lon="-2.43944">
        <ele>152</ele>
        <time>2019-11-14T09:31:42.000Z</time>
      </trkpt>
      <trkpt lat="47.27749" lon="-2.43954">
        <ele>152.39999389648</ele>
        <time>2019-11-14T09:31:43.000Z</time>
      </trkpt>
      <trkpt lat="47.27746" lon="-2.43964">
        <ele>152.80000305176</ele>
        <time>2019-11-14T09:31:44.000Z</time>
      </trkpt>
      <trkpt lat="47.27743" lon="-2.43973">
        <ele>153.19999694824</ele>
        <time>2019-11-14T09:31:45.000Z</time>
      </trkpt>
      <trkpt lat="47.27725" lon="-2.44035">
        <ele>153.19999694824</ele>
        <time>2019-11-14T09:31:52.000Z</time>
      </trkpt>
      <trkpt lat="47.27721" lon="-2.44053">
        <ele>153.19999694824</ele>
        <time>2019-11-14T09:31:54.000Z</time>
      </trkpt>
      <trkpt lat="47.2772" lon="-2.44072">
        <ele>153.19999694824</ele>
        <time>2019-11-14T09:31:56.000Z</time>
      </trkpt>
      <trkpt lat="47.27719" lon="-2.44112">
        <ele>153.19999694824</ele>
        <time>2019-11-14T09:32:00.000Z</time>
      </trkpt>
      <trkpt lat="47.27722" lon="-2.44132">
        <ele>153.19999694824</ele>
        <time>2019-11-14T09:32:02.000Z</time>
      </trkpt>
      <trkpt lat="47.27725" lon="-2.44172">
        <ele>153.19999694824</ele>
        <time>2019-11-14T09:32:06.000Z</time>
      </trkpt>
      <trkpt lat="47.27724" lon="-2.44228">
        <ele>153.19999694824</ele>
        <time>2019-11-14T09:32:12.000Z</time>
      </trkpt>
      <trkpt lat="47.27722" lon="-2.44246">
        <ele>153.19999694824</ele>
        <time>2019-11-14T09:32:14.000Z</time>
      </trkpt>
      <trkpt lat="47.27723" lon="-2.44272">
        <ele>153.19999694824</ele>
        <time>2019-11-14T09:32:17.000Z</time>
      </trkpt>
      <trkpt lat="47.27725" lon="-2.44354">
        <ele>153.19999694824</ele>
        <time>2019-11-14T09:32:26.000Z</time>
      </trkpt>
      <trkpt lat="47.2773" lon="-2.44416">
        <ele>153.19999694824</ele>
        <time>2019-11-14T09:32:33.000Z</time>
      </trkpt>
      <trkpt lat="47.27738" lon="-2.44477">
        <ele>153.19999694824</ele>
        <time>2019-11-14T09:32:40.000Z</time>
      </trkpt>
      <trkpt lat="47.27742" lon="-2.44515">
        <ele>153.19999694824</ele>
        <time>2019-11-14T09:32:45.000Z</time>
      </trkpt>
      <trkpt lat="47.27742" lon="-2.4452">
        <ele>153.19999694824</ele>
        <time>2019-11-14T09:32:46.000Z</time>
      </trkpt>
      <trkpt lat="47.2774" lon="-2.44528">
        <ele>153.19999694824</ele>
        <time>2019-11-14T09:32:48.000Z</time>
      </trkpt>
      <trkpt lat="47.27735" lon="-2.44532">
        <ele>153.19999694824</ele>
        <time>2019-11-14T09:32:50.000Z</time>
      </trkpt>
      <trkpt lat="47.27729" lon="-2.44535">
        <ele>153.19999694824</ele>
        <time>2019-11-14T09:32:52.000Z</time>
      </trkpt>
      <trkpt lat="47.27721" lon="-2.44541">
        <ele>153.19999694824</ele>
        <time>2019-11-14T09:32:54.000Z</time>
      </trkpt>
      <trkpt lat="47.27718" lon="-2.44545">
        <ele>153.19999694824</ele>
        <time>2019-11-14T09:32:55.000Z</time>
      </trkpt>
      <trkpt lat="47.27705" lon="-2.44562">
        <ele>153.19999694824</ele>
        <time>2019-11-14T09:32:59.000Z</time>
      </trkpt>
      <trkpt lat="47.27691" lon="-2.44586">
        <ele>153.19999694824</ele>
        <time>2019-11-14T09:33:05.000Z</time>
      </trkpt>
      <trkpt lat="47.27688" lon="-2.44589">
        <ele>153.19999694824</ele>
        <time>2019-11-14T09:33:06.000Z</time>
      </trkpt>
      <trkpt lat="47.27674" lon="-2.44607">
        <ele>153.19999694824</ele>
        <time>2019-11-14T09:33:10.000Z</time>
      </trkpt>
      <trkpt lat="47.27648" lon="-2.44641">
        <ele>153.19999694824</ele>
        <time>2019-11-14T09:33:17.000Z</time>
      </trkpt>
      <trkpt lat="47.27627" lon="-2.44661">
        <ele>153.19999694824</ele>
        <time>2019-11-14T09:33:22.000Z</time>
      </trkpt>
      <trkpt lat="47.27616" lon="-2.44664">
        <ele>153.19999694824</ele>
        <time>2019-11-14T09:33:24.000Z</time>
      </trkpt>
      <trkpt lat="47.27603" lon="-2.44669">
        <ele>153.19999694824</ele>
        <time>2019-11-14T09:33:27.000Z</time>
      </trkpt>
      <trkpt lat="47.27583" lon="-2.44676">
        <ele>153.19999694824</ele>
        <time>2019-11-14T09:33:31.000Z</time>
      </trkpt>
      <trkpt lat="47.27572" lon="-2.44679">
        <ele>153.19999694824</ele>
        <time>2019-11-14T09:33:33.000Z</time>
      </trkpt>
      <trkpt lat="47.2756" lon="-2.44678">
        <ele>153.19999694824</ele>
        <time>2019-11-14T09:33:36.000Z</time>
      </trkpt>
      <trkpt lat="47.27555" lon="-2.44679">
        <ele>153.19999694824</ele>
        <time>2019-11-14T09:33:39.000Z</time>
      </trkpt>
      <trkpt lat="47.27554" lon="-2.44679">
        <ele>153.19999694824</ele>
        <time>2019-11-14T09:33:40.000Z</time>
      </trkpt>
      <trkpt lat="47.27554" lon="-2.44679">
        <ele>153.19999694824</ele>
        <time>2019-11-14T09:33:41.000Z</time>
      </trkpt>
      <trkpt lat="47.27552" lon="-2.4468">
        <ele>153.19999694824</ele>
        <time>2019-11-14T09:33:57.000Z</time>
      </trkpt>
      <trkpt lat="47.27551" lon="-2.44681">
        <ele>153.19999694824</ele>
        <time>2019-11-14T09:33:58.000Z</time>
      </trkpt>
      <trkpt lat="47.27536" lon="-2.44687">
        <ele>153.19999694824</ele>
        <time>2019-11-14T09:34:04.000Z</time>
      </trkpt>
      <trkpt lat="47.27515" lon="-2.447">
        <ele>153.19999694824</ele>
        <time>2019-11-14T09:34:10.000Z</time>
      </trkpt>
      <trkpt lat="47.27514" lon="-2.44704">
        <ele>153.19999694824</ele>
        <time>2019-11-14T09:34:11.000Z</time>
      </trkpt>
      <trkpt lat="47.27516" lon="-2.44712">
        <ele>153.19999694824</ele>
        <time>2019-11-14T09:34:13.000Z</time>
      </trkpt>
      <trkpt lat="47.27521" lon="-2.44735">
        <ele>153.19999694824</ele>
        <time>2019-11-14T09:34:17.000Z</time>
      </trkpt>
      <trkpt lat="47.27523" lon="-2.44741">
        <ele>153.19999694824</ele>
        <time>2019-11-14T09:34:18.000Z</time>
      </trkpt>
      <trkpt lat="47.27529" lon="-2.44766">
        <ele>153.19999694824</ele>
        <time>2019-11-14T09:34:22.000Z</time>
      </trkpt>
      <trkpt lat="47.27531" lon="-2.44779">
        <ele>153.19999694824</ele>
        <time>2019-11-14T09:34:24.000Z</time>
      </trkpt>
      <trkpt lat="47.27537" lon="-2.44814">
        <ele>153.19999694824</ele>
        <time>2019-11-14T09:34:30.000Z</time>
      </trkpt>
      <trkpt lat="47.27534" lon="-2.44819">
        <ele>153.19999694824</ele>
        <time>2019-11-14T09:34:31.000Z</time>
      </trkpt>
      <trkpt lat="47.27527" lon="-2.44827">
        <ele>153.19999694824</ele>
        <time>2019-11-14T09:34:33.000Z</time>
      </trkpt>
      <trkpt lat="47.27505" lon="-2.4485">
        <ele>153.19999694824</ele>
        <time>2019-11-14T09:34:40.000Z</time>
      </trkpt>
      <trkpt lat="47.27505" lon="-2.44867">
        <ele>153.19999694824</ele>
        <time>2019-11-14T09:34:44.000Z</time>
      </trkpt>
      <trkpt lat="47.27507" lon="-2.44879">
        <ele>153.19999694824</ele>
        <time>2019-11-14T09:34:46.000Z</time>
      </trkpt>
      <trkpt lat="47.27512" lon="-2.44906">
        <ele>153.19999694824</ele>
        <time>2019-11-14T09:34:50.000Z</time>
      </trkpt>
      <trkpt lat="47.27517" lon="-2.44928">
        <ele>153.19999694824</ele>
        <time>2019-11-14T09:34:53.000Z</time>
      </trkpt>
      <trkpt lat="47.27521" lon="-2.44943">
        <ele>153.19999694824</ele>
        <time>2019-11-14T09:34:55.000Z</time>
      </trkpt>
      <trkpt lat="47.27526" lon="-2.44957">
        <ele>153.19999694824</ele>
        <time>2019-11-14T09:34:57.000Z</time>
      </trkpt>
      <trkpt lat="47.27534" lon="-2.4498">
        <ele>153.19999694824</ele>
        <time>2019-11-14T09:35:00.000Z</time>
      </trkpt>
      <trkpt lat="47.27557" lon="-2.45041">
        <ele>153.19999694824</ele>
        <time>2019-11-14T09:35:08.000Z</time>
      </trkpt>
      <trkpt lat="47.27583" lon="-2.45094">
        <ele>153.19999694824</ele>
        <time>2019-11-14T09:35:15.000Z</time>
      </trkpt>
      <trkpt lat="47.27589" lon="-2.45111">
        <ele>153.19999694824</ele>
        <time>2019-11-14T09:35:17.000Z</time>
      </trkpt>
      <trkpt lat="47.27595" lon="-2.45137">
        <ele>153.19999694824</ele>
        <time>2019-11-14T09:35:20.000Z</time>
      </trkpt>
      <trkpt lat="47.27602" lon="-2.45192">
        <ele>153.19999694824</ele>
        <time>2019-11-14T09:35:26.000Z</time>
      </trkpt>
      <trkpt lat="47.27609" lon="-2.45244">
        <ele>153.19999694824</ele>
        <time>2019-11-14T09:35:32.000Z</time>
      </trkpt>
      <trkpt lat="47.2761" lon="-2.45253">
        <ele>153.19999694824</ele>
        <time>2019-11-14T09:35:33.000Z</time>
      </trkpt>
      <trkpt lat="47.2761" lon="-2.4527">
        <ele>153.19999694824</ele>
        <time>2019-11-14T09:35:35.000Z</time>
      </trkpt>
      <trkpt lat="47.27612" lon="-2.45286">
        <ele>153.19999694824</ele>
        <time>2019-11-14T09:35:37.000Z</time>
      </trkpt>
      <trkpt lat="47.27616" lon="-2.45337">
        <ele>153.19999694824</ele>
        <time>2019-11-14T09:35:43.000Z</time>
      </trkpt>
      <trkpt lat="47.27619" lon="-2.45361">
        <ele>153.19999694824</ele>
        <time>2019-11-14T09:35:46.000Z</time>
      </trkpt>
      <trkpt lat="47.2762" lon="-2.45371">
        <ele>153.60000610352</ele>
        <time>2019-11-14T09:35:47.000Z</time>
      </trkpt>
      <trkpt lat="47.27621" lon="-2.45379">
        <ele>154</ele>
        <time>2019-11-14T09:35:48.000Z</time>
      </trkpt>
      <trkpt lat="47.27622" lon="-2.45388">
        <ele>154.39999389648</ele>
        <time>2019-11-14T09:35:49.000Z</time>
      </trkpt>
      <trkpt lat="47.27622" lon="-2.45396">
        <ele>154.80000305176</ele>
        <time>2019-11-14T09:35:50.000Z</time>
      </trkpt>
      <trkpt lat="47.27623" lon="-2.45404">
        <ele>155.19999694824</ele>
        <time>2019-11-14T09:35:51.000Z</time>
      </trkpt>
      <trkpt lat="47.27626" lon="-2.45425">
        <ele>155.19999694824</ele>
        <time>2019-11-14T09:35:54.000Z</time>
      </trkpt>
      <trkpt lat="47.27626" lon="-2.45433">
        <ele>155.19999694824</ele>
        <time>2019-11-14T09:35:55.000Z</time>
      </trkpt>
      <trkpt lat="47.27627" lon="-2.45454">
        <ele>155.19999694824</ele>
        <time>2019-11-14T09:35:58.000Z</time>
      </trkpt>
      <trkpt lat="47.27627" lon="-2.45461">
        <ele>155.19999694824</ele>
        <time>2019-11-14T09:35:59.000Z</time>
      </trkpt>
      <trkpt lat="47.27628" lon="-2.45467">
        <ele>155.19999694824</ele>
        <time>2019-11-14T09:36:00.000Z</time>
      </trkpt>
      <trkpt lat="47.27634" lon="-2.45494">
        <ele>155.19999694824</ele>
        <time>2019-11-14T09:36:04.000Z</time>
      </trkpt>
      <trkpt lat="47.27644" lon="-2.45541">
        <ele>155.19999694824</ele>
        <time>2019-11-14T09:36:11.000Z</time>
      </trkpt>
      <trkpt lat="47.27656" lon="-2.45586">
        <ele>155.19999694824</ele>
        <time>2019-11-14T09:36:18.000Z</time>
      </trkpt>
      <trkpt lat="47.27668" lon="-2.45633">
        <ele>155.19999694824</ele>
        <time>2019-11-14T09:36:25.000Z</time>
      </trkpt>
      <trkpt lat="47.27678" lon="-2.45664">
        <ele>155.19999694824</ele>
        <time>2019-11-14T09:36:30.000Z</time>
      </trkpt>
      <trkpt lat="47.27679" lon="-2.45668">
        <ele>155.19999694824</ele>
        <time>2019-11-14T09:36:31.000Z</time>
      </trkpt>
      <trkpt lat="47.27672" lon="-2.45675">
        <ele>155.19999694824</ele>
        <time>2019-11-14T09:36:34.000Z</time>
      </trkpt>
      <trkpt lat="47.27669" lon="-2.45677">
        <ele>155.60000610352</ele>
        <time>2019-11-14T09:36:35.000Z</time>
      </trkpt>
      <trkpt lat="47.27666" lon="-2.45679">
        <ele>156</ele>
        <time>2019-11-14T09:36:36.000Z</time>
      </trkpt>
      <trkpt lat="47.27664" lon="-2.45682">
        <ele>156.39999389648</ele>
        <time>2019-11-14T09:36:37.000Z</time>
      </trkpt>
      <trkpt lat="47.2766" lon="-2.45684">
        <ele>156.80000305176</ele>
        <time>2019-11-14T09:36:38.000Z</time>
      </trkpt>
      <trkpt lat="47.27657" lon="-2.45687">
        <ele>157.19999694824</ele>
        <time>2019-11-14T09:36:39.000Z</time>
      </trkpt>
      <trkpt lat="47.27639" lon="-2.45699">
        <ele>157.19999694824</ele>
        <time>2019-11-14T09:36:45.000Z</time>
      </trkpt>
      <trkpt lat="47.2763" lon="-2.45709">
        <ele>157.19999694824</ele>
        <time>2019-11-14T09:36:49.000Z</time>
      </trkpt>
      <trkpt lat="47.27631" lon="-2.45718">
        <ele>157.19999694824</ele>
        <time>2019-11-14T09:36:51.000Z</time>
      </trkpt>
      <trkpt lat="47.27634" lon="-2.45727">
        <ele>157.19999694824</ele>
        <time>2019-11-14T09:36:53.000Z</time>
      </trkpt>
      <trkpt lat="47.27637" lon="-2.45739">
        <ele>157.19999694824</ele>
        <time>2019-11-14T09:36:55.000Z</time>
      </trkpt>
      <trkpt lat="47.27638" lon="-2.45747">
        <ele>157.19999694824</ele>
        <time>2019-11-14T09:36:56.000Z</time>
      </trkpt>
      <trkpt lat="47.27639" lon="-2.45773">
        <ele>157.19999694824</ele>
        <time>2019-11-14T09:36:59.000Z</time>
      </trkpt>
      <trkpt lat="47.27641" lon="-2.45781">
        <ele>157.19999694824</ele>
        <time>2019-11-14T09:37:00.000Z</time>
      </trkpt>
      <trkpt lat="47.27643" lon="-2.45812">
        <ele>157.19999694824</ele>
        <time>2019-11-14T09:37:04.000Z</time>
      </trkpt>
      <trkpt lat="47.27643" lon="-2.4582">
        <ele>157.19999694824</ele>
        <time>2019-11-14T09:37:05.000Z</time>
      </trkpt>
      <trkpt lat="47.27643" lon="-2.45834">
        <ele>157.19999694824</ele>
        <time>2019-11-14T09:37:07.000Z</time>
      </trkpt>
      <trkpt lat="47.27641" lon="-2.45857">
        <ele>157.19999694824</ele>
        <time>2019-11-14T09:37:10.000Z</time>
      </trkpt>
      <trkpt lat="47.27643" lon="-2.45879">
        <ele>157.19999694824</ele>
        <time>2019-11-14T09:37:13.000Z</time>
      </trkpt>
      <trkpt lat="47.27642" lon="-2.45892">
        <ele>157.19999694824</ele>
        <time>2019-11-14T09:37:15.000Z</time>
      </trkpt>
      <trkpt lat="47.2764" lon="-2.45904">
        <ele>157.19999694824</ele>
        <time>2019-11-14T09:37:17.000Z</time>
      </trkpt>
      <trkpt lat="47.27639" lon="-2.4592">
        <ele>157.19999694824</ele>
        <time>2019-11-14T09:37:20.000Z</time>
      </trkpt>
      <trkpt lat="47.27639" lon="-2.4594">
        <ele>157.19999694824</ele>
        <time>2019-11-14T09:37:23.000Z</time>
      </trkpt>
      <trkpt lat="47.2764" lon="-2.45955">
        <ele>157.19999694824</ele>
        <time>2019-11-14T09:37:25.000Z</time>
      </trkpt>
      <trkpt lat="47.27639" lon="-2.45962">
        <ele>157.19999694824</ele>
        <time>2019-11-14T09:37:26.000Z</time>
      </trkpt>
      <trkpt lat="47.2764" lon="-2.45988">
        <ele>157.19999694824</ele>
        <time>2019-11-14T09:37:29.000Z</time>
      </trkpt>
      <trkpt lat="47.27645" lon="-2.46029">
        <ele>157.19999694824</ele>
        <time>2019-11-14T09:37:34.000Z</time>
      </trkpt>
      <trkpt lat="47.27656" lon="-2.46085">
        <ele>157.19999694824</ele>
        <time>2019-11-14T09:37:41.000Z</time>
      </trkpt>
      <trkpt lat="47.2766" lon="-2.46107">
        <ele>157.19999694824</ele>
        <time>2019-11-14T09:37:44.000Z</time>
      </trkpt>
      <trkpt lat="47.27663" lon="-2.46126">
        <ele>157.19999694824</ele>
        <time>2019-11-14T09:37:47.000Z</time>
      </trkpt>
      <trkpt lat="47.27668" lon="-2.46152">
        <ele>157.19999694824</ele>
        <time>2019-11-14T09:37:51.000Z</time>
      </trkpt>
      <trkpt lat="47.27669" lon="-2.46158">
        <ele>157.19999694824</ele>
        <time>2019-11-14T09:37:52.000Z</time>
      </trkpt>
      <trkpt lat="47.27669" lon="-2.46171">
        <ele>157.19999694824</ele>
        <time>2019-11-14T09:37:54.000Z</time>
      </trkpt>
      <trkpt lat="47.27668" lon="-2.46194">
        <ele>157.19999694824</ele>
        <time>2019-11-14T09:37:57.000Z</time>
      </trkpt>
      <trkpt lat="47.2767" lon="-2.4621">
        <ele>157.60000610352</ele>
        <time>2019-11-14T09:37:59.000Z</time>
      </trkpt>
      <trkpt lat="47.27671" lon="-2.46218">
        <ele>158</ele>
        <time>2019-11-14T09:38:00.000Z</time>
      </trkpt>
      <trkpt lat="47.27672" lon="-2.46226">
        <ele>158.39999389648</ele>
        <time>2019-11-14T09:38:01.000Z</time>
      </trkpt>
      <trkpt lat="47.27673" lon="-2.46234">
        <ele>158.80000305176</ele>
        <time>2019-11-14T09:38:02.000Z</time>
      </trkpt>
      <trkpt lat="47.27674" lon="-2.46242">
        <ele>159.19999694824</ele>
        <time>2019-11-14T09:38:03.000Z</time>
      </trkpt>
      <trkpt lat="47.27675" lon="-2.46256">
        <ele>159.19999694824</ele>
        <time>2019-11-14T09:38:05.000Z</time>
      </trkpt>
      <trkpt lat="47.2767" lon="-2.46269">
        <ele>159.19999694824</ele>
        <time>2019-11-14T09:38:07.000Z</time>
      </trkpt>
      <trkpt lat="47.2766" lon="-2.46289">
        <ele>159.19999694824</ele>
        <time>2019-11-14T09:38:11.000Z</time>
      </trkpt>
      <trkpt lat="47.27661" lon="-2.46294">
        <ele>159.19999694824</ele>
        <time>2019-11-14T09:38:12.000Z</time>
      </trkpt>
      <trkpt lat="47.27664" lon="-2.46299">
        <ele>159.19999694824</ele>
        <time>2019-11-14T09:38:13.000Z</time>
      </trkpt>
      <trkpt lat="47.2767" lon="-2.46308">
        <ele>159.19999694824</ele>
        <time>2019-11-14T09:38:15.000Z</time>
      </trkpt>
      <trkpt lat="47.27673" lon="-2.46314">
        <ele>159.19999694824</ele>
        <time>2019-11-14T09:38:16.000Z</time>
      </trkpt>
      <trkpt lat="47.27676" lon="-2.46334">
        <ele>159.19999694824</ele>
        <time>2019-11-14T09:38:19.000Z</time>
      </trkpt>
      <trkpt lat="47.27679" lon="-2.46357">
        <ele>159.19999694824</ele>
        <time>2019-11-14T09:38:22.000Z</time>
      </trkpt>
      <trkpt lat="47.27685" lon="-2.46371">
        <ele>159.19999694824</ele>
        <time>2019-11-14T09:38:24.000Z</time>
      </trkpt>
      <trkpt lat="47.2771" lon="-2.46434">
        <ele>159.19999694824</ele>
        <time>2019-11-14T09:38:32.000Z</time>
      </trkpt>
      <trkpt lat="47.27727" lon="-2.46474">
        <ele>159.19999694824</ele>
        <time>2019-11-14T09:38:37.000Z</time>
      </trkpt>
      <trkpt lat="47.27729" lon="-2.46482">
        <ele>159.19999694824</ele>
        <time>2019-11-14T09:38:38.000Z</time>
      </trkpt>
      <trkpt lat="47.27735" lon="-2.46507">
        <ele>159.19999694824</ele>
        <time>2019-11-14T09:38:41.000Z</time>
      </trkpt>
      <trkpt lat="47.2774" lon="-2.46531">
        <ele>159.19999694824</ele>
        <time>2019-11-14T09:38:44.000Z</time>
      </trkpt>
      <trkpt lat="47.27753" lon="-2.46577">
        <ele>159.19999694824</ele>
        <time>2019-11-14T09:38:50.000Z</time>
      </trkpt>
      <trkpt lat="47.27757" lon="-2.46584">
        <ele>159.19999694824</ele>
        <time>2019-11-14T09:38:51.000Z</time>
      </trkpt>
      <trkpt lat="47.27765" lon="-2.46601">
        <ele>159.19999694824</ele>
        <time>2019-11-14T09:38:54.000Z</time>
      </trkpt>
      <trkpt lat="47.27766" lon="-2.46614">
        <ele>159.19999694824</ele>
        <time>2019-11-14T09:38:56.000Z</time>
      </trkpt>
      <trkpt lat="47.27764" lon="-2.46617">
        <ele>159.19999694824</ele>
        <time>2019-11-14T09:38:57.000Z</time>
      </trkpt>
      <trkpt lat="47.27762" lon="-2.4662">
        <ele>159.19999694824</ele>
        <time>2019-11-14T09:38:58.000Z</time>
      </trkpt>
      <trkpt lat="47.2776" lon="-2.46628">
        <ele>159.19999694824</ele>
        <time>2019-11-14T09:39:00.000Z</time>
      </trkpt>
      <trkpt lat="47.2776" lon="-2.46633">
        <ele>159.19999694824</ele>
        <time>2019-11-14T09:39:01.000Z</time>
      </trkpt>
      <trkpt lat="47.27764" lon="-2.46649">
        <ele>159.60000610352</ele>
        <time>2019-11-14T09:39:04.000Z</time>
      </trkpt>
      <trkpt lat="47.27764" lon="-2.46654">
        <ele>160</ele>
        <time>2019-11-14T09:39:05.000Z</time>
      </trkpt>
      <trkpt lat="47.27763" lon="-2.4666">
        <ele>160.39999389648</ele>
        <time>2019-11-14T09:39:06.000Z</time>
      </trkpt>
      <trkpt lat="47.27762" lon="-2.46667">
        <ele>160.80000305176</ele>
        <time>2019-11-14T09:39:07.000Z</time>
      </trkpt>
      <trkpt lat="47.27762" lon="-2.46674">
        <ele>161.19999694824</ele>
        <time>2019-11-14T09:39:08.000Z</time>
      </trkpt>
      <trkpt lat="47.27763" lon="-2.46681">
        <ele>161.19999694824</ele>
        <time>2019-11-14T09:39:09.000Z</time>
      </trkpt>
      <trkpt lat="47.27762" lon="-2.46697">
        <ele>161.19999694824</ele>
        <time>2019-11-14T09:39:11.000Z</time>
      </trkpt>
      <trkpt lat="47.27758" lon="-2.46719">
        <ele>161.19999694824</ele>
        <time>2019-11-14T09:39:14.000Z</time>
      </trkpt>
      <trkpt lat="47.27761" lon="-2.46732">
        <ele>161.19999694824</ele>
        <time>2019-11-14T09:39:16.000Z</time>
      </trkpt>
      <trkpt lat="47.27764" lon="-2.4675">
        <ele>161.19999694824</ele>
        <time>2019-11-14T09:39:19.000Z</time>
      </trkpt>
      <trkpt lat="47.27771" lon="-2.46769">
        <ele>161.19999694824</ele>
        <time>2019-11-14T09:39:22.000Z</time>
      </trkpt>
      <trkpt lat="47.27777" lon="-2.46797">
        <ele>161.19999694824</ele>
        <time>2019-11-14T09:39:26.000Z</time>
      </trkpt>
      <trkpt lat="47.27779" lon="-2.46804">
        <ele>161.19999694824</ele>
        <time>2019-11-14T09:39:27.000Z</time>
      </trkpt>
      <trkpt lat="47.27786" lon="-2.46832">
        <ele>161.19999694824</ele>
        <time>2019-11-14T09:39:32.000Z</time>
      </trkpt>
      <trkpt lat="47.27787" lon="-2.46841">
        <ele>161.19999694824</ele>
        <time>2019-11-14T09:39:34.000Z</time>
      </trkpt>
      <trkpt lat="47.27793" lon="-2.46848">
        <ele>161.19999694824</ele>
        <time>2019-11-14T09:39:36.000Z</time>
      </trkpt>
      <trkpt lat="47.27798" lon="-2.46862">
        <ele>161.19999694824</ele>
        <time>2019-11-14T09:39:39.000Z</time>
      </trkpt>
      <trkpt lat="47.278" lon="-2.46893">
        <ele>161.19999694824</ele>
        <time>2019-11-14T09:39:44.000Z</time>
      </trkpt>
      <trkpt lat="47.27809" lon="-2.46917">
        <ele>161.19999694824</ele>
        <time>2019-11-14T09:39:49.000Z</time>
      </trkpt>
      <trkpt lat="47.27811" lon="-2.46923">
        <ele>161.19999694824</ele>
        <time>2019-11-14T09:39:50.000Z</time>
      </trkpt>
      <trkpt lat="47.27823" lon="-2.46939">
        <ele>161.19999694824</ele>
        <time>2019-11-14T09:39:53.000Z</time>
      </trkpt>
      <trkpt lat="47.27839" lon="-2.4695">
        <ele>161.19999694824</ele>
        <time>2019-11-14T09:39:56.000Z</time>
      </trkpt>
      <trkpt lat="47.27845" lon="-2.46953">
        <ele>161.19999694824</ele>
        <time>2019-11-14T09:39:57.000Z</time>
      </trkpt>
      <trkpt lat="47.27876" lon="-2.46979">
        <ele>161.19999694824</ele>
        <time>2019-11-14T09:40:03.000Z</time>
      </trkpt>
      <trkpt lat="47.27903" lon="-2.47006">
        <ele>161.19999694824</ele>
        <time>2019-11-14T09:40:09.000Z</time>
      </trkpt>
      <trkpt lat="47.27907" lon="-2.47011">
        <ele>161.19999694824</ele>
        <time>2019-11-14T09:40:10.000Z</time>
      </trkpt>
      <trkpt lat="47.27934" lon="-2.47046">
        <ele>161.19999694824</ele>
        <time>2019-11-14T09:40:17.000Z</time>
      </trkpt>
      <trkpt lat="47.27956" lon="-2.47091">
        <ele>161.19999694824</ele>
        <time>2019-11-14T09:40:24.000Z</time>
      </trkpt>
      <trkpt lat="47.27964" lon="-2.4712">
        <ele>161.19999694824</ele>
        <time>2019-11-14T09:40:28.000Z</time>
      </trkpt>
      <trkpt lat="47.27968" lon="-2.47142">
        <ele>161.19999694824</ele>
        <time>2019-11-14T09:40:31.000Z</time>
      </trkpt>
      <trkpt lat="47.2798" lon="-2.47206">
        <ele>161.19999694824</ele>
        <time>2019-11-14T09:40:39.000Z</time>
      </trkpt>
      <trkpt lat="47.27988" lon="-2.47252">
        <ele>161.19999694824</ele>
        <time>2019-11-14T09:40:45.000Z</time>
      </trkpt>
      <trkpt lat="47.27996" lon="-2.47299">
        <ele>161.19999694824</ele>
        <time>2019-11-14T09:40:52.000Z</time>
      </trkpt>
      <trkpt lat="47.28004" lon="-2.47335">
        <ele>161.19999694824</ele>
        <time>2019-11-14T09:40:59.000Z</time>
      </trkpt>
      <trkpt lat="47.28008" lon="-2.47343">
        <ele>161.19999694824</ele>
        <time>2019-11-14T09:41:02.000Z</time>
      </trkpt>
      <trkpt lat="47.28006" lon="-2.47351">
        <ele>161.19999694824</ele>
        <time>2019-11-14T09:41:04.000Z</time>
      </trkpt>
      <trkpt lat="47.28002" lon="-2.47363">
        <ele>161.19999694824</ele>
        <time>2019-11-14T09:41:07.000Z</time>
      </trkpt>
      <trkpt lat="47.28001" lon="-2.47369">
        <ele>161.19999694824</ele>
        <time>2019-11-14T09:41:08.000Z</time>
      </trkpt>
      <trkpt lat="47.27994" lon="-2.47404">
        <ele>161.19999694824</ele>
        <time>2019-11-14T09:41:14.000Z</time>
      </trkpt>
      <trkpt lat="47.2799" lon="-2.47432">
        <ele>161.19999694824</ele>
        <time>2019-11-14T09:41:19.000Z</time>
      </trkpt>
      <trkpt lat="47.27987" lon="-2.4745">
        <ele>161.19999694824</ele>
        <time>2019-11-14T09:41:22.000Z</time>
      </trkpt>
      <trkpt lat="47.27985" lon="-2.47463">
        <ele>161.19999694824</ele>
        <time>2019-11-14T09:41:24.000Z</time>
      </trkpt>
      <trkpt lat="47.27978" lon="-2.4752">
        <ele>161.19999694824</ele>
        <time>2019-11-14T09:41:32.000Z</time>
      </trkpt>
      <trkpt lat="47.27973" lon="-2.47562">
        <ele>161.19999694824</ele>
        <time>2019-11-14T09:41:38.000Z</time>
      </trkpt>
      <trkpt lat="47.27959" lon="-2.47613">
        <ele>161.19999694824</ele>
        <time>2019-11-14T09:41:45.000Z</time>
      </trkpt>
      <trkpt lat="47.27956" lon="-2.47619">
        <ele>161.19999694824</ele>
        <time>2019-11-14T09:41:46.000Z</time>
      </trkpt>
      <trkpt lat="47.27948" lon="-2.47636">
        <ele>161.19999694824</ele>
        <time>2019-11-14T09:41:49.000Z</time>
      </trkpt>
      <trkpt lat="47.27941" lon="-2.47651">
        <ele>161.19999694824</ele>
        <time>2019-11-14T09:41:52.000Z</time>
      </trkpt>
      <trkpt lat="47.27935" lon="-2.47666">
        <ele>161.19999694824</ele>
        <time>2019-11-14T09:41:55.000Z</time>
      </trkpt>
      <trkpt lat="47.27929" lon="-2.47674">
        <ele>161.19999694824</ele>
        <time>2019-11-14T09:41:57.000Z</time>
      </trkpt>
      <trkpt lat="47.27919" lon="-2.47688">
        <ele>161.19999694824</ele>
        <time>2019-11-14T09:42:00.000Z</time>
      </trkpt>
      <trkpt lat="47.27904" lon="-2.47711">
        <ele>161.19999694824</ele>
        <time>2019-11-14T09:42:05.000Z</time>
      </trkpt>
      <trkpt lat="47.27901" lon="-2.47715">
        <ele>161.19999694824</ele>
        <time>2019-11-14T09:42:06.000Z</time>
      </trkpt>
      <trkpt lat="47.27884" lon="-2.47744">
        <ele>161.19999694824</ele>
        <time>2019-11-14T09:42:12.000Z</time>
      </trkpt>
      <trkpt lat="47.27876" lon="-2.47758">
        <ele>161.19999694824</ele>
        <time>2019-11-14T09:42:16.000Z</time>
      </trkpt>
      <trkpt lat="47.27866" lon="-2.47767">
        <ele>161.19999694824</ele>
        <time>2019-11-14T09:42:22.000Z</time>
      </trkpt>
      <trkpt lat="47.27856" lon="-2.47777">
        <ele>161.19999694824</ele>
        <time>2019-11-14T09:42:28.000Z</time>
      </trkpt>
      <trkpt lat="47.27852" lon="-2.47784">
        <ele>161.19999694824</ele>
        <time>2019-11-14T09:42:30.000Z</time>
      </trkpt>
      <trkpt lat="47.27852" lon="-2.47794">
        <ele>161.19999694824</ele>
        <time>2019-11-14T09:42:32.000Z</time>
      </trkpt>
      <trkpt lat="47.27853" lon="-2.47806">
        <ele>161.19999694824</ele>
        <time>2019-11-14T09:42:34.000Z</time>
      </trkpt>
      <trkpt lat="47.27855" lon="-2.47813">
        <ele>161.19999694824</ele>
        <time>2019-11-14T09:42:35.000Z</time>
      </trkpt>
      <trkpt lat="47.27856" lon="-2.47819">
        <ele>161.19999694824</ele>
        <time>2019-11-14T09:42:36.000Z</time>
      </trkpt>
      <trkpt lat="47.2786" lon="-2.47834">
        <ele>161.19999694824</ele>
        <time>2019-11-14T09:42:38.000Z</time>
      </trkpt>
      <trkpt lat="47.27865" lon="-2.47858">
        <ele>161.19999694824</ele>
        <time>2019-11-14T09:42:41.000Z</time>
      </trkpt>
      <trkpt lat="47.27871" lon="-2.47901">
        <ele>161.19999694824</ele>
        <time>2019-11-14T09:42:46.000Z</time>
      </trkpt>
      <trkpt lat="47.27883" lon="-2.47982">
        <ele>161.19999694824</ele>
        <time>2019-11-14T09:42:55.000Z</time>
      </trkpt>
      <trkpt lat="47.27892" lon="-2.48026">
        <ele>161.19999694824</ele>
        <time>2019-11-14T09:43:00.000Z</time>
      </trkpt>
      <trkpt lat="47.27899" lon="-2.48089">
        <ele>161.19999694824</ele>
        <time>2019-11-14T09:43:06.000Z</time>
      </trkpt>
      <trkpt lat="47.2791" lon="-2.48162">
        <ele>161.19999694824</ele>
        <time>2019-11-14T09:43:13.000Z</time>
      </trkpt>
      <trkpt lat="47.27922" lon="-2.48233">
        <ele>161.19999694824</ele>
        <time>2019-11-14T09:43:20.000Z</time>
      </trkpt>
      <trkpt lat="47.27926" lon="-2.48261">
        <ele>161.19999694824</ele>
        <time>2019-11-14T09:43:23.000Z</time>
      </trkpt>
      <trkpt lat="47.27927" lon="-2.48278">
        <ele>161.19999694824</ele>
        <time>2019-11-14T09:43:25.000Z</time>
      </trkpt>
      <trkpt lat="47.2793" lon="-2.48285">
        <ele>161.19999694824</ele>
        <time>2019-11-14T09:43:26.000Z</time>
      </trkpt>
      <trkpt lat="47.27947" lon="-2.48295">
        <ele>161.19999694824</ele>
        <time>2019-11-14T09:43:29.000Z</time>
      </trkpt>
      <trkpt lat="47.27953" lon="-2.48297">
        <ele>161.19999694824</ele>
        <time>2019-11-14T09:43:30.000Z</time>
      </trkpt>
      <trkpt lat="47.27997" lon="-2.48311">
        <ele>161.19999694824</ele>
        <time>2019-11-14T09:43:37.000Z</time>
      </trkpt>
      <trkpt lat="47.28034" lon="-2.48323">
        <ele>161.19999694824</ele>
        <time>2019-11-14T09:43:43.000Z</time>
      </trkpt>
      <trkpt lat="47.28082" lon="-2.48341">
        <ele>161.19999694824</ele>
        <time>2019-11-14T09:43:51.000Z</time>
      </trkpt>
      <trkpt lat="47.28093" lon="-2.48345">
        <ele>161.19999694824</ele>
        <time>2019-11-14T09:43:53.000Z</time>
      </trkpt>
      <trkpt lat="47.28103" lon="-2.48348">
        <ele>161.19999694824</ele>
        <time>2019-11-14T09:43:55.000Z</time>
      </trkpt>
      <trkpt lat="47.28108" lon="-2.4835">
        <ele>161.19999694824</ele>
        <time>2019-11-14T09:43:56.000Z</time>
      </trkpt>
      <trkpt lat="47.28123" lon="-2.48355">
        <ele>161.19999694824</ele>
        <time>2019-11-14T09:43:59.000Z</time>
      </trkpt>
      <trkpt lat="47.28132" lon="-2.48361">
        <ele>161.19999694824</ele>
        <time>2019-11-14T09:44:01.000Z</time>
      </trkpt>
      <trkpt lat="47.28141" lon="-2.48381">
        <ele>161.19999694824</ele>
        <time>2019-11-14T09:44:04.000Z</time>
      </trkpt>
      <trkpt lat="47.28144" lon="-2.48398">
        <ele>161.19999694824</ele>
        <time>2019-11-14T09:44:06.000Z</time>
      </trkpt>
      <trkpt lat="47.28147" lon="-2.48422">
        <ele>161.19999694824</ele>
        <time>2019-11-14T09:44:09.000Z</time>
      </trkpt>
      <trkpt lat="47.28151" lon="-2.48478">
        <ele>161.19999694824</ele>
        <time>2019-11-14T09:44:16.000Z</time>
      </trkpt>
      <trkpt lat="47.28156" lon="-2.48512">
        <ele>161.19999694824</ele>
        <time>2019-11-14T09:44:20.000Z</time>
      </trkpt>
      <trkpt lat="47.28157" lon="-2.4852">
        <ele>161.19999694824</ele>
        <time>2019-11-14T09:44:21.000Z</time>
      </trkpt>
      <trkpt lat="47.28167" lon="-2.48577">
        <ele>161.19999694824</ele>
        <time>2019-11-14T09:44:27.000Z</time>
      </trkpt>
      <trkpt lat="47.28168" lon="-2.48586">
        <ele>161.19999694824</ele>
        <time>2019-11-14T09:44:28.000Z</time>
      </trkpt>
      <trkpt lat="47.28172" lon="-2.48622">
        <ele>161.19999694824</ele>
        <time>2019-11-14T09:44:32.000Z</time>
      </trkpt>
      <trkpt lat="47.28182" lon="-2.48666">
        <ele>161.19999694824</ele>
        <time>2019-11-14T09:44:37.000Z</time>
      </trkpt>
      <trkpt lat="47.2819" lon="-2.48726">
        <ele>161.19999694824</ele>
        <time>2019-11-14T09:44:43.000Z</time>
      </trkpt>
      <trkpt lat="47.28191" lon="-2.48735">
        <ele>161.80000305176</ele>
        <time>2019-11-14T09:44:44.000Z</time>
      </trkpt>
      <trkpt lat="47.28192" lon="-2.48745">
        <ele>162.19999694824</ele>
        <time>2019-11-14T09:44:45.000Z</time>
      </trkpt>
      <trkpt lat="47.28194" lon="-2.48755">
        <ele>162.60000610352</ele>
        <time>2019-11-14T09:44:46.000Z</time>
      </trkpt>
      <trkpt lat="47.28195" lon="-2.48765">
        <ele>163</ele>
        <time>2019-11-14T09:44:47.000Z</time>
      </trkpt>
      <trkpt lat="47.28196" lon="-2.48775">
        <ele>163.39999389648</ele>
        <time>2019-11-14T09:44:48.000Z</time>
      </trkpt>
      <trkpt lat="47.28204" lon="-2.48833">
        <ele>163.39999389648</ele>
        <time>2019-11-14T09:44:54.000Z</time>
      </trkpt>
      <trkpt lat="47.28208" lon="-2.48879">
        <ele>163.39999389648</ele>
        <time>2019-11-14T09:44:59.000Z</time>
      </trkpt>
      <trkpt lat="47.28214" lon="-2.48935">
        <ele>163.39999389648</ele>
        <time>2019-11-14T09:45:05.000Z</time>
      </trkpt>
      <trkpt lat="47.28221" lon="-2.48988">
        <ele>163.39999389648</ele>
        <time>2019-11-14T09:45:11.000Z</time>
      </trkpt>
      <trkpt lat="47.28227" lon="-2.49038">
        <ele>163.39999389648</ele>
        <time>2019-11-14T09:45:17.000Z</time>
      </trkpt>
      <trkpt lat="47.28227" lon="-2.49051">
        <ele>163.39999389648</ele>
        <time>2019-11-14T09:45:20.000Z</time>
      </trkpt>
      <trkpt lat="47.28228" lon="-2.49066">
        <ele>163.39999389648</ele>
        <time>2019-11-14T09:45:25.000Z</time>
      </trkpt>
      <trkpt lat="47.2823" lon="-2.49072">
        <ele>163.39999389648</ele>
        <time>2019-11-14T09:45:27.000Z</time>
      </trkpt>
      <trkpt lat="47.28234" lon="-2.49075">
        <ele>163.39999389648</ele>
        <time>2019-11-14T09:45:29.000Z</time>
      </trkpt>
      <trkpt lat="47.28239" lon="-2.49075">
        <ele>163.39999389648</ele>
        <time>2019-11-14T09:45:31.000Z</time>
      </trkpt>
      <trkpt lat="47.28246" lon="-2.49073">
        <ele>163.39999389648</ele>
        <time>2019-11-14T09:45:34.000Z</time>
      </trkpt>
      <trkpt lat="47.28268" lon="-2.49066">
        <ele>163.39999389648</ele>
        <time>2019-11-14T09:45:41.000Z</time>
      </trkpt>
      <trkpt lat="47.28294" lon="-2.49059">
        <ele>163.39999389648</ele>
        <time>2019-11-14T09:45:49.000Z</time>
      </trkpt>
      <trkpt lat="47.28309" lon="-2.49055">
        <ele>163.39999389648</ele>
        <time>2019-11-14T09:45:55.000Z</time>
      </trkpt>
      <trkpt lat="47.28312" lon="-2.49056">
        <ele>163.39999389648</ele>
        <time>2019-11-14T09:45:58.000Z</time>
      </trkpt>
      <trkpt lat="47.28313" lon="-2.49061">
        <ele>163.39999389648</ele>
        <time>2019-11-14T09:46:00.000Z</time>
      </trkpt>
      <trkpt lat="47.28312" lon="-2.49071">
        <ele>163.39999389648</ele>
        <time>2019-11-14T09:46:04.000Z</time>
      </trkpt>
      <trkpt lat="47.28313" lon="-2.4908">
        <ele>163.39999389648</ele>
        <time>2019-11-14T09:46:06.000Z</time>
      </trkpt>
      <trkpt lat="47.28313" lon="-2.49096">
        <ele>163.39999389648</ele>
        <time>2019-11-14T09:46:09.000Z</time>
      </trkpt>
      <trkpt lat="47.28314" lon="-2.49117">
        <ele>163.39999389648</ele>
        <time>2019-11-14T09:46:12.000Z</time>
      </trkpt>
      <trkpt lat="47.28315" lon="-2.49131">
        <ele>163.39999389648</ele>
        <time>2019-11-14T09:46:14.000Z</time>
      </trkpt>
      <trkpt lat="47.28319" lon="-2.49182">
        <ele>163.39999389648</ele>
        <time>2019-11-14T09:46:21.000Z</time>
      </trkpt>
      <trkpt lat="47.2832" lon="-2.49196">
        <ele>163.39999389648</ele>
        <time>2019-11-14T09:46:23.000Z</time>
      </trkpt>
      <trkpt lat="47.28319" lon="-2.49208">
        <ele>163.39999389648</ele>
        <time>2019-11-14T09:46:25.000Z</time>
      </trkpt>
      <trkpt lat="47.28321" lon="-2.49214">
        <ele>163.39999389648</ele>
        <time>2019-11-14T09:46:26.000Z</time>
      </trkpt>
      <trkpt lat="47.28327" lon="-2.49241">
        <ele>163.39999389648</ele>
        <time>2019-11-14T09:46:30.000Z</time>
      </trkpt>
      <trkpt lat="47.28329" lon="-2.49254">
        <ele>163.39999389648</ele>
        <time>2019-11-14T09:46:32.000Z</time>
      </trkpt>
      <trkpt lat="47.28333" lon="-2.49302">
        <ele>163.39999389648</ele>
        <time>2019-11-14T09:46:39.000Z</time>
      </trkpt>
      <trkpt lat="47.28336" lon="-2.49356">
        <ele>163.39999389648</ele>
        <time>2019-11-14T09:46:47.000Z</time>
      </trkpt>
      <trkpt lat="47.28336" lon="-2.49363">
        <ele>163.39999389648</ele>
        <time>2019-11-14T09:46:48.000Z</time>
      </trkpt>
      <trkpt lat="47.28335" lon="-2.49376">
        <ele>163.39999389648</ele>
        <time>2019-11-14T09:46:50.000Z</time>
      </trkpt>
      <trkpt lat="47.28332" lon="-2.49388">
        <ele>163.39999389648</ele>
        <time>2019-11-14T09:46:52.000Z</time>
      </trkpt>
      <trkpt lat="47.28329" lon="-2.49407">
        <ele>163.39999389648</ele>
        <time>2019-11-14T09:46:55.000Z</time>
      </trkpt>
      <trkpt lat="47.28326" lon="-2.49426">
        <ele>163.39999389648</ele>
        <time>2019-11-14T09:46:58.000Z</time>
      </trkpt>
      <trkpt lat="47.28321" lon="-2.49449">
        <ele>163.39999389648</ele>
        <time>2019-11-14T09:47:02.000Z</time>
      </trkpt>
      <trkpt lat="47.28317" lon="-2.49469">
        <ele>163.39999389648</ele>
        <time>2019-11-14T09:47:05.000Z</time>
      </trkpt>
      <trkpt lat="47.28313" lon="-2.49503">
        <ele>163.39999389648</ele>
        <time>2019-11-14T09:47:10.000Z</time>
      </trkpt>
      <trkpt lat="47.28311" lon="-2.49516">
        <ele>163.39999389648</ele>
        <time>2019-11-14T09:47:12.000Z</time>
      </trkpt>
      <trkpt lat="47.2831" lon="-2.49535">
        <ele>163.39999389648</ele>
        <time>2019-11-14T09:47:15.000Z</time>
      </trkpt>
      <trkpt lat="47.28312" lon="-2.49548">
        <ele>163.39999389648</ele>
        <time>2019-11-14T09:47:17.000Z</time>
      </trkpt>
      <trkpt lat="47.2832" lon="-2.49576">
        <ele>163.39999389648</ele>
        <time>2019-11-14T09:47:22.000Z</time>
      </trkpt>
      <trkpt lat="47.28321" lon="-2.49582">
        <ele>163.39999389648</ele>
        <time>2019-11-14T09:47:23.000Z</time>
      </trkpt>
      <trkpt lat="47.28323" lon="-2.49588">
        <ele>163.39999389648</ele>
        <time>2019-11-14T09:47:24.000Z</time>
      </trkpt>
      <trkpt lat="47.28327" lon="-2.49603">
        <ele>163.39999389648</ele>
        <time>2019-11-14T09:47:27.000Z</time>
      </trkpt>
      <trkpt lat="47.28333" lon="-2.49634">
        <ele>163.39999389648</ele>
        <time>2019-11-14T09:47:34.000Z</time>
      </trkpt>
      <trkpt lat="47.28339" lon="-2.49669">
        <ele>163.39999389648</ele>
        <time>2019-11-14T09:47:41.000Z</time>
      </trkpt>
      <trkpt lat="47.28341" lon="-2.49688">
        <ele>163.39999389648</ele>
        <time>2019-11-14T09:47:44.000Z</time>
      </trkpt>
      <trkpt lat="47.2834" lon="-2.49702">
        <ele>163</ele>
        <time>2019-11-14T09:47:46.000Z</time>
      </trkpt>
      <trkpt lat="47.2834" lon="-2.49708">
        <ele>162.60000610352</ele>
        <time>2019-11-14T09:47:47.000Z</time>
      </trkpt>
      <trkpt lat="47.2834" lon="-2.49714">
        <ele>162.19999694824</ele>
        <time>2019-11-14T09:47:48.000Z</time>
      </trkpt>
      <trkpt lat="47.2834" lon="-2.49719">
        <ele>161.80000305176</ele>
        <time>2019-11-14T09:47:49.000Z</time>
      </trkpt>
      <trkpt lat="47.2834" lon="-2.49724">
        <ele>161.39999389648</ele>
        <time>2019-11-14T09:47:50.000Z</time>
      </trkpt>
      <trkpt lat="47.2834" lon="-2.49732">
        <ele>161.39999389648</ele>
        <time>2019-11-14T09:47:52.000Z</time>
      </trkpt>
      <trkpt lat="47.28341" lon="-2.49743">
        <ele>161.39999389648</ele>
        <time>2019-11-14T09:47:57.000Z</time>
      </trkpt>
      <trkpt lat="47.28342" lon="-2.49751">
        <ele>161.39999389648</ele>
        <time>2019-11-14T09:48:03.000Z</time>
      </trkpt>
      <trkpt lat="47.28338" lon="-2.49773">
        <ele>159.39999389648</ele>
        <time>2019-11-14T09:49:01.000Z</time>
      </trkpt>
      <trkpt lat="47.28327" lon="-2.49774">
        <ele>159.39999389648</ele>
        <time>2019-11-14T09:49:06.000Z</time>
      </trkpt>
      <trkpt lat="47.28313" lon="-2.49769">
        <ele>159.39999389648</ele>
        <time>2019-11-14T09:49:10.000Z</time>
      </trkpt>
      <trkpt lat="47.28289" lon="-2.49762">
        <ele>159.39999389648</ele>
        <time>2019-11-14T09:49:16.000Z</time>
      </trkpt>
      <trkpt lat="47.28257" lon="-2.49758">
        <ele>159.39999389648</ele>
        <time>2019-11-14T09:49:24.000Z</time>
      </trkpt>
      <trkpt lat="47.28231" lon="-2.49753">
        <ele>159.39999389648</ele>
        <time>2019-11-14T09:49:31.000Z</time>
      </trkpt>
      <trkpt lat="47.282" lon="-2.4975">
        <ele>159.39999389648</ele>
        <time>2019-11-14T09:49:39.000Z</time>
      </trkpt>
      <trkpt lat="47.28174" lon="-2.49745">
        <ele>159.39999389648</ele>
        <time>2019-11-14T09:49:46.000Z</time>
      </trkpt>
      <trkpt lat="47.28153" lon="-2.49746">
        <ele>159.39999389648</ele>
        <time>2019-11-14T09:49:53.000Z</time>
      </trkpt>
      <trkpt lat="47.28149" lon="-2.49745">
        <ele>159.39999389648</ele>
        <time>2019-11-14T09:49:56.000Z</time>
      </trkpt>
      <trkpt lat="47.28148" lon="-2.4975">
        <ele>157.39999389648</ele>
        <time>2019-11-14T09:50:16.000Z</time>
      </trkpt>
      <trkpt lat="47.2815" lon="-2.49759">
        <ele>157</ele>
        <time>2019-11-14T09:50:19.000Z</time>
      </trkpt>
      <trkpt lat="47.28151" lon="-2.49763">
        <ele>156.60000610352</ele>
        <time>2019-11-14T09:50:20.000Z</time>
      </trkpt>
      <trkpt lat="47.28153" lon="-2.49768">
        <ele>156.19999694824</ele>
        <time>2019-11-14T09:50:21.000Z</time>
      </trkpt>
      <trkpt lat="47.28154" lon="-2.49774">
        <ele>155.80000305176</ele>
        <time>2019-11-14T09:50:22.000Z</time>
      </trkpt>
      <trkpt lat="47.28154" lon="-2.4978">
        <ele>155.39999389648</ele>
        <time>2019-11-14T09:50:23.000Z</time>
      </trkpt>
      <trkpt lat="47.28156" lon="-2.49792">
        <ele>155.39999389648</ele>
        <time>2019-11-14T09:50:25.000Z</time>
      </trkpt>
      <trkpt lat="47.28164" lon="-2.49846">
        <ele>155.39999389648</ele>
        <time>2019-11-14T09:50:33.000Z</time>
      </trkpt>
      <trkpt lat="47.2817" lon="-2.49891">
        <ele>155.39999389648</ele>
        <time>2019-11-14T09:50:39.000Z</time>
      </trkpt>
      <trkpt lat="47.28173" lon="-2.49907">
        <ele>155.39999389648</ele>
        <time>2019-11-14T09:50:41.000Z</time>
      </trkpt>
      <trkpt lat="47.28176" lon="-2.49931">
        <ele>155.39999389648</ele>
        <time>2019-11-14T09:50:44.000Z</time>
      </trkpt>
      <trkpt lat="47.28178" lon="-2.49939">
        <ele>155.39999389648</ele>
        <time>2019-11-14T09:50:45.000Z</time>
      </trkpt>
      <trkpt lat="47.28184" lon="-2.49987">
        <ele>155.39999389648</ele>
        <time>2019-11-14T09:50:51.000Z</time>
      </trkpt>
      <trkpt lat="47.28185" lon="-2.49995">
        <ele>155.39999389648</ele>
        <time>2019-11-14T09:50:52.000Z</time>
      </trkpt>
      <trkpt lat="47.28189" lon="-2.50015">
        <ele>155.39999389648</ele>
        <time>2019-11-14T09:50:55.000Z</time>
      </trkpt>
      <trkpt lat="47.2819" lon="-2.50023">
        <ele>155.39999389648</ele>
        <time>2019-11-14T09:50:56.000Z</time>
      </trkpt>
      <trkpt lat="47.28191" lon="-2.50032">
        <ele>155.39999389648</ele>
        <time>2019-11-14T09:50:57.000Z</time>
      </trkpt>
      <trkpt lat="47.28192" lon="-2.50039">
        <ele>155.39999389648</ele>
        <time>2019-11-14T09:50:58.000Z</time>
      </trkpt>
      <trkpt lat="47.28197" lon="-2.5007">
        <ele>155.39999389648</ele>
        <time>2019-11-14T09:51:02.000Z</time>
      </trkpt>
      <trkpt lat="47.28205" lon="-2.5011">
        <ele>155.39999389648</ele>
        <time>2019-11-14T09:51:07.000Z</time>
      </trkpt>
      <trkpt lat="47.28214" lon="-2.50164">
        <ele>155.39999389648</ele>
        <time>2019-11-14T09:51:14.000Z</time>
      </trkpt>
      <trkpt lat="47.28219" lon="-2.50179">
        <ele>155.39999389648</ele>
        <time>2019-11-14T09:51:16.000Z</time>
      </trkpt>
      <trkpt lat="47.28229" lon="-2.502">
        <ele>155.39999389648</ele>
        <time>2019-11-14T09:51:19.000Z</time>
      </trkpt>
      <trkpt lat="47.2824" lon="-2.50219">
        <ele>155.39999389648</ele>
        <time>2019-11-14T09:51:22.000Z</time>
      </trkpt>
      <trkpt lat="47.28253" lon="-2.50234">
        <ele>155.39999389648</ele>
        <time>2019-11-14T09:51:25.000Z</time>
      </trkpt>
      <trkpt lat="47.28281" lon="-2.50257">
        <ele>155.39999389648</ele>
        <time>2019-11-14T09:51:31.000Z</time>
      </trkpt>
      <trkpt lat="47.28311" lon="-2.50279">
        <ele>155.39999389648</ele>
        <time>2019-11-14T09:51:37.000Z</time>
      </trkpt>
      <trkpt lat="47.28316" lon="-2.50282">
        <ele>155.39999389648</ele>
        <time>2019-11-14T09:51:38.000Z</time>
      </trkpt>
      <trkpt lat="47.28349" lon="-2.50307">
        <ele>155.39999389648</ele>
        <time>2019-11-14T09:51:45.000Z</time>
      </trkpt>
      <trkpt lat="47.28375" lon="-2.50327">
        <ele>155.39999389648</ele>
        <time>2019-11-14T09:51:51.000Z</time>
      </trkpt>
      <trkpt lat="47.28387" lon="-2.50334">
        <ele>155.39999389648</ele>
        <time>2019-11-14T09:51:54.000Z</time>
      </trkpt>
      <trkpt lat="47.28394" lon="-2.50328">
        <ele>155.39999389648</ele>
        <time>2019-11-14T09:51:56.000Z</time>
      </trkpt>
      <trkpt lat="47.28396" lon="-2.50316">
        <ele>155.39999389648</ele>
        <time>2019-11-14T09:51:59.000Z</time>
      </trkpt>
      <trkpt lat="47.28396" lon="-2.50309">
        <ele>155.39999389648</ele>
        <time>2019-11-14T09:52:01.000Z</time>
      </trkpt>
      <trkpt lat="47.28396" lon="-2.50299">
        <ele>155.39999389648</ele>
        <time>2019-11-14T09:52:05.000Z</time>
      </trkpt>
      <trkpt lat="47.28396" lon="-2.50299">
        <ele>155.39999389648</ele>
        <time>2019-11-14T09:52:06.000Z</time>
      </trkpt>
      <trkpt lat="47.28396" lon="-2.50295">
        <ele>155.39999389648</ele>
        <time>2019-11-14T09:52:33.000Z</time>
      </trkpt>
      <trkpt lat="47.28397" lon="-2.50288">
        <ele>155.39999389648</ele>
        <time>2019-11-14T09:52:35.000Z</time>
      </trkpt>
      <trkpt lat="47.28399" lon="-2.50275">
        <ele>155.39999389648</ele>
        <time>2019-11-14T09:52:39.000Z</time>
      </trkpt>
      <trkpt lat="47.28401" lon="-2.50272">
        <ele>155.39999389648</ele>
        <time>2019-11-14T09:52:40.000Z</time>
      </trkpt>
      <trkpt lat="47.28409" lon="-2.50267">
        <ele>155.39999389648</ele>
        <time>2019-11-14T09:52:43.000Z</time>
      </trkpt>
      <trkpt lat="47.28415" lon="-2.50263">
        <ele>155.39999389648</ele>
        <time>2019-11-14T09:52:45.000Z</time>
      </trkpt>
      <trkpt lat="47.28418" lon="-2.50262">
        <ele>154.80000305176</ele>
        <time>2019-11-14T09:52:46.000Z</time>
      </trkpt>
      <trkpt lat="47.28421" lon="-2.5026">
        <ele>154.39999389648</ele>
        <time>2019-11-14T09:52:47.000Z</time>
      </trkpt>
      <trkpt lat="47.28424" lon="-2.50259">
        <ele>154</ele>
        <time>2019-11-14T09:52:48.000Z</time>
      </trkpt>
      <trkpt lat="47.28426" lon="-2.50257">
        <ele>153.60000610352</ele>
        <time>2019-11-14T09:52:49.000Z</time>
      </trkpt>
      <trkpt lat="47.28428" lon="-2.50256">
        <ele>153.19999694824</ele>
        <time>2019-11-14T09:52:50.000Z</time>
      </trkpt>
      <trkpt lat="47.28429" lon="-2.50255">
        <ele>153.19999694824</ele>
        <time>2019-11-14T09:52:51.000Z</time>
      </trkpt>
      <trkpt lat="47.28436" lon="-2.50253">
        <ele>153.19999694824</ele>
        <time>2019-11-14T09:52:57.000Z</time>
      </trkpt>
      <trkpt lat="47.28458" lon="-2.50244">
        <ele>153.19999694824</ele>
        <time>2019-11-14T09:53:45.000Z</time>
      </trkpt>
      <trkpt lat="47.28463" lon="-2.50244">
        <ele>153.19999694824</ele>
        <time>2019-11-14T09:53:47.000Z</time>
      </trkpt>
      <trkpt lat="47.28469" lon="-2.50243">
        <ele>153.19999694824</ele>
        <time>2019-11-14T09:53:49.000Z</time>
      </trkpt>
      <trkpt lat="47.28481" lon="-2.50245">
        <ele>153.19999694824</ele>
        <time>2019-11-14T09:53:53.000Z</time>
      </trkpt>
      <trkpt lat="47.28483" lon="-2.50253">
        <ele>153.19999694824</ele>
        <time>2019-11-14T09:53:56.000Z</time>
      </trkpt>
      <trkpt lat="47.28489" lon="-2.50264">
        <ele>153.19999694824</ele>
        <time>2019-11-14T09:54:00.000Z</time>
      </trkpt>
      <trkpt lat="47.2849" lon="-2.50267">
        <ele>153.19999694824</ele>
        <time>2019-11-14T09:54:01.000Z</time>
      </trkpt>
      <trkpt lat="47.28495" lon="-2.50273">
        <ele>153.19999694824</ele>
        <time>2019-11-14T09:54:03.000Z</time>
      </trkpt>
      <trkpt lat="47.28501" lon="-2.50275">
        <ele>153.19999694824</ele>
        <time>2019-11-14T09:54:05.000Z</time>
      </trkpt>
      <trkpt lat="47.28509" lon="-2.50278">
        <ele>153.19999694824</ele>
        <time>2019-11-14T09:54:07.000Z</time>
      </trkpt>
      <trkpt lat="47.28521" lon="-2.50284">
        <ele>152.80000305176</ele>
        <time>2019-11-14T09:54:10.000Z</time>
      </trkpt>
      <trkpt lat="47.28526" lon="-2.50287">
        <ele>152.39999389648</ele>
        <time>2019-11-14T09:54:11.000Z</time>
      </trkpt>
      <trkpt lat="47.2853" lon="-2.5029">
        <ele>152</ele>
        <time>2019-11-14T09:54:12.000Z</time>
      </trkpt>
      <trkpt lat="47.28534" lon="-2.50293">
        <ele>151.60000610352</ele>
        <time>2019-11-14T09:54:13.000Z</time>
      </trkpt>
      <trkpt lat="47.28538" lon="-2.50296">
        <ele>151.19999694824</ele>
        <time>2019-11-14T09:54:14.000Z</time>
      </trkpt>
      <trkpt lat="47.28542" lon="-2.50299">
        <ele>151.19999694824</ele>
        <time>2019-11-14T09:54:15.000Z</time>
      </trkpt>
      <trkpt lat="47.28551" lon="-2.50304">
        <ele>151.19999694824</ele>
        <time>2019-11-14T09:54:17.000Z</time>
      </trkpt>
      <trkpt lat="47.28562" lon="-2.50314">
        <ele>151.19999694824</ele>
        <time>2019-11-14T09:54:20.000Z</time>
      </trkpt>
      <trkpt lat="47.2857" lon="-2.5032">
        <ele>151.19999694824</ele>
        <time>2019-11-14T09:54:22.000Z</time>
      </trkpt>
      <trkpt lat="47.28579" lon="-2.50326">
        <ele>151.19999694824</ele>
        <time>2019-11-14T09:54:24.000Z</time>
      </trkpt>
      <trkpt lat="47.28593" lon="-2.50327">
        <ele>151.19999694824</ele>
        <time>2019-11-14T09:54:27.000Z</time>
      </trkpt>
      <trkpt lat="47.28602" lon="-2.50327">
        <ele>151.19999694824</ele>
        <time>2019-11-14T09:54:29.000Z</time>
      </trkpt>
      <trkpt lat="47.28616" lon="-2.5033">
        <ele>151.19999694824</ele>
        <time>2019-11-14T09:54:32.000Z</time>
      </trkpt>
      <trkpt lat="47.2862" lon="-2.50332">
        <ele>151.19999694824</ele>
        <time>2019-11-14T09:54:33.000Z</time>
      </trkpt>
      <trkpt lat="47.2865" lon="-2.50351">
        <ele>151.19999694824</ele>
        <time>2019-11-14T09:54:40.000Z</time>
      </trkpt>
      <trkpt lat="47.28683" lon="-2.50378">
        <ele>151.19999694824</ele>
        <time>2019-11-14T09:54:48.000Z</time>
      </trkpt>
      <trkpt lat="47.28698" lon="-2.50388">
        <ele>151.19999694824</ele>
        <time>2019-11-14T09:54:52.000Z</time>
      </trkpt>
      <trkpt lat="47.28702" lon="-2.50387">
        <ele>151.19999694824</ele>
        <time>2019-11-14T09:54:53.000Z</time>
      </trkpt>
      <trkpt lat="47.28711" lon="-2.50376">
        <ele>151.19999694824</ele>
        <time>2019-11-14T09:54:56.000Z</time>
      </trkpt>
      <trkpt lat="47.28714" lon="-2.50366">
        <ele>151.19999694824</ele>
        <time>2019-11-14T09:54:58.000Z</time>
      </trkpt>
      <trkpt lat="47.28723" lon="-2.50347">
        <ele>151.19999694824</ele>
        <time>2019-11-14T09:55:02.000Z</time>
      </trkpt>
      <trkpt lat="47.28729" lon="-2.50328">
        <ele>151.19999694824</ele>
        <time>2019-11-14T09:55:06.000Z</time>
      </trkpt>
      <trkpt lat="47.2874" lon="-2.50316">
        <ele>151.19999694824</ele>
        <time>2019-11-14T09:55:10.000Z</time>
      </trkpt>
      <trkpt lat="47.28758" lon="-2.50318">
        <ele>151.19999694824</ele>
        <time>2019-11-14T09:55:15.000Z</time>
      </trkpt>
      <trkpt lat="47.2878" lon="-2.50332">
        <ele>151.19999694824</ele>
        <time>2019-11-14T09:55:22.000Z</time>
      </trkpt>
      <trkpt lat="47.28791" lon="-2.50342">
        <ele>151.19999694824</ele>
        <time>2019-11-14T09:55:27.000Z</time>
      </trkpt>
      <trkpt lat="47.28807" lon="-2.50356">
        <ele>151.19999694824</ele>
        <time>2019-11-14T09:55:32.000Z</time>
      </trkpt>
      <trkpt lat="47.28811" lon="-2.50358">
        <ele>151.19999694824</ele>
        <time>2019-11-14T09:55:33.000Z</time>
      </trkpt>
      <trkpt lat="47.28834" lon="-2.50372">
        <ele>151.19999694824</ele>
        <time>2019-11-14T09:55:39.000Z</time>
      </trkpt>
      <trkpt lat="47.28859" lon="-2.50388">
        <ele>151.19999694824</ele>
        <time>2019-11-14T09:55:46.000Z</time>
      </trkpt>
      <trkpt lat="47.28879" lon="-2.50397">
        <ele>151.19999694824</ele>
        <time>2019-11-14T09:55:51.000Z</time>
      </trkpt>
      <trkpt lat="47.28888" lon="-2.50395">
        <ele>151.19999694824</ele>
        <time>2019-11-14T09:55:53.000Z</time>
      </trkpt>
      <trkpt lat="47.28898" lon="-2.50383">
        <ele>151.19999694824</ele>
        <time>2019-11-14T09:55:56.000Z</time>
      </trkpt>
      <trkpt lat="47.28904" lon="-2.50365">
        <ele>151.19999694824</ele>
        <time>2019-11-14T09:55:59.000Z</time>
      </trkpt>
      <trkpt lat="47.28908" lon="-2.50353">
        <ele>151.19999694824</ele>
        <time>2019-11-14T09:56:01.000Z</time>
      </trkpt>
      <trkpt lat="47.28923" lon="-2.50315">
        <ele>151.19999694824</ele>
        <time>2019-11-14T09:56:08.000Z</time>
      </trkpt>
      <trkpt lat="47.28924" lon="-2.50308">
        <ele>151.19999694824</ele>
        <time>2019-11-14T09:56:09.000Z</time>
      </trkpt>
      <trkpt lat="47.2892" lon="-2.50297">
        <ele>150.80000305176</ele>
        <time>2019-11-14T09:56:11.000Z</time>
      </trkpt>
      <trkpt lat="47.28918" lon="-2.50291">
        <ele>150.39999389648</ele>
        <time>2019-11-14T09:56:12.000Z</time>
      </trkpt>
      <trkpt lat="47.28916" lon="-2.50285">
        <ele>150</ele>
        <time>2019-11-14T09:56:14.000Z</time>
      </trkpt>
      <trkpt lat="47.28915" lon="-2.50278">
        <ele>149.60000610352</ele>
        <time>2019-11-14T09:56:15.000Z</time>
      </trkpt>
      <trkpt lat="47.28914" lon="-2.50272">
        <ele>149.19999694824</ele>
        <time>2019-11-14T09:56:16.000Z</time>
      </trkpt>
      <trkpt lat="47.28912" lon="-2.50265">
        <ele>149.19999694824</ele>
        <time>2019-11-14T09:56:17.000Z</time>
      </trkpt>
      <trkpt lat="47.2891" lon="-2.5026">
        <ele>149.19999694824</ele>
        <time>2019-11-14T09:56:18.000Z</time>
      </trkpt>
      <trkpt lat="47.28902" lon="-2.50246">
        <ele>149.19999694824</ele>
        <time>2019-11-14T09:56:21.000Z</time>
      </trkpt>
      <trkpt lat="47.289" lon="-2.50241">
        <ele>149.19999694824</ele>
        <time>2019-11-14T09:56:22.000Z</time>
      </trkpt>
      <trkpt lat="47.28891" lon="-2.50219">
        <ele>149.19999694824</ele>
        <time>2019-11-14T09:56:26.000Z</time>
      </trkpt>
      <trkpt lat="47.28878" lon="-2.50189">
        <ele>149.19999694824</ele>
        <time>2019-11-14T09:56:32.000Z</time>
      </trkpt>
      <trkpt lat="47.28879" lon="-2.50168">
        <ele>149.19999694824</ele>
        <time>2019-11-14T09:56:37.000Z</time>
      </trkpt>
      <trkpt lat="47.28887" lon="-2.50156">
        <ele>149.19999694824</ele>
        <time>2019-11-14T09:56:41.000Z</time>
      </trkpt>
      <trkpt lat="47.28888" lon="-2.50154">
        <ele>149.19999694824</ele>
        <time>2019-11-14T09:56:42.000Z</time>
      </trkpt>
      <trkpt lat="47.28892" lon="-2.50147">
        <ele>149.19999694824</ele>
        <time>2019-11-14T09:56:45.000Z</time>
      </trkpt>
      <trkpt lat="47.28899" lon="-2.50145">
        <ele>149.19999694824</ele>
        <time>2019-11-14T09:56:50.000Z</time>
      </trkpt>
      <trkpt lat="47.28902" lon="-2.50145">
        <ele>149.19999694824</ele>
        <time>2019-11-14T09:56:53.000Z</time>
      </trkpt>
      <trkpt lat="47.28909" lon="-2.50147">
        <ele>149.19999694824</ele>
        <time>2019-11-14T09:56:56.000Z</time>
      </trkpt>
      <trkpt lat="47.28919" lon="-2.50165">
        <ele>149.19999694824</ele>
        <time>2019-11-14T09:57:01.000Z</time>
      </trkpt>
      <trkpt lat="47.28922" lon="-2.50169">
        <ele>148.80000305176</ele>
        <time>2019-11-14T09:57:02.000Z</time>
      </trkpt>
      <trkpt lat="47.28925" lon="-2.50172">
        <ele>148.39999389648</ele>
        <time>2019-11-14T09:57:03.000Z</time>
      </trkpt>
      <trkpt lat="47.28928" lon="-2.50175">
        <ele>147.80000305176</ele>
        <time>2019-11-14T09:57:04.000Z</time>
      </trkpt>
      <trkpt lat="47.28931" lon="-2.50176">
        <ele>147.39999389648</ele>
        <time>2019-11-14T09:57:05.000Z</time>
      </trkpt>
      <trkpt lat="47.28935" lon="-2.50178">
        <ele>147</ele>
        <time>2019-11-14T09:57:06.000Z</time>
      </trkpt>
      <trkpt lat="47.28944" lon="-2.50176">
        <ele>147</ele>
        <time>2019-11-14T09:57:09.000Z</time>
      </trkpt>
      <trkpt lat="47.28947" lon="-2.50173">
        <ele>147</ele>
        <time>2019-11-14T09:57:10.000Z</time>
      </trkpt>
      <trkpt lat="47.28957" lon="-2.50173">
        <ele>147</ele>
        <time>2019-11-14T09:57:14.000Z</time>
      </trkpt>
      <trkpt lat="47.28963" lon="-2.50188">
        <ele>147</ele>
        <time>2019-11-14T09:57:18.000Z</time>
      </trkpt>
      <trkpt lat="47.28966" lon="-2.50196">
        <ele>147</ele>
        <time>2019-11-14T09:57:20.000Z</time>
      </trkpt>
      <trkpt lat="47.28971" lon="-2.5021">
        <ele>147</ele>
        <time>2019-11-14T09:57:23.000Z</time>
      </trkpt>
      <trkpt lat="47.28984" lon="-2.50245">
        <ele>147</ele>
        <time>2019-11-14T09:57:30.000Z</time>
      </trkpt>
      <trkpt lat="47.28994" lon="-2.50273">
        <ele>147</ele>
        <time>2019-11-14T09:57:35.000Z</time>
      </trkpt>
      <trkpt lat="47.29" lon="-2.50283">
        <ele>147</ele>
        <time>2019-11-14T09:57:37.000Z</time>
      </trkpt>
      <trkpt lat="47.29002" lon="-2.50288">
        <ele>146.60000610352</ele>
        <time>2019-11-14T09:57:38.000Z</time>
      </trkpt>
      <trkpt lat="47.29004" lon="-2.50293">
        <ele>146.19999694824</ele>
        <time>2019-11-14T09:57:39.000Z</time>
      </trkpt>
      <trkpt lat="47.29005" lon="-2.503">
        <ele>145.80000305176</ele>
        <time>2019-11-14T09:57:40.000Z</time>
      </trkpt>
      <trkpt lat="47.29007" lon="-2.50306">
        <ele>145.39999389648</ele>
        <time>2019-11-14T09:57:41.000Z</time>
      </trkpt>
      <trkpt lat="47.29008" lon="-2.50313">
        <ele>145</ele>
        <time>2019-11-14T09:57:42.000Z</time>
      </trkpt>
      <trkpt lat="47.29009" lon="-2.50319">
        <ele>145</ele>
        <time>2019-11-14T09:57:43.000Z</time>
      </trkpt>
      <trkpt lat="47.29016" lon="-2.50343">
        <ele>145</ele>
        <time>2019-11-14T09:57:47.000Z</time>
      </trkpt>
      <trkpt lat="47.29023" lon="-2.50361">
        <ele>145</ele>
        <time>2019-11-14T09:57:50.000Z</time>
      </trkpt>
      <trkpt lat="47.29028" lon="-2.50371">
        <ele>145</ele>
        <time>2019-11-14T09:57:52.000Z</time>
      </trkpt>
      <trkpt lat="47.29029" lon="-2.50377">
        <ele>145</ele>
        <time>2019-11-14T09:57:53.000Z</time>
      </trkpt>
      <trkpt lat="47.29034" lon="-2.50394">
        <ele>145</ele>
        <time>2019-11-14T09:57:56.000Z</time>
      </trkpt>
      <trkpt lat="47.29036" lon="-2.504">
        <ele>144.60000610352</ele>
        <time>2019-11-14T09:57:57.000Z</time>
      </trkpt>
      <trkpt lat="47.29038" lon="-2.50405">
        <ele>144.19999694824</ele>
        <time>2019-11-14T09:57:58.000Z</time>
      </trkpt>
      <trkpt lat="47.2904" lon="-2.5041">
        <ele>143.80000305176</ele>
        <time>2019-11-14T09:57:59.000Z</time>
      </trkpt>
      <trkpt lat="47.29043" lon="-2.50414">
        <ele>143.19999694824</ele>
        <time>2019-11-14T09:58:00.000Z</time>
      </trkpt>
      <trkpt lat="47.29046" lon="-2.50417">
        <ele>142.80000305176</ele>
        <time>2019-11-14T09:58:01.000Z</time>
      </trkpt>
      <trkpt lat="47.2905" lon="-2.50419">
        <ele>142.80000305176</ele>
        <time>2019-11-14T09:58:02.000Z</time>
      </trkpt>
      <trkpt lat="47.29073" lon="-2.50428">
        <ele>142.80000305176</ele>
        <time>2019-11-14T09:58:08.000Z</time>
      </trkpt>
      <trkpt lat="47.29092" lon="-2.50441">
        <ele>142.80000305176</ele>
        <time>2019-11-14T09:58:13.000Z</time>
      </trkpt>
      <trkpt lat="47.29096" lon="-2.50441">
        <ele>142.80000305176</ele>
        <time>2019-11-14T09:58:14.000Z</time>
      </trkpt>
      <trkpt lat="47.29111" lon="-2.50434">
        <ele>142.80000305176</ele>
        <time>2019-11-14T09:58:18.000Z</time>
      </trkpt>
      <trkpt lat="47.29118" lon="-2.50422">
        <ele>142.80000305176</ele>
        <time>2019-11-14T09:58:21.000Z</time>
      </trkpt>
      <trkpt lat="47.2912" lon="-2.50417">
        <ele>142.39999389648</ele>
        <time>2019-11-14T09:58:22.000Z</time>
      </trkpt>
      <trkpt lat="47.29121" lon="-2.50413">
        <ele>142</ele>
        <time>2019-11-14T09:58:23.000Z</time>
      </trkpt>
      <trkpt lat="47.29122" lon="-2.5041">
        <ele>141.60000610352</ele>
        <time>2019-11-14T09:58:24.000Z</time>
      </trkpt>
      <trkpt lat="47.29124" lon="-2.50407">
        <ele>141.19999694824</ele>
        <time>2019-11-14T09:58:25.000Z</time>
      </trkpt>
      <trkpt lat="47.29126" lon="-2.50404">
        <ele>140.80000305176</ele>
        <time>2019-11-14T09:58:26.000Z</time>
      </trkpt>
      <trkpt lat="47.29129" lon="-2.50402">
        <ele>140.80000305176</ele>
        <time>2019-11-14T09:58:27.000Z</time>
      </trkpt>
      <trkpt lat="47.29143" lon="-2.50384">
        <ele>140.80000305176</ele>
        <time>2019-11-14T09:58:33.000Z</time>
      </trkpt>
      <trkpt lat="47.29148" lon="-2.5039">
        <ele>140.80000305176</ele>
        <time>2019-11-14T09:58:36.000Z</time>
      </trkpt>
      <trkpt lat="47.29149" lon="-2.50405">
        <ele>140.80000305176</ele>
        <time>2019-11-14T09:58:39.000Z</time>
      </trkpt>
      <trkpt lat="47.2915" lon="-2.50416">
        <ele>140.80000305176</ele>
        <time>2019-11-14T09:58:41.000Z</time>
      </trkpt>
      <trkpt lat="47.29152" lon="-2.50422">
        <ele>140.80000305176</ele>
        <time>2019-11-14T09:58:42.000Z</time>
      </trkpt>
      <trkpt lat="47.29162" lon="-2.50441">
        <ele>140.39999389648</ele>
        <time>2019-11-14T09:58:46.000Z</time>
      </trkpt>
      <trkpt lat="47.29165" lon="-2.50445">
        <ele>140</ele>
        <time>2019-11-14T09:58:47.000Z</time>
      </trkpt>
      <trkpt lat="47.29169" lon="-2.50449">
        <ele>139.60000610352</ele>
        <time>2019-11-14T09:58:48.000Z</time>
      </trkpt>
      <trkpt lat="47.29172" lon="-2.50452">
        <ele>139.19999694824</ele>
        <time>2019-11-14T09:58:49.000Z</time>
      </trkpt>
      <trkpt lat="47.29175" lon="-2.50455">
        <ele>138.80000305176</ele>
        <time>2019-11-14T09:58:50.000Z</time>
      </trkpt>
      <trkpt lat="47.29182" lon="-2.50461">
        <ele>138.80000305176</ele>
        <time>2019-11-14T09:58:52.000Z</time>
      </trkpt>
      <trkpt lat="47.29201" lon="-2.5048">
        <ele>138.80000305176</ele>
        <time>2019-11-14T09:58:59.000Z</time>
      </trkpt>
      <trkpt lat="47.29221" lon="-2.50501">
        <ele>138.80000305176</ele>
        <time>2019-11-14T09:59:06.000Z</time>
      </trkpt>
      <trkpt lat="47.29239" lon="-2.50517">
        <ele>138.80000305176</ele>
        <time>2019-11-14T09:59:13.000Z</time>
      </trkpt>
      <trkpt lat="47.29253" lon="-2.50524">
        <ele>138.80000305176</ele>
        <time>2019-11-14T09:59:18.000Z</time>
      </trkpt>
      <trkpt lat="47.29267" lon="-2.50539">
        <ele>138.80000305176</ele>
        <time>2019-11-14T09:59:24.000Z</time>
      </trkpt>
      <trkpt lat="47.29282" lon="-2.50555">
        <ele>138.80000305176</ele>
        <time>2019-11-14T09:59:31.000Z</time>
      </trkpt>
      <trkpt lat="47.29289" lon="-2.50563">
        <ele>138.39999389648</ele>
        <time>2019-11-14T09:59:34.000Z</time>
      </trkpt>
      <trkpt lat="47.2929" lon="-2.50566">
        <ele>138</ele>
        <time>2019-11-14T09:59:35.000Z</time>
      </trkpt>
      <trkpt lat="47.29292" lon="-2.5057">
        <ele>137.39999389648</ele>
        <time>2019-11-14T09:59:36.000Z</time>
      </trkpt>
      <trkpt lat="47.29293" lon="-2.50573">
        <ele>137</ele>
        <time>2019-11-14T09:59:37.000Z</time>
      </trkpt>
      <trkpt lat="47.29294" lon="-2.50575">
        <ele>136.60000610352</ele>
        <time>2019-11-14T09:59:38.000Z</time>
      </trkpt>
      <trkpt lat="47.29298" lon="-2.50589">
        <ele>136.60000610352</ele>
        <time>2019-11-14T09:59:42.000Z</time>
      </trkpt>
      <trkpt lat="47.29302" lon="-2.50614">
        <ele>136.19999694824</ele>
        <time>2019-11-14T09:59:49.000Z</time>
      </trkpt>
      <trkpt lat="47.29302" lon="-2.50617">
        <ele>135.80000305176</ele>
        <time>2019-11-14T09:59:50.000Z</time>
      </trkpt>
      <trkpt lat="47.29302" lon="-2.5062">
        <ele>135.39999389648</ele>
        <time>2019-11-14T09:59:51.000Z</time>
      </trkpt>
      <trkpt lat="47.29303" lon="-2.50623">
        <ele>135</ele>
        <time>2019-11-14T09:59:52.000Z</time>
      </trkpt>
      <trkpt lat="47.29304" lon="-2.50626">
        <ele>134.60000610352</ele>
        <time>2019-11-14T09:59:53.000Z</time>
      </trkpt>
      <trkpt lat="47.29307" lon="-2.50634">
        <ele>134.60000610352</ele>
        <time>2019-11-14T09:59:56.000Z</time>
      </trkpt>
      <trkpt lat="47.29311" lon="-2.50655">
        <ele>134.19999694824</ele>
        <time>2019-11-14T10:00:03.000Z</time>
      </trkpt>
      <trkpt lat="47.29311" lon="-2.50657">
        <ele>133.80000305176</ele>
        <time>2019-11-14T10:00:04.000Z</time>
      </trkpt>
      <trkpt lat="47.29311" lon="-2.50659">
        <ele>133.39999389648</ele>
        <time>2019-11-14T10:00:05.000Z</time>
      </trkpt>
      <trkpt lat="47.2931" lon="-2.5066">
        <ele>133</ele>
        <time>2019-11-14T10:00:06.000Z</time>
      </trkpt>
      <trkpt lat="47.2931" lon="-2.5066">
        <ele>132.60000610352</ele>
        <time>2019-11-14T10:00:07.000Z</time>
      </trkpt>
      <trkpt lat="47.29314" lon="-2.50672">
        <ele>130.60000610352</ele>
        <time>2019-11-14T10:00:44.000Z</time>
      </trkpt>
      <trkpt lat="47.29322" lon="-2.50683">
        <ele>130.60000610352</ele>
        <time>2019-11-14T10:00:48.000Z</time>
      </trkpt>
      <trkpt lat="47.29335" lon="-2.50704">
        <ele>130.60000610352</ele>
        <time>2019-11-14T10:00:56.000Z</time>
      </trkpt>
      <trkpt lat="47.29339" lon="-2.50714">
        <ele>130.19999694824</ele>
        <time>2019-11-14T10:01:00.000Z</time>
      </trkpt>
      <trkpt lat="47.2934" lon="-2.50717">
        <ele>129.80000305176</ele>
        <time>2019-11-14T10:01:01.000Z</time>
      </trkpt>
      <trkpt lat="47.29342" lon="-2.5072">
        <ele>129.39999389648</ele>
        <time>2019-11-14T10:01:02.000Z</time>
      </trkpt>
      <trkpt lat="47.29343" lon="-2.50724">
        <ele>129</ele>
        <time>2019-11-14T10:01:03.000Z</time>
      </trkpt>
      <trkpt lat="47.29345" lon="-2.50727">
        <ele>128.60000610352</ele>
        <time>2019-11-14T10:01:04.000Z</time>
      </trkpt>
      <trkpt lat="47.29351" lon="-2.50747">
        <ele>128.60000610352</ele>
        <time>2019-11-14T10:01:10.000Z</time>
      </trkpt>
      <trkpt lat="47.29359" lon="-2.50761">
        <ele>128.60000610352</ele>
        <time>2019-11-14T10:01:16.000Z</time>
      </trkpt>
      <trkpt lat="47.29362" lon="-2.50764">
        <ele>128.60000610352</ele>
        <time>2019-11-14T10:01:17.000Z</time>
      </trkpt>
      <trkpt lat="47.29368" lon="-2.50776">
        <ele>128.60000610352</ele>
        <time>2019-11-14T10:01:21.000Z</time>
      </trkpt>
      <trkpt lat="47.29368" lon="-2.50779">
        <ele>128.60000610352</ele>
        <time>2019-11-14T10:01:22.000Z</time>
      </trkpt>
      <trkpt lat="47.29363" lon="-2.50791">
        <ele>128.60000610352</ele>
        <time>2019-11-14T10:01:26.000Z</time>
      </trkpt>
      <trkpt lat="47.2936" lon="-2.50796">
        <ele>128.60000610352</ele>
        <time>2019-11-14T10:01:28.000Z</time>
      </trkpt>
      <trkpt lat="47.29354" lon="-2.50804">
        <ele>128.60000610352</ele>
        <time>2019-11-14T10:01:32.000Z</time>
      </trkpt>
      <trkpt lat="47.2935" lon="-2.50804">
        <ele>128.60000610352</ele>
        <time>2019-11-14T10:01:34.000Z</time>
      </trkpt>
      <trkpt lat="47.29346" lon="-2.50803">
        <ele>128.60000610352</ele>
        <time>2019-11-14T10:01:38.000Z</time>
      </trkpt>
      <trkpt lat="47.29345" lon="-2.50802">
        <ele>128.60000610352</ele>
        <time>2019-11-14T10:01:39.000Z</time>
      </trkpt>
      <trkpt lat="47.29337" lon="-2.50794">
        <ele>128.60000610352</ele>
        <time>2019-11-14T10:01:44.000Z</time>
      </trkpt>
      <trkpt lat="47.29327" lon="-2.50786">
        <ele>128.60000610352</ele>
        <time>2019-11-14T10:01:49.000Z</time>
      </trkpt>
      <trkpt lat="47.29322" lon="-2.50784">
        <ele>128.60000610352</ele>
        <time>2019-11-14T10:01:51.000Z</time>
      </trkpt>
      <trkpt lat="47.29311" lon="-2.50769">
        <ele>128.60000610352</ele>
        <time>2019-11-14T10:01:57.000Z</time>
      </trkpt>
      <trkpt lat="47.29316" lon="-2.50765">
        <ele>128.60000610352</ele>
        <time>2019-11-14T10:02:00.000Z</time>
      </trkpt>
      <trkpt lat="47.29321" lon="-2.50771">
        <ele>128.60000610352</ele>
        <time>2019-11-14T10:02:04.000Z</time>
      </trkpt>
      <trkpt lat="47.29317" lon="-2.50777">
        <ele>128.60000610352</ele>
        <time>2019-11-14T10:02:08.000Z</time>
      </trkpt>
      <trkpt lat="47.29309" lon="-2.50769">
        <ele>128.60000610352</ele>
        <time>2019-11-14T10:02:12.000Z</time>
      </trkpt>
      <trkpt lat="47.29295" lon="-2.50749">
        <ele>128.60000610352</ele>
        <time>2019-11-14T10:02:19.000Z</time>
      </trkpt>
      <trkpt lat="47.29279" lon="-2.50722">
        <ele>128.60000610352</ele>
        <time>2019-11-14T10:02:27.000Z</time>
      </trkpt>
      <trkpt lat="47.29257" lon="-2.50698">
        <ele>128.60000610352</ele>
        <time>2019-11-14T10:02:35.000Z</time>
      </trkpt>
      <trkpt lat="47.2924" lon="-2.507">
        <ele>128.60000610352</ele>
        <time>2019-11-14T10:02:40.000Z</time>
      </trkpt>
      <trkpt lat="47.29223" lon="-2.5071">
        <ele>128.60000610352</ele>
        <time>2019-11-14T10:02:46.000Z</time>
      </trkpt>
      <trkpt lat="47.29215" lon="-2.50717">
        <ele>128.60000610352</ele>
        <time>2019-11-14T10:02:49.000Z</time>
      </trkpt>
      <trkpt lat="47.29214" lon="-2.5072">
        <ele>128.60000610352</ele>
        <time>2019-11-14T10:02:50.000Z</time>
      </trkpt>
      <trkpt lat="47.29204" lon="-2.5075">
        <ele>128.60000610352</ele>
        <time>2019-11-14T10:02:56.000Z</time>
      </trkpt>
      <trkpt lat="47.29203" lon="-2.50783">
        <ele>128.60000610352</ele>
        <time>2019-11-14T10:03:03.000Z</time>
      </trkpt>
      <trkpt lat="47.29216" lon="-2.50807">
        <ele>128.60000610352</ele>
        <time>2019-11-14T10:03:08.000Z</time>
      </trkpt>
      <trkpt lat="47.29225" lon="-2.50821">
        <ele>128.60000610352</ele>
        <time>2019-11-14T10:03:11.000Z</time>
      </trkpt>
      <trkpt lat="47.29235" lon="-2.50841">
        <ele>128.60000610352</ele>
        <time>2019-11-14T10:03:15.000Z</time>
      </trkpt>
      <trkpt lat="47.29247" lon="-2.50862">
        <ele>128.60000610352</ele>
        <time>2019-11-14T10:03:20.000Z</time>
      </trkpt>
      <trkpt lat="47.29255" lon="-2.50871">
        <ele>128.60000610352</ele>
        <time>2019-11-14T10:03:24.000Z</time>
      </trkpt>
      <trkpt lat="47.29273" lon="-2.50891">
        <ele>128.60000610352</ele>
        <time>2019-11-14T10:03:30.000Z</time>
      </trkpt>
      <trkpt lat="47.2928" lon="-2.50897">
        <ele>128.60000610352</ele>
        <time>2019-11-14T10:03:34.000Z</time>
      </trkpt>
      <trkpt lat="47.29293" lon="-2.50903">
        <ele>128.60000610352</ele>
        <time>2019-11-14T10:03:38.000Z</time>
      </trkpt>
      <trkpt lat="47.29312" lon="-2.50906">
        <ele>128.60000610352</ele>
        <time>2019-11-14T10:03:42.000Z</time>
      </trkpt>
      <trkpt lat="47.29338" lon="-2.50922">
        <ele>128.60000610352</ele>
        <time>2019-11-14T10:03:48.000Z</time>
      </trkpt>
      <trkpt lat="47.29356" lon="-2.50933">
        <ele>128.60000610352</ele>
        <time>2019-11-14T10:03:52.000Z</time>
      </trkpt>
      <trkpt lat="47.29368" lon="-2.50935">
        <ele>128.60000610352</ele>
        <time>2019-11-14T10:03:54.000Z</time>
      </trkpt>
      <trkpt lat="47.29373" lon="-2.50938">
        <ele>129</ele>
        <time>2019-11-14T10:03:55.000Z</time>
      </trkpt>
      <trkpt lat="47.29377" lon="-2.50943">
        <ele>129.39999389648</ele>
        <time>2019-11-14T10:03:56.000Z</time>
      </trkpt>
      <trkpt lat="47.2938" lon="-2.50949">
        <ele>129.80000305176</ele>
        <time>2019-11-14T10:03:57.000Z</time>
      </trkpt>
      <trkpt lat="47.29383" lon="-2.50955">
        <ele>130.19999694824</ele>
        <time>2019-11-14T10:03:58.000Z</time>
      </trkpt>
      <trkpt lat="47.29386" lon="-2.50961">
        <ele>130.60000610352</ele>
        <time>2019-11-14T10:03:59.000Z</time>
      </trkpt>
      <trkpt lat="47.29388" lon="-2.50967">
        <ele>130.60000610352</ele>
        <time>2019-11-14T10:04:00.000Z</time>
      </trkpt>
      <trkpt lat="47.29391" lon="-2.50981">
        <ele>130.60000610352</ele>
        <time>2019-11-14T10:04:02.000Z</time>
      </trkpt>
      <trkpt lat="47.29392" lon="-2.51001">
        <ele>130.60000610352</ele>
        <time>2019-11-14T10:04:05.000Z</time>
      </trkpt>
      <trkpt lat="47.29394" lon="-2.51008">
        <ele>130.60000610352</ele>
        <time>2019-11-14T10:04:06.000Z</time>
      </trkpt>
      <trkpt lat="47.29397" lon="-2.51013">
        <ele>130.60000610352</ele>
        <time>2019-11-14T10:04:07.000Z</time>
      </trkpt>
      <trkpt lat="47.29412" lon="-2.51035">
        <ele>130.60000610352</ele>
        <time>2019-11-14T10:04:11.000Z</time>
      </trkpt>
      <trkpt lat="47.2942" lon="-2.51045">
        <ele>130.60000610352</ele>
        <time>2019-11-14T10:04:13.000Z</time>
      </trkpt>
      <trkpt lat="47.29451" lon="-2.51086">
        <ele>130.60000610352</ele>
        <time>2019-11-14T10:04:21.000Z</time>
      </trkpt>
      <trkpt lat="47.29471" lon="-2.51114">
        <ele>130.60000610352</ele>
        <time>2019-11-14T10:04:27.000Z</time>
      </trkpt>
      <trkpt lat="47.29492" lon="-2.51144">
        <ele>130.60000610352</ele>
        <time>2019-11-14T10:04:34.000Z</time>
      </trkpt>
      <trkpt lat="47.29506" lon="-2.51173">
        <ele>130.60000610352</ele>
        <time>2019-11-14T10:04:39.000Z</time>
      </trkpt>
      <trkpt lat="47.29521" lon="-2.51226">
        <ele>130.60000610352</ele>
        <time>2019-11-14T10:04:46.000Z</time>
      </trkpt>
      <trkpt lat="47.29528" lon="-2.51248">
        <ele>130.60000610352</ele>
        <time>2019-11-14T10:04:49.000Z</time>
      </trkpt>
      <trkpt lat="47.29533" lon="-2.5127">
        <ele>130.60000610352</ele>
        <time>2019-11-14T10:04:52.000Z</time>
      </trkpt>
      <trkpt lat="47.29545" lon="-2.51313">
        <ele>130.60000610352</ele>
        <time>2019-11-14T10:04:58.000Z</time>
      </trkpt>
      <trkpt lat="47.29549" lon="-2.51317">
        <ele>130.60000610352</ele>
        <time>2019-11-14T10:04:59.000Z</time>
      </trkpt>
      <trkpt lat="47.2957" lon="-2.51329">
        <ele>130.60000610352</ele>
        <time>2019-11-14T10:05:03.000Z</time>
      </trkpt>
      <trkpt lat="47.29594" lon="-2.51342">
        <ele>130.60000610352</ele>
        <time>2019-11-14T10:05:08.000Z</time>
      </trkpt>
      <trkpt lat="47.29631" lon="-2.51372">
        <ele>130.60000610352</ele>
        <time>2019-11-14T10:05:16.000Z</time>
      </trkpt>
      <trkpt lat="47.29665" lon="-2.51399">
        <ele>130.60000610352</ele>
        <time>2019-11-14T10:05:23.000Z</time>
      </trkpt>
      <trkpt lat="47.29697" lon="-2.51426">
        <ele>130.60000610352</ele>
        <time>2019-11-14T10:05:30.000Z</time>
      </trkpt>
      <trkpt lat="47.29703" lon="-2.51429">
        <ele>131</ele>
        <time>2019-11-14T10:05:31.000Z</time>
      </trkpt>
      <trkpt lat="47.29708" lon="-2.51433">
        <ele>131.39999389648</ele>
        <time>2019-11-14T10:05:32.000Z</time>
      </trkpt>
      <trkpt lat="47.29713" lon="-2.51436">
        <ele>131.80000305176</ele>
        <time>2019-11-14T10:05:33.000Z</time>
      </trkpt>
      <trkpt lat="47.29718" lon="-2.51439">
        <ele>132.19999694824</ele>
        <time>2019-11-14T10:05:34.000Z</time>
      </trkpt>
      <trkpt lat="47.29723" lon="-2.51443">
        <ele>132.60000610352</ele>
        <time>2019-11-14T10:05:35.000Z</time>
      </trkpt>
      <trkpt lat="47.29739" lon="-2.51453">
        <ele>132.60000610352</ele>
        <time>2019-11-14T10:05:38.000Z</time>
      </trkpt>
      <trkpt lat="47.29777" lon="-2.51475">
        <ele>132.60000610352</ele>
        <time>2019-11-14T10:05:45.000Z</time>
      </trkpt>
      <trkpt lat="47.298" lon="-2.51484">
        <ele>132.60000610352</ele>
        <time>2019-11-14T10:05:49.000Z</time>
      </trkpt>
      <trkpt lat="47.29805" lon="-2.51486">
        <ele>132.60000610352</ele>
        <time>2019-11-14T10:05:50.000Z</time>
      </trkpt>
      <trkpt lat="47.29811" lon="-2.51505">
        <ele>132.60000610352</ele>
        <time>2019-11-14T10:05:53.000Z</time>
      </trkpt>
      <trkpt lat="47.29815" lon="-2.51526">
        <ele>132.60000610352</ele>
        <time>2019-11-14T10:05:56.000Z</time>
      </trkpt>
      <trkpt lat="47.29819" lon="-2.51535">
        <ele>132.60000610352</ele>
        <time>2019-11-14T10:05:58.000Z</time>
      </trkpt>
      <trkpt lat="47.29825" lon="-2.51546">
        <ele>132.60000610352</ele>
        <time>2019-11-14T10:06:01.000Z</time>
      </trkpt>
      <trkpt lat="47.29828" lon="-2.51553">
        <ele>132.60000610352</ele>
        <time>2019-11-14T10:06:03.000Z</time>
      </trkpt>
      <trkpt lat="47.29832" lon="-2.51556">
        <ele>132.60000610352</ele>
        <time>2019-11-14T10:06:05.000Z</time>
      </trkpt>
      <trkpt lat="47.29837" lon="-2.51563">
        <ele>132.60000610352</ele>
        <time>2019-11-14T10:06:09.000Z</time>
      </trkpt>
      <trkpt lat="47.29839" lon="-2.51563">
        <ele>132.60000610352</ele>
        <time>2019-11-14T10:06:10.000Z</time>
      </trkpt>
      <trkpt lat="47.29841" lon="-2.51566">
        <ele>132.60000610352</ele>
        <time>2019-11-14T10:06:11.000Z</time>
      </trkpt>
      <trkpt lat="47.29846" lon="-2.51572">
        <ele>132.60000610352</ele>
        <time>2019-11-14T10:06:13.000Z</time>
      </trkpt>
      <trkpt lat="47.29861" lon="-2.51589">
        <ele>132.60000610352</ele>
        <time>2019-11-14T10:06:19.000Z</time>
      </trkpt>
      <trkpt lat="47.29877" lon="-2.51608">
        <ele>132.60000610352</ele>
        <time>2019-11-14T10:06:25.000Z</time>
      </trkpt>
      <trkpt lat="47.2989" lon="-2.51634">
        <ele>132.60000610352</ele>
        <time>2019-11-14T10:06:31.000Z</time>
      </trkpt>
      <trkpt lat="47.29894" lon="-2.51657">
        <ele>132.60000610352</ele>
        <time>2019-11-14T10:06:35.000Z</time>
      </trkpt>
      <trkpt lat="47.29896" lon="-2.51662">
        <ele>132.60000610352</ele>
        <time>2019-11-14T10:06:36.000Z</time>
      </trkpt>
      <trkpt lat="47.29905" lon="-2.51685">
        <ele>132.60000610352</ele>
        <time>2019-11-14T10:06:40.000Z</time>
      </trkpt>
      <trkpt lat="47.29907" lon="-2.51696">
        <ele>132.60000610352</ele>
        <time>2019-11-14T10:06:42.000Z</time>
      </trkpt>
      <trkpt lat="47.2991" lon="-2.51712">
        <ele>132.60000610352</ele>
        <time>2019-11-14T10:06:45.000Z</time>
      </trkpt>
      <trkpt lat="47.29914" lon="-2.51722">
        <ele>132.19999694824</ele>
        <time>2019-11-14T10:06:47.000Z</time>
      </trkpt>
      <trkpt lat="47.29916" lon="-2.51728">
        <ele>131.80000305176</ele>
        <time>2019-11-14T10:06:48.000Z</time>
      </trkpt>
      <trkpt lat="47.29917" lon="-2.51733">
        <ele>131.39999389648</ele>
        <time>2019-11-14T10:06:49.000Z</time>
      </trkpt>
      <trkpt lat="47.29919" lon="-2.51738">
        <ele>131</ele>
        <time>2019-11-14T10:06:50.000Z</time>
      </trkpt>
      <trkpt lat="47.2992" lon="-2.51743">
        <ele>130.60000610352</ele>
        <time>2019-11-14T10:06:51.000Z</time>
      </trkpt>
      <trkpt lat="47.29925" lon="-2.51757">
        <ele>130.19999694824</ele>
        <time>2019-11-14T10:06:54.000Z</time>
      </trkpt>
      <trkpt lat="47.29926" lon="-2.51762">
        <ele>129.80000305176</ele>
        <time>2019-11-14T10:06:55.000Z</time>
      </trkpt>
      <trkpt lat="47.29928" lon="-2.51766">
        <ele>129.39999389648</ele>
        <time>2019-11-14T10:06:56.000Z</time>
      </trkpt>
      <trkpt lat="47.2993" lon="-2.5177">
        <ele>129</ele>
        <time>2019-11-14T10:06:57.000Z</time>
      </trkpt>
      <trkpt lat="47.29932" lon="-2.51774">
        <ele>128.60000610352</ele>
        <time>2019-11-14T10:06:58.000Z</time>
      </trkpt>
      <trkpt lat="47.29939" lon="-2.51789">
        <ele>128.60000610352</ele>
        <time>2019-11-14T10:07:02.000Z</time>
      </trkpt>
      <trkpt lat="47.29944" lon="-2.51803">
        <ele>128.60000610352</ele>
        <time>2019-11-14T10:07:07.000Z</time>
      </trkpt>
      <trkpt lat="47.29949" lon="-2.51809">
        <ele>128.60000610352</ele>
        <time>2019-11-14T10:07:12.000Z</time>
      </trkpt>
      <trkpt lat="47.2995" lon="-2.51809">
        <ele>128.60000610352</ele>
        <time>2019-11-14T10:07:13.000Z</time>
      </trkpt>
      <trkpt lat="47.29952" lon="-2.51812">
        <ele>128.60000610352</ele>
        <time>2019-11-14T10:07:17.000Z</time>
      </trkpt>
      <trkpt lat="47.2995" lon="-2.51809">
        <ele>102.19999694824</ele>
        <time>2019-11-14T10:18:43.000Z</time>
      </trkpt>
      <trkpt lat="47.29949" lon="-2.51807">
        <ele>102.19999694824</ele>
        <time>2019-11-14T10:18:45.000Z</time>
      </trkpt>
      <trkpt lat="47.29949" lon="-2.51807">
        <ele>102.19999694824</ele>
        <time>2019-11-14T10:18:48.000Z</time>
      </trkpt>
      <trkpt lat="47.29952" lon="-2.51808">
        <ele>102.59999847412</ele>
        <time>2019-11-14T10:18:50.000Z</time>
      </trkpt>
      <trkpt lat="47.29953" lon="-2.51809">
        <ele>103.40000152588</ele>
        <time>2019-11-14T10:18:51.000Z</time>
      </trkpt>
      <trkpt lat="47.29954" lon="-2.51812">
        <ele>104</ele>
        <time>2019-11-14T10:18:52.000Z</time>
      </trkpt>
      <trkpt lat="47.29955" lon="-2.51814">
        <ele>104.40000152588</ele>
        <time>2019-11-14T10:18:53.000Z</time>
      </trkpt>
      <trkpt lat="47.29954" lon="-2.5182">
        <ele>104.40000152588</ele>
        <time>2019-11-14T10:18:55.000Z</time>
      </trkpt>
      <trkpt lat="47.29949" lon="-2.51823">
        <ele>104.40000152588</ele>
        <time>2019-11-14T10:18:58.000Z</time>
      </trkpt>
      <trkpt lat="47.29943" lon="-2.51817">
        <ele>104.80000305176</ele>
        <time>2019-11-14T10:19:01.000Z</time>
      </trkpt>
      <trkpt lat="47.29943" lon="-2.51813">
        <ele>105.19999694824</ele>
        <time>2019-11-14T10:19:02.000Z</time>
      </trkpt>
      <trkpt lat="47.29943" lon="-2.51809">
        <ele>105.59999847412</ele>
        <time>2019-11-14T10:19:03.000Z</time>
      </trkpt>
      <trkpt lat="47.29944" lon="-2.51806">
        <ele>106</ele>
        <time>2019-11-14T10:19:04.000Z</time>
      </trkpt>
      <trkpt lat="47.29945" lon="-2.51803">
        <ele>106.40000152588</ele>
        <time>2019-11-14T10:19:05.000Z</time>
      </trkpt>
      <trkpt lat="47.2995" lon="-2.518">
        <ele>106.80000305176</ele>
        <time>2019-11-14T10:19:08.000Z</time>
      </trkpt>
      <trkpt lat="47.29952" lon="-2.518">
        <ele>107.19999694824</ele>
        <time>2019-11-14T10:19:09.000Z</time>
      </trkpt>
      <trkpt lat="47.29954" lon="-2.51802">
        <ele>107.59999847412</ele>
        <time>2019-11-14T10:19:10.000Z</time>
      </trkpt>
      <trkpt lat="47.29956" lon="-2.51803">
        <ele>108</ele>
        <time>2019-11-14T10:19:11.000Z</time>
      </trkpt>
      <trkpt lat="47.29958" lon="-2.51805">
        <ele>108.40000152588</ele>
        <time>2019-11-14T10:19:12.000Z</time>
      </trkpt>
      <trkpt lat="47.29959" lon="-2.51808">
        <ele>108.40000152588</ele>
        <time>2019-11-14T10:19:13.000Z</time>
      </trkpt>
      <trkpt lat="47.2996" lon="-2.51812">
        <ele>108.80000305176</ele>
        <time>2019-11-14T10:19:14.000Z</time>
      </trkpt>
      <trkpt lat="47.29962" lon="-2.51817">
        <ele>109.80000305176</ele>
        <time>2019-11-14T10:19:15.000Z</time>
      </trkpt>
      <trkpt lat="47.29964" lon="-2.51823">
        <ele>110.19999694824</ele>
        <time>2019-11-14T10:19:16.000Z</time>
      </trkpt>
      <trkpt lat="47.29966" lon="-2.5183">
        <ele>110.59999847412</ele>
        <time>2019-11-14T10:19:17.000Z</time>
      </trkpt>
      <trkpt lat="47.29968" lon="-2.51839">
        <ele>110.59999847412</ele>
        <time>2019-11-14T10:19:18.000Z</time>
      </trkpt>
      <trkpt lat="47.2997" lon="-2.51857">
        <ele>110.59999847412</ele>
        <time>2019-11-14T10:19:20.000Z</time>
      </trkpt>
      <trkpt lat="47.29973" lon="-2.51882">
        <ele>111</ele>
        <time>2019-11-14T10:19:23.000Z</time>
      </trkpt>
      <trkpt lat="47.29974" lon="-2.51889">
        <ele>111.40000152588</ele>
        <time>2019-11-14T10:19:24.000Z</time>
      </trkpt>
      <trkpt lat="47.29976" lon="-2.51895">
        <ele>111.80000305176</ele>
        <time>2019-11-14T10:19:25.000Z</time>
      </trkpt>
      <trkpt lat="47.29979" lon="-2.51901">
        <ele>112.19999694824</ele>
        <time>2019-11-14T10:19:26.000Z</time>
      </trkpt>
      <trkpt lat="47.29982" lon="-2.51906">
        <ele>112.59999847412</ele>
        <time>2019-11-14T10:19:27.000Z</time>
      </trkpt>
      <trkpt lat="47.29986" lon="-2.5191">
        <ele>112.59999847412</ele>
        <time>2019-11-14T10:19:28.000Z</time>
      </trkpt>
      <trkpt lat="47.29989" lon="-2.51914">
        <ele>112.59999847412</ele>
        <time>2019-11-14T10:19:29.000Z</time>
      </trkpt>
      <trkpt lat="47.30001" lon="-2.51933">
        <ele>112.59999847412</ele>
        <time>2019-11-14T10:19:33.000Z</time>
      </trkpt>
      <trkpt lat="47.30005" lon="-2.51938">
        <ele>113</ele>
        <time>2019-11-14T10:19:34.000Z</time>
      </trkpt>
      <trkpt lat="47.30008" lon="-2.51943">
        <ele>113.40000152588</ele>
        <time>2019-11-14T10:19:35.000Z</time>
      </trkpt>
      <trkpt lat="47.30011" lon="-2.51948">
        <ele>113.80000305176</ele>
        <time>2019-11-14T10:19:36.000Z</time>
      </trkpt>
      <trkpt lat="47.30014" lon="-2.51953">
        <ele>114.40000152588</ele>
        <time>2019-11-14T10:19:37.000Z</time>
      </trkpt>
      <trkpt lat="47.30017" lon="-2.51959">
        <ele>114.80000305176</ele>
        <time>2019-11-14T10:19:38.000Z</time>
      </trkpt>
      <trkpt lat="47.3002" lon="-2.51964">
        <ele>114.80000305176</ele>
        <time>2019-11-14T10:19:39.000Z</time>
      </trkpt>
      <trkpt lat="47.30022" lon="-2.5197">
        <ele>114.80000305176</ele>
        <time>2019-11-14T10:19:40.000Z</time>
      </trkpt>
      <trkpt lat="47.30024" lon="-2.51976">
        <ele>114.80000305176</ele>
        <time>2019-11-14T10:19:41.000Z</time>
      </trkpt>
      <trkpt lat="47.30025" lon="-2.5199">
        <ele>114.80000305176</ele>
        <time>2019-11-14T10:19:43.000Z</time>
      </trkpt>
      <trkpt lat="47.30025" lon="-2.52003">
        <ele>115.19999694824</ele>
        <time>2019-11-14T10:19:45.000Z</time>
      </trkpt>
      <trkpt lat="47.30026" lon="-2.52009">
        <ele>115.59999847412</ele>
        <time>2019-11-14T10:19:46.000Z</time>
      </trkpt>
      <trkpt lat="47.30026" lon="-2.52015">
        <ele>116</ele>
        <time>2019-11-14T10:19:47.000Z</time>
      </trkpt>
      <trkpt lat="47.30026" lon="-2.52021">
        <ele>116.40000152588</ele>
        <time>2019-11-14T10:19:48.000Z</time>
      </trkpt>
      <trkpt lat="47.30026" lon="-2.52027">
        <ele>116.80000305176</ele>
        <time>2019-11-14T10:19:49.000Z</time>
      </trkpt>
      <trkpt lat="47.30027" lon="-2.52044">
        <ele>116.80000305176</ele>
        <time>2019-11-14T10:19:52.000Z</time>
      </trkpt>
      <trkpt lat="47.30028" lon="-2.52055">
        <ele>117.19999694824</ele>
        <time>2019-11-14T10:19:54.000Z</time>
      </trkpt>
      <trkpt lat="47.30028" lon="-2.5206">
        <ele>117.59999847412</ele>
        <time>2019-11-14T10:19:55.000Z</time>
      </trkpt>
      <trkpt lat="47.30029" lon="-2.52067">
        <ele>118</ele>
        <time>2019-11-14T10:19:56.000Z</time>
      </trkpt>
      <trkpt lat="47.3003" lon="-2.52073">
        <ele>118.40000152588</ele>
        <time>2019-11-14T10:19:57.000Z</time>
      </trkpt>
      <trkpt lat="47.3003" lon="-2.52079">
        <ele>118.80000305176</ele>
        <time>2019-11-14T10:19:58.000Z</time>
      </trkpt>
      <trkpt lat="47.30031" lon="-2.52093">
        <ele>118.80000305176</ele>
        <time>2019-11-14T10:20:00.000Z</time>
      </trkpt>
      <trkpt lat="47.30035" lon="-2.52131">
        <ele>119.59999847412</ele>
        <time>2019-11-14T10:20:05.000Z</time>
      </trkpt>
      <trkpt lat="47.30036" lon="-2.52138">
        <ele>120</ele>
        <time>2019-11-14T10:20:06.000Z</time>
      </trkpt>
      <trkpt lat="47.30037" lon="-2.52146">
        <ele>120.59999847412</ele>
        <time>2019-11-14T10:20:07.000Z</time>
      </trkpt>
      <trkpt lat="47.30038" lon="-2.52154">
        <ele>121</ele>
        <time>2019-11-14T10:20:08.000Z</time>
      </trkpt>
      <trkpt lat="47.30044" lon="-2.52205">
        <ele>121.40000152588</ele>
        <time>2019-11-14T10:20:14.000Z</time>
      </trkpt>
      <trkpt lat="47.30045" lon="-2.52213">
        <ele>121.80000305176</ele>
        <time>2019-11-14T10:20:15.000Z</time>
      </trkpt>
      <trkpt lat="47.30045" lon="-2.52222">
        <ele>122.19999694824</ele>
        <time>2019-11-14T10:20:16.000Z</time>
      </trkpt>
      <trkpt lat="47.30046" lon="-2.5223">
        <ele>122.59999847412</ele>
        <time>2019-11-14T10:20:17.000Z</time>
      </trkpt>
      <trkpt lat="47.30047" lon="-2.52238">
        <ele>123.19999694824</ele>
        <time>2019-11-14T10:20:18.000Z</time>
      </trkpt>
      <trkpt lat="47.30047" lon="-2.52247">
        <ele>123.19999694824</ele>
        <time>2019-11-14T10:20:19.000Z</time>
      </trkpt>
      <trkpt lat="47.30047" lon="-2.52262">
        <ele>123.19999694824</ele>
        <time>2019-11-14T10:20:21.000Z</time>
      </trkpt>
      <trkpt lat="47.30049" lon="-2.52275">
        <ele>123.59999847412</ele>
        <time>2019-11-14T10:20:23.000Z</time>
      </trkpt>
      <trkpt lat="47.3005" lon="-2.52283">
        <ele>124</ele>
        <time>2019-11-14T10:20:24.000Z</time>
      </trkpt>
      <trkpt lat="47.3005" lon="-2.5229">
        <ele>124.40000152588</ele>
        <time>2019-11-14T10:20:25.000Z</time>
      </trkpt>
      <trkpt lat="47.3005" lon="-2.52298">
        <ele>124.80000305176</ele>
        <time>2019-11-14T10:20:26.000Z</time>
      </trkpt>
      <trkpt lat="47.3005" lon="-2.52306">
        <ele>125.19999694824</ele>
        <time>2019-11-14T10:20:27.000Z</time>
      </trkpt>
      <trkpt lat="47.30051" lon="-2.52322">
        <ele>125.19999694824</ele>
        <time>2019-11-14T10:20:29.000Z</time>
      </trkpt>
      <trkpt lat="47.30053" lon="-2.52331">
        <ele>125.19999694824</ele>
        <time>2019-11-14T10:20:30.000Z</time>
      </trkpt>
      <trkpt lat="47.30056" lon="-2.52347">
        <ele>125.59999847412</ele>
        <time>2019-11-14T10:20:32.000Z</time>
      </trkpt>
      <trkpt lat="47.30057" lon="-2.52355">
        <ele>126</ele>
        <time>2019-11-14T10:20:33.000Z</time>
      </trkpt>
      <trkpt lat="47.30059" lon="-2.52363">
        <ele>126.40000152588</ele>
        <time>2019-11-14T10:20:34.000Z</time>
      </trkpt>
      <trkpt lat="47.3006" lon="-2.52372">
        <ele>126.80000305176</ele>
        <time>2019-11-14T10:20:35.000Z</time>
      </trkpt>
      <trkpt lat="47.30061" lon="-2.52381">
        <ele>127.19999694824</ele>
        <time>2019-11-14T10:20:36.000Z</time>
      </trkpt>
      <trkpt lat="47.30064" lon="-2.52406">
        <ele>127.59999847412</ele>
        <time>2019-11-14T10:20:39.000Z</time>
      </trkpt>
      <trkpt lat="47.30065" lon="-2.52415">
        <ele>128</ele>
        <time>2019-11-14T10:20:40.000Z</time>
      </trkpt>
      <trkpt lat="47.30066" lon="-2.52423">
        <ele>128.39999389648</ele>
        <time>2019-11-14T10:20:41.000Z</time>
      </trkpt>
      <trkpt lat="47.30067" lon="-2.52431">
        <ele>128.80000305176</ele>
        <time>2019-11-14T10:20:42.000Z</time>
      </trkpt>
      <trkpt lat="47.30068" lon="-2.5244">
        <ele>129.19999694824</ele>
        <time>2019-11-14T10:20:43.000Z</time>
      </trkpt>
      <trkpt lat="47.30072" lon="-2.52482">
        <ele>129.80000305176</ele>
        <time>2019-11-14T10:20:48.000Z</time>
      </trkpt>
      <trkpt lat="47.30073" lon="-2.5249">
        <ele>130.19999694824</ele>
        <time>2019-11-14T10:20:49.000Z</time>
      </trkpt>
      <trkpt lat="47.30074" lon="-2.52499">
        <ele>130.60000610352</ele>
        <time>2019-11-14T10:20:50.000Z</time>
      </trkpt>
      <trkpt lat="47.30075" lon="-2.52507">
        <ele>131</ele>
        <time>2019-11-14T10:20:51.000Z</time>
      </trkpt>
      <trkpt lat="47.30076" lon="-2.52516">
        <ele>131.39999389648</ele>
        <time>2019-11-14T10:20:52.000Z</time>
      </trkpt>
      <trkpt lat="47.30079" lon="-2.52555">
        <ele>132</ele>
        <time>2019-11-14T10:20:57.000Z</time>
      </trkpt>
      <trkpt lat="47.3008" lon="-2.52562">
        <ele>132.39999389648</ele>
        <time>2019-11-14T10:20:58.000Z</time>
      </trkpt>
      <trkpt lat="47.30081" lon="-2.52569">
        <ele>132.80000305176</ele>
        <time>2019-11-14T10:20:59.000Z</time>
      </trkpt>
      <trkpt lat="47.30083" lon="-2.52575">
        <ele>133.19999694824</ele>
        <time>2019-11-14T10:21:00.000Z</time>
      </trkpt>
      <trkpt lat="47.30084" lon="-2.52581">
        <ele>133.60000610352</ele>
        <time>2019-11-14T10:21:01.000Z</time>
      </trkpt>
      <trkpt lat="47.30085" lon="-2.52587">
        <ele>133.60000610352</ele>
        <time>2019-11-14T10:21:02.000Z</time>
      </trkpt>
      <trkpt lat="47.3009" lon="-2.52623">
        <ele>134</ele>
        <time>2019-11-14T10:21:08.000Z</time>
      </trkpt>
      <trkpt lat="47.3009" lon="-2.5263">
        <ele>134.39999389648</ele>
        <time>2019-11-14T10:21:09.000Z</time>
      </trkpt>
      <trkpt lat="47.30091" lon="-2.52636">
        <ele>135</ele>
        <time>2019-11-14T10:21:10.000Z</time>
      </trkpt>
      <trkpt lat="47.30091" lon="-2.52642">
        <ele>135.39999389648</ele>
        <time>2019-11-14T10:21:11.000Z</time>
      </trkpt>
      <trkpt lat="47.30092" lon="-2.52649">
        <ele>135.80000305176</ele>
        <time>2019-11-14T10:21:12.000Z</time>
      </trkpt>
      <trkpt lat="47.30093" lon="-2.52685">
        <ele>135.80000305176</ele>
        <time>2019-11-14T10:21:17.000Z</time>
      </trkpt>
      <trkpt lat="47.30093" lon="-2.527">
        <ele>136.19999694824</ele>
        <time>2019-11-14T10:21:19.000Z</time>
      </trkpt>
      <trkpt lat="47.30093" lon="-2.52707">
        <ele>136.60000610352</ele>
        <time>2019-11-14T10:21:20.000Z</time>
      </trkpt>
      <trkpt lat="47.30093" lon="-2.52715">
        <ele>137</ele>
        <time>2019-11-14T10:21:21.000Z</time>
      </trkpt>
      <trkpt lat="47.30093" lon="-2.52722">
        <ele>137.39999389648</ele>
        <time>2019-11-14T10:21:22.000Z</time>
      </trkpt>
      <trkpt lat="47.30093" lon="-2.5273">
        <ele>137.80000305176</ele>
        <time>2019-11-14T10:21:23.000Z</time>
      </trkpt>
      <trkpt lat="47.30091" lon="-2.52746">
        <ele>137.80000305176</ele>
        <time>2019-11-14T10:21:25.000Z</time>
      </trkpt>
      <trkpt lat="47.30087" lon="-2.52778">
        <ele>138.19999694824</ele>
        <time>2019-11-14T10:21:29.000Z</time>
      </trkpt>
      <trkpt lat="47.30086" lon="-2.52786">
        <ele>138.60000610352</ele>
        <time>2019-11-14T10:21:30.000Z</time>
      </trkpt>
      <trkpt lat="47.30085" lon="-2.52794">
        <ele>139</ele>
        <time>2019-11-14T10:21:31.000Z</time>
      </trkpt>
      <trkpt lat="47.30084" lon="-2.52802">
        <ele>139.39999389648</ele>
        <time>2019-11-14T10:21:32.000Z</time>
      </trkpt>
      <trkpt lat="47.30083" lon="-2.52811">
        <ele>140</ele>
        <time>2019-11-14T10:21:33.000Z</time>
      </trkpt>
      <trkpt lat="47.30081" lon="-2.52819">
        <ele>140</ele>
        <time>2019-11-14T10:21:34.000Z</time>
      </trkpt>
      <trkpt lat="47.30076" lon="-2.52851">
        <ele>140.39999389648</ele>
        <time>2019-11-14T10:21:38.000Z</time>
      </trkpt>
      <trkpt lat="47.30075" lon="-2.52859">
        <ele>140.80000305176</ele>
        <time>2019-11-14T10:21:39.000Z</time>
      </trkpt>
      <trkpt lat="47.30073" lon="-2.52867">
        <ele>141.19999694824</ele>
        <time>2019-11-14T10:21:40.000Z</time>
      </trkpt>
      <trkpt lat="47.30072" lon="-2.52875">
        <ele>141.60000610352</ele>
        <time>2019-11-14T10:21:41.000Z</time>
      </trkpt>
      <trkpt lat="47.30071" lon="-2.52883">
        <ele>142</ele>
        <time>2019-11-14T10:21:42.000Z</time>
      </trkpt>
      <trkpt lat="47.30065" lon="-2.52917">
        <ele>142.39999389648</ele>
        <time>2019-11-14T10:21:46.000Z</time>
      </trkpt>
      <trkpt lat="47.30063" lon="-2.52925">
        <ele>142.80000305176</ele>
        <time>2019-11-14T10:21:47.000Z</time>
      </trkpt>
      <trkpt lat="47.30061" lon="-2.52932">
        <ele>143.19999694824</ele>
        <time>2019-11-14T10:21:48.000Z</time>
      </trkpt>
      <trkpt lat="47.30059" lon="-2.5294">
        <ele>143.60000610352</ele>
        <time>2019-11-14T10:21:49.000Z</time>
      </trkpt>
      <trkpt lat="47.30057" lon="-2.52948">
        <ele>144</ele>
        <time>2019-11-14T10:21:50.000Z</time>
      </trkpt>
      <trkpt lat="47.30045" lon="-2.52995">
        <ele>144.39999389648</ele>
        <time>2019-11-14T10:21:56.000Z</time>
      </trkpt>
      <trkpt lat="47.30043" lon="-2.53003">
        <ele>144.80000305176</ele>
        <time>2019-11-14T10:21:57.000Z</time>
      </trkpt>
      <trkpt lat="47.30042" lon="-2.53011">
        <ele>145.19999694824</ele>
        <time>2019-11-14T10:21:58.000Z</time>
      </trkpt>
      <trkpt lat="47.3004" lon="-2.53019">
        <ele>145.60000610352</ele>
        <time>2019-11-14T10:21:59.000Z</time>
      </trkpt>
      <trkpt lat="47.30039" lon="-2.53028">
        <ele>146</ele>
        <time>2019-11-14T10:22:00.000Z</time>
      </trkpt>
      <trkpt lat="47.30037" lon="-2.53054">
        <ele>146</ele>
        <time>2019-11-14T10:22:03.000Z</time>
      </trkpt>
      <trkpt lat="47.30037" lon="-2.53073">
        <ele>146.39999389648</ele>
        <time>2019-11-14T10:22:05.000Z</time>
      </trkpt>
      <trkpt lat="47.30038" lon="-2.53083">
        <ele>147</ele>
        <time>2019-11-14T10:22:06.000Z</time>
      </trkpt>
      <trkpt lat="47.30038" lon="-2.53092">
        <ele>147.80000305176</ele>
        <time>2019-11-14T10:22:07.000Z</time>
      </trkpt>
      <trkpt lat="47.30039" lon="-2.53102">
        <ele>148.19999694824</ele>
        <time>2019-11-14T10:22:08.000Z</time>
      </trkpt>
      <trkpt lat="47.30039" lon="-2.53112">
        <ele>148.19999694824</ele>
        <time>2019-11-14T10:22:09.000Z</time>
      </trkpt>
      <trkpt lat="47.30044" lon="-2.53179">
        <ele>148.60000610352</ele>
        <time>2019-11-14T10:22:16.000Z</time>
      </trkpt>
      <trkpt lat="47.30044" lon="-2.53188">
        <ele>149</ele>
        <time>2019-11-14T10:22:17.000Z</time>
      </trkpt>
      <trkpt lat="47.30045" lon="-2.53198">
        <ele>149.39999389648</ele>
        <time>2019-11-14T10:22:18.000Z</time>
      </trkpt>
      <trkpt lat="47.30045" lon="-2.53208">
        <ele>150</ele>
        <time>2019-11-14T10:22:19.000Z</time>
      </trkpt>
      <trkpt lat="47.30045" lon="-2.53218">
        <ele>150.39999389648</ele>
        <time>2019-11-14T10:22:20.000Z</time>
      </trkpt>
      <trkpt lat="47.30047" lon="-2.5329">
        <ele>150.39999389648</ele>
        <time>2019-11-14T10:22:27.000Z</time>
      </trkpt>
      <trkpt lat="47.30047" lon="-2.533">
        <ele>150.80000305176</ele>
        <time>2019-11-14T10:22:28.000Z</time>
      </trkpt>
      <trkpt lat="47.30047" lon="-2.5331">
        <ele>151.19999694824</ele>
        <time>2019-11-14T10:22:29.000Z</time>
      </trkpt>
      <trkpt lat="47.30047" lon="-2.5332">
        <ele>151.60000610352</ele>
        <time>2019-11-14T10:22:30.000Z</time>
      </trkpt>
      <trkpt lat="47.30046" lon="-2.53329">
        <ele>152</ele>
        <time>2019-11-14T10:22:31.000Z</time>
      </trkpt>
      <trkpt lat="47.30046" lon="-2.53339">
        <ele>152.39999389648</ele>
        <time>2019-11-14T10:22:32.000Z</time>
      </trkpt>
      <trkpt lat="47.30043" lon="-2.53358">
        <ele>152.39999389648</ele>
        <time>2019-11-14T10:22:34.000Z</time>
      </trkpt>
      <trkpt lat="47.30042" lon="-2.53367">
        <ele>152.39999389648</ele>
        <time>2019-11-14T10:22:35.000Z</time>
      </trkpt>
      <trkpt lat="47.30031" lon="-2.53402">
        <ele>152.39999389648</ele>
        <time>2019-11-14T10:22:39.000Z</time>
      </trkpt>
      <trkpt lat="47.30028" lon="-2.5341">
        <ele>152.80000305176</ele>
        <time>2019-11-14T10:22:40.000Z</time>
      </trkpt>
      <trkpt lat="47.30024" lon="-2.53418">
        <ele>153.19999694824</ele>
        <time>2019-11-14T10:22:41.000Z</time>
      </trkpt>
      <trkpt lat="47.3002" lon="-2.53426">
        <ele>153.60000610352</ele>
        <time>2019-11-14T10:22:42.000Z</time>
      </trkpt>
      <trkpt lat="47.30017" lon="-2.53434">
        <ele>154</ele>
        <time>2019-11-14T10:22:43.000Z</time>
      </trkpt>
      <trkpt lat="47.30013" lon="-2.53441">
        <ele>154.60000610352</ele>
        <time>2019-11-14T10:22:44.000Z</time>
      </trkpt>
      <trkpt lat="47.3" lon="-2.53463">
        <ele>154.60000610352</ele>
        <time>2019-11-14T10:22:47.000Z</time>
      </trkpt>
      <trkpt lat="47.29963" lon="-2.53527">
        <ele>154.60000610352</ele>
        <time>2019-11-14T10:22:56.000Z</time>
      </trkpt>
      <trkpt lat="47.29927" lon="-2.53591">
        <ele>154.60000610352</ele>
        <time>2019-11-14T10:23:05.000Z</time>
      </trkpt>
      <trkpt lat="47.29923" lon="-2.53599">
        <ele>154.60000610352</ele>
        <time>2019-11-14T10:23:06.000Z</time>
      </trkpt>
      <trkpt lat="47.29913" lon="-2.53635">
        <ele>154.60000610352</ele>
        <time>2019-11-14T10:23:10.000Z</time>
      </trkpt>
      <trkpt lat="47.29911" lon="-2.53644">
        <ele>154.60000610352</ele>
        <time>2019-11-14T10:23:11.000Z</time>
      </trkpt>
      <trkpt lat="47.29906" lon="-2.53703">
        <ele>154.60000610352</ele>
        <time>2019-11-14T10:23:18.000Z</time>
      </trkpt>
      <trkpt lat="47.29898" lon="-2.53723">
        <ele>154.60000610352</ele>
        <time>2019-11-14T10:23:21.000Z</time>
      </trkpt>
      <trkpt lat="47.29889" lon="-2.53736">
        <ele>154.60000610352</ele>
        <time>2019-11-14T10:23:23.000Z</time>
      </trkpt>
      <trkpt lat="47.29871" lon="-2.53762">
        <ele>154.60000610352</ele>
        <time>2019-11-14T10:23:27.000Z</time>
      </trkpt>
      <trkpt lat="47.29841" lon="-2.53798">
        <ele>154.60000610352</ele>
        <time>2019-11-14T10:23:33.000Z</time>
      </trkpt>
      <trkpt lat="47.29821" lon="-2.53834">
        <ele>154.60000610352</ele>
        <time>2019-11-14T10:23:38.000Z</time>
      </trkpt>
      <trkpt lat="47.29817" lon="-2.5386">
        <ele>154.60000610352</ele>
        <time>2019-11-14T10:23:41.000Z</time>
      </trkpt>
      <trkpt lat="47.29813" lon="-2.53886">
        <ele>154.60000610352</ele>
        <time>2019-11-14T10:23:44.000Z</time>
      </trkpt>
      <trkpt lat="47.29808" lon="-2.53902">
        <ele>154.60000610352</ele>
        <time>2019-11-14T10:23:46.000Z</time>
      </trkpt>
      <trkpt lat="47.29793" lon="-2.5393">
        <ele>154.60000610352</ele>
        <time>2019-11-14T10:23:50.000Z</time>
      </trkpt>
      <trkpt lat="47.29783" lon="-2.53939">
        <ele>154.60000610352</ele>
        <time>2019-11-14T10:23:52.000Z</time>
      </trkpt>
      <trkpt lat="47.29778" lon="-2.53942">
        <ele>155</ele>
        <time>2019-11-14T10:23:53.000Z</time>
      </trkpt>
      <trkpt lat="47.29773" lon="-2.53943">
        <ele>155.39999389648</ele>
        <time>2019-11-14T10:23:54.000Z</time>
      </trkpt>
      <trkpt lat="47.29769" lon="-2.53945">
        <ele>155.80000305176</ele>
        <time>2019-11-14T10:23:55.000Z</time>
      </trkpt>
      <trkpt lat="47.29764" lon="-2.53945">
        <ele>156.19999694824</ele>
        <time>2019-11-14T10:23:56.000Z</time>
      </trkpt>
      <trkpt lat="47.29759" lon="-2.53945">
        <ele>156.60000610352</ele>
        <time>2019-11-14T10:23:57.000Z</time>
      </trkpt>
      <trkpt lat="47.29732" lon="-2.53946">
        <ele>156.60000610352</ele>
        <time>2019-11-14T10:24:02.000Z</time>
      </trkpt>
      <trkpt lat="47.29711" lon="-2.53945">
        <ele>157</ele>
        <time>2019-11-14T10:24:06.000Z</time>
      </trkpt>
      <trkpt lat="47.29707" lon="-2.53943">
        <ele>157.39999389648</ele>
        <time>2019-11-14T10:24:07.000Z</time>
      </trkpt>
      <trkpt lat="47.29704" lon="-2.5394">
        <ele>157.80000305176</ele>
        <time>2019-11-14T10:24:08.000Z</time>
      </trkpt>
      <trkpt lat="47.29703" lon="-2.53935">
        <ele>158.19999694824</ele>
        <time>2019-11-14T10:24:09.000Z</time>
      </trkpt>
      <trkpt lat="47.29703" lon="-2.5393">
        <ele>158.60000610352</ele>
        <time>2019-11-14T10:24:10.000Z</time>
      </trkpt>
      <trkpt lat="47.29705" lon="-2.5392">
        <ele>158.60000610352</ele>
        <time>2019-11-14T10:24:12.000Z</time>
      </trkpt>
      <trkpt lat="47.29707" lon="-2.53895">
        <ele>158.60000610352</ele>
        <time>2019-11-14T10:24:16.000Z</time>
      </trkpt>
      <trkpt lat="47.29707" lon="-2.53869">
        <ele>158.60000610352</ele>
        <time>2019-11-14T10:24:20.000Z</time>
      </trkpt>
      <trkpt lat="47.29707" lon="-2.53862">
        <ele>158.60000610352</ele>
        <time>2019-11-14T10:24:21.000Z</time>
      </trkpt>
      <trkpt lat="47.29709" lon="-2.53815">
        <ele>158.60000610352</ele>
        <time>2019-11-14T10:24:27.000Z</time>
      </trkpt>
      <trkpt lat="47.29707" lon="-2.53802">
        <ele>158.60000610352</ele>
        <time>2019-11-14T10:24:29.000Z</time>
      </trkpt>
      <trkpt lat="47.297" lon="-2.53795">
        <ele>158.60000610352</ele>
        <time>2019-11-14T10:24:31.000Z</time>
      </trkpt>
      <trkpt lat="47.29683" lon="-2.53792">
        <ele>158.60000610352</ele>
        <time>2019-11-14T10:24:35.000Z</time>
      </trkpt>
      <trkpt lat="47.29678" lon="-2.53792">
        <ele>158.60000610352</ele>
        <time>2019-11-14T10:24:36.000Z</time>
      </trkpt>
      <trkpt lat="47.29662" lon="-2.53794">
        <ele>158.60000610352</ele>
        <time>2019-11-14T10:24:39.000Z</time>
      </trkpt>
      <trkpt lat="47.29653" lon="-2.53799">
        <ele>158.60000610352</ele>
        <time>2019-11-14T10:24:41.000Z</time>
      </trkpt>
      <trkpt lat="47.29645" lon="-2.53806">
        <ele>158.60000610352</ele>
        <time>2019-11-14T10:24:43.000Z</time>
      </trkpt>
      <trkpt lat="47.2963" lon="-2.53817">
        <ele>158.60000610352</ele>
        <time>2019-11-14T10:24:46.000Z</time>
      </trkpt>
      <trkpt lat="47.29595" lon="-2.53846">
        <ele>158.60000610352</ele>
        <time>2019-11-14T10:24:53.000Z</time>
      </trkpt>
      <trkpt lat="47.29575" lon="-2.53867">
        <ele>158.60000610352</ele>
        <time>2019-11-14T10:24:57.000Z</time>
      </trkpt>
      <trkpt lat="47.29567" lon="-2.53881">
        <ele>158.60000610352</ele>
        <time>2019-11-14T10:24:59.000Z</time>
      </trkpt>
      <trkpt lat="47.29553" lon="-2.53911">
        <ele>158.60000610352</ele>
        <time>2019-11-14T10:25:03.000Z</time>
      </trkpt>
      <trkpt lat="47.29548" lon="-2.53926">
        <ele>158.60000610352</ele>
        <time>2019-11-14T10:25:05.000Z</time>
      </trkpt>
      <trkpt lat="47.29527" lon="-2.53968">
        <ele>158.60000610352</ele>
        <time>2019-11-14T10:25:11.000Z</time>
      </trkpt>
      <trkpt lat="47.29496" lon="-2.54011">
        <ele>158.60000610352</ele>
        <time>2019-11-14T10:25:18.000Z</time>
      </trkpt>
      <trkpt lat="47.29492" lon="-2.54016">
        <ele>159</ele>
        <time>2019-11-14T10:25:19.000Z</time>
      </trkpt>
      <trkpt lat="47.29487" lon="-2.54022">
        <ele>159.39999389648</ele>
        <time>2019-11-14T10:25:20.000Z</time>
      </trkpt>
      <trkpt lat="47.29482" lon="-2.54027">
        <ele>159.80000305176</ele>
        <time>2019-11-14T10:25:21.000Z</time>
      </trkpt>
      <trkpt lat="47.29476" lon="-2.54031">
        <ele>160.19999694824</ele>
        <time>2019-11-14T10:25:22.000Z</time>
      </trkpt>
      <trkpt lat="47.29471" lon="-2.54035">
        <ele>160.60000610352</ele>
        <time>2019-11-14T10:25:23.000Z</time>
      </trkpt>
      <trkpt lat="47.2945" lon="-2.54053">
        <ele>161</ele>
        <time>2019-11-14T10:25:27.000Z</time>
      </trkpt>
      <trkpt lat="47.29445" lon="-2.54057">
        <ele>161.60000610352</ele>
        <time>2019-11-14T10:25:28.000Z</time>
      </trkpt>
      <trkpt lat="47.29439" lon="-2.54061">
        <ele>162</ele>
        <time>2019-11-14T10:25:29.000Z</time>
      </trkpt>
      <trkpt lat="47.29434" lon="-2.54065">
        <ele>162.39999389648</ele>
        <time>2019-11-14T10:25:30.000Z</time>
      </trkpt>
      <trkpt lat="47.29429" lon="-2.54068">
        <ele>162.80000305176</ele>
        <time>2019-11-14T10:25:31.000Z</time>
      </trkpt>
      <trkpt lat="47.29411" lon="-2.54083">
        <ele>162.80000305176</ele>
        <time>2019-11-14T10:25:35.000Z</time>
      </trkpt>
      <trkpt lat="47.29409" lon="-2.54089">
        <ele>162.80000305176</ele>
        <time>2019-11-14T10:25:36.000Z</time>
      </trkpt>
      <trkpt lat="47.29403" lon="-2.54114">
        <ele>162.80000305176</ele>
        <time>2019-11-14T10:25:40.000Z</time>
      </trkpt>
      <trkpt lat="47.29403" lon="-2.5412">
        <ele>162.80000305176</ele>
        <time>2019-11-14T10:25:41.000Z</time>
      </trkpt>
      <trkpt lat="47.29395" lon="-2.54133">
        <ele>162.80000305176</ele>
        <time>2019-11-14T10:25:44.000Z</time>
      </trkpt>
      <trkpt lat="47.29386" lon="-2.5414">
        <ele>162.80000305176</ele>
        <time>2019-11-14T10:25:46.000Z</time>
      </trkpt>
      <trkpt lat="47.2937" lon="-2.54153">
        <ele>162.80000305176</ele>
        <time>2019-11-14T10:25:50.000Z</time>
      </trkpt>
      <trkpt lat="47.29362" lon="-2.54159">
        <ele>162.80000305176</ele>
        <time>2019-11-14T10:25:52.000Z</time>
      </trkpt>
      <trkpt lat="47.29344" lon="-2.54172">
        <ele>162.80000305176</ele>
        <time>2019-11-14T10:25:56.000Z</time>
      </trkpt>
      <trkpt lat="47.29311" lon="-2.542">
        <ele>163.19999694824</ele>
        <time>2019-11-14T10:26:03.000Z</time>
      </trkpt>
      <trkpt lat="47.29305" lon="-2.54205">
        <ele>163.60000610352</ele>
        <time>2019-11-14T10:26:04.000Z</time>
      </trkpt>
      <trkpt lat="47.293" lon="-2.54209">
        <ele>164</ele>
        <time>2019-11-14T10:26:05.000Z</time>
      </trkpt>
      <trkpt lat="47.29295" lon="-2.54214">
        <ele>164.60000610352</ele>
        <time>2019-11-14T10:26:06.000Z</time>
      </trkpt>
      <trkpt lat="47.2929" lon="-2.54218">
        <ele>165</ele>
        <time>2019-11-14T10:26:07.000Z</time>
      </trkpt>
      <trkpt lat="47.29276" lon="-2.54229">
        <ele>165</ele>
        <time>2019-11-14T10:26:10.000Z</time>
      </trkpt>
      <trkpt lat="47.29247" lon="-2.54252">
        <ele>165</ele>
        <time>2019-11-14T10:26:16.000Z</time>
      </trkpt>
      <trkpt lat="47.29242" lon="-2.54256">
        <ele>165</ele>
        <time>2019-11-14T10:26:17.000Z</time>
      </trkpt>
      <trkpt lat="47.2922" lon="-2.54272">
        <ele>165</ele>
        <time>2019-11-14T10:26:21.000Z</time>
      </trkpt>
      <trkpt lat="47.29215" lon="-2.54277">
        <ele>165</ele>
        <time>2019-11-14T10:26:22.000Z</time>
      </trkpt>
      <trkpt lat="47.29198" lon="-2.54285">
        <ele>165</ele>
        <time>2019-11-14T10:26:25.000Z</time>
      </trkpt>
      <trkpt lat="47.29182" lon="-2.54289">
        <ele>165</ele>
        <time>2019-11-14T10:26:29.000Z</time>
      </trkpt>
      <trkpt lat="47.29168" lon="-2.54288">
        <ele>165</ele>
        <time>2019-11-14T10:26:32.000Z</time>
      </trkpt>
      <trkpt lat="47.29163" lon="-2.54289">
        <ele>165</ele>
        <time>2019-11-14T10:26:33.000Z</time>
      </trkpt>
      <trkpt lat="47.29158" lon="-2.54291">
        <ele>165</ele>
        <time>2019-11-14T10:26:34.000Z</time>
      </trkpt>
      <trkpt lat="47.29133" lon="-2.54296">
        <ele>165</ele>
        <time>2019-11-14T10:26:39.000Z</time>
      </trkpt>
      <trkpt lat="47.29128" lon="-2.54295">
        <ele>165</ele>
        <time>2019-11-14T10:26:40.000Z</time>
      </trkpt>
      <trkpt lat="47.29109" lon="-2.54293">
        <ele>165</ele>
        <time>2019-11-14T10:26:44.000Z</time>
      </trkpt>
      <trkpt lat="47.29104" lon="-2.54291">
        <ele>165</ele>
        <time>2019-11-14T10:26:45.000Z</time>
      </trkpt>
      <trkpt lat="47.29091" lon="-2.54285">
        <ele>165</ele>
        <time>2019-11-14T10:26:48.000Z</time>
      </trkpt>
      <trkpt lat="47.29083" lon="-2.54283">
        <ele>165</ele>
        <time>2019-11-14T10:26:50.000Z</time>
      </trkpt>
      <trkpt lat="47.29066" lon="-2.54276">
        <ele>165</ele>
        <time>2019-11-14T10:26:55.000Z</time>
      </trkpt>
      <trkpt lat="47.29055" lon="-2.54265">
        <ele>165</ele>
        <time>2019-11-14T10:26:59.000Z</time>
      </trkpt>
      <trkpt lat="47.29053" lon="-2.5426">
        <ele>165</ele>
        <time>2019-11-14T10:27:00.000Z</time>
      </trkpt>
      <trkpt lat="47.29051" lon="-2.54254">
        <ele>164.60000610352</ele>
        <time>2019-11-14T10:27:01.000Z</time>
      </trkpt>
      <trkpt lat="47.29049" lon="-2.54248">
        <ele>164.19999694824</ele>
        <time>2019-11-14T10:27:02.000Z</time>
      </trkpt>
      <trkpt lat="47.29049" lon="-2.54241">
        <ele>163.80000305176</ele>
        <time>2019-11-14T10:27:03.000Z</time>
      </trkpt>
      <trkpt lat="47.29049" lon="-2.54234">
        <ele>163</ele>
        <time>2019-11-14T10:27:04.000Z</time>
      </trkpt>
      <trkpt lat="47.2905" lon="-2.54213">
        <ele>163</ele>
        <time>2019-11-14T10:27:07.000Z</time>
      </trkpt>
      <trkpt lat="47.29056" lon="-2.54193">
        <ele>163</ele>
        <time>2019-11-14T10:27:10.000Z</time>
      </trkpt>
      <trkpt lat="47.2906" lon="-2.54181">
        <ele>163</ele>
        <time>2019-11-14T10:27:12.000Z</time>
      </trkpt>
      <trkpt lat="47.29066" lon="-2.54163">
        <ele>163</ele>
        <time>2019-11-14T10:27:15.000Z</time>
      </trkpt>
      <trkpt lat="47.29069" lon="-2.5415">
        <ele>163</ele>
        <time>2019-11-14T10:27:17.000Z</time>
      </trkpt>
      <trkpt lat="47.2907" lon="-2.5413">
        <ele>163</ele>
        <time>2019-11-14T10:27:20.000Z</time>
      </trkpt>
      <trkpt lat="47.29069" lon="-2.54124">
        <ele>163</ele>
        <time>2019-11-14T10:27:21.000Z</time>
      </trkpt>
      <trkpt lat="47.29068" lon="-2.541">
        <ele>163</ele>
        <time>2019-11-14T10:27:25.000Z</time>
      </trkpt>
      <trkpt lat="47.29075" lon="-2.54077">
        <ele>163</ele>
        <time>2019-11-14T10:27:29.000Z</time>
      </trkpt>
      <trkpt lat="47.29091" lon="-2.54036">
        <ele>163</ele>
        <time>2019-11-14T10:27:35.000Z</time>
      </trkpt>
      <trkpt lat="47.29094" lon="-2.54029">
        <ele>163</ele>
        <time>2019-11-14T10:27:36.000Z</time>
      </trkpt>
      <trkpt lat="47.29102" lon="-2.54008">
        <ele>163</ele>
        <time>2019-11-14T10:27:39.000Z</time>
      </trkpt>
      <trkpt lat="47.29112" lon="-2.5398">
        <ele>163</ele>
        <time>2019-11-14T10:27:43.000Z</time>
      </trkpt>
      <trkpt lat="47.29119" lon="-2.53951">
        <ele>163</ele>
        <time>2019-11-14T10:27:47.000Z</time>
      </trkpt>
      <trkpt lat="47.29119" lon="-2.53943">
        <ele>163</ele>
        <time>2019-11-14T10:27:48.000Z</time>
      </trkpt>
      <trkpt lat="47.29116" lon="-2.53923">
        <ele>163</ele>
        <time>2019-11-14T10:27:51.000Z</time>
      </trkpt>
      <trkpt lat="47.29115" lon="-2.53916">
        <ele>163</ele>
        <time>2019-11-14T10:27:52.000Z</time>
      </trkpt>
      <trkpt lat="47.29114" lon="-2.53909">
        <ele>163</ele>
        <time>2019-11-14T10:27:53.000Z</time>
      </trkpt>
      <trkpt lat="47.29111" lon="-2.53889">
        <ele>163</ele>
        <time>2019-11-14T10:27:56.000Z</time>
      </trkpt>
      <trkpt lat="47.29109" lon="-2.53883">
        <ele>163</ele>
        <time>2019-11-14T10:27:57.000Z</time>
      </trkpt>
      <trkpt lat="47.29101" lon="-2.53845">
        <ele>163</ele>
        <time>2019-11-14T10:28:03.000Z</time>
      </trkpt>
      <trkpt lat="47.291" lon="-2.53824">
        <ele>163</ele>
        <time>2019-11-14T10:28:06.000Z</time>
      </trkpt>
      <trkpt lat="47.29098" lon="-2.5381">
        <ele>163</ele>
        <time>2019-11-14T10:28:08.000Z</time>
      </trkpt>
      <trkpt lat="47.29095" lon="-2.53777">
        <ele>163</ele>
        <time>2019-11-14T10:28:13.000Z</time>
      </trkpt>
      <trkpt lat="47.29095" lon="-2.53741">
        <ele>163</ele>
        <time>2019-11-14T10:28:18.000Z</time>
      </trkpt>
      <trkpt lat="47.29097" lon="-2.53719">
        <ele>163</ele>
        <time>2019-11-14T10:28:21.000Z</time>
      </trkpt>
      <trkpt lat="47.29098" lon="-2.53703">
        <ele>163</ele>
        <time>2019-11-14T10:28:23.000Z</time>
      </trkpt>
      <trkpt lat="47.29099" lon="-2.53663">
        <ele>163</ele>
        <time>2019-11-14T10:28:28.000Z</time>
      </trkpt>
      <trkpt lat="47.29101" lon="-2.53633">
        <ele>163</ele>
        <time>2019-11-14T10:28:32.000Z</time>
      </trkpt>
      <trkpt lat="47.29101" lon="-2.53626">
        <ele>163.39999389648</ele>
        <time>2019-11-14T10:28:33.000Z</time>
      </trkpt>
      <trkpt lat="47.29101" lon="-2.53618">
        <ele>163.80000305176</ele>
        <time>2019-11-14T10:28:34.000Z</time>
      </trkpt>
      <trkpt lat="47.29102" lon="-2.53611">
        <ele>164.19999694824</ele>
        <time>2019-11-14T10:28:35.000Z</time>
      </trkpt>
      <trkpt lat="47.29103" lon="-2.53604">
        <ele>164.60000610352</ele>
        <time>2019-11-14T10:28:36.000Z</time>
      </trkpt>
      <trkpt lat="47.29103" lon="-2.53596">
        <ele>165</ele>
        <time>2019-11-14T10:28:37.000Z</time>
      </trkpt>
      <trkpt lat="47.29104" lon="-2.53582">
        <ele>165</ele>
        <time>2019-11-14T10:28:39.000Z</time>
      </trkpt>
      <trkpt lat="47.29105" lon="-2.53557">
        <ele>165</ele>
        <time>2019-11-14T10:28:43.000Z</time>
      </trkpt>
      <trkpt lat="47.29107" lon="-2.53552">
        <ele>165.39999389648</ele>
        <time>2019-11-14T10:28:44.000Z</time>
      </trkpt>
      <trkpt lat="47.2911" lon="-2.53547">
        <ele>165.80000305176</ele>
        <time>2019-11-14T10:28:45.000Z</time>
      </trkpt>
      <trkpt lat="47.29113" lon="-2.53544">
        <ele>166.19999694824</ele>
        <time>2019-11-14T10:28:46.000Z</time>
      </trkpt>
      <trkpt lat="47.29117" lon="-2.5354">
        <ele>166.60000610352</ele>
        <time>2019-11-14T10:28:47.000Z</time>
      </trkpt>
      <trkpt lat="47.29121" lon="-2.53535">
        <ele>167</ele>
        <time>2019-11-14T10:28:48.000Z</time>
      </trkpt>
      <trkpt lat="47.29138" lon="-2.53517">
        <ele>167</ele>
        <time>2019-11-14T10:28:52.000Z</time>
      </trkpt>
      <trkpt lat="47.29142" lon="-2.53512">
        <ele>167</ele>
        <time>2019-11-14T10:28:53.000Z</time>
      </trkpt>
      <trkpt lat="47.29143" lon="-2.53497">
        <ele>167</ele>
        <time>2019-11-14T10:28:55.000Z</time>
      </trkpt>
      <trkpt lat="47.2914" lon="-2.5346">
        <ele>167</ele>
        <time>2019-11-14T10:29:00.000Z</time>
      </trkpt>
      <trkpt lat="47.2914" lon="-2.53452">
        <ele>167</ele>
        <time>2019-11-14T10:29:01.000Z</time>
      </trkpt>
      <trkpt lat="47.29139" lon="-2.53445">
        <ele>167.39999389648</ele>
        <time>2019-11-14T10:29:02.000Z</time>
      </trkpt>
      <trkpt lat="47.29138" lon="-2.53436">
        <ele>167.80000305176</ele>
        <time>2019-11-14T10:29:03.000Z</time>
      </trkpt>
      <trkpt lat="47.29138" lon="-2.53428">
        <ele>168.19999694824</ele>
        <time>2019-11-14T10:29:04.000Z</time>
      </trkpt>
      <trkpt lat="47.29137" lon="-2.5342">
        <ele>168.80000305176</ele>
        <time>2019-11-14T10:29:05.000Z</time>
      </trkpt>
      <trkpt lat="47.29136" lon="-2.53412">
        <ele>169.19999694824</ele>
        <time>2019-11-14T10:29:06.000Z</time>
      </trkpt>
      <trkpt lat="47.29136" lon="-2.53404">
        <ele>169.19999694824</ele>
        <time>2019-11-14T10:29:07.000Z</time>
      </trkpt>
      <trkpt lat="47.29132" lon="-2.53361">
        <ele>169.19999694824</ele>
        <time>2019-11-14T10:29:13.000Z</time>
      </trkpt>
      <trkpt lat="47.29132" lon="-2.53354">
        <ele>169.19999694824</ele>
        <time>2019-11-14T10:29:14.000Z</time>
      </trkpt>
      <trkpt lat="47.29131" lon="-2.53327">
        <ele>169.19999694824</ele>
        <time>2019-11-14T10:29:18.000Z</time>
      </trkpt>
      <trkpt lat="47.29126" lon="-2.53293">
        <ele>169.19999694824</ele>
        <time>2019-11-14T10:29:24.000Z</time>
      </trkpt>
      <trkpt lat="47.29121" lon="-2.53275">
        <ele>169.19999694824</ele>
        <time>2019-11-14T10:29:27.000Z</time>
      </trkpt>
      <trkpt lat="47.2912" lon="-2.53263">
        <ele>169.19999694824</ele>
        <time>2019-11-14T10:29:29.000Z</time>
      </trkpt>
      <trkpt lat="47.29119" lon="-2.53256">
        <ele>169.19999694824</ele>
        <time>2019-11-14T10:29:30.000Z</time>
      </trkpt>
      <trkpt lat="47.29113" lon="-2.53227">
        <ele>169.19999694824</ele>
        <time>2019-11-14T10:29:34.000Z</time>
      </trkpt>
      <trkpt lat="47.29108" lon="-2.53203">
        <ele>169.60000610352</ele>
        <time>2019-11-14T10:29:38.000Z</time>
      </trkpt>
      <trkpt lat="47.29107" lon="-2.53198">
        <ele>170</ele>
        <time>2019-11-14T10:29:39.000Z</time>
      </trkpt>
      <trkpt lat="47.29106" lon="-2.53192">
        <ele>170.39999389648</ele>
        <time>2019-11-14T10:29:40.000Z</time>
      </trkpt>
      <trkpt lat="47.29104" lon="-2.53186">
        <ele>170.80000305176</ele>
        <time>2019-11-14T10:29:41.000Z</time>
      </trkpt>
      <trkpt lat="47.29103" lon="-2.5318">
        <ele>171.19999694824</ele>
        <time>2019-11-14T10:29:42.000Z</time>
      </trkpt>
      <trkpt lat="47.29101" lon="-2.53174">
        <ele>171.19999694824</ele>
        <time>2019-11-14T10:29:43.000Z</time>
      </trkpt>
      <trkpt lat="47.29096" lon="-2.53155">
        <ele>171.19999694824</ele>
        <time>2019-11-14T10:29:46.000Z</time>
      </trkpt>
      <trkpt lat="47.29083" lon="-2.53124">
        <ele>171.19999694824</ele>
        <time>2019-11-14T10:29:51.000Z</time>
      </trkpt>
      <trkpt lat="47.29064" lon="-2.53084">
        <ele>171.19999694824</ele>
        <time>2019-11-14T10:29:57.000Z</time>
      </trkpt>
      <trkpt lat="47.2905" lon="-2.53052">
        <ele>171.19999694824</ele>
        <time>2019-11-14T10:30:02.000Z</time>
      </trkpt>
      <trkpt lat="47.29048" lon="-2.53046">
        <ele>171.19999694824</ele>
        <time>2019-11-14T10:30:03.000Z</time>
      </trkpt>
      <trkpt lat="47.29038" lon="-2.53023">
        <ele>171.19999694824</ele>
        <time>2019-11-14T10:30:07.000Z</time>
      </trkpt>
      <trkpt lat="47.29018" lon="-2.52981">
        <ele>171.19999694824</ele>
        <time>2019-11-14T10:30:14.000Z</time>
      </trkpt>
      <trkpt lat="47.29" lon="-2.52927">
        <ele>171.19999694824</ele>
        <time>2019-11-14T10:30:22.000Z</time>
      </trkpt>
      <trkpt lat="47.28994" lon="-2.52907">
        <ele>171.19999694824</ele>
        <time>2019-11-14T10:30:25.000Z</time>
      </trkpt>
      <trkpt lat="47.28986" lon="-2.52883">
        <ele>171.19999694824</ele>
        <time>2019-11-14T10:30:29.000Z</time>
      </trkpt>
      <trkpt lat="47.28984" lon="-2.52877">
        <ele>171.19999694824</ele>
        <time>2019-11-14T10:30:30.000Z</time>
      </trkpt>
      <trkpt lat="47.28981" lon="-2.5286">
        <ele>171.19999694824</ele>
        <time>2019-11-14T10:30:33.000Z</time>
      </trkpt>
      <trkpt lat="47.28979" lon="-2.52857">
        <ele>171.60000610352</ele>
        <time>2019-11-14T10:30:34.000Z</time>
      </trkpt>
      <trkpt lat="47.28976" lon="-2.52856">
        <ele>172</ele>
        <time>2019-11-14T10:30:35.000Z</time>
      </trkpt>
      <trkpt lat="47.28973" lon="-2.52858">
        <ele>172.39999389648</ele>
        <time>2019-11-14T10:30:36.000Z</time>
      </trkpt>
      <trkpt lat="47.2897" lon="-2.5286">
        <ele>172.80000305176</ele>
        <time>2019-11-14T10:30:37.000Z</time>
      </trkpt>
      <trkpt lat="47.28967" lon="-2.52864">
        <ele>173.19999694824</ele>
        <time>2019-11-14T10:30:38.000Z</time>
      </trkpt>
      <trkpt lat="47.28962" lon="-2.52873">
        <ele>173.19999694824</ele>
        <time>2019-11-14T10:30:40.000Z</time>
      </trkpt>
      <trkpt lat="47.2896" lon="-2.52878">
        <ele>173.19999694824</ele>
        <time>2019-11-14T10:30:41.000Z</time>
      </trkpt>
      <trkpt lat="47.28943" lon="-2.52908">
        <ele>173.19999694824</ele>
        <time>2019-11-14T10:30:47.000Z</time>
      </trkpt>
      <trkpt lat="47.28926" lon="-2.52932">
        <ele>173.19999694824</ele>
        <time>2019-11-14T10:30:53.000Z</time>
      </trkpt>
      <trkpt lat="47.28913" lon="-2.52956">
        <ele>173.19999694824</ele>
        <time>2019-11-14T10:30:59.000Z</time>
      </trkpt>
      <trkpt lat="47.28905" lon="-2.52968">
        <ele>173.60000610352</ele>
        <time>2019-11-14T10:31:02.000Z</time>
      </trkpt>
      <trkpt lat="47.28902" lon="-2.52972">
        <ele>174</ele>
        <time>2019-11-14T10:31:03.000Z</time>
      </trkpt>
      <trkpt lat="47.28899" lon="-2.52977">
        <ele>174.39999389648</ele>
        <time>2019-11-14T10:31:04.000Z</time>
      </trkpt>
      <trkpt lat="47.28897" lon="-2.52982">
        <ele>174.80000305176</ele>
        <time>2019-11-14T10:31:05.000Z</time>
      </trkpt>
      <trkpt lat="47.28893" lon="-2.52986">
        <ele>175.19999694824</ele>
        <time>2019-11-14T10:31:06.000Z</time>
      </trkpt>
      <trkpt lat="47.28882" lon="-2.53004">
        <ele>175.19999694824</ele>
        <time>2019-11-14T10:31:10.000Z</time>
      </trkpt>
      <trkpt lat="47.28877" lon="-2.53019">
        <ele>175.19999694824</ele>
        <time>2019-11-14T10:31:13.000Z</time>
      </trkpt>
      <trkpt lat="47.28877" lon="-2.53024">
        <ele>175.19999694824</ele>
        <time>2019-11-14T10:31:14.000Z</time>
      </trkpt>
      <trkpt lat="47.2888" lon="-2.53039">
        <ele>175.19999694824</ele>
        <time>2019-11-14T10:31:17.000Z</time>
      </trkpt>
      <trkpt lat="47.28881" lon="-2.53044">
        <ele>175.19999694824</ele>
        <time>2019-11-14T10:31:18.000Z</time>
      </trkpt>
      <trkpt lat="47.2888" lon="-2.5305">
        <ele>175.19999694824</ele>
        <time>2019-11-14T10:31:19.000Z</time>
      </trkpt>
      <trkpt lat="47.28872" lon="-2.53069">
        <ele>175.19999694824</ele>
        <time>2019-11-14T10:31:23.000Z</time>
      </trkpt>
      <trkpt lat="47.2887" lon="-2.53074">
        <ele>175.60000610352</ele>
        <time>2019-11-14T10:31:24.000Z</time>
      </trkpt>
      <trkpt lat="47.28866" lon="-2.53078">
        <ele>176</ele>
        <time>2019-11-14T10:31:25.000Z</time>
      </trkpt>
      <trkpt lat="47.28862" lon="-2.53081">
        <ele>176.39999389648</ele>
        <time>2019-11-14T10:31:26.000Z</time>
      </trkpt>
      <trkpt lat="47.28858" lon="-2.53084">
        <ele>176.80000305176</ele>
        <time>2019-11-14T10:31:27.000Z</time>
      </trkpt>
      <trkpt lat="47.28854" lon="-2.53086">
        <ele>177.19999694824</ele>
        <time>2019-11-14T10:31:28.000Z</time>
      </trkpt>
      <trkpt lat="47.28829" lon="-2.53098">
        <ele>177.19999694824</ele>
        <time>2019-11-14T10:31:33.000Z</time>
      </trkpt>
      <trkpt lat="47.28819" lon="-2.53101">
        <ele>177.19999694824</ele>
        <time>2019-11-14T10:31:36.000Z</time>
      </trkpt>
      <trkpt lat="47.28809" lon="-2.53105">
        <ele>177.19999694824</ele>
        <time>2019-11-14T10:31:38.000Z</time>
      </trkpt>
      <trkpt lat="47.28804" lon="-2.53106">
        <ele>177.19999694824</ele>
        <time>2019-11-14T10:31:39.000Z</time>
      </trkpt>
      <trkpt lat="47.28773" lon="-2.53108">
        <ele>177.19999694824</ele>
        <time>2019-11-14T10:31:45.000Z</time>
      </trkpt>
      <trkpt lat="47.28763" lon="-2.53097">
        <ele>177.19999694824</ele>
        <time>2019-11-14T10:31:49.000Z</time>
      </trkpt>
      <trkpt lat="47.28761" lon="-2.53074">
        <ele>177.19999694824</ele>
        <time>2019-11-14T10:31:53.000Z</time>
      </trkpt>
      <trkpt lat="47.2876" lon="-2.53068">
        <ele>177.19999694824</ele>
        <time>2019-11-14T10:31:54.000Z</time>
      </trkpt>
      <trkpt lat="47.28756" lon="-2.5304">
        <ele>177.19999694824</ele>
        <time>2019-11-14T10:31:58.000Z</time>
      </trkpt>
      <trkpt lat="47.28752" lon="-2.52987">
        <ele>177.19999694824</ele>
        <time>2019-11-14T10:32:05.000Z</time>
      </trkpt>
      <trkpt lat="47.28747" lon="-2.52936">
        <ele>177.19999694824</ele>
        <time>2019-11-14T10:32:11.000Z</time>
      </trkpt>
      <trkpt lat="47.28742" lon="-2.52896">
        <ele>177.60000610352</ele>
        <time>2019-11-14T10:32:15.000Z</time>
      </trkpt>
      <trkpt lat="47.28741" lon="-2.52886">
        <ele>178</ele>
        <time>2019-11-14T10:32:16.000Z</time>
      </trkpt>
      <trkpt lat="47.2874" lon="-2.52875">
        <ele>178.39999389648</ele>
        <time>2019-11-14T10:32:17.000Z</time>
      </trkpt>
      <trkpt lat="47.28739" lon="-2.52864">
        <ele>178.80000305176</ele>
        <time>2019-11-14T10:32:18.000Z</time>
      </trkpt>
      <trkpt lat="47.28738" lon="-2.52853">
        <ele>179.19999694824</ele>
        <time>2019-11-14T10:32:19.000Z</time>
      </trkpt>
      <trkpt lat="47.2873" lon="-2.52774">
        <ele>179.19999694824</ele>
        <time>2019-11-14T10:32:26.000Z</time>
      </trkpt>
      <trkpt lat="47.28723" lon="-2.52696">
        <ele>179.19999694824</ele>
        <time>2019-11-14T10:32:33.000Z</time>
      </trkpt>
      <trkpt lat="47.2872" lon="-2.52673">
        <ele>179.19999694824</ele>
        <time>2019-11-14T10:32:35.000Z</time>
      </trkpt>
      <trkpt lat="47.28715" lon="-2.52593">
        <ele>179.19999694824</ele>
        <time>2019-11-14T10:32:42.000Z</time>
      </trkpt>
      <trkpt lat="47.28715" lon="-2.52582">
        <ele>179.19999694824</ele>
        <time>2019-11-14T10:32:43.000Z</time>
      </trkpt>
      <trkpt lat="47.28721" lon="-2.52527">
        <ele>179.19999694824</ele>
        <time>2019-11-14T10:32:48.000Z</time>
      </trkpt>
      <trkpt lat="47.28734" lon="-2.52469">
        <ele>179.60000610352</ele>
        <time>2019-11-14T10:32:54.000Z</time>
      </trkpt>
      <trkpt lat="47.28737" lon="-2.5246">
        <ele>180</ele>
        <time>2019-11-14T10:32:55.000Z</time>
      </trkpt>
      <trkpt lat="47.28739" lon="-2.52452">
        <ele>180.60000610352</ele>
        <time>2019-11-14T10:32:56.000Z</time>
      </trkpt>
      <trkpt lat="47.28741" lon="-2.52444">
        <ele>181</ele>
        <time>2019-11-14T10:32:57.000Z</time>
      </trkpt>
      <trkpt lat="47.28743" lon="-2.52436">
        <ele>181.39999389648</ele>
        <time>2019-11-14T10:32:58.000Z</time>
      </trkpt>
      <trkpt lat="47.28745" lon="-2.52419">
        <ele>181.39999389648</ele>
        <time>2019-11-14T10:33:00.000Z</time>
      </trkpt>
      <trkpt lat="47.28742" lon="-2.52378">
        <ele>181.39999389648</ele>
        <time>2019-11-14T10:33:05.000Z</time>
      </trkpt>
      <trkpt lat="47.2873" lon="-2.52315">
        <ele>181.39999389648</ele>
        <time>2019-11-14T10:33:13.000Z</time>
      </trkpt>
      <trkpt lat="47.2872" lon="-2.52263">
        <ele>181.39999389648</ele>
        <time>2019-11-14T10:33:19.000Z</time>
      </trkpt>
      <trkpt lat="47.28706" lon="-2.52213">
        <ele>181.39999389648</ele>
        <time>2019-11-14T10:33:25.000Z</time>
      </trkpt>
      <trkpt lat="47.2869" lon="-2.52166">
        <ele>181.39999389648</ele>
        <time>2019-11-14T10:33:31.000Z</time>
      </trkpt>
      <trkpt lat="47.2867" lon="-2.52107">
        <ele>181.39999389648</ele>
        <time>2019-11-14T10:33:39.000Z</time>
      </trkpt>
      <trkpt lat="47.28652" lon="-2.52053">
        <ele>181.39999389648</ele>
        <time>2019-11-14T10:33:46.000Z</time>
      </trkpt>
      <trkpt lat="47.28636" lon="-2.51989">
        <ele>181.39999389648</ele>
        <time>2019-11-14T10:33:53.000Z</time>
      </trkpt>
      <trkpt lat="47.28632" lon="-2.51929">
        <ele>181.39999389648</ele>
        <time>2019-11-14T10:33:59.000Z</time>
      </trkpt>
      <trkpt lat="47.2863" lon="-2.51909">
        <ele>181.80000305176</ele>
        <time>2019-11-14T10:34:01.000Z</time>
      </trkpt>
      <trkpt lat="47.2863" lon="-2.51899">
        <ele>182.19999694824</ele>
        <time>2019-11-14T10:34:02.000Z</time>
      </trkpt>
      <trkpt lat="47.28628" lon="-2.51888">
        <ele>182.60000610352</ele>
        <time>2019-11-14T10:34:03.000Z</time>
      </trkpt>
      <trkpt lat="47.28626" lon="-2.51878">
        <ele>183</ele>
        <time>2019-11-14T10:34:04.000Z</time>
      </trkpt>
      <trkpt lat="47.28624" lon="-2.51868">
        <ele>183.39999389648</ele>
        <time>2019-11-14T10:34:05.000Z</time>
      </trkpt>
      <trkpt lat="47.28608" lon="-2.51834">
        <ele>183.39999389648</ele>
        <time>2019-11-14T10:34:09.000Z</time>
      </trkpt>
      <trkpt lat="47.28592" lon="-2.51816">
        <ele>183.39999389648</ele>
        <time>2019-11-14T10:34:12.000Z</time>
      </trkpt>
      <trkpt lat="47.28582" lon="-2.51805">
        <ele>183.39999389648</ele>
        <time>2019-11-14T10:34:14.000Z</time>
      </trkpt>
      <trkpt lat="47.2856" lon="-2.5177">
        <ele>183.39999389648</ele>
        <time>2019-11-14T10:34:19.000Z</time>
      </trkpt>
      <trkpt lat="47.2855" lon="-2.51732">
        <ele>183.39999389648</ele>
        <time>2019-11-14T10:34:23.000Z</time>
      </trkpt>
      <trkpt lat="47.28547" lon="-2.51709">
        <ele>183</ele>
        <time>2019-11-14T10:34:25.000Z</time>
      </trkpt>
      <trkpt lat="47.28546" lon="-2.51699">
        <ele>182.60000610352</ele>
        <time>2019-11-14T10:34:26.000Z</time>
      </trkpt>
      <trkpt lat="47.28544" lon="-2.51688">
        <ele>182.19999694824</ele>
        <time>2019-11-14T10:34:27.000Z</time>
      </trkpt>
      <trkpt lat="47.28543" lon="-2.51678">
        <ele>181.80000305176</ele>
        <time>2019-11-14T10:34:28.000Z</time>
      </trkpt>
      <trkpt lat="47.28541" lon="-2.51667">
        <ele>181.39999389648</ele>
        <time>2019-11-14T10:34:29.000Z</time>
      </trkpt>
      <trkpt lat="47.2854" lon="-2.51657">
        <ele>181.39999389648</ele>
        <time>2019-11-14T10:34:30.000Z</time>
      </trkpt>
      <trkpt lat="47.2853" lon="-2.51585">
        <ele>181.39999389648</ele>
        <time>2019-11-14T10:34:37.000Z</time>
      </trkpt>
      <trkpt lat="47.28522" lon="-2.51522">
        <ele>181</ele>
        <time>2019-11-14T10:34:43.000Z</time>
      </trkpt>
      <trkpt lat="47.28521" lon="-2.51512">
        <ele>180.60000610352</ele>
        <time>2019-11-14T10:34:44.000Z</time>
      </trkpt>
      <trkpt lat="47.28517" lon="-2.51503">
        <ele>180.19999694824</ele>
        <time>2019-11-14T10:34:45.000Z</time>
      </trkpt>
      <trkpt lat="47.28514" lon="-2.51493">
        <ele>179.39999389648</ele>
        <time>2019-11-14T10:34:46.000Z</time>
      </trkpt>
      <trkpt lat="47.28504" lon="-2.51478">
        <ele>179.39999389648</ele>
        <time>2019-11-14T10:34:48.000Z</time>
      </trkpt>
      <trkpt lat="47.28494" lon="-2.51466">
        <ele>179.39999389648</ele>
        <time>2019-11-14T10:34:50.000Z</time>
      </trkpt>
      <trkpt lat="47.28476" lon="-2.51446">
        <ele>179.39999389648</ele>
        <time>2019-11-14T10:34:53.000Z</time>
      </trkpt>
      <trkpt lat="47.28451" lon="-2.51413">
        <ele>179.39999389648</ele>
        <time>2019-11-14T10:34:58.000Z</time>
      </trkpt>
      <trkpt lat="47.28447" lon="-2.51405">
        <ele>179.39999389648</ele>
        <time>2019-11-14T10:34:59.000Z</time>
      </trkpt>
      <trkpt lat="47.28441" lon="-2.51367">
        <ele>179.39999389648</ele>
        <time>2019-11-14T10:35:03.000Z</time>
      </trkpt>
      <trkpt lat="47.28441" lon="-2.51357">
        <ele>179.39999389648</ele>
        <time>2019-11-14T10:35:04.000Z</time>
      </trkpt>
      <trkpt lat="47.28438" lon="-2.51338">
        <ele>179.39999389648</ele>
        <time>2019-11-14T10:35:06.000Z</time>
      </trkpt>
      <trkpt lat="47.28433" lon="-2.51322">
        <ele>179.39999389648</ele>
        <time>2019-11-14T10:35:08.000Z</time>
      </trkpt>
      <trkpt lat="47.28426" lon="-2.51307">
        <ele>179.39999389648</ele>
        <time>2019-11-14T10:35:10.000Z</time>
      </trkpt>
      <trkpt lat="47.28414" lon="-2.51283">
        <ele>179.39999389648</ele>
        <time>2019-11-14T10:35:13.000Z</time>
      </trkpt>
      <trkpt lat="47.28409" lon="-2.51277">
        <ele>179.39999389648</ele>
        <time>2019-11-14T10:35:14.000Z</time>
      </trkpt>
      <trkpt lat="47.28397" lon="-2.51266">
        <ele>179.39999389648</ele>
        <time>2019-11-14T10:35:16.000Z</time>
      </trkpt>
      <trkpt lat="47.28385" lon="-2.51258">
        <ele>179.39999389648</ele>
        <time>2019-11-14T10:35:18.000Z</time>
      </trkpt>
      <trkpt lat="47.2836" lon="-2.5124">
        <ele>179.39999389648</ele>
        <time>2019-11-14T10:35:22.000Z</time>
      </trkpt>
      <trkpt lat="47.2832" lon="-2.51211">
        <ele>178.80000305176</ele>
        <time>2019-11-14T10:35:29.000Z</time>
      </trkpt>
      <trkpt lat="47.28314" lon="-2.51207">
        <ele>178.39999389648</ele>
        <time>2019-11-14T10:35:30.000Z</time>
      </trkpt>
      <trkpt lat="47.2831" lon="-2.51201">
        <ele>178</ele>
        <time>2019-11-14T10:35:31.000Z</time>
      </trkpt>
      <trkpt lat="47.28305" lon="-2.51194">
        <ele>177.60000610352</ele>
        <time>2019-11-14T10:35:32.000Z</time>
      </trkpt>
      <trkpt lat="47.28302" lon="-2.51188">
        <ele>177.19999694824</ele>
        <time>2019-11-14T10:35:33.000Z</time>
      </trkpt>
      <trkpt lat="47.28292" lon="-2.51165">
        <ele>177.19999694824</ele>
        <time>2019-11-14T10:35:36.000Z</time>
      </trkpt>
      <trkpt lat="47.2829" lon="-2.51157">
        <ele>177.19999694824</ele>
        <time>2019-11-14T10:35:37.000Z</time>
      </trkpt>
      <trkpt lat="47.28287" lon="-2.51148">
        <ele>177.19999694824</ele>
        <time>2019-11-14T10:35:38.000Z</time>
      </trkpt>
      <trkpt lat="47.28282" lon="-2.51132">
        <ele>177.19999694824</ele>
        <time>2019-11-14T10:35:40.000Z</time>
      </trkpt>
      <trkpt lat="47.28272" lon="-2.511">
        <ele>177.19999694824</ele>
        <time>2019-11-14T10:35:44.000Z</time>
      </trkpt>
      <trkpt lat="47.2826" lon="-2.51067">
        <ele>176.80000305176</ele>
        <time>2019-11-14T10:35:48.000Z</time>
      </trkpt>
      <trkpt lat="47.28257" lon="-2.5106">
        <ele>176.39999389648</ele>
        <time>2019-11-14T10:35:49.000Z</time>
      </trkpt>
      <trkpt lat="47.28254" lon="-2.5105">
        <ele>176</ele>
        <time>2019-11-14T10:35:50.000Z</time>
      </trkpt>
      <trkpt lat="47.28251" lon="-2.51041">
        <ele>175.60000610352</ele>
        <time>2019-11-14T10:35:51.000Z</time>
      </trkpt>
      <trkpt lat="47.28249" lon="-2.51032">
        <ele>175.19999694824</ele>
        <time>2019-11-14T10:35:52.000Z</time>
      </trkpt>
      <trkpt lat="47.28241" lon="-2.50984">
        <ele>175.19999694824</ele>
        <time>2019-11-14T10:35:57.000Z</time>
      </trkpt>
      <trkpt lat="47.28239" lon="-2.50958">
        <ele>174.80000305176</ele>
        <time>2019-11-14T10:36:00.000Z</time>
      </trkpt>
      <trkpt lat="47.28237" lon="-2.50949">
        <ele>174.39999389648</ele>
        <time>2019-11-14T10:36:01.000Z</time>
      </trkpt>
      <trkpt lat="47.28236" lon="-2.5094">
        <ele>174</ele>
        <time>2019-11-14T10:36:02.000Z</time>
      </trkpt>
      <trkpt lat="47.28235" lon="-2.50931">
        <ele>173.60000610352</ele>
        <time>2019-11-14T10:36:03.000Z</time>
      </trkpt>
      <trkpt lat="47.28234" lon="-2.50922">
        <ele>173.19999694824</ele>
        <time>2019-11-14T10:36:04.000Z</time>
      </trkpt>
      <trkpt lat="47.28222" lon="-2.50861">
        <ele>173.19999694824</ele>
        <time>2019-11-14T10:36:11.000Z</time>
      </trkpt>
      <trkpt lat="47.28212" lon="-2.508">
        <ele>172.80000305176</ele>
        <time>2019-11-14T10:36:18.000Z</time>
      </trkpt>
      <trkpt lat="47.2821" lon="-2.50791">
        <ele>172.39999389648</ele>
        <time>2019-11-14T10:36:19.000Z</time>
      </trkpt>
      <trkpt lat="47.28209" lon="-2.50783">
        <ele>172</ele>
        <time>2019-11-14T10:36:20.000Z</time>
      </trkpt>
      <trkpt lat="47.28208" lon="-2.50773">
        <ele>171.60000610352</ele>
        <time>2019-11-14T10:36:21.000Z</time>
      </trkpt>
      <trkpt lat="47.28208" lon="-2.50764">
        <ele>171.19999694824</ele>
        <time>2019-11-14T10:36:22.000Z</time>
      </trkpt>
      <trkpt lat="47.28208" lon="-2.50745">
        <ele>171.19999694824</ele>
        <time>2019-11-14T10:36:24.000Z</time>
      </trkpt>
      <trkpt lat="47.28213" lon="-2.50681">
        <ele>170.80000305176</ele>
        <time>2019-11-14T10:36:31.000Z</time>
      </trkpt>
      <trkpt lat="47.28215" lon="-2.50671">
        <ele>170.19999694824</ele>
        <time>2019-11-14T10:36:32.000Z</time>
      </trkpt>
      <trkpt lat="47.28216" lon="-2.50662">
        <ele>169.80000305176</ele>
        <time>2019-11-14T10:36:33.000Z</time>
      </trkpt>
      <trkpt lat="47.28218" lon="-2.50654">
        <ele>169.39999389648</ele>
        <time>2019-11-14T10:36:34.000Z</time>
      </trkpt>
      <trkpt lat="47.2822" lon="-2.50645">
        <ele>169</ele>
        <time>2019-11-14T10:36:35.000Z</time>
      </trkpt>
      <trkpt lat="47.28227" lon="-2.50617">
        <ele>169</ele>
        <time>2019-11-14T10:36:38.000Z</time>
      </trkpt>
      <trkpt lat="47.28229" lon="-2.50608">
        <ele>169</ele>
        <time>2019-11-14T10:36:39.000Z</time>
      </trkpt>
      <trkpt lat="47.28237" lon="-2.50573">
        <ele>169</ele>
        <time>2019-11-14T10:36:43.000Z</time>
      </trkpt>
      <trkpt lat="47.28252" lon="-2.50514">
        <ele>169</ele>
        <time>2019-11-14T10:36:50.000Z</time>
      </trkpt>
      <trkpt lat="47.28265" lon="-2.50471">
        <ele>169</ele>
        <time>2019-11-14T10:36:55.000Z</time>
      </trkpt>
      <trkpt lat="47.28267" lon="-2.50462">
        <ele>169</ele>
        <time>2019-11-14T10:36:56.000Z</time>
      </trkpt>
      <trkpt lat="47.28281" lon="-2.5039">
        <ele>169</ele>
        <time>2019-11-14T10:37:04.000Z</time>
      </trkpt>
      <trkpt lat="47.28281" lon="-2.50363">
        <ele>169</ele>
        <time>2019-11-14T10:37:07.000Z</time>
      </trkpt>
      <trkpt lat="47.28281" lon="-2.50344">
        <ele>169</ele>
        <time>2019-11-14T10:37:09.000Z</time>
      </trkpt>
      <trkpt lat="47.28278" lon="-2.50317">
        <ele>169</ele>
        <time>2019-11-14T10:37:12.000Z</time>
      </trkpt>
      <trkpt lat="47.28274" lon="-2.50301">
        <ele>169</ele>
        <time>2019-11-14T10:37:14.000Z</time>
      </trkpt>
      <trkpt lat="47.28265" lon="-2.50279">
        <ele>169</ele>
        <time>2019-11-14T10:37:18.000Z</time>
      </trkpt>
      <trkpt lat="47.28257" lon="-2.50262">
        <ele>169</ele>
        <time>2019-11-14T10:37:21.000Z</time>
      </trkpt>
      <trkpt lat="47.28252" lon="-2.50257">
        <ele>169.39999389648</ele>
        <time>2019-11-14T10:37:22.000Z</time>
      </trkpt>
      <trkpt lat="47.28247" lon="-2.50252">
        <ele>169.80000305176</ele>
        <time>2019-11-14T10:37:23.000Z</time>
      </trkpt>
      <trkpt lat="47.28243" lon="-2.50246">
        <ele>170.19999694824</ele>
        <time>2019-11-14T10:37:24.000Z</time>
      </trkpt>
      <trkpt lat="47.28237" lon="-2.50239">
        <ele>170.60000610352</ele>
        <time>2019-11-14T10:37:25.000Z</time>
      </trkpt>
      <trkpt lat="47.28233" lon="-2.50231">
        <ele>171</ele>
        <time>2019-11-14T10:37:26.000Z</time>
      </trkpt>
      <trkpt lat="47.28229" lon="-2.50224">
        <ele>171</ele>
        <time>2019-11-14T10:37:27.000Z</time>
      </trkpt>
      <trkpt lat="47.28225" lon="-2.50215">
        <ele>171</ele>
        <time>2019-11-14T10:37:28.000Z</time>
      </trkpt>
      <trkpt lat="47.28214" lon="-2.5019">
        <ele>171</ele>
        <time>2019-11-14T10:37:31.000Z</time>
      </trkpt>
      <trkpt lat="47.28211" lon="-2.5018">
        <ele>171</ele>
        <time>2019-11-14T10:37:32.000Z</time>
      </trkpt>
      <trkpt lat="47.28203" lon="-2.50151">
        <ele>171</ele>
        <time>2019-11-14T10:37:35.000Z</time>
      </trkpt>
      <trkpt lat="47.282" lon="-2.50132">
        <ele>171</ele>
        <time>2019-11-14T10:37:37.000Z</time>
      </trkpt>
      <trkpt lat="47.28194" lon="-2.50104">
        <ele>171</ele>
        <time>2019-11-14T10:37:40.000Z</time>
      </trkpt>
      <trkpt lat="47.2819" lon="-2.50085">
        <ele>171</ele>
        <time>2019-11-14T10:37:42.000Z</time>
      </trkpt>
      <trkpt lat="47.28185" lon="-2.50067">
        <ele>171</ele>
        <time>2019-11-14T10:37:44.000Z</time>
      </trkpt>
      <trkpt lat="47.2818" lon="-2.50037">
        <ele>171</ele>
        <time>2019-11-14T10:37:47.000Z</time>
      </trkpt>
      <trkpt lat="47.28179" lon="-2.50028">
        <ele>171</ele>
        <time>2019-11-14T10:37:48.000Z</time>
      </trkpt>
      <trkpt lat="47.28178" lon="-2.50019">
        <ele>171.39999389648</ele>
        <time>2019-11-14T10:37:49.000Z</time>
      </trkpt>
      <trkpt lat="47.28176" lon="-2.50012">
        <ele>171.80000305176</ele>
        <time>2019-11-14T10:37:50.000Z</time>
      </trkpt>
      <trkpt lat="47.28174" lon="-2.50004">
        <ele>172.39999389648</ele>
        <time>2019-11-14T10:37:51.000Z</time>
      </trkpt>
      <trkpt lat="47.28173" lon="-2.49997">
        <ele>172.80000305176</ele>
        <time>2019-11-14T10:37:52.000Z</time>
      </trkpt>
      <trkpt lat="47.28173" lon="-2.4999">
        <ele>173.19999694824</ele>
        <time>2019-11-14T10:37:53.000Z</time>
      </trkpt>
      <trkpt lat="47.28171" lon="-2.49973">
        <ele>173.19999694824</ele>
        <time>2019-11-14T10:37:55.000Z</time>
      </trkpt>
      <trkpt lat="47.28166" lon="-2.49949">
        <ele>173.19999694824</ele>
        <time>2019-11-14T10:37:58.000Z</time>
      </trkpt>
      <trkpt lat="47.28162" lon="-2.49933">
        <ele>173.19999694824</ele>
        <time>2019-11-14T10:38:00.000Z</time>
      </trkpt>
      <trkpt lat="47.28161" lon="-2.49914">
        <ele>173.19999694824</ele>
        <time>2019-11-14T10:38:02.000Z</time>
      </trkpt>
      <trkpt lat="47.28158" lon="-2.49888">
        <ele>173.19999694824</ele>
        <time>2019-11-14T10:38:05.000Z</time>
      </trkpt>
      <trkpt lat="47.28151" lon="-2.4984">
        <ele>173.19999694824</ele>
        <time>2019-11-14T10:38:10.000Z</time>
      </trkpt>
      <trkpt lat="47.28148" lon="-2.49821">
        <ele>173.19999694824</ele>
        <time>2019-11-14T10:38:12.000Z</time>
      </trkpt>
      <trkpt lat="47.28147" lon="-2.49802">
        <ele>173.19999694824</ele>
        <time>2019-11-14T10:38:14.000Z</time>
      </trkpt>
      <trkpt lat="47.28138" lon="-2.49749">
        <ele>173.19999694824</ele>
        <time>2019-11-14T10:38:20.000Z</time>
      </trkpt>
      <trkpt lat="47.28131" lon="-2.49696">
        <ele>173.19999694824</ele>
        <time>2019-11-14T10:38:26.000Z</time>
      </trkpt>
      <trkpt lat="47.2812" lon="-2.49647">
        <ele>173.19999694824</ele>
        <time>2019-11-14T10:38:32.000Z</time>
      </trkpt>
      <trkpt lat="47.28113" lon="-2.49634">
        <ele>173.19999694824</ele>
        <time>2019-11-14T10:38:34.000Z</time>
      </trkpt>
      <trkpt lat="47.28104" lon="-2.49624">
        <ele>173.19999694824</ele>
        <time>2019-11-14T10:38:36.000Z</time>
      </trkpt>
      <trkpt lat="47.28096" lon="-2.4961">
        <ele>173.19999694824</ele>
        <time>2019-11-14T10:38:38.000Z</time>
      </trkpt>
      <trkpt lat="47.28077" lon="-2.49584">
        <ele>173.19999694824</ele>
        <time>2019-11-14T10:38:42.000Z</time>
      </trkpt>
      <trkpt lat="47.28046" lon="-2.49539">
        <ele>173.19999694824</ele>
        <time>2019-11-14T10:38:49.000Z</time>
      </trkpt>
      <trkpt lat="47.28042" lon="-2.49535">
        <ele>173.19999694824</ele>
        <time>2019-11-14T10:38:50.000Z</time>
      </trkpt>
      <trkpt lat="47.28033" lon="-2.49519">
        <ele>173.19999694824</ele>
        <time>2019-11-14T10:38:53.000Z</time>
      </trkpt>
      <trkpt lat="47.28031" lon="-2.49515">
        <ele>173.19999694824</ele>
        <time>2019-11-14T10:38:54.000Z</time>
      </trkpt>
      <trkpt lat="47.28029" lon="-2.49507">
        <ele>173.19999694824</ele>
        <time>2019-11-14T10:38:57.000Z</time>
      </trkpt>
      <trkpt lat="47.28027" lon="-2.49505">
        <ele>173.19999694824</ele>
        <time>2019-11-14T10:38:59.000Z</time>
      </trkpt>
      <trkpt lat="47.28027" lon="-2.49503">
        <ele>173.19999694824</ele>
        <time>2019-11-14T10:39:00.000Z</time>
      </trkpt>
      <trkpt lat="47.28026" lon="-2.49502">
        <ele>173.19999694824</ele>
        <time>2019-11-14T10:39:03.000Z</time>
      </trkpt>
      <trkpt lat="47.28027" lon="-2.49484">
        <ele>168.80000305176</ele>
        <time>2019-11-14T10:39:24.000Z</time>
      </trkpt>
      <trkpt lat="47.28027" lon="-2.4948">
        <ele>168.39999389648</ele>
        <time>2019-11-14T10:39:26.000Z</time>
      </trkpt>
      <trkpt lat="47.28027" lon="-2.49479">
        <ele>167.80000305176</ele>
        <time>2019-11-14T10:39:27.000Z</time>
      </trkpt>
      <trkpt lat="47.28027" lon="-2.49477">
        <ele>167.39999389648</ele>
        <time>2019-11-14T10:39:28.000Z</time>
      </trkpt>
      <trkpt lat="47.28027" lon="-2.49475">
        <ele>167</ele>
        <time>2019-11-14T10:39:29.000Z</time>
      </trkpt>
      <trkpt lat="47.28027" lon="-2.49472">
        <ele>166.60000610352</ele>
        <time>2019-11-14T10:39:30.000Z</time>
      </trkpt>
      <trkpt lat="47.28025" lon="-2.49456">
        <ele>166.60000610352</ele>
        <time>2019-11-14T10:39:34.000Z</time>
      </trkpt>
      <trkpt lat="47.28024" lon="-2.49452">
        <ele>166.19999694824</ele>
        <time>2019-11-14T10:39:35.000Z</time>
      </trkpt>
      <trkpt lat="47.28023" lon="-2.49448">
        <ele>165.80000305176</ele>
        <time>2019-11-14T10:39:36.000Z</time>
      </trkpt>
      <trkpt lat="47.28021" lon="-2.49443">
        <ele>165.19999694824</ele>
        <time>2019-11-14T10:39:37.000Z</time>
      </trkpt>
      <trkpt lat="47.2802" lon="-2.49439">
        <ele>164.80000305176</ele>
        <time>2019-11-14T10:39:38.000Z</time>
      </trkpt>
      <trkpt lat="47.28019" lon="-2.49434">
        <ele>164.39999389648</ele>
        <time>2019-11-14T10:39:39.000Z</time>
      </trkpt>
      <trkpt lat="47.28017" lon="-2.4943">
        <ele>164.39999389648</ele>
        <time>2019-11-14T10:39:40.000Z</time>
      </trkpt>
      <trkpt lat="47.28013" lon="-2.49397">
        <ele>164</ele>
        <time>2019-11-14T10:39:46.000Z</time>
      </trkpt>
      <trkpt lat="47.28013" lon="-2.4939">
        <ele>163.60000610352</ele>
        <time>2019-11-14T10:39:47.000Z</time>
      </trkpt>
      <trkpt lat="47.28012" lon="-2.49382">
        <ele>163.19999694824</ele>
        <time>2019-11-14T10:39:49.000Z</time>
      </trkpt>
      <trkpt lat="47.28012" lon="-2.49375">
        <ele>162.80000305176</ele>
        <time>2019-11-14T10:39:50.000Z</time>
      </trkpt>
      <trkpt lat="47.2801" lon="-2.49367">
        <ele>162.39999389648</ele>
        <time>2019-11-14T10:39:51.000Z</time>
      </trkpt>
      <trkpt lat="47.28009" lon="-2.49359">
        <ele>162.39999389648</ele>
        <time>2019-11-14T10:39:52.000Z</time>
      </trkpt>
      <trkpt lat="47.27997" lon="-2.49321">
        <ele>162.39999389648</ele>
        <time>2019-11-14T10:39:57.000Z</time>
      </trkpt>
      <trkpt lat="47.2799" lon="-2.49294">
        <ele>162.39999389648</ele>
        <time>2019-11-14T10:40:01.000Z</time>
      </trkpt>
      <trkpt lat="47.27987" lon="-2.4928">
        <ele>162.39999389648</ele>
        <time>2019-11-14T10:40:03.000Z</time>
      </trkpt>
      <trkpt lat="47.27987" lon="-2.49273">
        <ele>162.39999389648</ele>
        <time>2019-11-14T10:40:04.000Z</time>
      </trkpt>
      <trkpt lat="47.27982" lon="-2.4924">
        <ele>162.39999389648</ele>
        <time>2019-11-14T10:40:09.000Z</time>
      </trkpt>
      <trkpt lat="47.27979" lon="-2.49228">
        <ele>162.39999389648</ele>
        <time>2019-11-14T10:40:11.000Z</time>
      </trkpt>
      <trkpt lat="47.27976" lon="-2.49213">
        <ele>162.39999389648</ele>
        <time>2019-11-14T10:40:13.000Z</time>
      </trkpt>
      <trkpt lat="47.27975" lon="-2.49207">
        <ele>162.39999389648</ele>
        <time>2019-11-14T10:40:14.000Z</time>
      </trkpt>
      <trkpt lat="47.27969" lon="-2.49176">
        <ele>162.39999389648</ele>
        <time>2019-11-14T10:40:19.000Z</time>
      </trkpt>
      <trkpt lat="47.27966" lon="-2.4917">
        <ele>162.39999389648</ele>
        <time>2019-11-14T10:40:20.000Z</time>
      </trkpt>
      <trkpt lat="47.27964" lon="-2.49157">
        <ele>162</ele>
        <time>2019-11-14T10:40:22.000Z</time>
      </trkpt>
      <trkpt lat="47.27964" lon="-2.4915">
        <ele>161.60000610352</ele>
        <time>2019-11-14T10:40:23.000Z</time>
      </trkpt>
      <trkpt lat="47.27964" lon="-2.49143">
        <ele>161.19999694824</ele>
        <time>2019-11-14T10:40:24.000Z</time>
      </trkpt>
      <trkpt lat="47.27966" lon="-2.49136">
        <ele>160.80000305176</ele>
        <time>2019-11-14T10:40:25.000Z</time>
      </trkpt>
      <trkpt lat="47.2797" lon="-2.49132">
        <ele>160.39999389648</ele>
        <time>2019-11-14T10:40:26.000Z</time>
      </trkpt>
      <trkpt lat="47.27976" lon="-2.49124">
        <ele>160.39999389648</ele>
        <time>2019-11-14T10:40:28.000Z</time>
      </trkpt>
      <trkpt lat="47.2798" lon="-2.49121">
        <ele>160.39999389648</ele>
        <time>2019-11-14T10:40:29.000Z</time>
      </trkpt>
      <trkpt lat="47.27987" lon="-2.49109">
        <ele>160.39999389648</ele>
        <time>2019-11-14T10:40:32.000Z</time>
      </trkpt>
      <trkpt lat="47.27987" lon="-2.49104">
        <ele>160.39999389648</ele>
        <time>2019-11-14T10:40:33.000Z</time>
      </trkpt>
      <trkpt lat="47.27985" lon="-2.49083">
        <ele>160.39999389648</ele>
        <time>2019-11-14T10:40:37.000Z</time>
      </trkpt>
      <trkpt lat="47.27986" lon="-2.49078">
        <ele>160.39999389648</ele>
        <time>2019-11-14T10:40:38.000Z</time>
      </trkpt>
      <trkpt lat="47.27989" lon="-2.49071">
        <ele>160.39999389648</ele>
        <time>2019-11-14T10:40:40.000Z</time>
      </trkpt>
      <trkpt lat="47.27996" lon="-2.49065">
        <ele>160.39999389648</ele>
        <time>2019-11-14T10:40:42.000Z</time>
      </trkpt>
      <trkpt lat="47.28007" lon="-2.49058">
        <ele>159.80000305176</ele>
        <time>2019-11-14T10:40:45.000Z</time>
      </trkpt>
      <trkpt lat="47.2801" lon="-2.49054">
        <ele>159.39999389648</ele>
        <time>2019-11-14T10:40:46.000Z</time>
      </trkpt>
      <trkpt lat="47.2801" lon="-2.49048">
        <ele>159</ele>
        <time>2019-11-14T10:40:47.000Z</time>
      </trkpt>
      <trkpt lat="47.2801" lon="-2.49042">
        <ele>158.39999389648</ele>
        <time>2019-11-14T10:40:48.000Z</time>
      </trkpt>
      <trkpt lat="47.28009" lon="-2.49035">
        <ele>158</ele>
        <time>2019-11-14T10:40:49.000Z</time>
      </trkpt>
      <trkpt lat="47.28007" lon="-2.49029">
        <ele>158</ele>
        <time>2019-11-14T10:40:50.000Z</time>
      </trkpt>
      <trkpt lat="47.28006" lon="-2.49024">
        <ele>158</ele>
        <time>2019-11-14T10:40:51.000Z</time>
      </trkpt>
      <trkpt lat="47.28004" lon="-2.49018">
        <ele>158</ele>
        <time>2019-11-14T10:40:52.000Z</time>
      </trkpt>
      <trkpt lat="47.27997" lon="-2.48987">
        <ele>158</ele>
        <time>2019-11-14T10:40:57.000Z</time>
      </trkpt>
      <trkpt lat="47.27996" lon="-2.48982">
        <ele>158</ele>
        <time>2019-11-14T10:40:58.000Z</time>
      </trkpt>
      <trkpt lat="47.27995" lon="-2.48969">
        <ele>158</ele>
        <time>2019-11-14T10:41:00.000Z</time>
      </trkpt>
      <trkpt lat="47.27993" lon="-2.48956">
        <ele>158</ele>
        <time>2019-11-14T10:41:02.000Z</time>
      </trkpt>
      <trkpt lat="47.27991" lon="-2.48936">
        <ele>158</ele>
        <time>2019-11-14T10:41:05.000Z</time>
      </trkpt>
      <trkpt lat="47.2799" lon="-2.48923">
        <ele>157.60000610352</ele>
        <time>2019-11-14T10:41:07.000Z</time>
      </trkpt>
      <trkpt lat="47.27989" lon="-2.48917">
        <ele>157.19999694824</ele>
        <time>2019-11-14T10:41:08.000Z</time>
      </trkpt>
      <trkpt lat="47.27989" lon="-2.48911">
        <ele>156.80000305176</ele>
        <time>2019-11-14T10:41:09.000Z</time>
      </trkpt>
      <trkpt lat="47.27988" lon="-2.48906">
        <ele>156.39999389648</ele>
        <time>2019-11-14T10:41:10.000Z</time>
      </trkpt>
      <trkpt lat="47.27988" lon="-2.48901">
        <ele>156</ele>
        <time>2019-11-14T10:41:11.000Z</time>
      </trkpt>
      <trkpt lat="47.27986" lon="-2.48873">
        <ele>156</ele>
        <time>2019-11-14T10:41:17.000Z</time>
      </trkpt>
      <trkpt lat="47.27988" lon="-2.48858">
        <ele>156</ele>
        <time>2019-11-14T10:41:23.000Z</time>
      </trkpt>
      <trkpt lat="47.27979" lon="-2.48854">
        <ele>156</ele>
        <time>2019-11-14T10:41:35.000Z</time>
      </trkpt>
      <trkpt lat="47.27976" lon="-2.48855">
        <ele>155.60000610352</ele>
        <time>2019-11-14T10:41:36.000Z</time>
      </trkpt>
      <trkpt lat="47.27974" lon="-2.48858">
        <ele>155.19999694824</ele>
        <time>2019-11-14T10:41:37.000Z</time>
      </trkpt>
      <trkpt lat="47.27972" lon="-2.48861">
        <ele>154.80000305176</ele>
        <time>2019-11-14T10:41:38.000Z</time>
      </trkpt>
      <trkpt lat="47.2797" lon="-2.48865">
        <ele>154.39999389648</ele>
        <time>2019-11-14T10:41:39.000Z</time>
      </trkpt>
      <trkpt lat="47.27968" lon="-2.48869">
        <ele>154</ele>
        <time>2019-11-14T10:41:40.000Z</time>
      </trkpt>
      <trkpt lat="47.27964" lon="-2.48879">
        <ele>154</ele>
        <time>2019-11-14T10:41:42.000Z</time>
      </trkpt>
      <trkpt lat="47.27962" lon="-2.48885">
        <ele>154</ele>
        <time>2019-11-14T10:41:43.000Z</time>
      </trkpt>
      <trkpt lat="47.2796" lon="-2.48903">
        <ele>154</ele>
        <time>2019-11-14T10:41:46.000Z</time>
      </trkpt>
      <trkpt lat="47.27958" lon="-2.48915">
        <ele>154</ele>
        <time>2019-11-14T10:41:48.000Z</time>
      </trkpt>
      <trkpt lat="47.27951" lon="-2.48932">
        <ele>154</ele>
        <time>2019-11-14T10:41:51.000Z</time>
      </trkpt>
      <trkpt lat="47.27939" lon="-2.48957">
        <ele>154</ele>
        <time>2019-11-14T10:41:55.000Z</time>
      </trkpt>
      <trkpt lat="47.27937" lon="-2.48964">
        <ele>154</ele>
        <time>2019-11-14T10:41:56.000Z</time>
      </trkpt>
      <trkpt lat="47.27924" lon="-2.49016">
        <ele>154</ele>
        <time>2019-11-14T10:42:03.000Z</time>
      </trkpt>
      <trkpt lat="47.27907" lon="-2.4907">
        <ele>154</ele>
        <time>2019-11-14T10:42:11.000Z</time>
      </trkpt>
      <trkpt lat="47.27903" lon="-2.49086">
        <ele>154</ele>
        <time>2019-11-14T10:42:13.000Z</time>
      </trkpt>
      <trkpt lat="47.27898" lon="-2.4911">
        <ele>154</ele>
        <time>2019-11-14T10:42:16.000Z</time>
      </trkpt>
      <trkpt lat="47.2788" lon="-2.49171">
        <ele>154</ele>
        <time>2019-11-14T10:42:24.000Z</time>
      </trkpt>
      <trkpt lat="47.27868" lon="-2.49207">
        <ele>154</ele>
        <time>2019-11-14T10:42:29.000Z</time>
      </trkpt>
      <trkpt lat="47.27866" lon="-2.49212">
        <ele>154</ele>
        <time>2019-11-14T10:42:30.000Z</time>
      </trkpt>
      <trkpt lat="47.27858" lon="-2.49238">
        <ele>154</ele>
        <time>2019-11-14T10:42:36.000Z</time>
      </trkpt>
      <trkpt lat="47.27853" lon="-2.49251">
        <ele>153.60000610352</ele>
        <time>2019-11-14T10:42:40.000Z</time>
      </trkpt>
      <trkpt lat="47.27852" lon="-2.49254">
        <ele>153</ele>
        <time>2019-11-14T10:42:41.000Z</time>
      </trkpt>
      <trkpt lat="47.27852" lon="-2.49258">
        <ele>152.60000610352</ele>
        <time>2019-11-14T10:42:42.000Z</time>
      </trkpt>
      <trkpt lat="47.2785" lon="-2.49261">
        <ele>151.80000305176</ele>
        <time>2019-11-14T10:42:43.000Z</time>
      </trkpt>
      <trkpt lat="47.27842" lon="-2.49272">
        <ele>151.80000305176</ele>
        <time>2019-11-14T10:42:47.000Z</time>
      </trkpt>
      <trkpt lat="47.27825" lon="-2.49276">
        <ele>151.80000305176</ele>
        <time>2019-11-14T10:42:52.000Z</time>
      </trkpt>
      <trkpt lat="47.27813" lon="-2.49271">
        <ele>151.80000305176</ele>
        <time>2019-11-14T10:42:55.000Z</time>
      </trkpt>
      <trkpt lat="47.27806" lon="-2.49267">
        <ele>151.39999389648</ele>
        <time>2019-11-14T10:42:57.000Z</time>
      </trkpt>
      <trkpt lat="47.27802" lon="-2.49266">
        <ele>151</ele>
        <time>2019-11-14T10:42:58.000Z</time>
      </trkpt>
      <trkpt lat="47.27797" lon="-2.49266">
        <ele>150.60000610352</ele>
        <time>2019-11-14T10:42:59.000Z</time>
      </trkpt>
      <trkpt lat="47.27792" lon="-2.49266">
        <ele>150.19999694824</ele>
        <time>2019-11-14T10:43:00.000Z</time>
      </trkpt>
      <trkpt lat="47.27788" lon="-2.49266">
        <ele>149.80000305176</ele>
        <time>2019-11-14T10:43:01.000Z</time>
      </trkpt>
      <trkpt lat="47.27784" lon="-2.49265">
        <ele>149.80000305176</ele>
        <time>2019-11-14T10:43:02.000Z</time>
      </trkpt>
      <trkpt lat="47.27752" lon="-2.49257">
        <ele>149.80000305176</ele>
        <time>2019-11-14T10:43:09.000Z</time>
      </trkpt>
      <trkpt lat="47.27743" lon="-2.49258">
        <ele>149.80000305176</ele>
        <time>2019-11-14T10:43:11.000Z</time>
      </trkpt>
      <trkpt lat="47.27723" lon="-2.49258">
        <ele>149.80000305176</ele>
        <time>2019-11-14T10:43:15.000Z</time>
      </trkpt>
      <trkpt lat="47.27686" lon="-2.49253">
        <ele>149.80000305176</ele>
        <time>2019-11-14T10:43:22.000Z</time>
      </trkpt>
      <trkpt lat="47.2767" lon="-2.49247">
        <ele>149.80000305176</ele>
        <time>2019-11-14T10:43:25.000Z</time>
      </trkpt>
      <trkpt lat="47.27654" lon="-2.49242">
        <ele>149.80000305176</ele>
        <time>2019-11-14T10:43:28.000Z</time>
      </trkpt>
      <trkpt lat="47.27649" lon="-2.49242">
        <ele>149.80000305176</ele>
        <time>2019-11-14T10:43:29.000Z</time>
      </trkpt>
      <trkpt lat="47.27634" lon="-2.49236">
        <ele>149.80000305176</ele>
        <time>2019-11-14T10:43:32.000Z</time>
      </trkpt>
      <trkpt lat="47.27624" lon="-2.49216">
        <ele>149.80000305176</ele>
        <time>2019-11-14T10:43:35.000Z</time>
      </trkpt>
      <trkpt lat="47.27616" lon="-2.49204">
        <ele>149.80000305176</ele>
        <time>2019-11-14T10:43:37.000Z</time>
      </trkpt>
      <trkpt lat="47.2761" lon="-2.49191">
        <ele>149.80000305176</ele>
        <time>2019-11-14T10:43:39.000Z</time>
      </trkpt>
      <trkpt lat="47.27597" lon="-2.49165">
        <ele>149.80000305176</ele>
        <time>2019-11-14T10:43:43.000Z</time>
      </trkpt>
      <trkpt lat="47.27591" lon="-2.49144">
        <ele>149.80000305176</ele>
        <time>2019-11-14T10:43:46.000Z</time>
      </trkpt>
      <trkpt lat="47.27588" lon="-2.49116">
        <ele>149.80000305176</ele>
        <time>2019-11-14T10:43:51.000Z</time>
      </trkpt>
      <trkpt lat="47.27585" lon="-2.49102">
        <ele>149.80000305176</ele>
        <time>2019-11-14T10:43:55.000Z</time>
      </trkpt>
      <trkpt lat="47.27583" lon="-2.49101">
        <ele>149.80000305176</ele>
        <time>2019-11-14T10:43:56.000Z</time>
      </trkpt>
      <trkpt lat="47.27569" lon="-2.49101">
        <ele>149.80000305176</ele>
        <time>2019-11-14T10:44:00.000Z</time>
      </trkpt>
      <trkpt lat="47.27557" lon="-2.49101">
        <ele>149.80000305176</ele>
        <time>2019-11-14T10:44:05.000Z</time>
      </trkpt>
      <trkpt lat="47.27546" lon="-2.491">
        <ele>149.80000305176</ele>
        <time>2019-11-14T10:44:09.000Z</time>
      </trkpt>
      <trkpt lat="47.27544" lon="-2.49086">
        <ele>149.80000305176</ele>
        <time>2019-11-14T10:44:12.000Z</time>
      </trkpt>
      <trkpt lat="47.27541" lon="-2.49062">
        <ele>149.80000305176</ele>
        <time>2019-11-14T10:44:17.000Z</time>
      </trkpt>
      <trkpt lat="47.27538" lon="-2.49029">
        <ele>149.80000305176</ele>
        <time>2019-11-14T10:44:22.000Z</time>
      </trkpt>
      <trkpt lat="47.27536" lon="-2.49023">
        <ele>149.80000305176</ele>
        <time>2019-11-14T10:44:23.000Z</time>
      </trkpt>
      <trkpt lat="47.27532" lon="-2.48998">
        <ele>149.80000305176</ele>
        <time>2019-11-14T10:44:27.000Z</time>
      </trkpt>
      <trkpt lat="47.27531" lon="-2.4896">
        <ele>149.80000305176</ele>
        <time>2019-11-14T10:44:32.000Z</time>
      </trkpt>
      <trkpt lat="47.27527" lon="-2.48928">
        <ele>149.80000305176</ele>
        <time>2019-11-14T10:44:37.000Z</time>
      </trkpt>
      <trkpt lat="47.27523" lon="-2.48923">
        <ele>149.80000305176</ele>
        <time>2019-11-14T10:44:38.000Z</time>
      </trkpt>
      <trkpt lat="47.27518" lon="-2.48914">
        <ele>149.80000305176</ele>
        <time>2019-11-14T10:44:40.000Z</time>
      </trkpt>
      <trkpt lat="47.27518" lon="-2.48897">
        <ele>149.80000305176</ele>
        <time>2019-11-14T10:44:43.000Z</time>
      </trkpt>
      <trkpt lat="47.27519" lon="-2.48882">
        <ele>149.80000305176</ele>
        <time>2019-11-14T10:44:46.000Z</time>
      </trkpt>
      <trkpt lat="47.2752" lon="-2.48875">
        <ele>149.80000305176</ele>
        <time>2019-11-14T10:44:47.000Z</time>
      </trkpt>
      <trkpt lat="47.27522" lon="-2.48869">
        <ele>149.80000305176</ele>
        <time>2019-11-14T10:44:48.000Z</time>
      </trkpt>
      <trkpt lat="47.27527" lon="-2.48847">
        <ele>149.80000305176</ele>
        <time>2019-11-14T10:44:52.000Z</time>
      </trkpt>
      <trkpt lat="47.27534" lon="-2.48824">
        <ele>149.80000305176</ele>
        <time>2019-11-14T10:44:57.000Z</time>
      </trkpt>
      <trkpt lat="47.27538" lon="-2.48799">
        <ele>149.80000305176</ele>
        <time>2019-11-14T10:45:01.000Z</time>
      </trkpt>
      <trkpt lat="47.27539" lon="-2.48791">
        <ele>149.80000305176</ele>
        <time>2019-11-14T10:45:02.000Z</time>
      </trkpt>
      <trkpt lat="47.27542" lon="-2.48771">
        <ele>149.80000305176</ele>
        <time>2019-11-14T10:45:05.000Z</time>
      </trkpt>
      <trkpt lat="47.2754" lon="-2.48753">
        <ele>149.80000305176</ele>
        <time>2019-11-14T10:45:08.000Z</time>
      </trkpt>
      <trkpt lat="47.27539" lon="-2.48747">
        <ele>149.80000305176</ele>
        <time>2019-11-14T10:45:09.000Z</time>
      </trkpt>
      <trkpt lat="47.27535" lon="-2.48724">
        <ele>149.80000305176</ele>
        <time>2019-11-14T10:45:14.000Z</time>
      </trkpt>
      <trkpt lat="47.27527" lon="-2.48702">
        <ele>149.80000305176</ele>
        <time>2019-11-14T10:45:19.000Z</time>
      </trkpt>
      <trkpt lat="47.27521" lon="-2.4868">
        <ele>149.80000305176</ele>
        <time>2019-11-14T10:45:25.000Z</time>
      </trkpt>
      <trkpt lat="47.27518" lon="-2.4865">
        <ele>149.80000305176</ele>
        <time>2019-11-14T10:45:30.000Z</time>
      </trkpt>
      <trkpt lat="47.27509" lon="-2.48632">
        <ele>149.80000305176</ele>
        <time>2019-11-14T10:45:34.000Z</time>
      </trkpt>
      <trkpt lat="47.27506" lon="-2.48629">
        <ele>150.60000610352</ele>
        <time>2019-11-14T10:45:35.000Z</time>
      </trkpt>
      <trkpt lat="47.27503" lon="-2.48628">
        <ele>151</ele>
        <time>2019-11-14T10:45:36.000Z</time>
      </trkpt>
      <trkpt lat="47.27499" lon="-2.48625">
        <ele>151.39999389648</ele>
        <time>2019-11-14T10:45:37.000Z</time>
      </trkpt>
      <trkpt lat="47.27495" lon="-2.48622">
        <ele>151.80000305176</ele>
        <time>2019-11-14T10:45:38.000Z</time>
      </trkpt>
      <trkpt lat="47.27482" lon="-2.48602">
        <ele>151.80000305176</ele>
        <time>2019-11-14T10:45:43.000Z</time>
      </trkpt>
      <trkpt lat="47.27477" lon="-2.48579">
        <ele>151.80000305176</ele>
        <time>2019-11-14T10:45:48.000Z</time>
      </trkpt>
      <trkpt lat="47.27473" lon="-2.48559">
        <ele>151.80000305176</ele>
        <time>2019-11-14T10:45:53.000Z</time>
      </trkpt>
      <trkpt lat="47.27469" lon="-2.48537">
        <ele>151.80000305176</ele>
        <time>2019-11-14T10:45:57.000Z</time>
      </trkpt>
      <trkpt lat="47.27469" lon="-2.4853">
        <ele>151.80000305176</ele>
        <time>2019-11-14T10:45:58.000Z</time>
      </trkpt>
      <trkpt lat="47.27467" lon="-2.485">
        <ele>151.80000305176</ele>
        <time>2019-11-14T10:46:02.000Z</time>
      </trkpt>
      <trkpt lat="47.27467" lon="-2.48485">
        <ele>151.80000305176</ele>
        <time>2019-11-14T10:46:04.000Z</time>
      </trkpt>
      <trkpt lat="47.27459" lon="-2.48434">
        <ele>151.80000305176</ele>
        <time>2019-11-14T10:46:11.000Z</time>
      </trkpt>
      <trkpt lat="47.27456" lon="-2.4842">
        <ele>151.39999389648</ele>
        <time>2019-11-14T10:46:13.000Z</time>
      </trkpt>
      <trkpt lat="47.27454" lon="-2.48413">
        <ele>151</ele>
        <time>2019-11-14T10:46:14.000Z</time>
      </trkpt>
      <trkpt lat="47.27452" lon="-2.48406">
        <ele>150.60000610352</ele>
        <time>2019-11-14T10:46:15.000Z</time>
      </trkpt>
      <trkpt lat="47.2745" lon="-2.48399">
        <ele>150.19999694824</ele>
        <time>2019-11-14T10:46:16.000Z</time>
      </trkpt>
      <trkpt lat="47.27447" lon="-2.48393">
        <ele>149.80000305176</ele>
        <time>2019-11-14T10:46:17.000Z</time>
      </trkpt>
      <trkpt lat="47.27438" lon="-2.48356">
        <ele>149.80000305176</ele>
        <time>2019-11-14T10:46:23.000Z</time>
      </trkpt>
      <trkpt lat="47.27438" lon="-2.48352">
        <ele>149.80000305176</ele>
        <time>2019-11-14T10:46:24.000Z</time>
      </trkpt>
      <trkpt lat="47.27447" lon="-2.48342">
        <ele>149.80000305176</ele>
        <time>2019-11-14T10:46:27.000Z</time>
      </trkpt>
      <trkpt lat="47.27464" lon="-2.48325">
        <ele>149.80000305176</ele>
        <time>2019-11-14T10:46:32.000Z</time>
      </trkpt>
      <trkpt lat="47.27472" lon="-2.48317">
        <ele>149.80000305176</ele>
        <time>2019-11-14T10:46:34.000Z</time>
      </trkpt>
      <trkpt lat="47.27485" lon="-2.4831">
        <ele>149.80000305176</ele>
        <time>2019-11-14T10:46:37.000Z</time>
      </trkpt>
      <trkpt lat="47.27497" lon="-2.483">
        <ele>149.80000305176</ele>
        <time>2019-11-14T10:46:40.000Z</time>
      </trkpt>
      <trkpt lat="47.2751" lon="-2.48291">
        <ele>149.80000305176</ele>
        <time>2019-11-14T10:46:43.000Z</time>
      </trkpt>
      <trkpt lat="47.27527" lon="-2.48274">
        <ele>149.80000305176</ele>
        <time>2019-11-14T10:46:49.000Z</time>
      </trkpt>
      <trkpt lat="47.27531" lon="-2.4827">
        <ele>150.19999694824</ele>
        <time>2019-11-14T10:46:51.000Z</time>
      </trkpt>
      <trkpt lat="47.27532" lon="-2.48269">
        <ele>150.60000610352</ele>
        <time>2019-11-14T10:46:52.000Z</time>
      </trkpt>
      <trkpt lat="47.27533" lon="-2.48268">
        <ele>151</ele>
        <time>2019-11-14T10:46:53.000Z</time>
      </trkpt>
      <trkpt lat="47.27535" lon="-2.48266">
        <ele>151.39999389648</ele>
        <time>2019-11-14T10:46:54.000Z</time>
      </trkpt>
      <trkpt lat="47.27537" lon="-2.48263">
        <ele>151.80000305176</ele>
        <time>2019-11-14T10:46:55.000Z</time>
      </trkpt>
      <trkpt lat="47.27541" lon="-2.48258">
        <ele>151.80000305176</ele>
        <time>2019-11-14T10:46:57.000Z</time>
      </trkpt>
      <trkpt lat="47.27548" lon="-2.48255">
        <ele>151.80000305176</ele>
        <time>2019-11-14T10:46:59.000Z</time>
      </trkpt>
      <trkpt lat="47.27568" lon="-2.48245">
        <ele>151.80000305176</ele>
        <time>2019-11-14T10:47:05.000Z</time>
      </trkpt>
      <trkpt lat="47.27584" lon="-2.48234">
        <ele>151.80000305176</ele>
        <time>2019-11-14T10:47:10.000Z</time>
      </trkpt>
      <trkpt lat="47.27587" lon="-2.48228">
        <ele>151.80000305176</ele>
        <time>2019-11-14T10:47:11.000Z</time>
      </trkpt>
      <trkpt lat="47.27599" lon="-2.48218">
        <ele>151.80000305176</ele>
        <time>2019-11-14T10:47:14.000Z</time>
      </trkpt>
      <trkpt lat="47.27603" lon="-2.48212">
        <ele>151.80000305176</ele>
        <time>2019-11-14T10:47:15.000Z</time>
      </trkpt>
      <trkpt lat="47.27613" lon="-2.48197">
        <ele>151.80000305176</ele>
        <time>2019-11-14T10:47:18.000Z</time>
      </trkpt>
      <trkpt lat="47.27627" lon="-2.48198">
        <ele>151.80000305176</ele>
        <time>2019-11-14T10:47:21.000Z</time>
      </trkpt>
      <trkpt lat="47.27638" lon="-2.4821">
        <ele>151.80000305176</ele>
        <time>2019-11-14T10:47:24.000Z</time>
      </trkpt>
      <trkpt lat="47.27641" lon="-2.48215">
        <ele>151.80000305176</ele>
        <time>2019-11-14T10:47:25.000Z</time>
      </trkpt>
      <trkpt lat="47.27642" lon="-2.48219">
        <ele>152.19999694824</ele>
        <time>2019-11-14T10:47:26.000Z</time>
      </trkpt>
      <trkpt lat="47.27641" lon="-2.48224">
        <ele>152.60000610352</ele>
        <time>2019-11-14T10:47:27.000Z</time>
      </trkpt>
      <trkpt lat="47.27639" lon="-2.48228">
        <ele>153.19999694824</ele>
        <time>2019-11-14T10:47:28.000Z</time>
      </trkpt>
      <trkpt lat="47.27638" lon="-2.48234">
        <ele>153.60000610352</ele>
        <time>2019-11-14T10:47:29.000Z</time>
      </trkpt>
      <trkpt lat="47.27639" lon="-2.48239">
        <ele>154</ele>
        <time>2019-11-14T10:47:30.000Z</time>
      </trkpt>
      <trkpt lat="47.27641" lon="-2.48248">
        <ele>154</ele>
        <time>2019-11-14T10:47:32.000Z</time>
      </trkpt>
      <trkpt lat="47.27643" lon="-2.48253">
        <ele>154</ele>
        <time>2019-11-14T10:47:33.000Z</time>
      </trkpt>
      <trkpt lat="47.27648" lon="-2.48269">
        <ele>154</ele>
        <time>2019-11-14T10:47:36.000Z</time>
      </trkpt>
      <trkpt lat="47.27649" lon="-2.48276">
        <ele>154</ele>
        <time>2019-11-14T10:47:37.000Z</time>
      </trkpt>
      <trkpt lat="47.27652" lon="-2.48289">
        <ele>154.80000305176</ele>
        <time>2019-11-14T10:47:39.000Z</time>
      </trkpt>
      <trkpt lat="47.27655" lon="-2.48293">
        <ele>155.19999694824</ele>
        <time>2019-11-14T10:47:40.000Z</time>
      </trkpt>
      <trkpt lat="47.27659" lon="-2.48296">
        <ele>155.60000610352</ele>
        <time>2019-11-14T10:47:41.000Z</time>
      </trkpt>
      <trkpt lat="47.27663" lon="-2.48299">
        <ele>156</ele>
        <time>2019-11-14T10:47:42.000Z</time>
      </trkpt>
      <trkpt lat="47.27666" lon="-2.48302">
        <ele>156</ele>
        <time>2019-11-14T10:47:43.000Z</time>
      </trkpt>
      <trkpt lat="47.27672" lon="-2.48301">
        <ele>156</ele>
        <time>2019-11-14T10:47:46.000Z</time>
      </trkpt>
      <trkpt lat="47.27675" lon="-2.48294">
        <ele>156.39999389648</ele>
        <time>2019-11-14T10:47:49.000Z</time>
      </trkpt>
      <trkpt lat="47.27676" lon="-2.4829">
        <ele>156.80000305176</ele>
        <time>2019-11-14T10:47:50.000Z</time>
      </trkpt>
      <trkpt lat="47.27677" lon="-2.48286">
        <ele>157.39999389648</ele>
        <time>2019-11-14T10:47:51.000Z</time>
      </trkpt>
      <trkpt lat="47.27677" lon="-2.48282">
        <ele>157.80000305176</ele>
        <time>2019-11-14T10:47:52.000Z</time>
      </trkpt>
      <trkpt lat="47.27679" lon="-2.48278">
        <ele>158.19999694824</ele>
        <time>2019-11-14T10:47:53.000Z</time>
      </trkpt>
      <trkpt lat="47.27681" lon="-2.48279">
        <ele>158.19999694824</ele>
        <time>2019-11-14T10:47:54.000Z</time>
      </trkpt>
      <trkpt lat="47.27682" lon="-2.48279">
        <ele>158.19999694824</ele>
        <time>2019-11-14T10:47:55.000Z</time>
      </trkpt>
      <trkpt lat="47.27688" lon="-2.48291">
        <ele>158.19999694824</ele>
        <time>2019-11-14T10:47:59.000Z</time>
      </trkpt>
      <trkpt lat="47.2769" lon="-2.48292">
        <ele>158.60000610352</ele>
        <time>2019-11-14T10:48:00.000Z</time>
      </trkpt>
      <trkpt lat="47.27692" lon="-2.48294">
        <ele>159</ele>
        <time>2019-11-14T10:48:01.000Z</time>
      </trkpt>
      <trkpt lat="47.27692" lon="-2.48294">
        <ele>159.39999389648</ele>
        <time>2019-11-14T10:48:02.000Z</time>
      </trkpt>
      <trkpt lat="47.27693" lon="-2.48291">
        <ele>159.80000305176</ele>
        <time>2019-11-14T10:48:03.000Z</time>
      </trkpt>
      <trkpt lat="47.27694" lon="-2.48288">
        <ele>160.39999389648</ele>
        <time>2019-11-14T10:48:04.000Z</time>
      </trkpt>
      <trkpt lat="47.27696" lon="-2.48287">
        <ele>160.39999389648</ele>
        <time>2019-11-14T10:48:05.000Z</time>
      </trkpt>
      <trkpt lat="47.27701" lon="-2.48276">
        <ele>160.39999389648</ele>
        <time>2019-11-14T10:48:08.000Z</time>
      </trkpt>
      <trkpt lat="47.27705" lon="-2.48275">
        <ele>160.39999389648</ele>
        <time>2019-11-14T10:48:09.000Z</time>
      </trkpt>
      <trkpt lat="47.27708" lon="-2.48273">
        <ele>160.80000305176</ele>
        <time>2019-11-14T10:48:11.000Z</time>
      </trkpt>
      <trkpt lat="47.27709" lon="-2.48272">
        <ele>161.19999694824</ele>
        <time>2019-11-14T10:48:12.000Z</time>
      </trkpt>
      <trkpt lat="47.2771" lon="-2.48271">
        <ele>161.60000610352</ele>
        <time>2019-11-14T10:48:13.000Z</time>
      </trkpt>
      <trkpt lat="47.2773" lon="-2.48274">
        <ele>162.39999389648</ele>
        <time>2019-11-14T10:48:30.000Z</time>
      </trkpt>
      <trkpt lat="47.27735" lon="-2.48268">
        <ele>162.39999389648</ele>
        <time>2019-11-14T10:48:33.000Z</time>
      </trkpt>
      <trkpt lat="47.27744" lon="-2.48263">
        <ele>162.39999389648</ele>
        <time>2019-11-14T10:48:38.000Z</time>
      </trkpt>
      <trkpt lat="47.27748" lon="-2.48264">
        <ele>162.80000305176</ele>
        <time>2019-11-14T10:48:40.000Z</time>
      </trkpt>
      <trkpt lat="47.2775" lon="-2.48261">
        <ele>163.19999694824</ele>
        <time>2019-11-14T10:48:41.000Z</time>
      </trkpt>
      <trkpt lat="47.27751" lon="-2.48257">
        <ele>163.60000610352</ele>
        <time>2019-11-14T10:48:42.000Z</time>
      </trkpt>
      <trkpt lat="47.27749" lon="-2.48254">
        <ele>164</ele>
        <time>2019-11-14T10:48:43.000Z</time>
      </trkpt>
      <trkpt lat="47.27748" lon="-2.48252">
        <ele>164.39999389648</ele>
        <time>2019-11-14T10:48:44.000Z</time>
      </trkpt>
      <trkpt lat="47.27746" lon="-2.48249">
        <ele>164.39999389648</ele>
        <time>2019-11-14T10:48:45.000Z</time>
      </trkpt>
      <trkpt lat="47.27741" lon="-2.4824">
        <ele>164.39999389648</ele>
        <time>2019-11-14T10:48:48.000Z</time>
      </trkpt>
      <trkpt lat="47.27737" lon="-2.4823">
        <ele>164.39999389648</ele>
        <time>2019-11-14T10:48:51.000Z</time>
      </trkpt>
      <trkpt lat="47.27739" lon="-2.48212">
        <ele>164.39999389648</ele>
        <time>2019-11-14T10:48:56.000Z</time>
      </trkpt>
      <trkpt lat="47.27739" lon="-2.48191">
        <ele>164.39999389648</ele>
        <time>2019-11-14T10:49:02.000Z</time>
      </trkpt>
      <trkpt lat="47.27741" lon="-2.48175">
        <ele>164.39999389648</ele>
        <time>2019-11-14T10:49:07.000Z</time>
      </trkpt>
      <trkpt lat="47.27741" lon="-2.48172">
        <ele>164.39999389648</ele>
        <time>2019-11-14T10:49:08.000Z</time>
      </trkpt>
      <trkpt lat="47.27744" lon="-2.48164">
        <ele>164.39999389648</ele>
        <time>2019-11-14T10:49:12.000Z</time>
      </trkpt>
      <trkpt lat="47.27743" lon="-2.4816">
        <ele>164.39999389648</ele>
        <time>2019-11-14T10:49:14.000Z</time>
      </trkpt>
      <trkpt lat="47.27742" lon="-2.48153">
        <ele>164.39999389648</ele>
        <time>2019-11-14T10:49:17.000Z</time>
      </trkpt>
      <trkpt lat="47.27741" lon="-2.4814">
        <ele>164.39999389648</ele>
        <time>2019-11-14T10:49:23.000Z</time>
      </trkpt>
      <trkpt lat="47.2774" lon="-2.48132">
        <ele>164.39999389648</ele>
        <time>2019-11-14T10:49:28.000Z</time>
      </trkpt>
      <trkpt lat="47.27738" lon="-2.4813">
        <ele>164.39999389648</ele>
        <time>2019-11-14T10:49:30.000Z</time>
      </trkpt>
      <trkpt lat="47.27733" lon="-2.48128">
        <ele>164.39999389648</ele>
        <time>2019-11-14T10:49:33.000Z</time>
      </trkpt>
      <trkpt lat="47.2773" lon="-2.48119">
        <ele>164.39999389648</ele>
        <time>2019-11-14T10:49:36.000Z</time>
      </trkpt>
      <trkpt lat="47.27727" lon="-2.48115">
        <ele>164.39999389648</ele>
        <time>2019-11-14T10:49:38.000Z</time>
      </trkpt>
      <trkpt lat="47.27717" lon="-2.48102">
        <ele>164</ele>
        <time>2019-11-14T10:49:42.000Z</time>
      </trkpt>
      <trkpt lat="47.27715" lon="-2.481">
        <ele>163.60000610352</ele>
        <time>2019-11-14T10:49:43.000Z</time>
      </trkpt>
      <trkpt lat="47.27711" lon="-2.48095">
        <ele>163.19999694824</ele>
        <time>2019-11-14T10:49:44.000Z</time>
      </trkpt>
      <trkpt lat="47.27709" lon="-2.48092">
        <ele>162.80000305176</ele>
        <time>2019-11-14T10:49:45.000Z</time>
      </trkpt>
      <trkpt lat="47.27707" lon="-2.4809">
        <ele>162.39999389648</ele>
        <time>2019-11-14T10:49:46.000Z</time>
      </trkpt>
      <trkpt lat="47.27706" lon="-2.48087">
        <ele>162.39999389648</ele>
        <time>2019-11-14T10:49:47.000Z</time>
      </trkpt>
      <trkpt lat="47.27698" lon="-2.48071">
        <ele>162.39999389648</ele>
        <time>2019-11-14T10:49:51.000Z</time>
      </trkpt>
      <trkpt lat="47.277" lon="-2.48067">
        <ele>162.39999389648</ele>
        <time>2019-11-14T10:49:52.000Z</time>
      </trkpt>
      <trkpt lat="47.27698" lon="-2.48056">
        <ele>162.39999389648</ele>
        <time>2019-11-14T10:49:54.000Z</time>
      </trkpt>
      <trkpt lat="47.27696" lon="-2.48044">
        <ele>162.39999389648</ele>
        <time>2019-11-14T10:49:56.000Z</time>
      </trkpt>
      <trkpt lat="47.2769" lon="-2.48022">
        <ele>162.39999389648</ele>
        <time>2019-11-14T10:50:00.000Z</time>
      </trkpt>
      <trkpt lat="47.2768" lon="-2.47982">
        <ele>162.39999389648</ele>
        <time>2019-11-14T10:50:07.000Z</time>
      </trkpt>
      <trkpt lat="47.27677" lon="-2.4797">
        <ele>162.39999389648</ele>
        <time>2019-11-14T10:50:09.000Z</time>
      </trkpt>
      <trkpt lat="47.27672" lon="-2.47937">
        <ele>162.39999389648</ele>
        <time>2019-11-14T10:50:13.000Z</time>
      </trkpt>
      <trkpt lat="47.2766" lon="-2.47881">
        <ele>162.39999389648</ele>
        <time>2019-11-14T10:50:19.000Z</time>
      </trkpt>
      <trkpt lat="47.27658" lon="-2.47872">
        <ele>162.80000305176</ele>
        <time>2019-11-14T10:50:20.000Z</time>
      </trkpt>
      <trkpt lat="47.27655" lon="-2.47863">
        <ele>163.19999694824</ele>
        <time>2019-11-14T10:50:21.000Z</time>
      </trkpt>
      <trkpt lat="47.27653" lon="-2.47853">
        <ele>163.60000610352</ele>
        <time>2019-11-14T10:50:22.000Z</time>
      </trkpt>
      <trkpt lat="47.27651" lon="-2.47845">
        <ele>164</ele>
        <time>2019-11-14T10:50:23.000Z</time>
      </trkpt>
      <trkpt lat="47.27649" lon="-2.47836">
        <ele>164.60000610352</ele>
        <time>2019-11-14T10:50:24.000Z</time>
      </trkpt>
      <trkpt lat="47.27648" lon="-2.47827">
        <ele>164.60000610352</ele>
        <time>2019-11-14T10:50:25.000Z</time>
      </trkpt>
      <trkpt lat="47.27641" lon="-2.47792">
        <ele>164.60000610352</ele>
        <time>2019-11-14T10:50:30.000Z</time>
      </trkpt>
      <trkpt lat="47.27641" lon="-2.47787">
        <ele>165.39999389648</ele>
        <time>2019-11-14T10:50:31.000Z</time>
      </trkpt>
      <trkpt lat="47.2764" lon="-2.47782">
        <ele>165.80000305176</ele>
        <time>2019-11-14T10:50:32.000Z</time>
      </trkpt>
      <trkpt lat="47.27639" lon="-2.47778">
        <ele>166.19999694824</ele>
        <time>2019-11-14T10:50:33.000Z</time>
      </trkpt>
      <trkpt lat="47.27639" lon="-2.47774">
        <ele>166.60000610352</ele>
        <time>2019-11-14T10:50:34.000Z</time>
      </trkpt>
      <trkpt lat="47.27637" lon="-2.4777">
        <ele>166.60000610352</ele>
        <time>2019-11-14T10:50:35.000Z</time>
      </trkpt>
      <trkpt lat="47.27633" lon="-2.47755">
        <ele>167</ele>
        <time>2019-11-14T10:50:39.000Z</time>
      </trkpt>
      <trkpt lat="47.27632" lon="-2.47751">
        <ele>167.39999389648</ele>
        <time>2019-11-14T10:50:40.000Z</time>
      </trkpt>
      <trkpt lat="47.27631" lon="-2.47747">
        <ele>167.80000305176</ele>
        <time>2019-11-14T10:50:41.000Z</time>
      </trkpt>
      <trkpt lat="47.2763" lon="-2.47743">
        <ele>168.19999694824</ele>
        <time>2019-11-14T10:50:42.000Z</time>
      </trkpt>
      <trkpt lat="47.27629" lon="-2.47739">
        <ele>168.60000610352</ele>
        <time>2019-11-14T10:50:43.000Z</time>
      </trkpt>
      <trkpt lat="47.27627" lon="-2.47719">
        <ele>168.60000610352</ele>
        <time>2019-11-14T10:50:48.000Z</time>
      </trkpt>
      <trkpt lat="47.27622" lon="-2.47709">
        <ele>168.60000610352</ele>
        <time>2019-11-14T10:50:51.000Z</time>
      </trkpt>
      <trkpt lat="47.27619" lon="-2.47708">
        <ele>168.60000610352</ele>
        <time>2019-11-14T10:50:52.000Z</time>
      </trkpt>
      <trkpt lat="47.276" lon="-2.47714">
        <ele>168.60000610352</ele>
        <time>2019-11-14T10:50:57.000Z</time>
      </trkpt>
      <trkpt lat="47.27591" lon="-2.4772">
        <ele>168.60000610352</ele>
        <time>2019-11-14T10:50:59.000Z</time>
      </trkpt>
      <trkpt lat="47.27587" lon="-2.47722">
        <ele>169</ele>
        <time>2019-11-14T10:51:00.000Z</time>
      </trkpt>
      <trkpt lat="47.27582" lon="-2.47725">
        <ele>169.39999389648</ele>
        <time>2019-11-14T10:51:01.000Z</time>
      </trkpt>
      <trkpt lat="47.27578" lon="-2.47727">
        <ele>169.80000305176</ele>
        <time>2019-11-14T10:51:02.000Z</time>
      </trkpt>
      <trkpt lat="47.27573" lon="-2.47729">
        <ele>170.19999694824</ele>
        <time>2019-11-14T10:51:03.000Z</time>
      </trkpt>
      <trkpt lat="47.27569" lon="-2.47732">
        <ele>170.80000305176</ele>
        <time>2019-11-14T10:51:04.000Z</time>
      </trkpt>
      <trkpt lat="47.27542" lon="-2.47744">
        <ele>170.80000305176</ele>
        <time>2019-11-14T10:51:10.000Z</time>
      </trkpt>
      <trkpt lat="47.2752" lon="-2.47762">
        <ele>170.80000305176</ele>
        <time>2019-11-14T10:51:16.000Z</time>
      </trkpt>
      <trkpt lat="47.27504" lon="-2.47776">
        <ele>170.80000305176</ele>
        <time>2019-11-14T10:51:20.000Z</time>
      </trkpt>
      <trkpt lat="47.27497" lon="-2.47784">
        <ele>170.80000305176</ele>
        <time>2019-11-14T10:51:22.000Z</time>
      </trkpt>
      <trkpt lat="47.27489" lon="-2.47793">
        <ele>170.80000305176</ele>
        <time>2019-11-14T10:51:24.000Z</time>
      </trkpt>
      <trkpt lat="47.27477" lon="-2.47806">
        <ele>170.80000305176</ele>
        <time>2019-11-14T10:51:28.000Z</time>
      </trkpt>
      <trkpt lat="47.27474" lon="-2.47808">
        <ele>170.80000305176</ele>
        <time>2019-11-14T10:51:29.000Z</time>
      </trkpt>
      <trkpt lat="47.27467" lon="-2.47805">
        <ele>170.80000305176</ele>
        <time>2019-11-14T10:51:31.000Z</time>
      </trkpt>
      <trkpt lat="47.27459" lon="-2.47791">
        <ele>170.80000305176</ele>
        <time>2019-11-14T10:51:34.000Z</time>
      </trkpt>
      <trkpt lat="47.27454" lon="-2.4778">
        <ele>170.80000305176</ele>
        <time>2019-11-14T10:51:36.000Z</time>
      </trkpt>
      <trkpt lat="47.27442" lon="-2.47758">
        <ele>170.80000305176</ele>
        <time>2019-11-14T10:51:40.000Z</time>
      </trkpt>
      <trkpt lat="47.2744" lon="-2.47753">
        <ele>170.80000305176</ele>
        <time>2019-11-14T10:51:41.000Z</time>
      </trkpt>
      <trkpt lat="47.2744" lon="-2.47743">
        <ele>170.80000305176</ele>
        <time>2019-11-14T10:51:44.000Z</time>
      </trkpt>
      <trkpt lat="47.2744" lon="-2.47725">
        <ele>170.80000305176</ele>
        <time>2019-11-14T10:51:48.000Z</time>
      </trkpt>
      <trkpt lat="47.2744" lon="-2.47713">
        <ele>170.80000305176</ele>
        <time>2019-11-14T10:51:50.000Z</time>
      </trkpt>
      <trkpt lat="47.27439" lon="-2.47688">
        <ele>170.80000305176</ele>
        <time>2019-11-14T10:51:54.000Z</time>
      </trkpt>
      <trkpt lat="47.2743" lon="-2.47676">
        <ele>170.80000305176</ele>
        <time>2019-11-14T10:51:57.000Z</time>
      </trkpt>
      <trkpt lat="47.2742" lon="-2.47677">
        <ele>170.19999694824</ele>
        <time>2019-11-14T10:51:59.000Z</time>
      </trkpt>
      <trkpt lat="47.27416" lon="-2.47677">
        <ele>169.80000305176</ele>
        <time>2019-11-14T10:52:00.000Z</time>
      </trkpt>
      <trkpt lat="47.27411" lon="-2.47676">
        <ele>169.39999389648</ele>
        <time>2019-11-14T10:52:01.000Z</time>
      </trkpt>
      <trkpt lat="47.27406" lon="-2.47675">
        <ele>169</ele>
        <time>2019-11-14T10:52:02.000Z</time>
      </trkpt>
      <trkpt lat="47.27402" lon="-2.47672">
        <ele>168.60000610352</ele>
        <time>2019-11-14T10:52:03.000Z</time>
      </trkpt>
      <trkpt lat="47.27397" lon="-2.47669">
        <ele>168.60000610352</ele>
        <time>2019-11-14T10:52:04.000Z</time>
      </trkpt>
      <trkpt lat="47.27392" lon="-2.47666">
        <ele>168.60000610352</ele>
        <time>2019-11-14T10:52:05.000Z</time>
      </trkpt>
      <trkpt lat="47.27364" lon="-2.47645">
        <ele>168.60000610352</ele>
        <time>2019-11-14T10:52:11.000Z</time>
      </trkpt>
      <trkpt lat="47.27342" lon="-2.47622">
        <ele>168.60000610352</ele>
        <time>2019-11-14T10:52:17.000Z</time>
      </trkpt>
      <trkpt lat="47.27333" lon="-2.47614">
        <ele>168.60000610352</ele>
        <time>2019-11-14T10:52:20.000Z</time>
      </trkpt>
      <trkpt lat="47.27331" lon="-2.47615">
        <ele>168.60000610352</ele>
        <time>2019-11-14T10:52:21.000Z</time>
      </trkpt>
      <trkpt lat="47.27324" lon="-2.47617">
        <ele>168.60000610352</ele>
        <time>2019-11-14T10:52:24.000Z</time>
      </trkpt>
      <trkpt lat="47.27318" lon="-2.47609">
        <ele>168.60000610352</ele>
        <time>2019-11-14T10:52:27.000Z</time>
      </trkpt>
      <trkpt lat="47.27313" lon="-2.47601">
        <ele>168.60000610352</ele>
        <time>2019-11-14T10:52:29.000Z</time>
      </trkpt>
      <trkpt lat="47.27306" lon="-2.4759">
        <ele>168.60000610352</ele>
        <time>2019-11-14T10:52:33.000Z</time>
      </trkpt>
      <trkpt lat="47.27302" lon="-2.47586">
        <ele>167.80000305176</ele>
        <time>2019-11-14T10:52:35.000Z</time>
      </trkpt>
      <trkpt lat="47.27301" lon="-2.47584">
        <ele>167.19999694824</ele>
        <time>2019-11-14T10:52:36.000Z</time>
      </trkpt>
      <trkpt lat="47.27302" lon="-2.47581">
        <ele>166.80000305176</ele>
        <time>2019-11-14T10:52:37.000Z</time>
      </trkpt>
      <trkpt lat="47.27303" lon="-2.47579">
        <ele>166.39999389648</ele>
        <time>2019-11-14T10:52:38.000Z</time>
      </trkpt>
      <trkpt lat="47.27307" lon="-2.47574">
        <ele>166.39999389648</ele>
        <time>2019-11-14T10:52:40.000Z</time>
      </trkpt>
      <trkpt lat="47.27304" lon="-2.47564">
        <ele>166.39999389648</ele>
        <time>2019-11-14T10:52:43.000Z</time>
      </trkpt>
      <trkpt lat="47.27299" lon="-2.47555">
        <ele>166.39999389648</ele>
        <time>2019-11-14T10:52:45.000Z</time>
      </trkpt>
      <trkpt lat="47.27297" lon="-2.4755">
        <ele>166.39999389648</ele>
        <time>2019-11-14T10:52:46.000Z</time>
      </trkpt>
      <trkpt lat="47.27292" lon="-2.47538">
        <ele>166.39999389648</ele>
        <time>2019-11-14T10:52:48.000Z</time>
      </trkpt>
      <trkpt lat="47.27288" lon="-2.47518">
        <ele>166.39999389648</ele>
        <time>2019-11-14T10:52:51.000Z</time>
      </trkpt>
      <trkpt lat="47.27284" lon="-2.47504">
        <ele>166.39999389648</ele>
        <time>2019-11-14T10:52:53.000Z</time>
      </trkpt>
      <trkpt lat="47.27282" lon="-2.47498">
        <ele>166.39999389648</ele>
        <time>2019-11-14T10:52:54.000Z</time>
      </trkpt>
      <trkpt lat="47.27279" lon="-2.47486">
        <ele>166.39999389648</ele>
        <time>2019-11-14T10:52:56.000Z</time>
      </trkpt>
      <trkpt lat="47.27273" lon="-2.47457">
        <ele>166.39999389648</ele>
        <time>2019-11-14T10:53:00.000Z</time>
      </trkpt>
      <trkpt lat="47.2727" lon="-2.47444">
        <ele>166.39999389648</ele>
        <time>2019-11-14T10:53:02.000Z</time>
      </trkpt>
      <trkpt lat="47.27269" lon="-2.4743">
        <ele>166.39999389648</ele>
        <time>2019-11-14T10:53:04.000Z</time>
      </trkpt>
      <trkpt lat="47.27269" lon="-2.47423">
        <ele>166.39999389648</ele>
        <time>2019-11-14T10:53:05.000Z</time>
      </trkpt>
      <trkpt lat="47.27273" lon="-2.4741">
        <ele>166.39999389648</ele>
        <time>2019-11-14T10:53:07.000Z</time>
      </trkpt>
      <trkpt lat="47.27279" lon="-2.47399">
        <ele>166.39999389648</ele>
        <time>2019-11-14T10:53:09.000Z</time>
      </trkpt>
      <trkpt lat="47.27282" lon="-2.47394">
        <ele>166.39999389648</ele>
        <time>2019-11-14T10:53:10.000Z</time>
      </trkpt>
      <trkpt lat="47.27285" lon="-2.4739">
        <ele>166.80000305176</ele>
        <time>2019-11-14T10:53:11.000Z</time>
      </trkpt>
      <trkpt lat="47.27288" lon="-2.47385">
        <ele>167.19999694824</ele>
        <time>2019-11-14T10:53:12.000Z</time>
      </trkpt>
      <trkpt lat="47.2729" lon="-2.47381">
        <ele>167.60000610352</ele>
        <time>2019-11-14T10:53:13.000Z</time>
      </trkpt>
      <trkpt lat="47.27292" lon="-2.47375">
        <ele>168</ele>
        <time>2019-11-14T10:53:14.000Z</time>
      </trkpt>
      <trkpt lat="47.27293" lon="-2.47369">
        <ele>168.39999389648</ele>
        <time>2019-11-14T10:53:15.000Z</time>
      </trkpt>
      <trkpt lat="47.27294" lon="-2.47362">
        <ele>168.39999389648</ele>
        <time>2019-11-14T10:53:16.000Z</time>
      </trkpt>
      <trkpt lat="47.27296" lon="-2.47335">
        <ele>168.39999389648</ele>
        <time>2019-11-14T10:53:21.000Z</time>
      </trkpt>
      <trkpt lat="47.27298" lon="-2.47331">
        <ele>168.80000305176</ele>
        <time>2019-11-14T10:53:22.000Z</time>
      </trkpt>
      <trkpt lat="47.273" lon="-2.47327">
        <ele>169.19999694824</ele>
        <time>2019-11-14T10:53:23.000Z</time>
      </trkpt>
      <trkpt lat="47.27303" lon="-2.47324">
        <ele>169.60000610352</ele>
        <time>2019-11-14T10:53:24.000Z</time>
      </trkpt>
      <trkpt lat="47.27306" lon="-2.47322">
        <ele>170.39999389648</ele>
        <time>2019-11-14T10:53:25.000Z</time>
      </trkpt>
      <trkpt lat="47.2731" lon="-2.47319">
        <ele>170.39999389648</ele>
        <time>2019-11-14T10:53:26.000Z</time>
      </trkpt>
      <trkpt lat="47.27322" lon="-2.4731">
        <ele>170.39999389648</ele>
        <time>2019-11-14T10:53:30.000Z</time>
      </trkpt>
      <trkpt lat="47.27325" lon="-2.47307">
        <ele>170.39999389648</ele>
        <time>2019-11-14T10:53:31.000Z</time>
      </trkpt>
      <trkpt lat="47.27329" lon="-2.47304">
        <ele>170.80000305176</ele>
        <time>2019-11-14T10:53:32.000Z</time>
      </trkpt>
      <trkpt lat="47.27334" lon="-2.47303">
        <ele>171.19999694824</ele>
        <time>2019-11-14T10:53:33.000Z</time>
      </trkpt>
      <trkpt lat="47.2734" lon="-2.47302">
        <ele>171.60000610352</ele>
        <time>2019-11-14T10:53:34.000Z</time>
      </trkpt>
      <trkpt lat="47.27345" lon="-2.473">
        <ele>172</ele>
        <time>2019-11-14T10:53:35.000Z</time>
      </trkpt>
      <trkpt lat="47.2735" lon="-2.47298">
        <ele>172.39999389648</ele>
        <time>2019-11-14T10:53:36.000Z</time>
      </trkpt>
      <trkpt lat="47.27354" lon="-2.47295">
        <ele>172.39999389648</ele>
        <time>2019-11-14T10:53:37.000Z</time>
      </trkpt>
      <trkpt lat="47.27369" lon="-2.47285">
        <ele>172.39999389648</ele>
        <time>2019-11-14T10:53:40.000Z</time>
      </trkpt>
      <trkpt lat="47.2738" lon="-2.47271">
        <ele>172.39999389648</ele>
        <time>2019-11-14T10:53:43.000Z</time>
      </trkpt>
      <trkpt lat="47.27389" lon="-2.47264">
        <ele>172.39999389648</ele>
        <time>2019-11-14T10:53:45.000Z</time>
      </trkpt>
      <trkpt lat="47.27407" lon="-2.47251">
        <ele>172.39999389648</ele>
        <time>2019-11-14T10:53:49.000Z</time>
      </trkpt>
      <trkpt lat="47.27416" lon="-2.47245">
        <ele>172</ele>
        <time>2019-11-14T10:53:51.000Z</time>
      </trkpt>
      <trkpt lat="47.27421" lon="-2.47242">
        <ele>171.60000610352</ele>
        <time>2019-11-14T10:53:52.000Z</time>
      </trkpt>
      <trkpt lat="47.27426" lon="-2.47239">
        <ele>171.19999694824</ele>
        <time>2019-11-14T10:53:53.000Z</time>
      </trkpt>
      <trkpt lat="47.2743" lon="-2.47237">
        <ele>170.80000305176</ele>
        <time>2019-11-14T10:53:54.000Z</time>
      </trkpt>
      <trkpt lat="47.27435" lon="-2.47234">
        <ele>170.39999389648</ele>
        <time>2019-11-14T10:53:55.000Z</time>
      </trkpt>
      <trkpt lat="47.2744" lon="-2.47231">
        <ele>170.39999389648</ele>
        <time>2019-11-14T10:53:56.000Z</time>
      </trkpt>
      <trkpt lat="47.27449" lon="-2.47224">
        <ele>170.39999389648</ele>
        <time>2019-11-14T10:53:58.000Z</time>
      </trkpt>
      <trkpt lat="47.27459" lon="-2.47217">
        <ele>170</ele>
        <time>2019-11-14T10:54:00.000Z</time>
      </trkpt>
      <trkpt lat="47.27464" lon="-2.47213">
        <ele>169.60000610352</ele>
        <time>2019-11-14T10:54:01.000Z</time>
      </trkpt>
      <trkpt lat="47.27469" lon="-2.47209">
        <ele>169.19999694824</ele>
        <time>2019-11-14T10:54:02.000Z</time>
      </trkpt>
      <trkpt lat="47.27474" lon="-2.47206">
        <ele>168.80000305176</ele>
        <time>2019-11-14T10:54:03.000Z</time>
      </trkpt>
      <trkpt lat="47.27479" lon="-2.47204">
        <ele>168.39999389648</ele>
        <time>2019-11-14T10:54:04.000Z</time>
      </trkpt>
      <trkpt lat="47.27484" lon="-2.47202">
        <ele>168.39999389648</ele>
        <time>2019-11-14T10:54:05.000Z</time>
      </trkpt>
      <trkpt lat="47.27494" lon="-2.47197">
        <ele>168.39999389648</ele>
        <time>2019-11-14T10:54:07.000Z</time>
      </trkpt>
      <trkpt lat="47.27502" lon="-2.47189">
        <ele>168.39999389648</ele>
        <time>2019-11-14T10:54:09.000Z</time>
      </trkpt>
      <trkpt lat="47.27502" lon="-2.47169">
        <ele>168.39999389648</ele>
        <time>2019-11-14T10:54:12.000Z</time>
      </trkpt>
      <trkpt lat="47.27496" lon="-2.47155">
        <ele>168.39999389648</ele>
        <time>2019-11-14T10:54:14.000Z</time>
      </trkpt>
      <trkpt lat="47.27488" lon="-2.47132">
        <ele>168.39999389648</ele>
        <time>2019-11-14T10:54:17.000Z</time>
      </trkpt>
      <trkpt lat="47.27477" lon="-2.47092">
        <ele>168.39999389648</ele>
        <time>2019-11-14T10:54:22.000Z</time>
      </trkpt>
      <trkpt lat="47.27484" lon="-2.4707">
        <ele>168.39999389648</ele>
        <time>2019-11-14T10:54:25.000Z</time>
      </trkpt>
      <trkpt lat="47.27494" lon="-2.47058">
        <ele>168.39999389648</ele>
        <time>2019-11-14T10:54:27.000Z</time>
      </trkpt>
      <trkpt lat="47.2751" lon="-2.47041">
        <ele>168.39999389648</ele>
        <time>2019-11-14T10:54:30.000Z</time>
      </trkpt>
      <trkpt lat="47.2753" lon="-2.47016">
        <ele>168.39999389648</ele>
        <time>2019-11-14T10:54:34.000Z</time>
      </trkpt>
      <trkpt lat="47.27537" lon="-2.47003">
        <ele>168.39999389648</ele>
        <time>2019-11-14T10:54:36.000Z</time>
      </trkpt>
      <trkpt lat="47.27546" lon="-2.46985">
        <ele>168.39999389648</ele>
        <time>2019-11-14T10:54:39.000Z</time>
      </trkpt>
      <trkpt lat="47.27554" lon="-2.46978">
        <ele>168.39999389648</ele>
        <time>2019-11-14T10:54:41.000Z</time>
      </trkpt>
      <trkpt lat="47.27569" lon="-2.4698">
        <ele>168.39999389648</ele>
        <time>2019-11-14T10:54:44.000Z</time>
      </trkpt>
      <trkpt lat="47.27573" lon="-2.46983">
        <ele>168.39999389648</ele>
        <time>2019-11-14T10:54:45.000Z</time>
      </trkpt>
      <trkpt lat="47.27582" lon="-2.46988">
        <ele>168.39999389648</ele>
        <time>2019-11-14T10:54:47.000Z</time>
      </trkpt>
      <trkpt lat="47.27587" lon="-2.4699">
        <ele>168.39999389648</ele>
        <time>2019-11-14T10:54:48.000Z</time>
      </trkpt>
      <trkpt lat="47.27601" lon="-2.46991">
        <ele>168.39999389648</ele>
        <time>2019-11-14T10:54:52.000Z</time>
      </trkpt>
      <trkpt lat="47.27604" lon="-2.46991">
        <ele>168.80000305176</ele>
        <time>2019-11-14T10:54:53.000Z</time>
      </trkpt>
      <trkpt lat="47.27606" lon="-2.46992">
        <ele>169.19999694824</ele>
        <time>2019-11-14T10:54:54.000Z</time>
      </trkpt>
      <trkpt lat="47.2761" lon="-2.46992">
        <ele>169.60000610352</ele>
        <time>2019-11-14T10:54:55.000Z</time>
      </trkpt>
      <trkpt lat="47.27613" lon="-2.46992">
        <ele>170</ele>
        <time>2019-11-14T10:54:56.000Z</time>
      </trkpt>
      <trkpt lat="47.27616" lon="-2.46991">
        <ele>170.39999389648</ele>
        <time>2019-11-14T10:54:57.000Z</time>
      </trkpt>
      <trkpt lat="47.27627" lon="-2.4699">
        <ele>170.39999389648</ele>
        <time>2019-11-14T10:55:00.000Z</time>
      </trkpt>
      <trkpt lat="47.27632" lon="-2.4699">
        <ele>170.39999389648</ele>
        <time>2019-11-14T10:55:01.000Z</time>
      </trkpt>
      <trkpt lat="47.27657" lon="-2.46993">
        <ele>170.39999389648</ele>
        <time>2019-11-14T10:55:06.000Z</time>
      </trkpt>
      <trkpt lat="47.27663" lon="-2.4699">
        <ele>170.80000305176</ele>
        <time>2019-11-14T10:55:08.000Z</time>
      </trkpt>
      <trkpt lat="47.27665" lon="-2.46986">
        <ele>171.19999694824</ele>
        <time>2019-11-14T10:55:09.000Z</time>
      </trkpt>
      <trkpt lat="47.27666" lon="-2.46982">
        <ele>171.60000610352</ele>
        <time>2019-11-14T10:55:10.000Z</time>
      </trkpt>
      <trkpt lat="47.27667" lon="-2.46977">
        <ele>172</ele>
        <time>2019-11-14T10:55:11.000Z</time>
      </trkpt>
      <trkpt lat="47.27667" lon="-2.46971">
        <ele>172.39999389648</ele>
        <time>2019-11-14T10:55:12.000Z</time>
      </trkpt>
      <trkpt lat="47.27667" lon="-2.46963">
        <ele>172.39999389648</ele>
        <time>2019-11-14T10:55:13.000Z</time>
      </trkpt>
      <trkpt lat="47.27668" lon="-2.46943">
        <ele>172.39999389648</ele>
        <time>2019-11-14T10:55:16.000Z</time>
      </trkpt>
      <trkpt lat="47.27671" lon="-2.46932">
        <ele>172.39999389648</ele>
        <time>2019-11-14T10:55:18.000Z</time>
      </trkpt>
      <trkpt lat="47.27682" lon="-2.46933">
        <ele>172.39999389648</ele>
        <time>2019-11-14T10:55:21.000Z</time>
      </trkpt>
      <trkpt lat="47.27687" lon="-2.46934">
        <ele>172.39999389648</ele>
        <time>2019-11-14T10:55:22.000Z</time>
      </trkpt>
      <trkpt lat="47.27701" lon="-2.46937">
        <ele>172.39999389648</ele>
        <time>2019-11-14T10:55:25.000Z</time>
      </trkpt>
      <trkpt lat="47.27706" lon="-2.46937">
        <ele>172.39999389648</ele>
        <time>2019-11-14T10:55:26.000Z</time>
      </trkpt>
      <trkpt lat="47.27721" lon="-2.46936">
        <ele>172.39999389648</ele>
        <time>2019-11-14T10:55:29.000Z</time>
      </trkpt>
      <trkpt lat="47.27757" lon="-2.46933">
        <ele>172.80000305176</ele>
        <time>2019-11-14T10:55:36.000Z</time>
      </trkpt>
      <trkpt lat="47.27762" lon="-2.46932">
        <ele>173.39999389648</ele>
        <time>2019-11-14T10:55:37.000Z</time>
      </trkpt>
      <trkpt lat="47.27765" lon="-2.46931">
        <ele>173.80000305176</ele>
        <time>2019-11-14T10:55:38.000Z</time>
      </trkpt>
      <trkpt lat="47.27767" lon="-2.46927">
        <ele>174.19999694824</ele>
        <time>2019-11-14T10:55:39.000Z</time>
      </trkpt>
      <trkpt lat="47.27768" lon="-2.46923">
        <ele>174.60000610352</ele>
        <time>2019-11-14T10:55:40.000Z</time>
      </trkpt>
      <trkpt lat="47.27769" lon="-2.46912">
        <ele>174.60000610352</ele>
        <time>2019-11-14T10:55:42.000Z</time>
      </trkpt>
      <trkpt lat="47.27777" lon="-2.46891">
        <ele>174.60000610352</ele>
        <time>2019-11-14T10:55:45.000Z</time>
      </trkpt>
      <trkpt lat="47.27779" lon="-2.46882">
        <ele>174.60000610352</ele>
        <time>2019-11-14T10:55:46.000Z</time>
      </trkpt>
      <trkpt lat="47.27783" lon="-2.46855">
        <ele>174.60000610352</ele>
        <time>2019-11-14T10:55:49.000Z</time>
      </trkpt>
      <trkpt lat="47.27782" lon="-2.46825">
        <ele>174.60000610352</ele>
        <time>2019-11-14T10:55:52.000Z</time>
      </trkpt>
      <trkpt lat="47.27779" lon="-2.46815">
        <ele>174.60000610352</ele>
        <time>2019-11-14T10:55:53.000Z</time>
      </trkpt>
      <trkpt lat="47.27774" lon="-2.46798">
        <ele>175</ele>
        <time>2019-11-14T10:55:55.000Z</time>
      </trkpt>
      <trkpt lat="47.27772" lon="-2.46789">
        <ele>175.39999389648</ele>
        <time>2019-11-14T10:55:56.000Z</time>
      </trkpt>
      <trkpt lat="47.2777" lon="-2.4678">
        <ele>175.80000305176</ele>
        <time>2019-11-14T10:55:57.000Z</time>
      </trkpt>
      <trkpt lat="47.27768" lon="-2.46771">
        <ele>176.19999694824</ele>
        <time>2019-11-14T10:55:58.000Z</time>
      </trkpt>
      <trkpt lat="47.27766" lon="-2.46763">
        <ele>176.60000610352</ele>
        <time>2019-11-14T10:55:59.000Z</time>
      </trkpt>
      <trkpt lat="47.27759" lon="-2.4674">
        <ele>176.60000610352</ele>
        <time>2019-11-14T10:56:02.000Z</time>
      </trkpt>
      <trkpt lat="47.27757" lon="-2.46726">
        <ele>176.60000610352</ele>
        <time>2019-11-14T10:56:04.000Z</time>
      </trkpt>
      <trkpt lat="47.27757" lon="-2.46712">
        <ele>176.60000610352</ele>
        <time>2019-11-14T10:56:06.000Z</time>
      </trkpt>
      <trkpt lat="47.27758" lon="-2.46705">
        <ele>176.60000610352</ele>
        <time>2019-11-14T10:56:07.000Z</time>
      </trkpt>
      <trkpt lat="47.27761" lon="-2.46686">
        <ele>176.60000610352</ele>
        <time>2019-11-14T10:56:10.000Z</time>
      </trkpt>
      <trkpt lat="47.27761" lon="-2.46679">
        <ele>176.60000610352</ele>
        <time>2019-11-14T10:56:11.000Z</time>
      </trkpt>
      <trkpt lat="47.27761" lon="-2.46673">
        <ele>176.60000610352</ele>
        <time>2019-11-14T10:56:12.000Z</time>
      </trkpt>
      <trkpt lat="47.27762" lon="-2.4666">
        <ele>176.60000610352</ele>
        <time>2019-11-14T10:56:14.000Z</time>
      </trkpt>
      <trkpt lat="47.27763" lon="-2.46642">
        <ele>176.60000610352</ele>
        <time>2019-11-14T10:56:17.000Z</time>
      </trkpt>
      <trkpt lat="47.27761" lon="-2.46637">
        <ele>176.60000610352</ele>
        <time>2019-11-14T10:56:18.000Z</time>
      </trkpt>
      <trkpt lat="47.2776" lon="-2.46617">
        <ele>176.60000610352</ele>
        <time>2019-11-14T10:56:22.000Z</time>
      </trkpt>
      <trkpt lat="47.27762" lon="-2.46605">
        <ele>176.60000610352</ele>
        <time>2019-11-14T10:56:25.000Z</time>
      </trkpt>
      <trkpt lat="47.27756" lon="-2.46587">
        <ele>176.60000610352</ele>
        <time>2019-11-14T10:56:28.000Z</time>
      </trkpt>
      <trkpt lat="47.27753" lon="-2.46582">
        <ele>176.60000610352</ele>
        <time>2019-11-14T10:56:29.000Z</time>
      </trkpt>
      <trkpt lat="47.27748" lon="-2.46569">
        <ele>176.60000610352</ele>
        <time>2019-11-14T10:56:31.000Z</time>
      </trkpt>
      <trkpt lat="47.27741" lon="-2.46548">
        <ele>176.60000610352</ele>
        <time>2019-11-14T10:56:34.000Z</time>
      </trkpt>
      <trkpt lat="47.27734" lon="-2.46516">
        <ele>176.60000610352</ele>
        <time>2019-11-14T10:56:38.000Z</time>
      </trkpt>
      <trkpt lat="47.27731" lon="-2.46499">
        <ele>176.60000610352</ele>
        <time>2019-11-14T10:56:40.000Z</time>
      </trkpt>
      <trkpt lat="47.27714" lon="-2.46448">
        <ele>176.60000610352</ele>
        <time>2019-11-14T10:56:46.000Z</time>
      </trkpt>
      <trkpt lat="47.27707" lon="-2.46433">
        <ele>176.60000610352</ele>
        <time>2019-11-14T10:56:48.000Z</time>
      </trkpt>
      <trkpt lat="47.27697" lon="-2.46411">
        <ele>176.60000610352</ele>
        <time>2019-11-14T10:56:51.000Z</time>
      </trkpt>
      <trkpt lat="47.27695" lon="-2.46404">
        <ele>176.60000610352</ele>
        <time>2019-11-14T10:56:52.000Z</time>
      </trkpt>
      <trkpt lat="47.27681" lon="-2.46365">
        <ele>176.60000610352</ele>
        <time>2019-11-14T10:56:58.000Z</time>
      </trkpt>
      <trkpt lat="47.27679" lon="-2.46357">
        <ele>176.19999694824</ele>
        <time>2019-11-14T10:56:59.000Z</time>
      </trkpt>
      <trkpt lat="47.27677" lon="-2.46351">
        <ele>175.80000305176</ele>
        <time>2019-11-14T10:57:00.000Z</time>
      </trkpt>
      <trkpt lat="47.27675" lon="-2.46344">
        <ele>175.39999389648</ele>
        <time>2019-11-14T10:57:01.000Z</time>
      </trkpt>
      <trkpt lat="47.27674" lon="-2.46337">
        <ele>175</ele>
        <time>2019-11-14T10:57:02.000Z</time>
      </trkpt>
      <trkpt lat="47.27673" lon="-2.46331">
        <ele>174.39999389648</ele>
        <time>2019-11-14T10:57:03.000Z</time>
      </trkpt>
      <trkpt lat="47.27672" lon="-2.46318">
        <ele>174.39999389648</ele>
        <time>2019-11-14T10:57:05.000Z</time>
      </trkpt>
      <trkpt lat="47.2767" lon="-2.46312">
        <ele>174.39999389648</ele>
        <time>2019-11-14T10:57:06.000Z</time>
      </trkpt>
      <trkpt lat="47.27662" lon="-2.46296">
        <ele>174.39999389648</ele>
        <time>2019-11-14T10:57:09.000Z</time>
      </trkpt>
      <trkpt lat="47.27659" lon="-2.46276">
        <ele>174.39999389648</ele>
        <time>2019-11-14T10:57:13.000Z</time>
      </trkpt>
      <trkpt lat="47.27665" lon="-2.46268">
        <ele>174.39999389648</ele>
        <time>2019-11-14T10:57:15.000Z</time>
      </trkpt>
      <trkpt lat="47.2767" lon="-2.46258">
        <ele>174.39999389648</ele>
        <time>2019-11-14T10:57:17.000Z</time>
      </trkpt>
      <trkpt lat="47.27671" lon="-2.46251">
        <ele>174.39999389648</ele>
        <time>2019-11-14T10:57:18.000Z</time>
      </trkpt>
      <trkpt lat="47.27668" lon="-2.46216">
        <ele>174.39999389648</ele>
        <time>2019-11-14T10:57:23.000Z</time>
      </trkpt>
      <trkpt lat="47.27666" lon="-2.46186">
        <ele>174.39999389648</ele>
        <time>2019-11-14T10:57:27.000Z</time>
      </trkpt>
      <trkpt lat="47.27667" lon="-2.46163">
        <ele>174.39999389648</ele>
        <time>2019-11-14T10:57:30.000Z</time>
      </trkpt>
      <trkpt lat="47.27666" lon="-2.46155">
        <ele>174.39999389648</ele>
        <time>2019-11-14T10:57:31.000Z</time>
      </trkpt>
      <trkpt lat="47.27665" lon="-2.4614">
        <ele>174.39999389648</ele>
        <time>2019-11-14T10:57:33.000Z</time>
      </trkpt>
      <trkpt lat="47.27664" lon="-2.46133">
        <ele>174.39999389648</ele>
        <time>2019-11-14T10:57:34.000Z</time>
      </trkpt>
      <trkpt lat="47.27662" lon="-2.46125">
        <ele>174.39999389648</ele>
        <time>2019-11-14T10:57:35.000Z</time>
      </trkpt>
      <trkpt lat="47.27658" lon="-2.46105">
        <ele>174.39999389648</ele>
        <time>2019-11-14T10:57:38.000Z</time>
      </trkpt>
      <trkpt lat="47.27657" lon="-2.46098">
        <ele>174.39999389648</ele>
        <time>2019-11-14T10:57:39.000Z</time>
      </trkpt>
      <trkpt lat="47.27654" lon="-2.46086">
        <ele>174.39999389648</ele>
        <time>2019-11-14T10:57:41.000Z</time>
      </trkpt>
      <trkpt lat="47.27652" lon="-2.46075">
        <ele>174.39999389648</ele>
        <time>2019-11-14T10:57:43.000Z</time>
      </trkpt>
      <trkpt lat="47.27645" lon="-2.46037">
        <ele>174.39999389648</ele>
        <time>2019-11-14T10:57:49.000Z</time>
      </trkpt>
      <trkpt lat="47.2764" lon="-2.46007">
        <ele>174.39999389648</ele>
        <time>2019-11-14T10:57:53.000Z</time>
      </trkpt>
      <trkpt lat="47.27638" lon="-2.4599">
        <ele>174.39999389648</ele>
        <time>2019-11-14T10:57:55.000Z</time>
      </trkpt>
      <trkpt lat="47.27637" lon="-2.45974">
        <ele>174.39999389648</ele>
        <time>2019-11-14T10:57:57.000Z</time>
      </trkpt>
      <trkpt lat="47.27638" lon="-2.45957">
        <ele>174.39999389648</ele>
        <time>2019-11-14T10:57:59.000Z</time>
      </trkpt>
      <trkpt lat="47.27639" lon="-2.45948">
        <ele>174.39999389648</ele>
        <time>2019-11-14T10:58:00.000Z</time>
      </trkpt>
      <trkpt lat="47.27638" lon="-2.45908">
        <ele>174.39999389648</ele>
        <time>2019-11-14T10:58:05.000Z</time>
      </trkpt>
      <trkpt lat="47.2764" lon="-2.45875">
        <ele>174.39999389648</ele>
        <time>2019-11-14T10:58:10.000Z</time>
      </trkpt>
      <trkpt lat="47.27641" lon="-2.45824">
        <ele>174.39999389648</ele>
        <time>2019-11-14T10:58:17.000Z</time>
      </trkpt>
      <trkpt lat="47.2764" lon="-2.4579">
        <ele>175</ele>
        <time>2019-11-14T10:58:22.000Z</time>
      </trkpt>
      <trkpt lat="47.27639" lon="-2.45783">
        <ele>175.39999389648</ele>
        <time>2019-11-14T10:58:23.000Z</time>
      </trkpt>
      <trkpt lat="47.27639" lon="-2.45775">
        <ele>175.80000305176</ele>
        <time>2019-11-14T10:58:24.000Z</time>
      </trkpt>
      <trkpt lat="47.27639" lon="-2.45768">
        <ele>176.19999694824</ele>
        <time>2019-11-14T10:58:25.000Z</time>
      </trkpt>
      <trkpt lat="47.27638" lon="-2.45761">
        <ele>176.60000610352</ele>
        <time>2019-11-14T10:58:26.000Z</time>
      </trkpt>
      <trkpt lat="47.27638" lon="-2.45747">
        <ele>176.60000610352</ele>
        <time>2019-11-14T10:58:28.000Z</time>
      </trkpt>
      <trkpt lat="47.27636" lon="-2.45734">
        <ele>176.60000610352</ele>
        <time>2019-11-14T10:58:30.000Z</time>
      </trkpt>
      <trkpt lat="47.2763" lon="-2.45712">
        <ele>176.60000610352</ele>
        <time>2019-11-14T10:58:34.000Z</time>
      </trkpt>
      <trkpt lat="47.27624" lon="-2.45706">
        <ele>176.60000610352</ele>
        <time>2019-11-14T10:58:36.000Z</time>
      </trkpt>
      <trkpt lat="47.27621" lon="-2.45706">
        <ele>176.60000610352</ele>
        <time>2019-11-14T10:58:37.000Z</time>
      </trkpt>
      <trkpt lat="47.27598" lon="-2.45714">
        <ele>176.60000610352</ele>
        <time>2019-11-14T10:58:42.000Z</time>
      </trkpt>
      <trkpt lat="47.27593" lon="-2.45716">
        <ele>176.60000610352</ele>
        <time>2019-11-14T10:58:43.000Z</time>
      </trkpt>
      <trkpt lat="47.2758" lon="-2.45719">
        <ele>176.60000610352</ele>
        <time>2019-11-14T10:58:46.000Z</time>
      </trkpt>
      <trkpt lat="47.27575" lon="-2.45721">
        <ele>176.60000610352</ele>
        <time>2019-11-14T10:58:47.000Z</time>
      </trkpt>
      <trkpt lat="47.27562" lon="-2.45728">
        <ele>177</ele>
        <time>2019-11-14T10:58:50.000Z</time>
      </trkpt>
      <trkpt lat="47.27557" lon="-2.45729">
        <ele>177.39999389648</ele>
        <time>2019-11-14T10:58:51.000Z</time>
      </trkpt>
      <trkpt lat="47.27553" lon="-2.45731">
        <ele>177.80000305176</ele>
        <time>2019-11-14T10:58:52.000Z</time>
      </trkpt>
      <trkpt lat="47.27549" lon="-2.45732">
        <ele>178.19999694824</ele>
        <time>2019-11-14T10:58:53.000Z</time>
      </trkpt>
      <trkpt lat="47.27545" lon="-2.45734">
        <ele>178.60000610352</ele>
        <time>2019-11-14T10:58:54.000Z</time>
      </trkpt>
      <trkpt lat="47.27513" lon="-2.45743">
        <ele>178.60000610352</ele>
        <time>2019-11-14T10:59:02.000Z</time>
      </trkpt>
      <trkpt lat="47.27484" lon="-2.45754">
        <ele>178.60000610352</ele>
        <time>2019-11-14T10:59:10.000Z</time>
      </trkpt>
      <trkpt lat="47.27452" lon="-2.45764">
        <ele>178.60000610352</ele>
        <time>2019-11-14T10:59:16.000Z</time>
      </trkpt>
      <trkpt lat="47.27413" lon="-2.45771">
        <ele>178.60000610352</ele>
        <time>2019-11-14T10:59:23.000Z</time>
      </trkpt>
      <trkpt lat="47.27402" lon="-2.45772">
        <ele>178.19999694824</ele>
        <time>2019-11-14T10:59:25.000Z</time>
      </trkpt>
      <trkpt lat="47.27397" lon="-2.45773">
        <ele>177.80000305176</ele>
        <time>2019-11-14T10:59:26.000Z</time>
      </trkpt>
      <trkpt lat="47.27392" lon="-2.45773">
        <ele>177.39999389648</ele>
        <time>2019-11-14T10:59:27.000Z</time>
      </trkpt>
      <trkpt lat="47.27387" lon="-2.45774">
        <ele>177</ele>
        <time>2019-11-14T10:59:28.000Z</time>
      </trkpt>
      <trkpt lat="47.27382" lon="-2.45774">
        <ele>176.39999389648</ele>
        <time>2019-11-14T10:59:29.000Z</time>
      </trkpt>
      <trkpt lat="47.27373" lon="-2.45774">
        <ele>176.39999389648</ele>
        <time>2019-11-14T10:59:31.000Z</time>
      </trkpt>
      <trkpt lat="47.27369" lon="-2.45766">
        <ele>176.39999389648</ele>
        <time>2019-11-14T10:59:33.000Z</time>
      </trkpt>
      <trkpt lat="47.27356" lon="-2.45725">
        <ele>176.39999389648</ele>
        <time>2019-11-14T10:59:39.000Z</time>
      </trkpt>
      <trkpt lat="47.27336" lon="-2.45672">
        <ele>176.39999389648</ele>
        <time>2019-11-14T10:59:46.000Z</time>
      </trkpt>
      <trkpt lat="47.27334" lon="-2.45664">
        <ele>176</ele>
        <time>2019-11-14T10:59:47.000Z</time>
      </trkpt>
      <trkpt lat="47.27331" lon="-2.45657">
        <ele>175.60000610352</ele>
        <time>2019-11-14T10:59:48.000Z</time>
      </trkpt>
      <trkpt lat="47.27329" lon="-2.45649">
        <ele>175.19999694824</ele>
        <time>2019-11-14T10:59:49.000Z</time>
      </trkpt>
      <trkpt lat="47.27327" lon="-2.45641">
        <ele>174.80000305176</ele>
        <time>2019-11-14T10:59:50.000Z</time>
      </trkpt>
      <trkpt lat="47.27324" lon="-2.45634">
        <ele>174.39999389648</ele>
        <time>2019-11-14T10:59:51.000Z</time>
      </trkpt>
      <trkpt lat="47.27319" lon="-2.45619">
        <ele>174.39999389648</ele>
        <time>2019-11-14T10:59:53.000Z</time>
      </trkpt>
      <trkpt lat="47.27314" lon="-2.45608">
        <ele>174.39999389648</ele>
        <time>2019-11-14T10:59:55.000Z</time>
      </trkpt>
      <trkpt lat="47.27309" lon="-2.456">
        <ele>174.39999389648</ele>
        <time>2019-11-14T10:59:57.000Z</time>
      </trkpt>
      <trkpt lat="47.27303" lon="-2.45584">
        <ele>174.39999389648</ele>
        <time>2019-11-14T11:00:02.000Z</time>
      </trkpt>
      <trkpt lat="47.27294" lon="-2.45565">
        <ele>174.39999389648</ele>
        <time>2019-11-14T11:00:08.000Z</time>
      </trkpt>
      <trkpt lat="47.27293" lon="-2.4556">
        <ele>174</ele>
        <time>2019-11-14T11:00:10.000Z</time>
      </trkpt>
      <trkpt lat="47.27293" lon="-2.45558">
        <ele>173.60000610352</ele>
        <time>2019-11-14T11:00:11.000Z</time>
      </trkpt>
      <trkpt lat="47.27292" lon="-2.45555">
        <ele>173.19999694824</ele>
        <time>2019-11-14T11:00:12.000Z</time>
      </trkpt>
      <trkpt lat="47.27292" lon="-2.45553">
        <ele>172.80000305176</ele>
        <time>2019-11-14T11:00:13.000Z</time>
      </trkpt>
      <trkpt lat="47.27291" lon="-2.45551">
        <ele>172.39999389648</ele>
        <time>2019-11-14T11:00:14.000Z</time>
      </trkpt>
      <trkpt lat="47.2729" lon="-2.45546">
        <ele>172.39999389648</ele>
        <time>2019-11-14T11:00:16.000Z</time>
      </trkpt>
      <trkpt lat="47.27285" lon="-2.45532">
        <ele>172</ele>
        <time>2019-11-14T11:00:21.000Z</time>
      </trkpt>
      <trkpt lat="47.27284" lon="-2.45529">
        <ele>171.60000610352</ele>
        <time>2019-11-14T11:00:22.000Z</time>
      </trkpt>
      <trkpt lat="47.27283" lon="-2.45526">
        <ele>171.19999694824</ele>
        <time>2019-11-14T11:00:23.000Z</time>
      </trkpt>
      <trkpt lat="47.27282" lon="-2.45524">
        <ele>170.39999389648</ele>
        <time>2019-11-14T11:00:24.000Z</time>
      </trkpt>
      <trkpt lat="47.27277" lon="-2.45511">
        <ele>170.39999389648</ele>
        <time>2019-11-14T11:00:28.000Z</time>
      </trkpt>
      <trkpt lat="47.27273" lon="-2.45504">
        <ele>169.80000305176</ele>
        <time>2019-11-14T11:00:30.000Z</time>
      </trkpt>
      <trkpt lat="47.27272" lon="-2.45501">
        <ele>169.39999389648</ele>
        <time>2019-11-14T11:00:31.000Z</time>
      </trkpt>
      <trkpt lat="47.2727" lon="-2.45499">
        <ele>169</ele>
        <time>2019-11-14T11:00:32.000Z</time>
      </trkpt>
      <trkpt lat="47.27268" lon="-2.45496">
        <ele>168.60000610352</ele>
        <time>2019-11-14T11:00:33.000Z</time>
      </trkpt>
      <trkpt lat="47.27266" lon="-2.45494">
        <ele>168.19999694824</ele>
        <time>2019-11-14T11:00:34.000Z</time>
      </trkpt>
      <trkpt lat="47.27255" lon="-2.45478">
        <ele>168.19999694824</ele>
        <time>2019-11-14T11:00:41.000Z</time>
      </trkpt>
      <trkpt lat="47.27252" lon="-2.45473">
        <ele>167.80000305176</ele>
        <time>2019-11-14T11:00:44.000Z</time>
      </trkpt>
      <trkpt lat="47.27251" lon="-2.45471">
        <ele>167.19999694824</ele>
        <time>2019-11-14T11:00:45.000Z</time>
      </trkpt>
      <trkpt lat="47.2725" lon="-2.45469">
        <ele>166.80000305176</ele>
        <time>2019-11-14T11:00:46.000Z</time>
      </trkpt>
      <trkpt lat="47.27248" lon="-2.45467">
        <ele>166.39999389648</ele>
        <time>2019-11-14T11:00:47.000Z</time>
      </trkpt>
      <trkpt lat="47.27247" lon="-2.45464">
        <ele>166</ele>
        <time>2019-11-14T11:00:48.000Z</time>
      </trkpt>
      <trkpt lat="47.27245" lon="-2.45462">
        <ele>166</ele>
        <time>2019-11-14T11:00:49.000Z</time>
      </trkpt>
      <trkpt lat="47.2724" lon="-2.45454">
        <ele>165.60000610352</ele>
        <time>2019-11-14T11:00:53.000Z</time>
      </trkpt>
      <trkpt lat="47.27239" lon="-2.45453">
        <ele>165.19999694824</ele>
        <time>2019-11-14T11:00:54.000Z</time>
      </trkpt>
      <trkpt lat="47.27237" lon="-2.45451">
        <ele>164.80000305176</ele>
        <time>2019-11-14T11:00:55.000Z</time>
      </trkpt>
      <trkpt lat="47.27235" lon="-2.4545">
        <ele>164.39999389648</ele>
        <time>2019-11-14T11:00:56.000Z</time>
      </trkpt>
      <trkpt lat="47.27234" lon="-2.45449">
        <ele>164</ele>
        <time>2019-11-14T11:00:57.000Z</time>
      </trkpt>
      <trkpt lat="47.27225" lon="-2.45441">
        <ele>164</ele>
        <time>2019-11-14T11:01:02.000Z</time>
      </trkpt>
      <trkpt lat="47.27223" lon="-2.4544">
        <ele>163.39999389648</ele>
        <time>2019-11-14T11:01:03.000Z</time>
      </trkpt>
      <trkpt lat="47.27223" lon="-2.45438">
        <ele>163</ele>
        <time>2019-11-14T11:01:04.000Z</time>
      </trkpt>
      <trkpt lat="47.27221" lon="-2.45437">
        <ele>162.60000610352</ele>
        <time>2019-11-14T11:01:05.000Z</time>
      </trkpt>
      <trkpt lat="47.2722" lon="-2.45436">
        <ele>162.19999694824</ele>
        <time>2019-11-14T11:01:06.000Z</time>
      </trkpt>
      <trkpt lat="47.27218" lon="-2.45435">
        <ele>161.80000305176</ele>
        <time>2019-11-14T11:01:07.000Z</time>
      </trkpt>
      <trkpt lat="47.27208" lon="-2.45427">
        <ele>161.80000305176</ele>
        <time>2019-11-14T11:01:13.000Z</time>
      </trkpt>
      <trkpt lat="47.27206" lon="-2.45424">
        <ele>161.80000305176</ele>
        <time>2019-11-14T11:01:15.000Z</time>
      </trkpt>
      <trkpt lat="47.27204" lon="-2.45423">
        <ele>161.39999389648</ele>
        <time>2019-11-14T11:01:16.000Z</time>
      </trkpt>
      <trkpt lat="47.27203" lon="-2.45422">
        <ele>161</ele>
        <time>2019-11-14T11:01:17.000Z</time>
      </trkpt>
      <trkpt lat="47.27201" lon="-2.4542">
        <ele>160.39999389648</ele>
        <time>2019-11-14T11:01:18.000Z</time>
      </trkpt>
      <trkpt lat="47.27199" lon="-2.45419">
        <ele>160</ele>
        <time>2019-11-14T11:01:19.000Z</time>
      </trkpt>
      <trkpt lat="47.27198" lon="-2.45418">
        <ele>159.60000610352</ele>
        <time>2019-11-14T11:01:20.000Z</time>
      </trkpt>
      <trkpt lat="47.27188" lon="-2.45408">
        <ele>159.60000610352</ele>
        <time>2019-11-14T11:01:26.000Z</time>
      </trkpt>
      <trkpt lat="47.27184" lon="-2.45405">
        <ele>159.19999694824</ele>
        <time>2019-11-14T11:01:28.000Z</time>
      </trkpt>
      <trkpt lat="47.27182" lon="-2.45403">
        <ele>158.80000305176</ele>
        <time>2019-11-14T11:01:29.000Z</time>
      </trkpt>
      <trkpt lat="47.2718" lon="-2.45402">
        <ele>158.39999389648</ele>
        <time>2019-11-14T11:01:30.000Z</time>
      </trkpt>
      <trkpt lat="47.27178" lon="-2.454">
        <ele>158</ele>
        <time>2019-11-14T11:01:31.000Z</time>
      </trkpt>
      <trkpt lat="47.27176" lon="-2.45398">
        <ele>157.60000610352</ele>
        <time>2019-11-14T11:01:32.000Z</time>
      </trkpt>
      <trkpt lat="47.27174" lon="-2.45397">
        <ele>157.60000610352</ele>
        <time>2019-11-14T11:01:33.000Z</time>
      </trkpt>
      <trkpt lat="47.27162" lon="-2.45386">
        <ele>157.60000610352</ele>
        <time>2019-11-14T11:01:39.000Z</time>
      </trkpt>
      <trkpt lat="47.27158" lon="-2.45382">
        <ele>157.19999694824</ele>
        <time>2019-11-14T11:01:41.000Z</time>
      </trkpt>
      <trkpt lat="47.27156" lon="-2.4538">
        <ele>156.80000305176</ele>
        <time>2019-11-14T11:01:42.000Z</time>
      </trkpt>
      <trkpt lat="47.27154" lon="-2.45378">
        <ele>156.39999389648</ele>
        <time>2019-11-14T11:01:43.000Z</time>
      </trkpt>
      <trkpt lat="47.27152" lon="-2.45376">
        <ele>155.80000305176</ele>
        <time>2019-11-14T11:01:44.000Z</time>
      </trkpt>
      <trkpt lat="47.2715" lon="-2.45375">
        <ele>155.39999389648</ele>
        <time>2019-11-14T11:01:45.000Z</time>
      </trkpt>
      <trkpt lat="47.27148" lon="-2.45373">
        <ele>155.39999389648</ele>
        <time>2019-11-14T11:01:46.000Z</time>
      </trkpt>
      <trkpt lat="47.27134" lon="-2.45358">
        <ele>155.39999389648</ele>
        <time>2019-11-14T11:01:53.000Z</time>
      </trkpt>
      <trkpt lat="47.27124" lon="-2.45343">
        <ele>155.39999389648</ele>
        <time>2019-11-14T11:01:58.000Z</time>
      </trkpt>
      <trkpt lat="47.2712" lon="-2.45337">
        <ele>155</ele>
        <time>2019-11-14T11:02:00.000Z</time>
      </trkpt>
      <trkpt lat="47.27119" lon="-2.45334">
        <ele>154.60000610352</ele>
        <time>2019-11-14T11:02:01.000Z</time>
      </trkpt>
      <trkpt lat="47.27117" lon="-2.45331">
        <ele>153.80000305176</ele>
        <time>2019-11-14T11:02:02.000Z</time>
      </trkpt>
      <trkpt lat="47.27115" lon="-2.45328">
        <ele>153.39999389648</ele>
        <time>2019-11-14T11:02:03.000Z</time>
      </trkpt>
      <trkpt lat="47.27113" lon="-2.45325">
        <ele>153.39999389648</ele>
        <time>2019-11-14T11:02:04.000Z</time>
      </trkpt>
      <trkpt lat="47.271" lon="-2.45303">
        <ele>153.39999389648</ele>
        <time>2019-11-14T11:02:12.000Z</time>
      </trkpt>
      <trkpt lat="47.27087" lon="-2.45286">
        <ele>153.39999389648</ele>
        <time>2019-11-14T11:02:19.000Z</time>
      </trkpt>
      <trkpt lat="47.27078" lon="-2.45271">
        <ele>153.39999389648</ele>
        <time>2019-11-14T11:02:24.000Z</time>
      </trkpt>
      <trkpt lat="47.27075" lon="-2.4527">
        <ele>153</ele>
        <time>2019-11-14T11:02:25.000Z</time>
      </trkpt>
      <trkpt lat="47.27073" lon="-2.45268">
        <ele>152.60000610352</ele>
        <time>2019-11-14T11:02:26.000Z</time>
      </trkpt>
      <trkpt lat="47.2707" lon="-2.45266">
        <ele>151.80000305176</ele>
        <time>2019-11-14T11:02:27.000Z</time>
      </trkpt>
      <trkpt lat="47.27068" lon="-2.45263">
        <ele>151.39999389648</ele>
        <time>2019-11-14T11:02:28.000Z</time>
      </trkpt>
      <trkpt lat="47.27061" lon="-2.45256">
        <ele>151.39999389648</ele>
        <time>2019-11-14T11:02:31.000Z</time>
      </trkpt>
      <trkpt lat="47.27061" lon="-2.45236">
        <ele>151.39999389648</ele>
        <time>2019-11-14T11:02:35.000Z</time>
      </trkpt>
      <trkpt lat="47.27062" lon="-2.4522">
        <ele>151.39999389648</ele>
        <time>2019-11-14T11:02:38.000Z</time>
      </trkpt>
      <trkpt lat="47.27062" lon="-2.45208">
        <ele>151.39999389648</ele>
        <time>2019-11-14T11:02:40.000Z</time>
      </trkpt>
      <trkpt lat="47.27062" lon="-2.45196">
        <ele>151.39999389648</ele>
        <time>2019-11-14T11:02:42.000Z</time>
      </trkpt>
      <trkpt lat="47.27061" lon="-2.45175">
        <ele>151.39999389648</ele>
        <time>2019-11-14T11:02:45.000Z</time>
      </trkpt>
      <trkpt lat="47.27062" lon="-2.45125">
        <ele>151.39999389648</ele>
        <time>2019-11-14T11:02:52.000Z</time>
      </trkpt>
      <trkpt lat="47.27064" lon="-2.45064">
        <ele>151.39999389648</ele>
        <time>2019-11-14T11:03:00.000Z</time>
      </trkpt>
      <trkpt lat="47.27065" lon="-2.45016">
        <ele>151.39999389648</ele>
        <time>2019-11-14T11:03:06.000Z</time>
      </trkpt>
      <trkpt lat="47.27065" lon="-2.45001">
        <ele>151.39999389648</ele>
        <time>2019-11-14T11:03:08.000Z</time>
      </trkpt>
      <trkpt lat="47.2707" lon="-2.44994">
        <ele>151.39999389648</ele>
        <time>2019-11-14T11:03:10.000Z</time>
      </trkpt>
      <trkpt lat="47.2708" lon="-2.44992">
        <ele>151.39999389648</ele>
        <time>2019-11-14T11:03:12.000Z</time>
      </trkpt>
      <trkpt lat="47.27085" lon="-2.44993">
        <ele>151.39999389648</ele>
        <time>2019-11-14T11:03:13.000Z</time>
      </trkpt>
      <trkpt lat="47.27091" lon="-2.44994">
        <ele>151.80000305176</ele>
        <time>2019-11-14T11:03:14.000Z</time>
      </trkpt>
      <trkpt lat="47.27097" lon="-2.44996">
        <ele>152.19999694824</ele>
        <time>2019-11-14T11:03:15.000Z</time>
      </trkpt>
      <trkpt lat="47.27102" lon="-2.44997">
        <ele>153</ele>
        <time>2019-11-14T11:03:16.000Z</time>
      </trkpt>
      <trkpt lat="47.27108" lon="-2.44998">
        <ele>153.39999389648</ele>
        <time>2019-11-14T11:03:17.000Z</time>
      </trkpt>
      <trkpt lat="47.27135" lon="-2.44999">
        <ele>153.39999389648</ele>
        <time>2019-11-14T11:03:21.000Z</time>
      </trkpt>
      <trkpt lat="47.27155" lon="-2.44996">
        <ele>153.80000305176</ele>
        <time>2019-11-14T11:03:24.000Z</time>
      </trkpt>
      <trkpt lat="47.27162" lon="-2.44995">
        <ele>154.19999694824</ele>
        <time>2019-11-14T11:03:25.000Z</time>
      </trkpt>
      <trkpt lat="47.27169" lon="-2.44994">
        <ele>154.60000610352</ele>
        <time>2019-11-14T11:03:26.000Z</time>
      </trkpt>
      <trkpt lat="47.27176" lon="-2.44993">
        <ele>155</ele>
        <time>2019-11-14T11:03:27.000Z</time>
      </trkpt>
      <trkpt lat="47.27183" lon="-2.44992">
        <ele>155.39999389648</ele>
        <time>2019-11-14T11:03:28.000Z</time>
      </trkpt>
      <trkpt lat="47.27219" lon="-2.44984">
        <ele>155.80000305176</ele>
        <time>2019-11-14T11:03:33.000Z</time>
      </trkpt>
      <trkpt lat="47.27226" lon="-2.44982">
        <ele>156.19999694824</ele>
        <time>2019-11-14T11:03:34.000Z</time>
      </trkpt>
      <trkpt lat="47.27233" lon="-2.44979">
        <ele>156.60000610352</ele>
        <time>2019-11-14T11:03:35.000Z</time>
      </trkpt>
      <trkpt lat="47.2724" lon="-2.44977">
        <ele>157</ele>
        <time>2019-11-14T11:03:36.000Z</time>
      </trkpt>
      <trkpt lat="47.27247" lon="-2.44973">
        <ele>157.39999389648</ele>
        <time>2019-11-14T11:03:37.000Z</time>
      </trkpt>
      <trkpt lat="47.27261" lon="-2.44967">
        <ele>157.39999389648</ele>
        <time>2019-11-14T11:03:39.000Z</time>
      </trkpt>
      <trkpt lat="47.27268" lon="-2.44965">
        <ele>157.39999389648</ele>
        <time>2019-11-14T11:03:40.000Z</time>
      </trkpt>
      <trkpt lat="47.2731" lon="-2.44961">
        <ele>157.39999389648</ele>
        <time>2019-11-14T11:03:46.000Z</time>
      </trkpt>
      <trkpt lat="47.27317" lon="-2.44959">
        <ele>157.39999389648</ele>
        <time>2019-11-14T11:03:47.000Z</time>
      </trkpt>
      <trkpt lat="47.2733" lon="-2.44953">
        <ele>157.80000305176</ele>
        <time>2019-11-14T11:03:49.000Z</time>
      </trkpt>
      <trkpt lat="47.27336" lon="-2.44951">
        <ele>158.19999694824</ele>
        <time>2019-11-14T11:03:50.000Z</time>
      </trkpt>
      <trkpt lat="47.27342" lon="-2.44948">
        <ele>158.60000610352</ele>
        <time>2019-11-14T11:03:51.000Z</time>
      </trkpt>
      <trkpt lat="47.27349" lon="-2.44944">
        <ele>159</ele>
        <time>2019-11-14T11:03:52.000Z</time>
      </trkpt>
      <trkpt lat="47.27355" lon="-2.44941">
        <ele>159.39999389648</ele>
        <time>2019-11-14T11:03:53.000Z</time>
      </trkpt>
      <trkpt lat="47.27381" lon="-2.44927">
        <ele>159.39999389648</ele>
        <time>2019-11-14T11:03:57.000Z</time>
      </trkpt>
      <trkpt lat="47.2742" lon="-2.44902">
        <ele>159</ele>
        <time>2019-11-14T11:04:03.000Z</time>
      </trkpt>
      <trkpt lat="47.27426" lon="-2.44896">
        <ele>158.60000610352</ele>
        <time>2019-11-14T11:04:04.000Z</time>
      </trkpt>
      <trkpt lat="47.27431" lon="-2.4489">
        <ele>157.60000610352</ele>
        <time>2019-11-14T11:04:05.000Z</time>
      </trkpt>
      <trkpt lat="47.27437" lon="-2.44883">
        <ele>157.19999694824</ele>
        <time>2019-11-14T11:04:06.000Z</time>
      </trkpt>
      <trkpt lat="47.27447" lon="-2.44869">
        <ele>157.19999694824</ele>
        <time>2019-11-14T11:04:08.000Z</time>
      </trkpt>
      <trkpt lat="47.27457" lon="-2.44856">
        <ele>157.19999694824</ele>
        <time>2019-11-14T11:04:10.000Z</time>
      </trkpt>
      <trkpt lat="47.27476" lon="-2.44851">
        <ele>157.19999694824</ele>
        <time>2019-11-14T11:04:13.000Z</time>
      </trkpt>
      <trkpt lat="47.27483" lon="-2.44852">
        <ele>157.19999694824</ele>
        <time>2019-11-14T11:04:14.000Z</time>
      </trkpt>
      <trkpt lat="47.2749" lon="-2.44851">
        <ele>157.19999694824</ele>
        <time>2019-11-14T11:04:15.000Z</time>
      </trkpt>
      <trkpt lat="47.27503" lon="-2.44846">
        <ele>157.19999694824</ele>
        <time>2019-11-14T11:04:17.000Z</time>
      </trkpt>
      <trkpt lat="47.27514" lon="-2.44837">
        <ele>157.19999694824</ele>
        <time>2019-11-14T11:04:19.000Z</time>
      </trkpt>
      <trkpt lat="47.27531" lon="-2.44821">
        <ele>157.19999694824</ele>
        <time>2019-11-14T11:04:22.000Z</time>
      </trkpt>
      <trkpt lat="47.27537" lon="-2.44798">
        <ele>157.19999694824</ele>
        <time>2019-11-14T11:04:25.000Z</time>
      </trkpt>
      <trkpt lat="47.27533" lon="-2.44782">
        <ele>157.19999694824</ele>
        <time>2019-11-14T11:04:27.000Z</time>
      </trkpt>
      <trkpt lat="47.27529" lon="-2.44764">
        <ele>157.19999694824</ele>
        <time>2019-11-14T11:04:29.000Z</time>
      </trkpt>
      <trkpt lat="47.27516" lon="-2.44711">
        <ele>157.19999694824</ele>
        <time>2019-11-14T11:04:35.000Z</time>
      </trkpt>
      <trkpt lat="47.27514" lon="-2.44702">
        <ele>157.19999694824</ele>
        <time>2019-11-14T11:04:36.000Z</time>
      </trkpt>
      <trkpt lat="47.27501" lon="-2.44682">
        <ele>157.19999694824</ele>
        <time>2019-11-14T11:04:39.000Z</time>
      </trkpt>
      <trkpt lat="47.27479" lon="-2.44646">
        <ele>157.19999694824</ele>
        <time>2019-11-14T11:04:45.000Z</time>
      </trkpt>
      <trkpt lat="47.27462" lon="-2.44612">
        <ele>157.19999694824</ele>
        <time>2019-11-14T11:04:51.000Z</time>
      </trkpt>
      <trkpt lat="47.27456" lon="-2.44602">
        <ele>157.19999694824</ele>
        <time>2019-11-14T11:04:53.000Z</time>
      </trkpt>
      <trkpt lat="47.27452" lon="-2.44583">
        <ele>157.19999694824</ele>
        <time>2019-11-14T11:04:56.000Z</time>
      </trkpt>
      <trkpt lat="47.27451" lon="-2.44577">
        <ele>157.19999694824</ele>
        <time>2019-11-14T11:04:57.000Z</time>
      </trkpt>
      <trkpt lat="47.2745" lon="-2.44554">
        <ele>156.80000305176</ele>
        <time>2019-11-14T11:05:01.000Z</time>
      </trkpt>
      <trkpt lat="47.27449" lon="-2.44549">
        <ele>156.39999389648</ele>
        <time>2019-11-14T11:05:02.000Z</time>
      </trkpt>
      <trkpt lat="47.27449" lon="-2.44544">
        <ele>156</ele>
        <time>2019-11-14T11:05:03.000Z</time>
      </trkpt>
      <trkpt lat="47.27449" lon="-2.44539">
        <ele>155.60000610352</ele>
        <time>2019-11-14T11:05:04.000Z</time>
      </trkpt>
      <trkpt lat="47.2745" lon="-2.44534">
        <ele>155.19999694824</ele>
        <time>2019-11-14T11:05:05.000Z</time>
      </trkpt>
      <trkpt lat="47.27446" lon="-2.44519">
        <ele>155.19999694824</ele>
        <time>2019-11-14T11:05:08.000Z</time>
      </trkpt>
      <trkpt lat="47.27438" lon="-2.44495">
        <ele>155.19999694824</ele>
        <time>2019-11-14T11:05:13.000Z</time>
      </trkpt>
      <trkpt lat="47.27436" lon="-2.44456">
        <ele>155.19999694824</ele>
        <time>2019-11-14T11:05:20.000Z</time>
      </trkpt>
      <trkpt lat="47.27434" lon="-2.44418">
        <ele>155.19999694824</ele>
        <time>2019-11-14T11:05:27.000Z</time>
      </trkpt>
      <trkpt lat="47.27433" lon="-2.44406">
        <ele>155.19999694824</ele>
        <time>2019-11-14T11:05:29.000Z</time>
      </trkpt>
      <trkpt lat="47.27435" lon="-2.44394">
        <ele>155.19999694824</ele>
        <time>2019-11-14T11:05:31.000Z</time>
      </trkpt>
      <trkpt lat="47.27434" lon="-2.44388">
        <ele>155.19999694824</ele>
        <time>2019-11-14T11:05:32.000Z</time>
      </trkpt>
      <trkpt lat="47.27432" lon="-2.44366">
        <ele>155.19999694824</ele>
        <time>2019-11-14T11:05:35.000Z</time>
      </trkpt>
      <trkpt lat="47.27427" lon="-2.44331">
        <ele>155.60000610352</ele>
        <time>2019-11-14T11:05:40.000Z</time>
      </trkpt>
      <trkpt lat="47.27426" lon="-2.44325">
        <ele>156</ele>
        <time>2019-11-14T11:05:41.000Z</time>
      </trkpt>
      <trkpt lat="47.27426" lon="-2.44318">
        <ele>156.39999389648</ele>
        <time>2019-11-14T11:05:42.000Z</time>
      </trkpt>
      <trkpt lat="47.27425" lon="-2.44312">
        <ele>157</ele>
        <time>2019-11-14T11:05:43.000Z</time>
      </trkpt>
      <trkpt lat="47.27425" lon="-2.44306">
        <ele>157.39999389648</ele>
        <time>2019-11-14T11:05:44.000Z</time>
      </trkpt>
      <trkpt lat="47.27422" lon="-2.4429">
        <ele>157.39999389648</ele>
        <time>2019-11-14T11:05:47.000Z</time>
      </trkpt>
      <trkpt lat="47.27422" lon="-2.44279">
        <ele>157.39999389648</ele>
        <time>2019-11-14T11:05:49.000Z</time>
      </trkpt>
      <trkpt lat="47.27423" lon="-2.44267">
        <ele>157.39999389648</ele>
        <time>2019-11-14T11:05:51.000Z</time>
      </trkpt>
      <trkpt lat="47.2742" lon="-2.4424">
        <ele>157.39999389648</ele>
        <time>2019-11-14T11:05:56.000Z</time>
      </trkpt>
      <trkpt lat="47.27418" lon="-2.44219">
        <ele>157.80000305176</ele>
        <time>2019-11-14T11:06:00.000Z</time>
      </trkpt>
      <trkpt lat="47.27417" lon="-2.44214">
        <ele>158.19999694824</ele>
        <time>2019-11-14T11:06:01.000Z</time>
      </trkpt>
      <trkpt lat="47.27416" lon="-2.44209">
        <ele>158.60000610352</ele>
        <time>2019-11-14T11:06:02.000Z</time>
      </trkpt>
      <trkpt lat="47.27416" lon="-2.44204">
        <ele>159</ele>
        <time>2019-11-14T11:06:03.000Z</time>
      </trkpt>
      <trkpt lat="47.27415" lon="-2.44199">
        <ele>159.39999389648</ele>
        <time>2019-11-14T11:06:04.000Z</time>
      </trkpt>
      <trkpt lat="47.27411" lon="-2.4417">
        <ele>159.39999389648</ele>
        <time>2019-11-14T11:06:10.000Z</time>
      </trkpt>
      <trkpt lat="47.27409" lon="-2.44154">
        <ele>159.39999389648</ele>
        <time>2019-11-14T11:06:16.000Z</time>
      </trkpt>
      <trkpt lat="47.27409" lon="-2.44148">
        <ele>159.39999389648</ele>
        <time>2019-11-14T11:06:18.000Z</time>
      </trkpt>
      <trkpt lat="47.27413" lon="-2.44143">
        <ele>159.39999389648</ele>
        <time>2019-11-14T11:06:20.000Z</time>
      </trkpt>
      <trkpt lat="47.27421" lon="-2.44138">
        <ele>159.39999389648</ele>
        <time>2019-11-14T11:06:23.000Z</time>
      </trkpt>
      <trkpt lat="47.27429" lon="-2.44133">
        <ele>159</ele>
        <time>2019-11-14T11:06:26.000Z</time>
      </trkpt>
      <trkpt lat="47.27432" lon="-2.44131">
        <ele>158.60000610352</ele>
        <time>2019-11-14T11:06:27.000Z</time>
      </trkpt>
      <trkpt lat="47.27434" lon="-2.44129">
        <ele>158.19999694824</ele>
        <time>2019-11-14T11:06:28.000Z</time>
      </trkpt>
      <trkpt lat="47.27437" lon="-2.44128">
        <ele>157.80000305176</ele>
        <time>2019-11-14T11:06:29.000Z</time>
      </trkpt>
      <trkpt lat="47.27439" lon="-2.44126">
        <ele>157.39999389648</ele>
        <time>2019-11-14T11:06:30.000Z</time>
      </trkpt>
      <trkpt lat="47.27447" lon="-2.44119">
        <ele>156.60000610352</ele>
        <time>2019-11-14T11:06:34.000Z</time>
      </trkpt>
      <trkpt lat="47.27449" lon="-2.44118">
        <ele>156.19999694824</ele>
        <time>2019-11-14T11:06:35.000Z</time>
      </trkpt>
      <trkpt lat="47.27452" lon="-2.44117">
        <ele>155.60000610352</ele>
        <time>2019-11-14T11:06:36.000Z</time>
      </trkpt>
      <trkpt lat="47.27454" lon="-2.44115">
        <ele>155.19999694824</ele>
        <time>2019-11-14T11:06:37.000Z</time>
      </trkpt>
      <trkpt lat="47.27459" lon="-2.44111">
        <ele>154.80000305176</ele>
        <time>2019-11-14T11:06:39.000Z</time>
      </trkpt>
      <trkpt lat="47.27462" lon="-2.4411">
        <ele>154.39999389648</ele>
        <time>2019-11-14T11:06:40.000Z</time>
      </trkpt>
      <trkpt lat="47.27465" lon="-2.44109">
        <ele>154</ele>
        <time>2019-11-14T11:06:41.000Z</time>
      </trkpt>
      <trkpt lat="47.27468" lon="-2.44107">
        <ele>153.60000610352</ele>
        <time>2019-11-14T11:06:42.000Z</time>
      </trkpt>
      <trkpt lat="47.27471" lon="-2.44104">
        <ele>153.19999694824</ele>
        <time>2019-11-14T11:06:43.000Z</time>
      </trkpt>
      <trkpt lat="47.27476" lon="-2.44098">
        <ele>153.19999694824</ele>
        <time>2019-11-14T11:06:45.000Z</time>
      </trkpt>
      <trkpt lat="47.27494" lon="-2.44084">
        <ele>152.80000305176</ele>
        <time>2019-11-14T11:06:50.000Z</time>
      </trkpt>
      <trkpt lat="47.27498" lon="-2.44081">
        <ele>152.19999694824</ele>
        <time>2019-11-14T11:06:51.000Z</time>
      </trkpt>
      <trkpt lat="47.27502" lon="-2.44078">
        <ele>151.80000305176</ele>
        <time>2019-11-14T11:06:52.000Z</time>
      </trkpt>
      <trkpt lat="47.27506" lon="-2.44075">
        <ele>151.39999389648</ele>
        <time>2019-11-14T11:06:53.000Z</time>
      </trkpt>
      <trkpt lat="47.27511" lon="-2.44073">
        <ele>151</ele>
        <time>2019-11-14T11:06:54.000Z</time>
      </trkpt>
      <trkpt lat="47.27524" lon="-2.44064">
        <ele>151</ele>
        <time>2019-11-14T11:06:57.000Z</time>
      </trkpt>
      <trkpt lat="47.27533" lon="-2.44061">
        <ele>151</ele>
        <time>2019-11-14T11:06:59.000Z</time>
      </trkpt>
      <trkpt lat="47.27547" lon="-2.44057">
        <ele>151</ele>
        <time>2019-11-14T11:07:02.000Z</time>
      </trkpt>
      <trkpt lat="47.27583" lon="-2.44054">
        <ele>151</ele>
        <time>2019-11-14T11:07:09.000Z</time>
      </trkpt>
      <trkpt lat="47.27618" lon="-2.44055">
        <ele>151</ele>
        <time>2019-11-14T11:07:16.000Z</time>
      </trkpt>
      <trkpt lat="47.27633" lon="-2.44051">
        <ele>151</ele>
        <time>2019-11-14T11:07:19.000Z</time>
      </trkpt>
      <trkpt lat="47.27646" lon="-2.44049">
        <ele>151.39999389648</ele>
        <time>2019-11-14T11:07:22.000Z</time>
      </trkpt>
      <trkpt lat="47.2765" lon="-2.44049">
        <ele>152.19999694824</ele>
        <time>2019-11-14T11:07:23.000Z</time>
      </trkpt>
      <trkpt lat="47.27655" lon="-2.44049">
        <ele>152.60000610352</ele>
        <time>2019-11-14T11:07:24.000Z</time>
      </trkpt>
      <trkpt lat="47.27659" lon="-2.4405">
        <ele>153.19999694824</ele>
        <time>2019-11-14T11:07:25.000Z</time>
      </trkpt>
      <trkpt lat="47.27663" lon="-2.4405">
        <ele>153.19999694824</ele>
        <time>2019-11-14T11:07:26.000Z</time>
      </trkpt>
      <trkpt lat="47.27672" lon="-2.44048">
        <ele>153.19999694824</ele>
        <time>2019-11-14T11:07:28.000Z</time>
      </trkpt>
      <trkpt lat="47.27681" lon="-2.44045">
        <ele>153.19999694824</ele>
        <time>2019-11-14T11:07:30.000Z</time>
      </trkpt>
      <trkpt lat="47.27694" lon="-2.44041">
        <ele>153.19999694824</ele>
        <time>2019-11-14T11:07:33.000Z</time>
      </trkpt>
      <trkpt lat="47.27699" lon="-2.44039">
        <ele>153.60000610352</ele>
        <time>2019-11-14T11:07:34.000Z</time>
      </trkpt>
      <trkpt lat="47.27703" lon="-2.44039">
        <ele>154</ele>
        <time>2019-11-14T11:07:35.000Z</time>
      </trkpt>
      <trkpt lat="47.27707" lon="-2.44038">
        <ele>154.39999389648</ele>
        <time>2019-11-14T11:07:36.000Z</time>
      </trkpt>
      <trkpt lat="47.27711" lon="-2.44035">
        <ele>154.80000305176</ele>
        <time>2019-11-14T11:07:37.000Z</time>
      </trkpt>
      <trkpt lat="47.27714" lon="-2.4403">
        <ele>155.19999694824</ele>
        <time>2019-11-14T11:07:38.000Z</time>
      </trkpt>
      <trkpt lat="47.27721" lon="-2.44017">
        <ele>155.19999694824</ele>
        <time>2019-11-14T11:07:40.000Z</time>
      </trkpt>
      <trkpt lat="47.27724" lon="-2.4401">
        <ele>155.19999694824</ele>
        <time>2019-11-14T11:07:41.000Z</time>
      </trkpt>
      <trkpt lat="47.27735" lon="-2.43972">
        <ele>155.19999694824</ele>
        <time>2019-11-14T11:07:46.000Z</time>
      </trkpt>
      <trkpt lat="47.27738" lon="-2.43958">
        <ele>155.80000305176</ele>
        <time>2019-11-14T11:07:48.000Z</time>
      </trkpt>
      <trkpt lat="47.27741" lon="-2.4395">
        <ele>156.19999694824</ele>
        <time>2019-11-14T11:07:49.000Z</time>
      </trkpt>
      <trkpt lat="47.27743" lon="-2.43943">
        <ele>156.60000610352</ele>
        <time>2019-11-14T11:07:50.000Z</time>
      </trkpt>
      <trkpt lat="47.27745" lon="-2.43935">
        <ele>157</ele>
        <time>2019-11-14T11:07:51.000Z</time>
      </trkpt>
      <trkpt lat="47.27747" lon="-2.43927">
        <ele>157.39999389648</ele>
        <time>2019-11-14T11:07:52.000Z</time>
      </trkpt>
      <trkpt lat="47.27749" lon="-2.4392">
        <ele>157.39999389648</ele>
        <time>2019-11-14T11:07:53.000Z</time>
      </trkpt>
      <trkpt lat="47.27762" lon="-2.43868">
        <ele>157.39999389648</ele>
        <time>2019-11-14T11:08:00.000Z</time>
      </trkpt>
      <trkpt lat="47.27764" lon="-2.43853">
        <ele>157.39999389648</ele>
        <time>2019-11-14T11:08:02.000Z</time>
      </trkpt>
      <trkpt lat="47.27763" lon="-2.43837">
        <ele>157.39999389648</ele>
        <time>2019-11-14T11:08:04.000Z</time>
      </trkpt>
      <trkpt lat="47.27768" lon="-2.43812">
        <ele>157.39999389648</ele>
        <time>2019-11-14T11:08:08.000Z</time>
      </trkpt>
      <trkpt lat="47.2778" lon="-2.43792">
        <ele>157.39999389648</ele>
        <time>2019-11-14T11:08:11.000Z</time>
      </trkpt>
      <trkpt lat="47.27783" lon="-2.43786">
        <ele>157.39999389648</ele>
        <time>2019-11-14T11:08:12.000Z</time>
      </trkpt>
      <trkpt lat="47.27787" lon="-2.43778">
        <ele>157.80000305176</ele>
        <time>2019-11-14T11:08:13.000Z</time>
      </trkpt>
      <trkpt lat="47.2779" lon="-2.43771">
        <ele>158.80000305176</ele>
        <time>2019-11-14T11:08:14.000Z</time>
      </trkpt>
      <trkpt lat="47.27792" lon="-2.43763">
        <ele>159.19999694824</ele>
        <time>2019-11-14T11:08:15.000Z</time>
      </trkpt>
      <trkpt lat="47.27794" lon="-2.43755">
        <ele>159.60000610352</ele>
        <time>2019-11-14T11:08:16.000Z</time>
      </trkpt>
      <trkpt lat="47.27806" lon="-2.43708">
        <ele>159.60000610352</ele>
        <time>2019-11-14T11:08:22.000Z</time>
      </trkpt>
      <trkpt lat="47.27809" lon="-2.43694">
        <ele>160</ele>
        <time>2019-11-14T11:08:24.000Z</time>
      </trkpt>
      <trkpt lat="47.27811" lon="-2.43687">
        <ele>160.39999389648</ele>
        <time>2019-11-14T11:08:25.000Z</time>
      </trkpt>
      <trkpt lat="47.27812" lon="-2.4368">
        <ele>160.80000305176</ele>
        <time>2019-11-14T11:08:26.000Z</time>
      </trkpt>
      <trkpt lat="47.27814" lon="-2.43673">
        <ele>161.19999694824</ele>
        <time>2019-11-14T11:08:27.000Z</time>
      </trkpt>
      <trkpt lat="47.27816" lon="-2.43665">
        <ele>161.60000610352</ele>
        <time>2019-11-14T11:08:28.000Z</time>
      </trkpt>
      <trkpt lat="47.27817" lon="-2.43657">
        <ele>161.60000610352</ele>
        <time>2019-11-14T11:08:29.000Z</time>
      </trkpt>
      <trkpt lat="47.27829" lon="-2.43609">
        <ele>161.60000610352</ele>
        <time>2019-11-14T11:08:35.000Z</time>
      </trkpt>
      <trkpt lat="47.27844" lon="-2.4355">
        <ele>162</ele>
        <time>2019-11-14T11:08:42.000Z</time>
      </trkpt>
      <trkpt lat="47.27845" lon="-2.43542">
        <ele>162.39999389648</ele>
        <time>2019-11-14T11:08:43.000Z</time>
      </trkpt>
      <trkpt lat="47.27846" lon="-2.43534">
        <ele>162.80000305176</ele>
        <time>2019-11-14T11:08:44.000Z</time>
      </trkpt>
      <trkpt lat="47.27848" lon="-2.43525">
        <ele>163.19999694824</ele>
        <time>2019-11-14T11:08:45.000Z</time>
      </trkpt>
      <trkpt lat="47.27849" lon="-2.43517">
        <ele>163.60000610352</ele>
        <time>2019-11-14T11:08:46.000Z</time>
      </trkpt>
      <trkpt lat="47.2785" lon="-2.43501">
        <ele>163.60000610352</ele>
        <time>2019-11-14T11:08:48.000Z</time>
      </trkpt>
      <trkpt lat="47.27858" lon="-2.43438">
        <ele>163.60000610352</ele>
        <time>2019-11-14T11:08:56.000Z</time>
      </trkpt>
      <trkpt lat="47.2786" lon="-2.43396">
        <ele>163.60000610352</ele>
        <time>2019-11-14T11:09:02.000Z</time>
      </trkpt>
      <trkpt lat="47.27859" lon="-2.43389">
        <ele>163.60000610352</ele>
        <time>2019-11-14T11:09:03.000Z</time>
      </trkpt>
      <trkpt lat="47.27858" lon="-2.43361">
        <ele>163.60000610352</ele>
        <time>2019-11-14T11:09:07.000Z</time>
      </trkpt>
      <trkpt lat="47.2786" lon="-2.43354">
        <ele>163.60000610352</ele>
        <time>2019-11-14T11:09:08.000Z</time>
      </trkpt>
      <trkpt lat="47.27868" lon="-2.43334">
        <ele>163.60000610352</ele>
        <time>2019-11-14T11:09:11.000Z</time>
      </trkpt>
      <trkpt lat="47.2787" lon="-2.43326">
        <ele>163.60000610352</ele>
        <time>2019-11-14T11:09:12.000Z</time>
      </trkpt>
      <trkpt lat="47.27871" lon="-2.433">
        <ele>163.60000610352</ele>
        <time>2019-11-14T11:09:15.000Z</time>
      </trkpt>
      <trkpt lat="47.2787" lon="-2.43292">
        <ele>163.60000610352</ele>
        <time>2019-11-14T11:09:16.000Z</time>
      </trkpt>
      <trkpt lat="47.27868" lon="-2.43251">
        <ele>163.60000610352</ele>
        <time>2019-11-14T11:09:21.000Z</time>
      </trkpt>
      <trkpt lat="47.27864" lon="-2.43192">
        <ele>164.60000610352</ele>
        <time>2019-11-14T11:09:28.000Z</time>
      </trkpt>
      <trkpt lat="47.27864" lon="-2.43184">
        <ele>165</ele>
        <time>2019-11-14T11:09:29.000Z</time>
      </trkpt>
      <trkpt lat="47.27863" lon="-2.43179">
        <ele>165.39999389648</ele>
        <time>2019-11-14T11:09:30.000Z</time>
      </trkpt>
      <trkpt lat="47.27863" lon="-2.43178">
        <ele>165.80000305176</ele>
        <time>2019-11-14T11:09:31.000Z</time>
      </trkpt>
      <trkpt lat="47.27862" lon="-2.43164">
        <ele>165.80000305176</ele>
        <time>2019-11-14T11:09:36.000Z</time>
      </trkpt>
      <trkpt lat="47.27862" lon="-2.43158">
        <ele>165.80000305176</ele>
        <time>2019-11-14T11:09:37.000Z</time>
      </trkpt>
      <trkpt lat="47.2786" lon="-2.43137">
        <ele>165.80000305176</ele>
        <time>2019-11-14T11:09:40.000Z</time>
      </trkpt>
      <trkpt lat="47.27855" lon="-2.43088">
        <ele>165.80000305176</ele>
        <time>2019-11-14T11:09:47.000Z</time>
      </trkpt>
      <trkpt lat="47.27856" lon="-2.43073">
        <ele>165.80000305176</ele>
        <time>2019-11-14T11:09:49.000Z</time>
      </trkpt>
      <trkpt lat="47.27855" lon="-2.43051">
        <ele>166.60000610352</ele>
        <time>2019-11-14T11:09:52.000Z</time>
      </trkpt>
      <trkpt lat="47.27853" lon="-2.43043">
        <ele>167</ele>
        <time>2019-11-14T11:09:53.000Z</time>
      </trkpt>
      <trkpt lat="47.2785" lon="-2.43038">
        <ele>167.39999389648</ele>
        <time>2019-11-14T11:09:54.000Z</time>
      </trkpt>
      <trkpt lat="47.27845" lon="-2.43035">
        <ele>167.80000305176</ele>
        <time>2019-11-14T11:09:55.000Z</time>
      </trkpt>
      <trkpt lat="47.27828" lon="-2.43024">
        <ele>167.80000305176</ele>
        <time>2019-11-14T11:09:59.000Z</time>
      </trkpt>
      <trkpt lat="47.27823" lon="-2.43021">
        <ele>167.80000305176</ele>
        <time>2019-11-14T11:10:00.000Z</time>
      </trkpt>
      <trkpt lat="47.27819" lon="-2.43018">
        <ele>168.19999694824</ele>
        <time>2019-11-14T11:10:01.000Z</time>
      </trkpt>
      <trkpt lat="47.27816" lon="-2.43013">
        <ele>168.60000610352</ele>
        <time>2019-11-14T11:10:02.000Z</time>
      </trkpt>
      <trkpt lat="47.27815" lon="-2.43007">
        <ele>169.19999694824</ele>
        <time>2019-11-14T11:10:03.000Z</time>
      </trkpt>
      <trkpt lat="47.27814" lon="-2.43002">
        <ele>169.60000610352</ele>
        <time>2019-11-14T11:10:04.000Z</time>
      </trkpt>
      <trkpt lat="47.27815" lon="-2.42995">
        <ele>170</ele>
        <time>2019-11-14T11:10:05.000Z</time>
      </trkpt>
      <trkpt lat="47.27815" lon="-2.42988">
        <ele>170</ele>
        <time>2019-11-14T11:10:06.000Z</time>
      </trkpt>
      <trkpt lat="47.27814" lon="-2.42981">
        <ele>170</ele>
        <time>2019-11-14T11:10:07.000Z</time>
      </trkpt>
      <trkpt lat="47.27806" lon="-2.42929">
        <ele>170</ele>
        <time>2019-11-14T11:10:14.000Z</time>
      </trkpt>
      <trkpt lat="47.27799" lon="-2.42877">
        <ele>170.39999389648</ele>
        <time>2019-11-14T11:10:21.000Z</time>
      </trkpt>
      <trkpt lat="47.27798" lon="-2.42869">
        <ele>170.80000305176</ele>
        <time>2019-11-14T11:10:22.000Z</time>
      </trkpt>
      <trkpt lat="47.27797" lon="-2.42862">
        <ele>171.19999694824</ele>
        <time>2019-11-14T11:10:23.000Z</time>
      </trkpt>
      <trkpt lat="47.27796" lon="-2.42855">
        <ele>171.60000610352</ele>
        <time>2019-11-14T11:10:24.000Z</time>
      </trkpt>
      <trkpt lat="47.27796" lon="-2.42849">
        <ele>172</ele>
        <time>2019-11-14T11:10:25.000Z</time>
      </trkpt>
      <trkpt lat="47.27796" lon="-2.42843">
        <ele>172</ele>
        <time>2019-11-14T11:10:26.000Z</time>
      </trkpt>
      <trkpt lat="47.27797" lon="-2.42827">
        <ele>172</ele>
        <time>2019-11-14T11:10:30.000Z</time>
      </trkpt>
      <trkpt lat="47.27799" lon="-2.42818">
        <ele>172</ele>
        <time>2019-11-14T11:10:34.000Z</time>
      </trkpt>
      <trkpt lat="47.278" lon="-2.42816">
        <ele>172</ele>
        <time>2019-11-14T11:10:35.000Z</time>
      </trkpt>
      <trkpt lat="47.27808" lon="-2.42815">
        <ele>172</ele>
        <time>2019-11-14T11:10:38.000Z</time>
      </trkpt>
      <trkpt lat="47.27811" lon="-2.42816">
        <ele>172</ele>
        <time>2019-11-14T11:10:39.000Z</time>
      </trkpt>
      <trkpt lat="47.27822" lon="-2.42806">
        <ele>172</ele>
        <time>2019-11-14T11:10:43.000Z</time>
      </trkpt>
      <trkpt lat="47.27824" lon="-2.42796">
        <ele>172</ele>
        <time>2019-11-14T11:10:45.000Z</time>
      </trkpt>
      <trkpt lat="47.27824" lon="-2.42782">
        <ele>172</ele>
        <time>2019-11-14T11:10:47.000Z</time>
      </trkpt>
      <trkpt lat="47.27825" lon="-2.42768">
        <ele>172</ele>
        <time>2019-11-14T11:10:49.000Z</time>
      </trkpt>
      <trkpt lat="47.27825" lon="-2.42735">
        <ele>172</ele>
        <time>2019-11-14T11:10:54.000Z</time>
      </trkpt>
      <trkpt lat="47.27825" lon="-2.4269">
        <ele>172</ele>
        <time>2019-11-14T11:11:00.000Z</time>
      </trkpt>
      <trkpt lat="47.2782" lon="-2.42645">
        <ele>172</ele>
        <time>2019-11-14T11:11:05.000Z</time>
      </trkpt>
      <trkpt lat="47.2781" lon="-2.42593">
        <ele>172</ele>
        <time>2019-11-14T11:11:10.000Z</time>
      </trkpt>
      <trkpt lat="47.2779" lon="-2.42534">
        <ele>172</ele>
        <time>2019-11-14T11:11:16.000Z</time>
      </trkpt>
      <trkpt lat="47.27768" lon="-2.42472">
        <ele>172.39999389648</ele>
        <time>2019-11-14T11:11:23.000Z</time>
      </trkpt>
      <trkpt lat="47.27766" lon="-2.42463">
        <ele>172.80000305176</ele>
        <time>2019-11-14T11:11:24.000Z</time>
      </trkpt>
      <trkpt lat="47.27764" lon="-2.42454">
        <ele>173.19999694824</ele>
        <time>2019-11-14T11:11:25.000Z</time>
      </trkpt>
      <trkpt lat="47.27761" lon="-2.42445">
        <ele>173.60000610352</ele>
        <time>2019-11-14T11:11:26.000Z</time>
      </trkpt>
      <trkpt lat="47.27759" lon="-2.42436">
        <ele>174</ele>
        <time>2019-11-14T11:11:27.000Z</time>
      </trkpt>
      <trkpt lat="47.27752" lon="-2.42398">
        <ele>174</ele>
        <time>2019-11-14T11:11:31.000Z</time>
      </trkpt>
      <trkpt lat="47.27748" lon="-2.42358">
        <ele>174.60000610352</ele>
        <time>2019-11-14T11:11:35.000Z</time>
      </trkpt>
      <trkpt lat="47.27747" lon="-2.42348">
        <ele>175</ele>
        <time>2019-11-14T11:11:36.000Z</time>
      </trkpt>
      <trkpt lat="47.27745" lon="-2.42338">
        <ele>175.39999389648</ele>
        <time>2019-11-14T11:11:37.000Z</time>
      </trkpt>
      <trkpt lat="47.27744" lon="-2.42328">
        <ele>175.80000305176</ele>
        <time>2019-11-14T11:11:38.000Z</time>
      </trkpt>
      <trkpt lat="47.27743" lon="-2.42317">
        <ele>176.19999694824</ele>
        <time>2019-11-14T11:11:39.000Z</time>
      </trkpt>
      <trkpt lat="47.27739" lon="-2.42274">
        <ele>176.19999694824</ele>
        <time>2019-11-14T11:11:43.000Z</time>
      </trkpt>
      <trkpt lat="47.27737" lon="-2.42218">
        <ele>176.19999694824</ele>
        <time>2019-11-14T11:11:48.000Z</time>
      </trkpt>
      <trkpt lat="47.27736" lon="-2.42164">
        <ele>176.60000610352</ele>
        <time>2019-11-14T11:11:53.000Z</time>
      </trkpt>
      <trkpt lat="47.27736" lon="-2.42154">
        <ele>177</ele>
        <time>2019-11-14T11:11:54.000Z</time>
      </trkpt>
      <trkpt lat="47.27736" lon="-2.42144">
        <ele>177.39999389648</ele>
        <time>2019-11-14T11:11:55.000Z</time>
      </trkpt>
      <trkpt lat="47.27736" lon="-2.42134">
        <ele>178.39999389648</ele>
        <time>2019-11-14T11:11:56.000Z</time>
      </trkpt>
      <trkpt lat="47.27741" lon="-2.42086">
        <ele>178.39999389648</ele>
        <time>2019-11-14T11:12:01.000Z</time>
      </trkpt>
      <trkpt lat="47.27749" lon="-2.42031">
        <ele>178.39999389648</ele>
        <time>2019-11-14T11:12:07.000Z</time>
      </trkpt>
      <trkpt lat="47.27755" lon="-2.42003">
        <ele>178.80000305176</ele>
        <time>2019-11-14T11:12:10.000Z</time>
      </trkpt>
      <trkpt lat="47.27757" lon="-2.41994">
        <ele>179.19999694824</ele>
        <time>2019-11-14T11:12:11.000Z</time>
      </trkpt>
      <trkpt lat="47.27759" lon="-2.41986">
        <ele>179.60000610352</ele>
        <time>2019-11-14T11:12:12.000Z</time>
      </trkpt>
      <trkpt lat="47.27761" lon="-2.41978">
        <ele>180</ele>
        <time>2019-11-14T11:12:13.000Z</time>
      </trkpt>
      <trkpt lat="47.27764" lon="-2.4197">
        <ele>180.39999389648</ele>
        <time>2019-11-14T11:12:14.000Z</time>
      </trkpt>
      <trkpt lat="47.27775" lon="-2.41928">
        <ele>180.39999389648</ele>
        <time>2019-11-14T11:12:19.000Z</time>
      </trkpt>
      <trkpt lat="47.27787" lon="-2.41894">
        <ele>180.39999389648</ele>
        <time>2019-11-14T11:12:23.000Z</time>
      </trkpt>
      <trkpt lat="47.27804" lon="-2.41844">
        <ele>180.80000305176</ele>
        <time>2019-11-14T11:12:29.000Z</time>
      </trkpt>
      <trkpt lat="47.27807" lon="-2.41837">
        <ele>181.19999694824</ele>
        <time>2019-11-14T11:12:30.000Z</time>
      </trkpt>
      <trkpt lat="47.27809" lon="-2.41832">
        <ele>181.60000610352</ele>
        <time>2019-11-14T11:12:31.000Z</time>
      </trkpt>
      <trkpt lat="47.27812" lon="-2.41825">
        <ele>182</ele>
        <time>2019-11-14T11:12:32.000Z</time>
      </trkpt>
      <trkpt lat="47.27815" lon="-2.41818">
        <ele>182.39999389648</ele>
        <time>2019-11-14T11:12:33.000Z</time>
      </trkpt>
      <trkpt lat="47.27821" lon="-2.41799">
        <ele>182.39999389648</ele>
        <time>2019-11-14T11:12:36.000Z</time>
      </trkpt>
      <trkpt lat="47.27833" lon="-2.41757">
        <ele>182.39999389648</ele>
        <time>2019-11-14T11:12:42.000Z</time>
      </trkpt>
      <trkpt lat="47.2784" lon="-2.41743">
        <ele>182.39999389648</ele>
        <time>2019-11-14T11:12:44.000Z</time>
      </trkpt>
      <trkpt lat="47.27848" lon="-2.41728">
        <ele>182.80000305176</ele>
        <time>2019-11-14T11:12:46.000Z</time>
      </trkpt>
      <trkpt lat="47.27852" lon="-2.41721">
        <ele>183.19999694824</ele>
        <time>2019-11-14T11:12:47.000Z</time>
      </trkpt>
      <trkpt lat="47.27855" lon="-2.41713">
        <ele>183.60000610352</ele>
        <time>2019-11-14T11:12:48.000Z</time>
      </trkpt>
      <trkpt lat="47.27858" lon="-2.41705">
        <ele>184</ele>
        <time>2019-11-14T11:12:49.000Z</time>
      </trkpt>
      <trkpt lat="47.27862" lon="-2.41698">
        <ele>184.39999389648</ele>
        <time>2019-11-14T11:12:50.000Z</time>
      </trkpt>
      <trkpt lat="47.27874" lon="-2.41673">
        <ele>184.39999389648</ele>
        <time>2019-11-14T11:12:53.000Z</time>
      </trkpt>
      <trkpt lat="47.27891" lon="-2.41639">
        <ele>184.39999389648</ele>
        <time>2019-11-14T11:12:57.000Z</time>
      </trkpt>
      <trkpt lat="47.27895" lon="-2.4163">
        <ele>184.39999389648</ele>
        <time>2019-11-14T11:12:58.000Z</time>
      </trkpt>
      <trkpt lat="47.2791" lon="-2.41597">
        <ele>184.80000305176</ele>
        <time>2019-11-14T11:13:02.000Z</time>
      </trkpt>
      <trkpt lat="47.27914" lon="-2.4159">
        <ele>185.19999694824</ele>
        <time>2019-11-14T11:13:03.000Z</time>
      </trkpt>
      <trkpt lat="47.27918" lon="-2.41582">
        <ele>185.80000305176</ele>
        <time>2019-11-14T11:13:04.000Z</time>
      </trkpt>
      <trkpt lat="47.27922" lon="-2.41574">
        <ele>186.19999694824</ele>
        <time>2019-11-14T11:13:05.000Z</time>
      </trkpt>
      <trkpt lat="47.27925" lon="-2.41567">
        <ele>186.60000610352</ele>
        <time>2019-11-14T11:13:06.000Z</time>
      </trkpt>
      <trkpt lat="47.27942" lon="-2.41533">
        <ele>186.60000610352</ele>
        <time>2019-11-14T11:13:11.000Z</time>
      </trkpt>
      <trkpt lat="47.27958" lon="-2.41493">
        <ele>186.60000610352</ele>
        <time>2019-11-14T11:13:16.000Z</time>
      </trkpt>
      <trkpt lat="47.2797" lon="-2.41457">
        <ele>187</ele>
        <time>2019-11-14T11:13:20.000Z</time>
      </trkpt>
      <trkpt lat="47.27973" lon="-2.41448">
        <ele>187.39999389648</ele>
        <time>2019-11-14T11:13:21.000Z</time>
      </trkpt>
      <trkpt lat="47.27975" lon="-2.41439">
        <ele>187.80000305176</ele>
        <time>2019-11-14T11:13:22.000Z</time>
      </trkpt>
      <trkpt lat="47.27978" lon="-2.4143">
        <ele>188.19999694824</ele>
        <time>2019-11-14T11:13:23.000Z</time>
      </trkpt>
      <trkpt lat="47.27981" lon="-2.41421">
        <ele>188.80000305176</ele>
        <time>2019-11-14T11:13:24.000Z</time>
      </trkpt>
      <trkpt lat="47.27989" lon="-2.41368">
        <ele>188.80000305176</ele>
        <time>2019-11-14T11:13:30.000Z</time>
      </trkpt>
      <trkpt lat="47.27997" lon="-2.41317">
        <ele>188.80000305176</ele>
        <time>2019-11-14T11:13:36.000Z</time>
      </trkpt>
      <trkpt lat="47.28004" lon="-2.41273">
        <ele>188.80000305176</ele>
        <time>2019-11-14T11:13:41.000Z</time>
      </trkpt>
      <trkpt lat="47.28015" lon="-2.4122">
        <ele>188.80000305176</ele>
        <time>2019-11-14T11:13:47.000Z</time>
      </trkpt>
      <trkpt lat="47.28026" lon="-2.41184">
        <ele>188.80000305176</ele>
        <time>2019-11-14T11:13:51.000Z</time>
      </trkpt>
      <trkpt lat="47.28027" lon="-2.41174">
        <ele>188.80000305176</ele>
        <time>2019-11-14T11:13:52.000Z</time>
      </trkpt>
      <trkpt lat="47.2803" lon="-2.41164">
        <ele>188.80000305176</ele>
        <time>2019-11-14T11:13:53.000Z</time>
      </trkpt>
      <trkpt lat="47.28037" lon="-2.41128">
        <ele>188.80000305176</ele>
        <time>2019-11-14T11:13:57.000Z</time>
      </trkpt>
      <trkpt lat="47.28049" lon="-2.4107">
        <ele>188.80000305176</ele>
        <time>2019-11-14T11:14:03.000Z</time>
      </trkpt>
      <trkpt lat="47.28062" lon="-2.41009">
        <ele>188.80000305176</ele>
        <time>2019-11-14T11:14:09.000Z</time>
      </trkpt>
      <trkpt lat="47.28064" lon="-2.41">
        <ele>189.19999694824</ele>
        <time>2019-11-14T11:14:10.000Z</time>
      </trkpt>
      <trkpt lat="47.28067" lon="-2.40991">
        <ele>189.60000610352</ele>
        <time>2019-11-14T11:14:11.000Z</time>
      </trkpt>
      <trkpt lat="47.28069" lon="-2.40983">
        <ele>190</ele>
        <time>2019-11-14T11:14:12.000Z</time>
      </trkpt>
      <trkpt lat="47.2807" lon="-2.40975">
        <ele>190.39999389648</ele>
        <time>2019-11-14T11:14:13.000Z</time>
      </trkpt>
      <trkpt lat="47.28072" lon="-2.40968">
        <ele>190.80000305176</ele>
        <time>2019-11-14T11:14:14.000Z</time>
      </trkpt>
      <trkpt lat="47.28077" lon="-2.40942">
        <ele>190.80000305176</ele>
        <time>2019-11-14T11:14:18.000Z</time>
      </trkpt>
      <trkpt lat="47.28079" lon="-2.40929">
        <ele>190.80000305176</ele>
        <time>2019-11-14T11:14:20.000Z</time>
      </trkpt>
      <trkpt lat="47.28074" lon="-2.40911">
        <ele>190.80000305176</ele>
        <time>2019-11-14T11:14:23.000Z</time>
      </trkpt>
      <trkpt lat="47.28068" lon="-2.40898">
        <ele>190.80000305176</ele>
        <time>2019-11-14T11:14:25.000Z</time>
      </trkpt>
      <trkpt lat="47.28056" lon="-2.40871">
        <ele>190.80000305176</ele>
        <time>2019-11-14T11:14:29.000Z</time>
      </trkpt>
      <trkpt lat="47.28037" lon="-2.40826">
        <ele>191.19999694824</ele>
        <time>2019-11-14T11:14:36.000Z</time>
      </trkpt>
      <trkpt lat="47.28035" lon="-2.4082">
        <ele>191.60000610352</ele>
        <time>2019-11-14T11:14:37.000Z</time>
      </trkpt>
      <trkpt lat="47.28033" lon="-2.40812">
        <ele>192</ele>
        <time>2019-11-14T11:14:38.000Z</time>
      </trkpt>
      <trkpt lat="47.28033" lon="-2.40805">
        <ele>192.39999389648</ele>
        <time>2019-11-14T11:14:39.000Z</time>
      </trkpt>
      <trkpt lat="47.28035" lon="-2.40798">
        <ele>192.80000305176</ele>
        <time>2019-11-14T11:14:40.000Z</time>
      </trkpt>
      <trkpt lat="47.28046" lon="-2.40756">
        <ele>192.80000305176</ele>
        <time>2019-11-14T11:14:45.000Z</time>
      </trkpt>
      <trkpt lat="47.28056" lon="-2.40698">
        <ele>192.80000305176</ele>
        <time>2019-11-14T11:14:52.000Z</time>
      </trkpt>
      <trkpt lat="47.28057" lon="-2.4068">
        <ele>192.39999389648</ele>
        <time>2019-11-14T11:14:54.000Z</time>
      </trkpt>
      <trkpt lat="47.28057" lon="-2.40671">
        <ele>192</ele>
        <time>2019-11-14T11:14:55.000Z</time>
      </trkpt>
      <trkpt lat="47.28056" lon="-2.40662">
        <ele>191.60000610352</ele>
        <time>2019-11-14T11:14:56.000Z</time>
      </trkpt>
      <trkpt lat="47.28055" lon="-2.40652">
        <ele>191.19999694824</ele>
        <time>2019-11-14T11:14:57.000Z</time>
      </trkpt>
      <trkpt lat="47.28054" lon="-2.40644">
        <ele>190.80000305176</ele>
        <time>2019-11-14T11:14:58.000Z</time>
      </trkpt>
      <trkpt lat="47.28052" lon="-2.40636">
        <ele>190.80000305176</ele>
        <time>2019-11-14T11:14:59.000Z</time>
      </trkpt>
      <trkpt lat="47.28049" lon="-2.40618">
        <ele>190.80000305176</ele>
        <time>2019-11-14T11:15:01.000Z</time>
      </trkpt>
      <trkpt lat="47.28049" lon="-2.40609">
        <ele>190.80000305176</ele>
        <time>2019-11-14T11:15:02.000Z</time>
      </trkpt>
      <trkpt lat="47.28054" lon="-2.40575">
        <ele>190.80000305176</ele>
        <time>2019-11-14T11:15:06.000Z</time>
      </trkpt>
      <trkpt lat="47.28063" lon="-2.40533">
        <ele>190.80000305176</ele>
        <time>2019-11-14T11:15:11.000Z</time>
      </trkpt>
      <trkpt lat="47.28074" lon="-2.40482">
        <ele>190.80000305176</ele>
        <time>2019-11-14T11:15:17.000Z</time>
      </trkpt>
      <trkpt lat="47.28078" lon="-2.40474">
        <ele>190.80000305176</ele>
        <time>2019-11-14T11:15:18.000Z</time>
      </trkpt>
      <trkpt lat="47.2809" lon="-2.40454">
        <ele>190.80000305176</ele>
        <time>2019-11-14T11:15:21.000Z</time>
      </trkpt>
      <trkpt lat="47.28098" lon="-2.40439">
        <ele>190.80000305176</ele>
        <time>2019-11-14T11:15:23.000Z</time>
      </trkpt>
      <trkpt lat="47.28102" lon="-2.40431">
        <ele>190.80000305176</ele>
        <time>2019-11-14T11:15:24.000Z</time>
      </trkpt>
      <trkpt lat="47.28111" lon="-2.40403">
        <ele>190.80000305176</ele>
        <time>2019-11-14T11:15:27.000Z</time>
      </trkpt>
      <trkpt lat="47.28114" lon="-2.40385">
        <ele>190.80000305176</ele>
        <time>2019-11-14T11:15:29.000Z</time>
      </trkpt>
      <trkpt lat="47.28117" lon="-2.40356">
        <ele>190.80000305176</ele>
        <time>2019-11-14T11:15:32.000Z</time>
      </trkpt>
      <trkpt lat="47.28121" lon="-2.40317">
        <ele>190.39999389648</ele>
        <time>2019-11-14T11:15:36.000Z</time>
      </trkpt>
      <trkpt lat="47.28123" lon="-2.40307">
        <ele>190</ele>
        <time>2019-11-14T11:15:37.000Z</time>
      </trkpt>
      <trkpt lat="47.28124" lon="-2.40298">
        <ele>189.60000610352</ele>
        <time>2019-11-14T11:15:38.000Z</time>
      </trkpt>
      <trkpt lat="47.28125" lon="-2.4029">
        <ele>188.80000305176</ele>
        <time>2019-11-14T11:15:39.000Z</time>
      </trkpt>
      <trkpt lat="47.28126" lon="-2.40281">
        <ele>188.80000305176</ele>
        <time>2019-11-14T11:15:40.000Z</time>
      </trkpt>
      <trkpt lat="47.28133" lon="-2.40227">
        <ele>188.39999389648</ele>
        <time>2019-11-14T11:15:46.000Z</time>
      </trkpt>
      <trkpt lat="47.28134" lon="-2.40218">
        <ele>188</ele>
        <time>2019-11-14T11:15:47.000Z</time>
      </trkpt>
      <trkpt lat="47.28135" lon="-2.40209">
        <ele>187.60000610352</ele>
        <time>2019-11-14T11:15:48.000Z</time>
      </trkpt>
      <trkpt lat="47.28136" lon="-2.402">
        <ele>187.19999694824</ele>
        <time>2019-11-14T11:15:49.000Z</time>
      </trkpt>
      <trkpt lat="47.28138" lon="-2.40191">
        <ele>186.60000610352</ele>
        <time>2019-11-14T11:15:50.000Z</time>
      </trkpt>
      <trkpt lat="47.28142" lon="-2.40144">
        <ele>186.60000610352</ele>
        <time>2019-11-14T11:15:55.000Z</time>
      </trkpt>
      <trkpt lat="47.28143" lon="-2.40135">
        <ele>186.19999694824</ele>
        <time>2019-11-14T11:15:56.000Z</time>
      </trkpt>
      <trkpt lat="47.28145" lon="-2.40125">
        <ele>185.80000305176</ele>
        <time>2019-11-14T11:15:57.000Z</time>
      </trkpt>
      <trkpt lat="47.28146" lon="-2.40116">
        <ele>185.39999389648</ele>
        <time>2019-11-14T11:15:58.000Z</time>
      </trkpt>
      <trkpt lat="47.28147" lon="-2.40106">
        <ele>185</ele>
        <time>2019-11-14T11:15:59.000Z</time>
      </trkpt>
      <trkpt lat="47.28147" lon="-2.40097">
        <ele>184.60000610352</ele>
        <time>2019-11-14T11:16:00.000Z</time>
      </trkpt>
      <trkpt lat="47.28148" lon="-2.40088">
        <ele>184.60000610352</ele>
        <time>2019-11-14T11:16:01.000Z</time>
      </trkpt>
      <trkpt lat="47.28153" lon="-2.40034">
        <ele>184.19999694824</ele>
        <time>2019-11-14T11:16:07.000Z</time>
      </trkpt>
      <trkpt lat="47.28154" lon="-2.40025">
        <ele>183.60000610352</ele>
        <time>2019-11-14T11:16:08.000Z</time>
      </trkpt>
      <trkpt lat="47.28154" lon="-2.40017">
        <ele>183.19999694824</ele>
        <time>2019-11-14T11:16:09.000Z</time>
      </trkpt>
      <trkpt lat="47.28155" lon="-2.40009">
        <ele>182.80000305176</ele>
        <time>2019-11-14T11:16:10.000Z</time>
      </trkpt>
      <trkpt lat="47.28155" lon="-2.4">
        <ele>182.39999389648</ele>
        <time>2019-11-14T11:16:11.000Z</time>
      </trkpt>
      <trkpt lat="47.28159" lon="-2.39963">
        <ele>182.39999389648</ele>
        <time>2019-11-14T11:16:15.000Z</time>
      </trkpt>
      <trkpt lat="47.2816" lon="-2.39934">
        <ele>182</ele>
        <time>2019-11-14T11:16:18.000Z</time>
      </trkpt>
      <trkpt lat="47.28161" lon="-2.39924">
        <ele>181.60000610352</ele>
        <time>2019-11-14T11:16:19.000Z</time>
      </trkpt>
      <trkpt lat="47.28162" lon="-2.39914">
        <ele>181</ele>
        <time>2019-11-14T11:16:20.000Z</time>
      </trkpt>
      <trkpt lat="47.28163" lon="-2.39904">
        <ele>180.60000610352</ele>
        <time>2019-11-14T11:16:21.000Z</time>
      </trkpt>
      <trkpt lat="47.28164" lon="-2.39894">
        <ele>180.19999694824</ele>
        <time>2019-11-14T11:16:22.000Z</time>
      </trkpt>
      <trkpt lat="47.28169" lon="-2.39831">
        <ele>180.19999694824</ele>
        <time>2019-11-14T11:16:28.000Z</time>
      </trkpt>
      <trkpt lat="47.2817" lon="-2.39821">
        <ele>179.39999389648</ele>
        <time>2019-11-14T11:16:29.000Z</time>
      </trkpt>
      <trkpt lat="47.2817" lon="-2.39811">
        <ele>178.80000305176</ele>
        <time>2019-11-14T11:16:30.000Z</time>
      </trkpt>
      <trkpt lat="47.28171" lon="-2.39801">
        <ele>178.39999389648</ele>
        <time>2019-11-14T11:16:31.000Z</time>
      </trkpt>
      <trkpt lat="47.28172" lon="-2.39792">
        <ele>178</ele>
        <time>2019-11-14T11:16:32.000Z</time>
      </trkpt>
      <trkpt lat="47.28175" lon="-2.39741">
        <ele>178</ele>
        <time>2019-11-14T11:16:37.000Z</time>
      </trkpt>
      <trkpt lat="47.28176" lon="-2.3971">
        <ele>177.39999389648</ele>
        <time>2019-11-14T11:16:40.000Z</time>
      </trkpt>
      <trkpt lat="47.28177" lon="-2.397">
        <ele>177</ele>
        <time>2019-11-14T11:16:41.000Z</time>
      </trkpt>
      <trkpt lat="47.28177" lon="-2.3969">
        <ele>176.60000610352</ele>
        <time>2019-11-14T11:16:42.000Z</time>
      </trkpt>
      <trkpt lat="47.28177" lon="-2.39678">
        <ele>176.19999694824</ele>
        <time>2019-11-14T11:16:43.000Z</time>
      </trkpt>
      <trkpt lat="47.28178" lon="-2.39668">
        <ele>175.80000305176</ele>
        <time>2019-11-14T11:16:44.000Z</time>
      </trkpt>
      <trkpt lat="47.28179" lon="-2.39626">
        <ele>175.80000305176</ele>
        <time>2019-11-14T11:16:48.000Z</time>
      </trkpt>
      <trkpt lat="47.28181" lon="-2.39573">
        <ele>175.39999389648</ele>
        <time>2019-11-14T11:16:53.000Z</time>
      </trkpt>
      <trkpt lat="47.28181" lon="-2.39563">
        <ele>174.80000305176</ele>
        <time>2019-11-14T11:16:54.000Z</time>
      </trkpt>
      <trkpt lat="47.28181" lon="-2.39553">
        <ele>174.39999389648</ele>
        <time>2019-11-14T11:16:55.000Z</time>
      </trkpt>
      <trkpt lat="47.28182" lon="-2.39543">
        <ele>174</ele>
        <time>2019-11-14T11:16:56.000Z</time>
      </trkpt>
      <trkpt lat="47.28182" lon="-2.39534">
        <ele>173.60000610352</ele>
        <time>2019-11-14T11:16:57.000Z</time>
      </trkpt>
      <trkpt lat="47.28182" lon="-2.39474">
        <ele>173.60000610352</ele>
        <time>2019-11-14T11:17:03.000Z</time>
      </trkpt>
      <trkpt lat="47.2818" lon="-2.39403">
        <ele>173.60000610352</ele>
        <time>2019-11-14T11:17:10.000Z</time>
      </trkpt>
      <trkpt lat="47.28179" lon="-2.39384">
        <ele>173.19999694824</ele>
        <time>2019-11-14T11:17:12.000Z</time>
      </trkpt>
      <trkpt lat="47.28179" lon="-2.39373">
        <ele>172.80000305176</ele>
        <time>2019-11-14T11:17:13.000Z</time>
      </trkpt>
      <trkpt lat="47.28179" lon="-2.39364">
        <ele>172.39999389648</ele>
        <time>2019-11-14T11:17:14.000Z</time>
      </trkpt>
      <trkpt lat="47.28179" lon="-2.39354">
        <ele>172</ele>
        <time>2019-11-14T11:17:15.000Z</time>
      </trkpt>
      <trkpt lat="47.28179" lon="-2.39345">
        <ele>171.39999389648</ele>
        <time>2019-11-14T11:17:16.000Z</time>
      </trkpt>
      <trkpt lat="47.28178" lon="-2.39303">
        <ele>171.39999389648</ele>
        <time>2019-11-14T11:17:21.000Z</time>
      </trkpt>
      <trkpt lat="47.28177" lon="-2.39275">
        <ele>171</ele>
        <time>2019-11-14T11:17:25.000Z</time>
      </trkpt>
      <trkpt lat="47.28176" lon="-2.39269">
        <ele>170.60000610352</ele>
        <time>2019-11-14T11:17:26.000Z</time>
      </trkpt>
      <trkpt lat="47.28176" lon="-2.39264">
        <ele>170.19999694824</ele>
        <time>2019-11-14T11:17:27.000Z</time>
      </trkpt>
      <trkpt lat="47.28175" lon="-2.39261">
        <ele>169.80000305176</ele>
        <time>2019-11-14T11:17:28.000Z</time>
      </trkpt>
      <trkpt lat="47.28175" lon="-2.39257">
        <ele>169.39999389648</ele>
        <time>2019-11-14T11:17:29.000Z</time>
      </trkpt>
      <trkpt lat="47.28175" lon="-2.39252">
        <ele>169.39999389648</ele>
        <time>2019-11-14T11:17:31.000Z</time>
      </trkpt>
      <trkpt lat="47.28175" lon="-2.39249">
        <ele>169.39999389648</ele>
        <time>2019-11-14T11:17:34.000Z</time>
      </trkpt>
      <trkpt lat="47.28175" lon="-2.39246">
        <ele>163.19999694824</ele>
        <time>2019-11-14T11:18:05.000Z</time>
      </trkpt>
      <trkpt lat="47.28175" lon="-2.39226">
        <ele>162.60000610352</ele>
        <time>2019-11-14T11:18:10.000Z</time>
      </trkpt>
      <trkpt lat="47.28175" lon="-2.39219">
        <ele>162.19999694824</ele>
        <time>2019-11-14T11:18:11.000Z</time>
      </trkpt>
      <trkpt lat="47.28175" lon="-2.39212">
        <ele>161.80000305176</ele>
        <time>2019-11-14T11:18:12.000Z</time>
      </trkpt>
      <trkpt lat="47.28175" lon="-2.39204">
        <ele>161.39999389648</ele>
        <time>2019-11-14T11:18:13.000Z</time>
      </trkpt>
      <trkpt lat="47.28175" lon="-2.39196">
        <ele>160.80000305176</ele>
        <time>2019-11-14T11:18:14.000Z</time>
      </trkpt>
      <trkpt lat="47.28174" lon="-2.39188">
        <ele>160.80000305176</ele>
        <time>2019-11-14T11:18:15.000Z</time>
      </trkpt>
      <trkpt lat="47.28174" lon="-2.39171">
        <ele>160.80000305176</ele>
        <time>2019-11-14T11:18:17.000Z</time>
      </trkpt>
      <trkpt lat="47.28173" lon="-2.39143">
        <ele>160.80000305176</ele>
        <time>2019-11-14T11:18:20.000Z</time>
      </trkpt>
      <trkpt lat="47.28168" lon="-2.39079">
        <ele>160.80000305176</ele>
        <time>2019-11-14T11:18:26.000Z</time>
      </trkpt>
      <trkpt lat="47.28161" lon="-2.39004">
        <ele>160.80000305176</ele>
        <time>2019-11-14T11:18:33.000Z</time>
      </trkpt>
      <trkpt lat="47.28156" lon="-2.38963">
        <ele>160.80000305176</ele>
        <time>2019-11-14T11:18:37.000Z</time>
      </trkpt>
      <trkpt lat="47.28148" lon="-2.38933">
        <ele>160.80000305176</ele>
        <time>2019-11-14T11:18:40.000Z</time>
      </trkpt>
      <trkpt lat="47.28143" lon="-2.38913">
        <ele>161.19999694824</ele>
        <time>2019-11-14T11:18:42.000Z</time>
      </trkpt>
      <trkpt lat="47.2814" lon="-2.38903">
        <ele>161.60000610352</ele>
        <time>2019-11-14T11:18:43.000Z</time>
      </trkpt>
      <trkpt lat="47.28138" lon="-2.38893">
        <ele>162</ele>
        <time>2019-11-14T11:18:44.000Z</time>
      </trkpt>
      <trkpt lat="47.28137" lon="-2.38882">
        <ele>162.39999389648</ele>
        <time>2019-11-14T11:18:45.000Z</time>
      </trkpt>
      <trkpt lat="47.28135" lon="-2.38871">
        <ele>162.80000305176</ele>
        <time>2019-11-14T11:18:46.000Z</time>
      </trkpt>
      <trkpt lat="47.28128" lon="-2.38786">
        <ele>162.80000305176</ele>
        <time>2019-11-14T11:18:54.000Z</time>
      </trkpt>
      <trkpt lat="47.28127" lon="-2.38776">
        <ele>163.19999694824</ele>
        <time>2019-11-14T11:18:55.000Z</time>
      </trkpt>
      <trkpt lat="47.28127" lon="-2.38766">
        <ele>163.60000610352</ele>
        <time>2019-11-14T11:18:56.000Z</time>
      </trkpt>
      <trkpt lat="47.28126" lon="-2.38756">
        <ele>164.60000610352</ele>
        <time>2019-11-14T11:18:57.000Z</time>
      </trkpt>
      <trkpt lat="47.28124" lon="-2.38746">
        <ele>165</ele>
        <time>2019-11-14T11:18:58.000Z</time>
      </trkpt>
      <trkpt lat="47.28121" lon="-2.38704">
        <ele>165</ele>
        <time>2019-11-14T11:19:02.000Z</time>
      </trkpt>
      <trkpt lat="47.28117" lon="-2.38655">
        <ele>165.39999389648</ele>
        <time>2019-11-14T11:19:07.000Z</time>
      </trkpt>
      <trkpt lat="47.28116" lon="-2.38645">
        <ele>165.80000305176</ele>
        <time>2019-11-14T11:19:08.000Z</time>
      </trkpt>
      <trkpt lat="47.28115" lon="-2.38636">
        <ele>166.19999694824</ele>
        <time>2019-11-14T11:19:09.000Z</time>
      </trkpt>
      <trkpt lat="47.28114" lon="-2.38626">
        <ele>166.60000610352</ele>
        <time>2019-11-14T11:19:10.000Z</time>
      </trkpt>
      <trkpt lat="47.28113" lon="-2.38616">
        <ele>167</ele>
        <time>2019-11-14T11:19:11.000Z</time>
      </trkpt>
      <trkpt lat="47.28108" lon="-2.38555">
        <ele>167</ele>
        <time>2019-11-14T11:19:17.000Z</time>
      </trkpt>
      <trkpt lat="47.28106" lon="-2.38545">
        <ele>167.39999389648</ele>
        <time>2019-11-14T11:19:18.000Z</time>
      </trkpt>
      <trkpt lat="47.28105" lon="-2.38535">
        <ele>168</ele>
        <time>2019-11-14T11:19:19.000Z</time>
      </trkpt>
      <trkpt lat="47.28104" lon="-2.38525">
        <ele>168.39999389648</ele>
        <time>2019-11-14T11:19:20.000Z</time>
      </trkpt>
      <trkpt lat="47.28102" lon="-2.38515">
        <ele>168.80000305176</ele>
        <time>2019-11-14T11:19:21.000Z</time>
      </trkpt>
      <trkpt lat="47.28101" lon="-2.38505">
        <ele>169.19999694824</ele>
        <time>2019-11-14T11:19:22.000Z</time>
      </trkpt>
      <trkpt lat="47.28099" lon="-2.38495">
        <ele>169.19999694824</ele>
        <time>2019-11-14T11:19:23.000Z</time>
      </trkpt>
      <trkpt lat="47.28086" lon="-2.38427">
        <ele>169.19999694824</ele>
        <time>2019-11-14T11:19:30.000Z</time>
      </trkpt>
      <trkpt lat="47.28084" lon="-2.38418">
        <ele>169.60000610352</ele>
        <time>2019-11-14T11:19:31.000Z</time>
      </trkpt>
      <trkpt lat="47.28082" lon="-2.38408">
        <ele>170</ele>
        <time>2019-11-14T11:19:32.000Z</time>
      </trkpt>
      <trkpt lat="47.2808" lon="-2.38398">
        <ele>170.39999389648</ele>
        <time>2019-11-14T11:19:33.000Z</time>
      </trkpt>
      <trkpt lat="47.28078" lon="-2.38389">
        <ele>171</ele>
        <time>2019-11-14T11:19:34.000Z</time>
      </trkpt>
      <trkpt lat="47.28076" lon="-2.3838">
        <ele>171.39999389648</ele>
        <time>2019-11-14T11:19:35.000Z</time>
      </trkpt>
      <trkpt lat="47.28072" lon="-2.38362">
        <ele>171.39999389648</ele>
        <time>2019-11-14T11:19:37.000Z</time>
      </trkpt>
      <trkpt lat="47.28056" lon="-2.3828">
        <ele>171.80000305176</ele>
        <time>2019-11-14T11:19:46.000Z</time>
      </trkpt>
      <trkpt lat="47.28055" lon="-2.38271">
        <ele>172.60000610352</ele>
        <time>2019-11-14T11:19:47.000Z</time>
      </trkpt>
      <trkpt lat="47.28053" lon="-2.38262">
        <ele>173</ele>
        <time>2019-11-14T11:19:48.000Z</time>
      </trkpt>
      <trkpt lat="47.28052" lon="-2.38254">
        <ele>173.39999389648</ele>
        <time>2019-11-14T11:19:49.000Z</time>
      </trkpt>
      <trkpt lat="47.28048" lon="-2.38227">
        <ele>173.39999389648</ele>
        <time>2019-11-14T11:19:52.000Z</time>
      </trkpt>
      <trkpt lat="47.28037" lon="-2.38169">
        <ele>173.39999389648</ele>
        <time>2019-11-14T11:19:59.000Z</time>
      </trkpt>
      <trkpt lat="47.28024" lon="-2.38104">
        <ele>173.39999389648</ele>
        <time>2019-11-14T11:20:07.000Z</time>
      </trkpt>
      <trkpt lat="47.28011" lon="-2.38036">
        <ele>173.39999389648</ele>
        <time>2019-11-14T11:20:15.000Z</time>
      </trkpt>
      <trkpt lat="47.28002" lon="-2.37986">
        <ele>173.39999389648</ele>
        <time>2019-11-14T11:20:21.000Z</time>
      </trkpt>
      <trkpt lat="47.2799" lon="-2.37924">
        <ele>173.39999389648</ele>
        <time>2019-11-14T11:20:28.000Z</time>
      </trkpt>
      <trkpt lat="47.27977" lon="-2.37854">
        <ele>173.39999389648</ele>
        <time>2019-11-14T11:20:36.000Z</time>
      </trkpt>
      <trkpt lat="47.27971" lon="-2.37819">
        <ele>173.39999389648</ele>
        <time>2019-11-14T11:20:40.000Z</time>
      </trkpt>
      <trkpt lat="47.27966" lon="-2.37802">
        <ele>173.39999389648</ele>
        <time>2019-11-14T11:20:42.000Z</time>
      </trkpt>
      <trkpt lat="47.27964" lon="-2.37775">
        <ele>173.39999389648</ele>
        <time>2019-11-14T11:20:45.000Z</time>
      </trkpt>
      <trkpt lat="47.27956" lon="-2.3775">
        <ele>173.39999389648</ele>
        <time>2019-11-14T11:20:48.000Z</time>
      </trkpt>
      <trkpt lat="47.27954" lon="-2.37741">
        <ele>173.39999389648</ele>
        <time>2019-11-14T11:20:49.000Z</time>
      </trkpt>
      <trkpt lat="47.27943" lon="-2.37697">
        <ele>173.39999389648</ele>
        <time>2019-11-14T11:20:54.000Z</time>
      </trkpt>
      <trkpt lat="47.27941" lon="-2.37689">
        <ele>173.39999389648</ele>
        <time>2019-11-14T11:20:55.000Z</time>
      </trkpt>
      <trkpt lat="47.27928" lon="-2.37629">
        <ele>173.39999389648</ele>
        <time>2019-11-14T11:21:02.000Z</time>
      </trkpt>
      <trkpt lat="47.27914" lon="-2.37569">
        <ele>173.39999389648</ele>
        <time>2019-11-14T11:21:09.000Z</time>
      </trkpt>
      <trkpt lat="47.27902" lon="-2.37511">
        <ele>173.39999389648</ele>
        <time>2019-11-14T11:21:16.000Z</time>
      </trkpt>
      <trkpt lat="47.27886" lon="-2.37447">
        <ele>173.39999389648</ele>
        <time>2019-11-14T11:21:23.000Z</time>
      </trkpt>
      <trkpt lat="47.27865" lon="-2.37369">
        <ele>173.39999389648</ele>
        <time>2019-11-14T11:21:32.000Z</time>
      </trkpt>
      <trkpt lat="47.27844" lon="-2.37292">
        <ele>173.39999389648</ele>
        <time>2019-11-14T11:21:41.000Z</time>
      </trkpt>
      <trkpt lat="47.27831" lon="-2.37241">
        <ele>173.39999389648</ele>
        <time>2019-11-14T11:21:47.000Z</time>
      </trkpt>
      <trkpt lat="47.27829" lon="-2.37225">
        <ele>173.39999389648</ele>
        <time>2019-11-14T11:21:49.000Z</time>
      </trkpt>
      <trkpt lat="47.27827" lon="-2.3721">
        <ele>173.39999389648</ele>
        <time>2019-11-14T11:21:51.000Z</time>
      </trkpt>
      <trkpt lat="47.27819" lon="-2.37188">
        <ele>173.39999389648</ele>
        <time>2019-11-14T11:21:54.000Z</time>
      </trkpt>
      <trkpt lat="47.27818" lon="-2.37181">
        <ele>173.39999389648</ele>
        <time>2019-11-14T11:21:55.000Z</time>
      </trkpt>
      <trkpt lat="47.27823" lon="-2.37171">
        <ele>173.39999389648</ele>
        <time>2019-11-14T11:21:57.000Z</time>
      </trkpt>
      <trkpt lat="47.27836" lon="-2.37164">
        <ele>173.39999389648</ele>
        <time>2019-11-14T11:22:00.000Z</time>
      </trkpt>
      <trkpt lat="47.2785" lon="-2.37151">
        <ele>173.39999389648</ele>
        <time>2019-11-14T11:22:03.000Z</time>
      </trkpt>
      <trkpt lat="47.27859" lon="-2.37142">
        <ele>173.39999389648</ele>
        <time>2019-11-14T11:22:05.000Z</time>
      </trkpt>
      <trkpt lat="47.27895" lon="-2.37102">
        <ele>173.39999389648</ele>
        <time>2019-11-14T11:22:13.000Z</time>
      </trkpt>
      <trkpt lat="47.27929" lon="-2.37066">
        <ele>173.39999389648</ele>
        <time>2019-11-14T11:22:21.000Z</time>
      </trkpt>
      <trkpt lat="47.27937" lon="-2.37062">
        <ele>173.39999389648</ele>
        <time>2019-11-14T11:22:23.000Z</time>
      </trkpt>
      <trkpt lat="47.27945" lon="-2.37059">
        <ele>173.39999389648</ele>
        <time>2019-11-14T11:22:25.000Z</time>
      </trkpt>
      <trkpt lat="47.27952" lon="-2.37064">
        <ele>173.39999389648</ele>
        <time>2019-11-14T11:22:28.000Z</time>
      </trkpt>
      <trkpt lat="47.27953" lon="-2.37065">
        <ele>173.39999389648</ele>
        <time>2019-11-14T11:22:30.000Z</time>
      </trkpt>
      <trkpt lat="47.27954" lon="-2.37065">
        <ele>173.39999389648</ele>
        <time>2019-11-14T11:22:33.000Z</time>
      </trkpt>
      <trkpt lat="47.27955" lon="-2.37064">
        <ele>173</ele>
        <time>2019-11-14T11:22:34.000Z</time>
      </trkpt>
      <trkpt lat="47.27954" lon="-2.37071">
        <ele>169.19999694824</ele>
        <time>2019-11-14T11:25:56.000Z</time>
      </trkpt>
      <trkpt lat="47.27955" lon="-2.37071">
        <ele>169.19999694824</ele>
        <time>2019-11-14T11:25:58.000Z</time>
      </trkpt>
      <trkpt lat="47.27951" lon="-2.37075">
        <ele>169.19999694824</ele>
        <time>2019-11-14T11:26:01.000Z</time>
      </trkpt>
      <trkpt lat="47.2795" lon="-2.37077">
        <ele>169.19999694824</ele>
        <time>2019-11-14T11:26:02.000Z</time>
      </trkpt>
      <trkpt lat="47.27939" lon="-2.37088">
        <ele>169.19999694824</ele>
        <time>2019-11-14T11:26:06.000Z</time>
      </trkpt>
      <trkpt lat="47.27921" lon="-2.37099">
        <ele>169.19999694824</ele>
        <time>2019-11-14T11:26:09.000Z</time>
      </trkpt>
      <trkpt lat="47.27915" lon="-2.37103">
        <ele>169.19999694824</ele>
        <time>2019-11-14T11:26:10.000Z</time>
      </trkpt>
      <trkpt lat="47.27888" lon="-2.37125">
        <ele>169.60000610352</ele>
        <time>2019-11-14T11:26:15.000Z</time>
      </trkpt>
      <trkpt lat="47.27883" lon="-2.37131">
        <ele>170</ele>
        <time>2019-11-14T11:26:16.000Z</time>
      </trkpt>
      <trkpt lat="47.27878" lon="-2.37135">
        <ele>170.60000610352</ele>
        <time>2019-11-14T11:26:17.000Z</time>
      </trkpt>
      <trkpt lat="47.27874" lon="-2.3714">
        <ele>171</ele>
        <time>2019-11-14T11:26:18.000Z</time>
      </trkpt>
      <trkpt lat="47.2787" lon="-2.37145">
        <ele>171.39999389648</ele>
        <time>2019-11-14T11:26:19.000Z</time>
      </trkpt>
      <trkpt lat="47.27855" lon="-2.37159">
        <ele>171.39999389648</ele>
        <time>2019-11-14T11:26:22.000Z</time>
      </trkpt>
      <trkpt lat="47.27846" lon="-2.37169">
        <ele>171.39999389648</ele>
        <time>2019-11-14T11:26:24.000Z</time>
      </trkpt>
      <trkpt lat="47.27836" lon="-2.37183">
        <ele>171.39999389648</ele>
        <time>2019-11-14T11:26:27.000Z</time>
      </trkpt>
      <trkpt lat="47.27831" lon="-2.37195">
        <ele>171.39999389648</ele>
        <time>2019-11-14T11:26:29.000Z</time>
      </trkpt>
      <trkpt lat="47.27828" lon="-2.37199">
        <ele>171.39999389648</ele>
        <time>2019-11-14T11:26:30.000Z</time>
      </trkpt>
      <trkpt lat="47.2782" lon="-2.37194">
        <ele>171.39999389648</ele>
        <time>2019-11-14T11:26:32.000Z</time>
      </trkpt>
      <trkpt lat="47.27816" lon="-2.37182">
        <ele>171.39999389648</ele>
        <time>2019-11-14T11:26:34.000Z</time>
      </trkpt>
      <trkpt lat="47.27815" lon="-2.37175">
        <ele>171.39999389648</ele>
        <time>2019-11-14T11:26:35.000Z</time>
      </trkpt>
      <trkpt lat="47.27803" lon="-2.37138">
        <ele>171.39999389648</ele>
        <time>2019-11-14T11:26:40.000Z</time>
      </trkpt>
      <trkpt lat="47.27786" lon="-2.37073">
        <ele>171.39999389648</ele>
        <time>2019-11-14T11:26:48.000Z</time>
      </trkpt>
      <trkpt lat="47.27769" lon="-2.37008">
        <ele>171.39999389648</ele>
        <time>2019-11-14T11:26:56.000Z</time>
      </trkpt>
      <trkpt lat="47.2775" lon="-2.36943">
        <ele>171.39999389648</ele>
        <time>2019-11-14T11:27:04.000Z</time>
      </trkpt>
      <trkpt lat="47.27747" lon="-2.36936">
        <ele>171.39999389648</ele>
        <time>2019-11-14T11:27:05.000Z</time>
      </trkpt>
      <trkpt lat="47.27733" lon="-2.36889">
        <ele>171.39999389648</ele>
        <time>2019-11-14T11:27:11.000Z</time>
      </trkpt>
      <trkpt lat="47.27717" lon="-2.36832">
        <ele>171.39999389648</ele>
        <time>2019-11-14T11:27:18.000Z</time>
      </trkpt>
      <trkpt lat="47.27697" lon="-2.36769">
        <ele>171.39999389648</ele>
        <time>2019-11-14T11:27:26.000Z</time>
      </trkpt>
      <trkpt lat="47.27676" lon="-2.36705">
        <ele>171.39999389648</ele>
        <time>2019-11-14T11:27:34.000Z</time>
      </trkpt>
      <trkpt lat="47.27654" lon="-2.36644">
        <ele>171.39999389648</ele>
        <time>2019-11-14T11:27:42.000Z</time>
      </trkpt>
      <trkpt lat="47.27635" lon="-2.36588">
        <ele>171.39999389648</ele>
        <time>2019-11-14T11:27:49.000Z</time>
      </trkpt>
      <trkpt lat="47.27613" lon="-2.36525">
        <ele>171.39999389648</ele>
        <time>2019-11-14T11:27:57.000Z</time>
      </trkpt>
      <trkpt lat="47.27591" lon="-2.36465">
        <ele>171.39999389648</ele>
        <time>2019-11-14T11:28:05.000Z</time>
      </trkpt>
      <trkpt lat="47.27574" lon="-2.3642">
        <ele>171.39999389648</ele>
        <time>2019-11-14T11:28:11.000Z</time>
      </trkpt>
      <trkpt lat="47.27553" lon="-2.36368">
        <ele>171.39999389648</ele>
        <time>2019-11-14T11:28:18.000Z</time>
      </trkpt>
      <trkpt lat="47.27535" lon="-2.36316">
        <ele>171.39999389648</ele>
        <time>2019-11-14T11:28:25.000Z</time>
      </trkpt>
      <trkpt lat="47.27516" lon="-2.36265">
        <ele>171.39999389648</ele>
        <time>2019-11-14T11:28:32.000Z</time>
      </trkpt>
      <trkpt lat="47.27497" lon="-2.36215">
        <ele>171.39999389648</ele>
        <time>2019-11-14T11:28:39.000Z</time>
      </trkpt>
      <trkpt lat="47.27479" lon="-2.36164">
        <ele>171.39999389648</ele>
        <time>2019-11-14T11:28:46.000Z</time>
      </trkpt>
      <trkpt lat="47.27466" lon="-2.36128">
        <ele>171.39999389648</ele>
        <time>2019-11-14T11:28:51.000Z</time>
      </trkpt>
      <trkpt lat="47.27462" lon="-2.36113">
        <ele>171.39999389648</ele>
        <time>2019-11-14T11:28:53.000Z</time>
      </trkpt>
      <trkpt lat="47.27459" lon="-2.36107">
        <ele>171.39999389648</ele>
        <time>2019-11-14T11:28:54.000Z</time>
      </trkpt>
      <trkpt lat="47.27446" lon="-2.3608">
        <ele>171.39999389648</ele>
        <time>2019-11-14T11:28:58.000Z</time>
      </trkpt>
      <trkpt lat="47.27439" lon="-2.36057">
        <ele>171.39999389648</ele>
        <time>2019-11-14T11:29:01.000Z</time>
      </trkpt>
      <trkpt lat="47.27433" lon="-2.36043">
        <ele>171.39999389648</ele>
        <time>2019-11-14T11:29:03.000Z</time>
      </trkpt>
      <trkpt lat="47.27411" lon="-2.35992">
        <ele>171.39999389648</ele>
        <time>2019-11-14T11:29:10.000Z</time>
      </trkpt>
      <trkpt lat="47.2739" lon="-2.35941">
        <ele>171.39999389648</ele>
        <time>2019-11-14T11:29:17.000Z</time>
      </trkpt>
      <trkpt lat="47.27369" lon="-2.35889">
        <ele>171.39999389648</ele>
        <time>2019-11-14T11:29:24.000Z</time>
      </trkpt>
      <trkpt lat="47.27342" lon="-2.35821">
        <ele>171.39999389648</ele>
        <time>2019-11-14T11:29:33.000Z</time>
      </trkpt>
      <trkpt lat="47.2732" lon="-2.35758">
        <ele>171.39999389648</ele>
        <time>2019-11-14T11:29:41.000Z</time>
      </trkpt>
      <trkpt lat="47.27307" lon="-2.35731">
        <ele>171.39999389648</ele>
        <time>2019-11-14T11:29:45.000Z</time>
      </trkpt>
      <trkpt lat="47.27304" lon="-2.35723">
        <ele>171</ele>
        <time>2019-11-14T11:29:46.000Z</time>
      </trkpt>
      <trkpt lat="47.27301" lon="-2.35715">
        <ele>170.60000610352</ele>
        <time>2019-11-14T11:29:47.000Z</time>
      </trkpt>
      <trkpt lat="47.27299" lon="-2.35708">
        <ele>170.19999694824</ele>
        <time>2019-11-14T11:29:48.000Z</time>
      </trkpt>
      <trkpt lat="47.27295" lon="-2.357">
        <ele>169.80000305176</ele>
        <time>2019-11-14T11:29:49.000Z</time>
      </trkpt>
      <trkpt lat="47.27292" lon="-2.35694">
        <ele>169.39999389648</ele>
        <time>2019-11-14T11:29:50.000Z</time>
      </trkpt>
      <trkpt lat="47.27288" lon="-2.35687">
        <ele>169.39999389648</ele>
        <time>2019-11-14T11:29:51.000Z</time>
      </trkpt>
      <trkpt lat="47.27285" lon="-2.35681">
        <ele>169.39999389648</ele>
        <time>2019-11-14T11:29:52.000Z</time>
      </trkpt>
      <trkpt lat="47.27268" lon="-2.35646">
        <ele>169.39999389648</ele>
        <time>2019-11-14T11:29:57.000Z</time>
      </trkpt>
      <trkpt lat="47.27243" lon="-2.35592">
        <ele>169.39999389648</ele>
        <time>2019-11-14T11:30:05.000Z</time>
      </trkpt>
      <trkpt lat="47.27217" lon="-2.35533">
        <ele>169.39999389648</ele>
        <time>2019-11-14T11:30:14.000Z</time>
      </trkpt>
      <trkpt lat="47.27196" lon="-2.35486">
        <ele>169.39999389648</ele>
        <time>2019-11-14T11:30:21.000Z</time>
      </trkpt>
      <trkpt lat="47.27161" lon="-2.3542">
        <ele>169.39999389648</ele>
        <time>2019-11-14T11:30:31.000Z</time>
      </trkpt>
      <trkpt lat="47.27132" lon="-2.35367">
        <ele>169.39999389648</ele>
        <time>2019-11-14T11:30:39.000Z</time>
      </trkpt>
      <trkpt lat="47.27109" lon="-2.3533">
        <ele>169.39999389648</ele>
        <time>2019-11-14T11:30:45.000Z</time>
      </trkpt>
      <trkpt lat="47.27086" lon="-2.35293">
        <ele>169.39999389648</ele>
        <time>2019-11-14T11:30:51.000Z</time>
      </trkpt>
      <trkpt lat="47.27055" lon="-2.35244">
        <ele>169.39999389648</ele>
        <time>2019-11-14T11:30:59.000Z</time>
      </trkpt>
      <trkpt lat="47.27032" lon="-2.35206">
        <ele>169.39999389648</ele>
        <time>2019-11-14T11:31:05.000Z</time>
      </trkpt>
      <trkpt lat="47.27008" lon="-2.35169">
        <ele>169.39999389648</ele>
        <time>2019-11-14T11:31:11.000Z</time>
      </trkpt>
      <trkpt lat="47.26974" lon="-2.35118">
        <ele>169.39999389648</ele>
        <time>2019-11-14T11:31:19.000Z</time>
      </trkpt>
      <trkpt lat="47.26929" lon="-2.35053">
        <ele>169.39999389648</ele>
        <time>2019-11-14T11:31:30.000Z</time>
      </trkpt>
      <trkpt lat="47.26902" lon="-2.3501">
        <ele>169.39999389648</ele>
        <time>2019-11-14T11:31:37.000Z</time>
      </trkpt>
      <trkpt lat="47.26879" lon="-2.34973">
        <ele>169.39999389648</ele>
        <time>2019-11-14T11:31:43.000Z</time>
      </trkpt>
      <trkpt lat="47.26856" lon="-2.34936">
        <ele>169.39999389648</ele>
        <time>2019-11-14T11:31:49.000Z</time>
      </trkpt>
      <trkpt lat="47.26828" lon="-2.34895">
        <ele>169.39999389648</ele>
        <time>2019-11-14T11:31:56.000Z</time>
      </trkpt>
      <trkpt lat="47.2681" lon="-2.34874">
        <ele>169.39999389648</ele>
        <time>2019-11-14T11:32:00.000Z</time>
      </trkpt>
      <trkpt lat="47.26802" lon="-2.34861">
        <ele>169.39999389648</ele>
        <time>2019-11-14T11:32:02.000Z</time>
      </trkpt>
      <trkpt lat="47.2677" lon="-2.34814">
        <ele>169.39999389648</ele>
        <time>2019-11-14T11:32:10.000Z</time>
      </trkpt>
      <trkpt lat="47.26745" lon="-2.34782">
        <ele>169.39999389648</ele>
        <time>2019-11-14T11:32:16.000Z</time>
      </trkpt>
      <trkpt lat="47.26714" lon="-2.34745">
        <ele>169.39999389648</ele>
        <time>2019-11-14T11:32:23.000Z</time>
      </trkpt>
      <trkpt lat="47.2668" lon="-2.34702">
        <ele>169.39999389648</ele>
        <time>2019-11-14T11:32:31.000Z</time>
      </trkpt>
      <trkpt lat="47.26649" lon="-2.34666">
        <ele>169.39999389648</ele>
        <time>2019-11-14T11:32:38.000Z</time>
      </trkpt>
      <trkpt lat="47.26624" lon="-2.34635">
        <ele>169.39999389648</ele>
        <time>2019-11-14T11:32:44.000Z</time>
      </trkpt>
      <trkpt lat="47.26604" lon="-2.34609">
        <ele>169.39999389648</ele>
        <time>2019-11-14T11:32:49.000Z</time>
      </trkpt>
      <trkpt lat="47.26575" lon="-2.34574">
        <ele>169.39999389648</ele>
        <time>2019-11-14T11:32:56.000Z</time>
      </trkpt>
      <trkpt lat="47.26539" lon="-2.34538">
        <ele>169.39999389648</ele>
        <time>2019-11-14T11:33:04.000Z</time>
      </trkpt>
      <trkpt lat="47.2651" lon="-2.34514">
        <ele>169.39999389648</ele>
        <time>2019-11-14T11:33:10.000Z</time>
      </trkpt>
      <trkpt lat="47.26475" lon="-2.3449">
        <ele>169.39999389648</ele>
        <time>2019-11-14T11:33:17.000Z</time>
      </trkpt>
      <trkpt lat="47.26461" lon="-2.34479">
        <ele>169.39999389648</ele>
        <time>2019-11-14T11:33:20.000Z</time>
      </trkpt>
      <trkpt lat="47.26446" lon="-2.34469">
        <ele>169.39999389648</ele>
        <time>2019-11-14T11:33:23.000Z</time>
      </trkpt>
      <trkpt lat="47.26415" lon="-2.34447">
        <ele>169.39999389648</ele>
        <time>2019-11-14T11:33:29.000Z</time>
      </trkpt>
      <trkpt lat="47.26382" lon="-2.34418">
        <ele>169.39999389648</ele>
        <time>2019-11-14T11:33:36.000Z</time>
      </trkpt>
      <trkpt lat="47.26369" lon="-2.34403">
        <ele>169.39999389648</ele>
        <time>2019-11-14T11:33:39.000Z</time>
      </trkpt>
      <trkpt lat="47.26352" lon="-2.34386">
        <ele>169.39999389648</ele>
        <time>2019-11-14T11:33:43.000Z</time>
      </trkpt>
      <trkpt lat="47.26347" lon="-2.34383">
        <ele>169.39999389648</ele>
        <time>2019-11-14T11:33:44.000Z</time>
      </trkpt>
      <trkpt lat="47.2633" lon="-2.34379">
        <ele>169.39999389648</ele>
        <time>2019-11-14T11:33:47.000Z</time>
      </trkpt>
      <trkpt lat="47.26317" lon="-2.34367">
        <ele>169.39999389648</ele>
        <time>2019-11-14T11:33:50.000Z</time>
      </trkpt>
      <trkpt lat="47.26314" lon="-2.3436">
        <ele>169.39999389648</ele>
        <time>2019-11-14T11:33:51.000Z</time>
      </trkpt>
      <trkpt lat="47.2631" lon="-2.34354">
        <ele>169.39999389648</ele>
        <time>2019-11-14T11:33:52.000Z</time>
      </trkpt>
      <trkpt lat="47.26301" lon="-2.34344">
        <ele>169.39999389648</ele>
        <time>2019-11-14T11:33:54.000Z</time>
      </trkpt>
      <trkpt lat="47.26266" lon="-2.34307">
        <ele>169.39999389648</ele>
        <time>2019-11-14T11:34:02.000Z</time>
      </trkpt>
      <trkpt lat="47.26225" lon="-2.34264">
        <ele>169.39999389648</ele>
        <time>2019-11-14T11:34:11.000Z</time>
      </trkpt>
      <trkpt lat="47.26188" lon="-2.34225">
        <ele>169.39999389648</ele>
        <time>2019-11-14T11:34:19.000Z</time>
      </trkpt>
      <trkpt lat="47.2616" lon="-2.34199">
        <ele>169.39999389648</ele>
        <time>2019-11-14T11:34:25.000Z</time>
      </trkpt>
      <trkpt lat="47.26146" lon="-2.34187">
        <ele>169.39999389648</ele>
        <time>2019-11-14T11:34:28.000Z</time>
      </trkpt>
      <trkpt lat="47.26136" lon="-2.34182">
        <ele>169.39999389648</ele>
        <time>2019-11-14T11:34:30.000Z</time>
      </trkpt>
      <trkpt lat="47.26131" lon="-2.34179">
        <ele>169.39999389648</ele>
        <time>2019-11-14T11:34:31.000Z</time>
      </trkpt>
      <trkpt lat="47.26119" lon="-2.34165">
        <ele>169.39999389648</ele>
        <time>2019-11-14T11:34:34.000Z</time>
      </trkpt>
      <trkpt lat="47.26114" lon="-2.34161">
        <ele>168.80000305176</ele>
        <time>2019-11-14T11:34:35.000Z</time>
      </trkpt>
      <trkpt lat="47.26109" lon="-2.34158">
        <ele>168.39999389648</ele>
        <time>2019-11-14T11:34:36.000Z</time>
      </trkpt>
      <trkpt lat="47.26103" lon="-2.34156">
        <ele>168</ele>
        <time>2019-11-14T11:34:37.000Z</time>
      </trkpt>
      <trkpt lat="47.26098" lon="-2.34153">
        <ele>167.60000610352</ele>
        <time>2019-11-14T11:34:38.000Z</time>
      </trkpt>
      <trkpt lat="47.26093" lon="-2.3415">
        <ele>167.19999694824</ele>
        <time>2019-11-14T11:34:39.000Z</time>
      </trkpt>
      <trkpt lat="47.2605" lon="-2.34127">
        <ele>167.19999694824</ele>
        <time>2019-11-14T11:34:47.000Z</time>
      </trkpt>
      <trkpt lat="47.26008" lon="-2.34106">
        <ele>167.19999694824</ele>
        <time>2019-11-14T11:34:55.000Z</time>
      </trkpt>
      <trkpt lat="47.25971" lon="-2.34088">
        <ele>167.19999694824</ele>
        <time>2019-11-14T11:35:02.000Z</time>
      </trkpt>
      <trkpt lat="47.2594" lon="-2.34074">
        <ele>167.19999694824</ele>
        <time>2019-11-14T11:35:08.000Z</time>
      </trkpt>
      <trkpt lat="47.25934" lon="-2.34072">
        <ele>167.19999694824</ele>
        <time>2019-11-14T11:35:09.000Z</time>
      </trkpt>
      <trkpt lat="47.25912" lon="-2.34067">
        <ele>167.19999694824</ele>
        <time>2019-11-14T11:35:13.000Z</time>
      </trkpt>
      <trkpt lat="47.25901" lon="-2.34049">
        <ele>167.19999694824</ele>
        <time>2019-11-14T11:35:16.000Z</time>
      </trkpt>
      <trkpt lat="47.259" lon="-2.34025">
        <ele>167.19999694824</ele>
        <time>2019-11-14T11:35:19.000Z</time>
      </trkpt>
      <trkpt lat="47.25906" lon="-2.34003">
        <ele>167.19999694824</ele>
        <time>2019-11-14T11:35:22.000Z</time>
      </trkpt>
      <trkpt lat="47.2591" lon="-2.33988">
        <ele>167.19999694824</ele>
        <time>2019-11-14T11:35:24.000Z</time>
      </trkpt>
      <trkpt lat="47.25919" lon="-2.33959">
        <ele>167.19999694824</ele>
        <time>2019-11-14T11:35:28.000Z</time>
      </trkpt>
      <trkpt lat="47.25929" lon="-2.3394">
        <ele>167.19999694824</ele>
        <time>2019-11-14T11:35:31.000Z</time>
      </trkpt>
      <trkpt lat="47.25933" lon="-2.33934">
        <ele>166.80000305176</ele>
        <time>2019-11-14T11:35:32.000Z</time>
      </trkpt>
      <trkpt lat="47.25936" lon="-2.33928">
        <ele>166.39999389648</ele>
        <time>2019-11-14T11:35:33.000Z</time>
      </trkpt>
      <trkpt lat="47.2594" lon="-2.33923">
        <ele>165.80000305176</ele>
        <time>2019-11-14T11:35:34.000Z</time>
      </trkpt>
      <trkpt lat="47.25942" lon="-2.33916">
        <ele>165.39999389648</ele>
        <time>2019-11-14T11:35:35.000Z</time>
      </trkpt>
      <trkpt lat="47.25945" lon="-2.33908">
        <ele>165</ele>
        <time>2019-11-14T11:35:36.000Z</time>
      </trkpt>
      <trkpt lat="47.25947" lon="-2.33901">
        <ele>165</ele>
        <time>2019-11-14T11:35:37.000Z</time>
      </trkpt>
      <trkpt lat="47.25964" lon="-2.33849">
        <ele>165</ele>
        <time>2019-11-14T11:35:44.000Z</time>
      </trkpt>
      <trkpt lat="47.25984" lon="-2.33788">
        <ele>165</ele>
        <time>2019-11-14T11:35:52.000Z</time>
      </trkpt>
      <trkpt lat="47.25988" lon="-2.33773">
        <ele>165</ele>
        <time>2019-11-14T11:35:54.000Z</time>
      </trkpt>
      <trkpt lat="47.25998" lon="-2.33743">
        <ele>165</ele>
        <time>2019-11-14T11:35:58.000Z</time>
      </trkpt>
      <trkpt lat="47.26015" lon="-2.3369">
        <ele>165</ele>
        <time>2019-11-14T11:36:05.000Z</time>
      </trkpt>
      <trkpt lat="47.26017" lon="-2.33682">
        <ele>165</ele>
        <time>2019-11-14T11:36:06.000Z</time>
      </trkpt>
      <trkpt lat="47.26022" lon="-2.3365">
        <ele>165</ele>
        <time>2019-11-14T11:36:10.000Z</time>
      </trkpt>
      <trkpt lat="47.26019" lon="-2.33619">
        <ele>165</ele>
        <time>2019-11-14T11:36:14.000Z</time>
      </trkpt>
      <trkpt lat="47.26017" lon="-2.33612">
        <ele>165</ele>
        <time>2019-11-14T11:36:15.000Z</time>
      </trkpt>
      <trkpt lat="47.26" lon="-2.33562">
        <ele>165</ele>
        <time>2019-11-14T11:36:22.000Z</time>
      </trkpt>
      <trkpt lat="47.25981" lon="-2.33523">
        <ele>165</ele>
        <time>2019-11-14T11:36:28.000Z</time>
      </trkpt>
      <trkpt lat="47.25975" lon="-2.33511">
        <ele>165</ele>
        <time>2019-11-14T11:36:30.000Z</time>
      </trkpt>
      <trkpt lat="47.25967" lon="-2.33501">
        <ele>165</ele>
        <time>2019-11-14T11:36:32.000Z</time>
      </trkpt>
      <trkpt lat="47.25957" lon="-2.33475">
        <ele>165</ele>
        <time>2019-11-14T11:36:36.000Z</time>
      </trkpt>
      <trkpt lat="47.25951" lon="-2.33462">
        <ele>165</ele>
        <time>2019-11-14T11:36:38.000Z</time>
      </trkpt>
      <trkpt lat="47.25941" lon="-2.33444">
        <ele>165</ele>
        <time>2019-11-14T11:36:41.000Z</time>
      </trkpt>
      <trkpt lat="47.25932" lon="-2.33423">
        <ele>165</ele>
        <time>2019-11-14T11:36:44.000Z</time>
      </trkpt>
      <trkpt lat="47.25925" lon="-2.33401">
        <ele>165</ele>
        <time>2019-11-14T11:36:47.000Z</time>
      </trkpt>
      <trkpt lat="47.25912" lon="-2.33348">
        <ele>165</ele>
        <time>2019-11-14T11:36:54.000Z</time>
      </trkpt>
      <trkpt lat="47.25906" lon="-2.333">
        <ele>165</ele>
        <time>2019-11-14T11:37:00.000Z</time>
      </trkpt>
      <trkpt lat="47.25903" lon="-2.33217">
        <ele>165</ele>
        <time>2019-11-14T11:37:10.000Z</time>
      </trkpt>
      <trkpt lat="47.25903" lon="-2.33209">
        <ele>165</ele>
        <time>2019-11-14T11:37:11.000Z</time>
      </trkpt>
      <trkpt lat="47.25898" lon="-2.33153">
        <ele>165</ele>
        <time>2019-11-14T11:37:18.000Z</time>
      </trkpt>
      <trkpt lat="47.25889" lon="-2.33109">
        <ele>165</ele>
        <time>2019-11-14T11:37:24.000Z</time>
      </trkpt>
      <trkpt lat="47.25887" lon="-2.33102">
        <ele>165</ele>
        <time>2019-11-14T11:37:25.000Z</time>
      </trkpt>
      <trkpt lat="47.2587" lon="-2.33044">
        <ele>165</ele>
        <time>2019-11-14T11:37:34.000Z</time>
      </trkpt>
      <trkpt lat="47.25861" lon="-2.33013">
        <ele>165</ele>
        <time>2019-11-14T11:37:39.000Z</time>
      </trkpt>
      <trkpt lat="47.25856" lon="-2.33002">
        <ele>165</ele>
        <time>2019-11-14T11:37:41.000Z</time>
      </trkpt>
      <trkpt lat="47.2585" lon="-2.32991">
        <ele>165.39999389648</ele>
        <time>2019-11-14T11:37:43.000Z</time>
      </trkpt>
      <trkpt lat="47.25846" lon="-2.32986">
        <ele>166</ele>
        <time>2019-11-14T11:37:44.000Z</time>
      </trkpt>
      <trkpt lat="47.25843" lon="-2.3298">
        <ele>166.39999389648</ele>
        <time>2019-11-14T11:37:45.000Z</time>
      </trkpt>
      <trkpt lat="47.25839" lon="-2.32975">
        <ele>166.80000305176</ele>
        <time>2019-11-14T11:37:46.000Z</time>
      </trkpt>
      <trkpt lat="47.25836" lon="-2.3297">
        <ele>167.19999694824</ele>
        <time>2019-11-14T11:37:47.000Z</time>
      </trkpt>
      <trkpt lat="47.25832" lon="-2.32965">
        <ele>167.19999694824</ele>
        <time>2019-11-14T11:37:48.000Z</time>
      </trkpt>
      <trkpt lat="47.25809" lon="-2.32937">
        <ele>167.19999694824</ele>
        <time>2019-11-14T11:37:54.000Z</time>
      </trkpt>
      <trkpt lat="47.25798" lon="-2.32924">
        <ele>167.19999694824</ele>
        <time>2019-11-14T11:37:57.000Z</time>
      </trkpt>
      <trkpt lat="47.25788" lon="-2.3291">
        <ele>167.19999694824</ele>
        <time>2019-11-14T11:38:00.000Z</time>
      </trkpt>
      <trkpt lat="47.25765" lon="-2.32876">
        <ele>167.19999694824</ele>
        <time>2019-11-14T11:38:07.000Z</time>
      </trkpt>
      <trkpt lat="47.25761" lon="-2.32871">
        <ele>167.60000610352</ele>
        <time>2019-11-14T11:38:08.000Z</time>
      </trkpt>
      <trkpt lat="47.25758" lon="-2.32865">
        <ele>168</ele>
        <time>2019-11-14T11:38:09.000Z</time>
      </trkpt>
      <trkpt lat="47.25755" lon="-2.32858">
        <ele>168.39999389648</ele>
        <time>2019-11-14T11:38:10.000Z</time>
      </trkpt>
      <trkpt lat="47.25752" lon="-2.32852">
        <ele>168.80000305176</ele>
        <time>2019-11-14T11:38:11.000Z</time>
      </trkpt>
      <trkpt lat="47.2575" lon="-2.32846">
        <ele>169.39999389648</ele>
        <time>2019-11-14T11:38:12.000Z</time>
      </trkpt>
      <trkpt lat="47.25745" lon="-2.32835">
        <ele>169.39999389648</ele>
        <time>2019-11-14T11:38:14.000Z</time>
      </trkpt>
      <trkpt lat="47.25739" lon="-2.32816">
        <ele>169.39999389648</ele>
        <time>2019-11-14T11:38:17.000Z</time>
      </trkpt>
      <trkpt lat="47.25736" lon="-2.32802">
        <ele>169.39999389648</ele>
        <time>2019-11-14T11:38:19.000Z</time>
      </trkpt>
      <trkpt lat="47.25733" lon="-2.32782">
        <ele>169.39999389648</ele>
        <time>2019-11-14T11:38:22.000Z</time>
      </trkpt>
      <trkpt lat="47.25725" lon="-2.32733">
        <ele>169.39999389648</ele>
        <time>2019-11-14T11:38:29.000Z</time>
      </trkpt>
      <trkpt lat="47.25718" lon="-2.32666">
        <ele>169.39999389648</ele>
        <time>2019-11-14T11:38:37.000Z</time>
      </trkpt>
      <trkpt lat="47.25708" lon="-2.32606">
        <ele>169.39999389648</ele>
        <time>2019-11-14T11:38:44.000Z</time>
      </trkpt>
      <trkpt lat="47.25689" lon="-2.32531">
        <ele>169.39999389648</ele>
        <time>2019-11-14T11:38:53.000Z</time>
      </trkpt>
      <trkpt lat="47.25667" lon="-2.32462">
        <ele>168.80000305176</ele>
        <time>2019-11-14T11:39:01.000Z</time>
      </trkpt>
      <trkpt lat="47.25664" lon="-2.32452">
        <ele>168.39999389648</ele>
        <time>2019-11-14T11:39:02.000Z</time>
      </trkpt>
      <trkpt lat="47.25662" lon="-2.32443">
        <ele>168</ele>
        <time>2019-11-14T11:39:03.000Z</time>
      </trkpt>
      <trkpt lat="47.2566" lon="-2.32434">
        <ele>167.60000610352</ele>
        <time>2019-11-14T11:39:04.000Z</time>
      </trkpt>
      <trkpt lat="47.25659" lon="-2.32425">
        <ele>167.19999694824</ele>
        <time>2019-11-14T11:39:05.000Z</time>
      </trkpt>
      <trkpt lat="47.25655" lon="-2.32407">
        <ele>167.19999694824</ele>
        <time>2019-11-14T11:39:07.000Z</time>
      </trkpt>
      <trkpt lat="47.25654" lon="-2.32398">
        <ele>167.19999694824</ele>
        <time>2019-11-14T11:39:08.000Z</time>
      </trkpt>
      <trkpt lat="47.25654" lon="-2.32381">
        <ele>166.80000305176</ele>
        <time>2019-11-14T11:39:10.000Z</time>
      </trkpt>
      <trkpt lat="47.25654" lon="-2.32372">
        <ele>166.39999389648</ele>
        <time>2019-11-14T11:39:11.000Z</time>
      </trkpt>
      <trkpt lat="47.25654" lon="-2.32364">
        <ele>166</ele>
        <time>2019-11-14T11:39:12.000Z</time>
      </trkpt>
      <trkpt lat="47.25653" lon="-2.32356">
        <ele>165.60000610352</ele>
        <time>2019-11-14T11:39:13.000Z</time>
      </trkpt>
      <trkpt lat="47.25653" lon="-2.32348">
        <ele>165.19999694824</ele>
        <time>2019-11-14T11:39:14.000Z</time>
      </trkpt>
      <trkpt lat="47.25652" lon="-2.32326">
        <ele>165.19999694824</ele>
        <time>2019-11-14T11:39:17.000Z</time>
      </trkpt>
      <trkpt lat="47.25651" lon="-2.32304">
        <ele>165.80000305176</ele>
        <time>2019-11-14T11:39:20.000Z</time>
      </trkpt>
      <trkpt lat="47.2565" lon="-2.32298">
        <ele>166.19999694824</ele>
        <time>2019-11-14T11:39:21.000Z</time>
      </trkpt>
      <trkpt lat="47.2565" lon="-2.32291">
        <ele>166.60000610352</ele>
        <time>2019-11-14T11:39:22.000Z</time>
      </trkpt>
      <trkpt lat="47.2565" lon="-2.32285">
        <ele>167.19999694824</ele>
        <time>2019-11-14T11:39:23.000Z</time>
      </trkpt>
      <trkpt lat="47.25649" lon="-2.32279">
        <ele>167.60000610352</ele>
        <time>2019-11-14T11:39:24.000Z</time>
      </trkpt>
      <trkpt lat="47.25649" lon="-2.32255">
        <ele>168</ele>
        <time>2019-11-14T11:39:28.000Z</time>
      </trkpt>
      <trkpt lat="47.25649" lon="-2.32249">
        <ele>168.39999389648</ele>
        <time>2019-11-14T11:39:29.000Z</time>
      </trkpt>
      <trkpt lat="47.25648" lon="-2.32243">
        <ele>169</ele>
        <time>2019-11-14T11:39:30.000Z</time>
      </trkpt>
      <trkpt lat="47.25647" lon="-2.32237">
        <ele>169.39999389648</ele>
        <time>2019-11-14T11:39:31.000Z</time>
      </trkpt>
      <trkpt lat="47.25647" lon="-2.32231">
        <ele>169.80000305176</ele>
        <time>2019-11-14T11:39:32.000Z</time>
      </trkpt>
      <trkpt lat="47.25646" lon="-2.3222">
        <ele>170.19999694824</ele>
        <time>2019-11-14T11:39:34.000Z</time>
      </trkpt>
      <trkpt lat="47.25645" lon="-2.32214">
        <ele>170.60000610352</ele>
        <time>2019-11-14T11:39:35.000Z</time>
      </trkpt>
      <trkpt lat="47.25645" lon="-2.32209">
        <ele>171</ele>
        <time>2019-11-14T11:39:36.000Z</time>
      </trkpt>
      <trkpt lat="47.25644" lon="-2.32203">
        <ele>171.39999389648</ele>
        <time>2019-11-14T11:39:37.000Z</time>
      </trkpt>
      <trkpt lat="47.25643" lon="-2.32198">
        <ele>171.80000305176</ele>
        <time>2019-11-14T11:39:38.000Z</time>
      </trkpt>
      <trkpt lat="47.25642" lon="-2.32192">
        <ele>171.80000305176</ele>
        <time>2019-11-14T11:39:39.000Z</time>
      </trkpt>
      <trkpt lat="47.25631" lon="-2.32144">
        <ele>171.80000305176</ele>
        <time>2019-11-14T11:39:47.000Z</time>
      </trkpt>
      <trkpt lat="47.25621" lon="-2.32103">
        <ele>171.80000305176</ele>
        <time>2019-11-14T11:39:54.000Z</time>
      </trkpt>
      <trkpt lat="47.25613" lon="-2.32083">
        <ele>172.19999694824</ele>
        <time>2019-11-14T11:39:58.000Z</time>
      </trkpt>
      <trkpt lat="47.25611" lon="-2.32077">
        <ele>172.60000610352</ele>
        <time>2019-11-14T11:39:59.000Z</time>
      </trkpt>
      <trkpt lat="47.25609" lon="-2.32072">
        <ele>173</ele>
        <time>2019-11-14T11:40:00.000Z</time>
      </trkpt>
      <trkpt lat="47.25606" lon="-2.32068">
        <ele>173.39999389648</ele>
        <time>2019-11-14T11:40:01.000Z</time>
      </trkpt>
      <trkpt lat="47.25604" lon="-2.32064">
        <ele>174</ele>
        <time>2019-11-14T11:40:02.000Z</time>
      </trkpt>
      <trkpt lat="47.25598" lon="-2.32059">
        <ele>174</ele>
        <time>2019-11-14T11:40:04.000Z</time>
      </trkpt>
      <trkpt lat="47.25584" lon="-2.32057">
        <ele>174</ele>
        <time>2019-11-14T11:40:09.000Z</time>
      </trkpt>
      <trkpt lat="47.25583" lon="-2.32056">
        <ele>174</ele>
        <time>2019-11-14T11:40:10.000Z</time>
      </trkpt>
      <trkpt lat="47.25581" lon="-2.32054">
        <ele>174</ele>
        <time>2019-11-14T11:40:13.000Z</time>
      </trkpt>
      <trkpt lat="47.2558" lon="-2.32053">
        <ele>174</ele>
        <time>2019-11-14T11:40:15.000Z</time>
      </trkpt>
      <trkpt lat="47.25578" lon="-2.32055">
        <ele>174</ele>
        <time>2019-11-14T11:51:24.000Z</time>
      </trkpt>
      <trkpt lat="47.25578" lon="-2.32055">
        <ele>174</ele>
        <time>2019-11-14T11:51:25.000Z</time>
      </trkpt>
      <trkpt lat="47.25585" lon="-2.3206">
        <ele>174</ele>
        <time>2019-11-14T11:51:30.000Z</time>
      </trkpt>
      <trkpt lat="47.25596" lon="-2.32068">
        <ele>174</ele>
        <time>2019-11-14T11:51:36.000Z</time>
      </trkpt>
      <trkpt lat="47.25611" lon="-2.32079">
        <ele>174</ele>
        <time>2019-11-14T11:51:41.000Z</time>
      </trkpt>
      <trkpt lat="47.25614" lon="-2.32079">
        <ele>174</ele>
        <time>2019-11-14T11:51:42.000Z</time>
      </trkpt>
      <trkpt lat="47.25623" lon="-2.32073">
        <ele>174</ele>
        <time>2019-11-14T11:51:45.000Z</time>
      </trkpt>
      <trkpt lat="47.25628" lon="-2.32068">
        <ele>174</ele>
        <time>2019-11-14T11:51:47.000Z</time>
      </trkpt>
      <trkpt lat="47.25646" lon="-2.32053">
        <ele>174</ele>
        <time>2019-11-14T11:51:53.000Z</time>
      </trkpt>
      <trkpt lat="47.25664" lon="-2.3203">
        <ele>174</ele>
        <time>2019-11-14T11:52:00.000Z</time>
      </trkpt>
      <trkpt lat="47.25677" lon="-2.32016">
        <ele>174</ele>
        <time>2019-11-14T11:52:04.000Z</time>
      </trkpt>
      <trkpt lat="47.25681" lon="-2.32003">
        <ele>174</ele>
        <time>2019-11-14T11:52:07.000Z</time>
      </trkpt>
      <trkpt lat="47.25689" lon="-2.31993">
        <ele>174</ele>
        <time>2019-11-14T11:52:12.000Z</time>
      </trkpt>
      <trkpt lat="47.25689" lon="-2.31993">
        <ele>174</ele>
        <time>2019-11-14T11:52:13.000Z</time>
      </trkpt>
      <trkpt lat="47.2569" lon="-2.31992">
        <ele>174</ele>
        <time>2019-11-14T11:52:15.000Z</time>
      </trkpt>
      <trkpt lat="47.25692" lon="-2.31991">
        <ele>174</ele>
        <time>2019-11-14T11:52:16.000Z</time>
      </trkpt>
      <trkpt lat="47.257" lon="-2.31988">
        <ele>174</ele>
        <time>2019-11-14T11:52:18.000Z</time>
      </trkpt>
      <trkpt lat="47.2571" lon="-2.31985">
        <ele>174</ele>
        <time>2019-11-14T11:52:20.000Z</time>
      </trkpt>
      <trkpt lat="47.25721" lon="-2.31977">
        <ele>173.39999389648</ele>
        <time>2019-11-14T11:52:22.000Z</time>
      </trkpt>
      <trkpt lat="47.25727" lon="-2.31973">
        <ele>173</ele>
        <time>2019-11-14T11:52:23.000Z</time>
      </trkpt>
      <trkpt lat="47.25732" lon="-2.31969">
        <ele>172.60000610352</ele>
        <time>2019-11-14T11:52:24.000Z</time>
      </trkpt>
      <trkpt lat="47.25737" lon="-2.31966">
        <ele>172.19999694824</ele>
        <time>2019-11-14T11:52:25.000Z</time>
      </trkpt>
      <trkpt lat="47.25742" lon="-2.31961">
        <ele>171.80000305176</ele>
        <time>2019-11-14T11:52:26.000Z</time>
      </trkpt>
      <trkpt lat="47.25747" lon="-2.31958">
        <ele>171.80000305176</ele>
        <time>2019-11-14T11:52:27.000Z</time>
      </trkpt>
      <trkpt lat="47.25763" lon="-2.31947">
        <ele>171.39999389648</ele>
        <time>2019-11-14T11:52:30.000Z</time>
      </trkpt>
      <trkpt lat="47.25768" lon="-2.31943">
        <ele>171</ele>
        <time>2019-11-14T11:52:31.000Z</time>
      </trkpt>
      <trkpt lat="47.25773" lon="-2.31938">
        <ele>170.60000610352</ele>
        <time>2019-11-14T11:52:32.000Z</time>
      </trkpt>
      <trkpt lat="47.25777" lon="-2.31934">
        <ele>170</ele>
        <time>2019-11-14T11:52:33.000Z</time>
      </trkpt>
      <trkpt lat="47.25782" lon="-2.31929">
        <ele>169.60000610352</ele>
        <time>2019-11-14T11:52:34.000Z</time>
      </trkpt>
      <trkpt lat="47.25798" lon="-2.31915">
        <ele>169.60000610352</ele>
        <time>2019-11-14T11:52:37.000Z</time>
      </trkpt>
      <trkpt lat="47.25818" lon="-2.31897">
        <ele>169.19999694824</ele>
        <time>2019-11-14T11:52:41.000Z</time>
      </trkpt>
      <trkpt lat="47.25823" lon="-2.31893">
        <ele>168.80000305176</ele>
        <time>2019-11-14T11:52:42.000Z</time>
      </trkpt>
      <trkpt lat="47.25829" lon="-2.31889">
        <ele>168.19999694824</ele>
        <time>2019-11-14T11:52:43.000Z</time>
      </trkpt>
      <trkpt lat="47.25835" lon="-2.31885">
        <ele>167.39999389648</ele>
        <time>2019-11-14T11:52:44.000Z</time>
      </trkpt>
      <trkpt lat="47.25863" lon="-2.31859">
        <ele>167.39999389648</ele>
        <time>2019-11-14T11:52:49.000Z</time>
      </trkpt>
      <trkpt lat="47.25867" lon="-2.31852">
        <ele>167.39999389648</ele>
        <time>2019-11-14T11:52:50.000Z</time>
      </trkpt>
      <trkpt lat="47.25884" lon="-2.31822">
        <ele>167.39999389648</ele>
        <time>2019-11-14T11:52:54.000Z</time>
      </trkpt>
      <trkpt lat="47.25905" lon="-2.31768">
        <ele>167.39999389648</ele>
        <time>2019-11-14T11:53:01.000Z</time>
      </trkpt>
      <trkpt lat="47.25922" lon="-2.31733">
        <ele>167.39999389648</ele>
        <time>2019-11-14T11:53:06.000Z</time>
      </trkpt>
      <trkpt lat="47.2593" lon="-2.31721">
        <ele>167.39999389648</ele>
        <time>2019-11-14T11:53:08.000Z</time>
      </trkpt>
      <trkpt lat="47.25953" lon="-2.31689">
        <ele>167.39999389648</ele>
        <time>2019-11-14T11:53:14.000Z</time>
      </trkpt>
      <trkpt lat="47.25958" lon="-2.31685">
        <ele>167.39999389648</ele>
        <time>2019-11-14T11:53:15.000Z</time>
      </trkpt>
      <trkpt lat="47.25979" lon="-2.3167">
        <ele>167.39999389648</ele>
        <time>2019-11-14T11:53:19.000Z</time>
      </trkpt>
      <trkpt lat="47.26021" lon="-2.31645">
        <ele>167.39999389648</ele>
        <time>2019-11-14T11:53:26.000Z</time>
      </trkpt>
      <trkpt lat="47.26026" lon="-2.31639">
        <ele>167.39999389648</ele>
        <time>2019-11-14T11:53:27.000Z</time>
      </trkpt>
      <trkpt lat="47.26037" lon="-2.31627">
        <ele>167</ele>
        <time>2019-11-14T11:53:29.000Z</time>
      </trkpt>
      <trkpt lat="47.26043" lon="-2.31621">
        <ele>166.60000610352</ele>
        <time>2019-11-14T11:53:30.000Z</time>
      </trkpt>
      <trkpt lat="47.26048" lon="-2.31615">
        <ele>166</ele>
        <time>2019-11-14T11:53:31.000Z</time>
      </trkpt>
      <trkpt lat="47.26053" lon="-2.31608">
        <ele>165.60000610352</ele>
        <time>2019-11-14T11:53:32.000Z</time>
      </trkpt>
      <trkpt lat="47.26058" lon="-2.31602">
        <ele>165.19999694824</ele>
        <time>2019-11-14T11:53:33.000Z</time>
      </trkpt>
      <trkpt lat="47.26076" lon="-2.3158">
        <ele>165.19999694824</ele>
        <time>2019-11-14T11:53:37.000Z</time>
      </trkpt>
      <trkpt lat="47.26086" lon="-2.31584">
        <ele>165.19999694824</ele>
        <time>2019-11-14T11:53:39.000Z</time>
      </trkpt>
      <trkpt lat="47.26098" lon="-2.31601">
        <ele>165.19999694824</ele>
        <time>2019-11-14T11:53:42.000Z</time>
      </trkpt>
      <trkpt lat="47.26102" lon="-2.31607">
        <ele>165.19999694824</ele>
        <time>2019-11-14T11:53:43.000Z</time>
      </trkpt>
      <trkpt lat="47.26107" lon="-2.31611">
        <ele>165.19999694824</ele>
        <time>2019-11-14T11:53:44.000Z</time>
      </trkpt>
      <trkpt lat="47.26119" lon="-2.31613">
        <ele>165.19999694824</ele>
        <time>2019-11-14T11:53:46.000Z</time>
      </trkpt>
      <trkpt lat="47.26136" lon="-2.3161">
        <ele>165.19999694824</ele>
        <time>2019-11-14T11:53:49.000Z</time>
      </trkpt>
      <trkpt lat="47.26141" lon="-2.31609">
        <ele>165.19999694824</ele>
        <time>2019-11-14T11:53:50.000Z</time>
      </trkpt>
      <trkpt lat="47.26182" lon="-2.31596">
        <ele>165.19999694824</ele>
        <time>2019-11-14T11:53:57.000Z</time>
      </trkpt>
      <trkpt lat="47.26216" lon="-2.31591">
        <ele>165.19999694824</ele>
        <time>2019-11-14T11:54:03.000Z</time>
      </trkpt>
      <trkpt lat="47.26237" lon="-2.31603">
        <ele>165.19999694824</ele>
        <time>2019-11-14T11:54:07.000Z</time>
      </trkpt>
      <trkpt lat="47.26242" lon="-2.31608">
        <ele>165.19999694824</ele>
        <time>2019-11-14T11:54:08.000Z</time>
      </trkpt>
      <trkpt lat="47.2625" lon="-2.31618">
        <ele>165.19999694824</ele>
        <time>2019-11-14T11:54:10.000Z</time>
      </trkpt>
      <trkpt lat="47.26257" lon="-2.31629">
        <ele>165.19999694824</ele>
        <time>2019-11-14T11:54:12.000Z</time>
      </trkpt>
      <trkpt lat="47.26267" lon="-2.31658">
        <ele>165.19999694824</ele>
        <time>2019-11-14T11:54:16.000Z</time>
      </trkpt>
      <trkpt lat="47.2627" lon="-2.31664">
        <ele>165.19999694824</ele>
        <time>2019-11-14T11:54:17.000Z</time>
      </trkpt>
      <trkpt lat="47.26279" lon="-2.31679">
        <ele>165.19999694824</ele>
        <time>2019-11-14T11:54:20.000Z</time>
      </trkpt>
      <trkpt lat="47.26296" lon="-2.31707">
        <ele>165.19999694824</ele>
        <time>2019-11-14T11:54:25.000Z</time>
      </trkpt>
      <trkpt lat="47.2631" lon="-2.3171">
        <ele>165.19999694824</ele>
        <time>2019-11-14T11:54:28.000Z</time>
      </trkpt>
      <trkpt lat="47.26323" lon="-2.31697">
        <ele>165.19999694824</ele>
        <time>2019-11-14T11:54:32.000Z</time>
      </trkpt>
      <trkpt lat="47.26326" lon="-2.31695">
        <ele>165.19999694824</ele>
        <time>2019-11-14T11:54:33.000Z</time>
      </trkpt>
      <trkpt lat="47.26333" lon="-2.31682">
        <ele>165.19999694824</ele>
        <time>2019-11-14T11:54:36.000Z</time>
      </trkpt>
      <trkpt lat="47.26347" lon="-2.31676">
        <ele>165.19999694824</ele>
        <time>2019-11-14T11:54:40.000Z</time>
      </trkpt>
      <trkpt lat="47.26369" lon="-2.31669">
        <ele>165.19999694824</ele>
        <time>2019-11-14T11:54:46.000Z</time>
      </trkpt>
      <trkpt lat="47.26387" lon="-2.31659">
        <ele>165.19999694824</ele>
        <time>2019-11-14T11:54:51.000Z</time>
      </trkpt>
      <trkpt lat="47.2639" lon="-2.31656">
        <ele>165.60000610352</ele>
        <time>2019-11-14T11:54:52.000Z</time>
      </trkpt>
      <trkpt lat="47.26393" lon="-2.31655">
        <ele>166</ele>
        <time>2019-11-14T11:54:53.000Z</time>
      </trkpt>
      <trkpt lat="47.26395" lon="-2.31654">
        <ele>166.39999389648</ele>
        <time>2019-11-14T11:54:54.000Z</time>
      </trkpt>
      <trkpt lat="47.26398" lon="-2.31652">
        <ele>166.80000305176</ele>
        <time>2019-11-14T11:54:55.000Z</time>
      </trkpt>
      <trkpt lat="47.26401" lon="-2.3165">
        <ele>167.19999694824</ele>
        <time>2019-11-14T11:54:56.000Z</time>
      </trkpt>
      <trkpt lat="47.26406" lon="-2.31643">
        <ele>167.19999694824</ele>
        <time>2019-11-14T11:54:58.000Z</time>
      </trkpt>
      <trkpt lat="47.26407" lon="-2.31635">
        <ele>167.19999694824</ele>
        <time>2019-11-14T11:55:00.000Z</time>
      </trkpt>
      <trkpt lat="47.26408" lon="-2.31609">
        <ele>167.19999694824</ele>
        <time>2019-11-14T11:55:05.000Z</time>
      </trkpt>
      <trkpt lat="47.26409" lon="-2.31572">
        <ele>167.19999694824</ele>
        <time>2019-11-14T11:55:12.000Z</time>
      </trkpt>
      <trkpt lat="47.26411" lon="-2.31551">
        <ele>167.19999694824</ele>
        <time>2019-11-14T11:55:17.000Z</time>
      </trkpt>
      <trkpt lat="47.26413" lon="-2.3155">
        <ele>167.19999694824</ele>
        <time>2019-11-14T11:55:18.000Z</time>
      </trkpt>
      <trkpt lat="47.26417" lon="-2.31551">
        <ele>167.19999694824</ele>
        <time>2019-11-14T11:55:21.000Z</time>
      </trkpt>
      <trkpt lat="47.26417" lon="-2.31551">
        <ele>167.19999694824</ele>
        <time>2019-11-14T11:55:22.000Z</time>
      </trkpt>
    </trkseg>
  </trk>
</gpx>